<?xml version="1.0" encoding="UTF-8" standalone="no" ?>
<gpx xmlns="http://www.topografix.com/GPX/1/1" xmlns:xsi="http://www.w3.org/2001/XMLSchema-instance" xsi:schemaLocation="http://www.topografix.com/GPX/1/1 http://www.topografix.com/GPX/1/1/gpx.xsd" version="1.1" creator="VisuGPX - https://www.visugpx.com">
  <metadata>
    <name>Val de Saâne-26Km24</name>
    <desc><![CDATA[Boucle A-R au départ de l'Eglise du Val de Saâne]]></desc>
  </metadata>
  <trk>
    <name><![CDATA[Val de Saâne-26Km24_1]]></name>
    <trkseg>
      <trkpt lat="49.70587" lon="0.96631">
        <ele>84.199996948242</ele>
        <time>2016-08-11T09:39:02Z</time>
      </trkpt>
      <trkpt lat="49.70587" lon="0.96632">
        <ele>84.199996948242</ele>
        <time>2016-08-11T09:39:07Z</time>
      </trkpt>
      <trkpt lat="49.70588" lon="0.96632">
        <ele>84.199996948242</ele>
        <time>2016-08-11T09:39:12Z</time>
      </trkpt>
      <trkpt lat="49.70588" lon="0.96632">
        <ele>84.199996948242</ele>
        <time>2016-08-11T09:39:23Z</time>
      </trkpt>
      <trkpt lat="49.70588" lon="0.96632">
        <ele>84.199996948242</ele>
        <time>2016-08-11T09:39:27Z</time>
      </trkpt>
      <trkpt lat="49.70588" lon="0.96629">
        <ele>84.199996948242</ele>
        <time>2016-08-11T09:39:37Z</time>
      </trkpt>
      <trkpt lat="49.70588" lon="0.96629">
        <ele>84.199996948242</ele>
        <time>2016-08-11T09:39:42Z</time>
      </trkpt>
      <trkpt lat="49.70588" lon="0.9663">
        <ele>84.199996948242</ele>
        <time>2016-08-11T09:39:53Z</time>
      </trkpt>
      <trkpt lat="49.70588" lon="0.9663">
        <ele>84.199996948242</ele>
        <time>2016-08-11T09:39:58Z</time>
      </trkpt>
      <trkpt lat="49.70588" lon="0.9663">
        <ele>84.199996948242</ele>
        <time>2016-08-11T09:40:02Z</time>
      </trkpt>
      <trkpt lat="49.70588" lon="0.9663">
        <ele>84.199996948242</ele>
        <time>2016-08-11T09:40:08Z</time>
      </trkpt>
      <trkpt lat="49.70588" lon="0.9663">
        <ele>84.199996948242</ele>
        <time>2016-08-11T09:40:13Z</time>
      </trkpt>
      <trkpt lat="49.70588" lon="0.9663">
        <ele>84.199996948242</ele>
        <time>2016-08-11T09:40:17Z</time>
      </trkpt>
      <trkpt lat="49.70589" lon="0.96629">
        <ele>84.199996948242</ele>
        <time>2016-08-11T09:40:27Z</time>
      </trkpt>
      <trkpt lat="49.70589" lon="0.9663">
        <ele>84.199996948242</ele>
        <time>2016-08-11T09:40:33Z</time>
      </trkpt>
      <trkpt lat="49.70589" lon="0.9663">
        <ele>84.199996948242</ele>
        <time>2016-08-11T09:40:43Z</time>
      </trkpt>
      <trkpt lat="49.70589" lon="0.96631">
        <ele>84.199996948242</ele>
        <time>2016-08-11T09:40:47Z</time>
      </trkpt>
      <trkpt lat="49.70589" lon="0.96631">
        <ele>84.199996948242</ele>
        <time>2016-08-11T09:40:57Z</time>
      </trkpt>
      <trkpt lat="49.70589" lon="0.9663">
        <ele>84.199996948242</ele>
        <time>2016-08-11T09:41:03Z</time>
      </trkpt>
      <trkpt lat="49.70588" lon="0.9663">
        <ele>84.199996948242</ele>
        <time>2016-08-11T09:41:12Z</time>
      </trkpt>
      <trkpt lat="49.70588" lon="0.9663">
        <ele>84.199996948242</ele>
        <time>2016-08-11T09:41:18Z</time>
      </trkpt>
      <trkpt lat="49.70589" lon="0.96629">
        <ele>87.935005187988</ele>
        <time>2016-08-11T09:41:32Z</time>
      </trkpt>
      <trkpt lat="49.7059" lon="0.96632">
        <ele>87.935005187988</ele>
        <time>2016-08-11T09:41:37Z</time>
      </trkpt>
      <trkpt lat="49.7059" lon="0.96636">
        <ele>87.935005187988</ele>
        <time>2016-08-11T09:41:42Z</time>
      </trkpt>
      <trkpt lat="49.70589" lon="0.96636">
        <ele>87.935005187988</ele>
        <time>2016-08-11T09:41:47Z</time>
      </trkpt>
      <trkpt lat="49.7059" lon="0.96636">
        <ele>87.935005187988</ele>
        <time>2016-08-11T09:42:03Z</time>
      </trkpt>
      <trkpt lat="49.7059" lon="0.96638">
        <ele>87.935005187988</ele>
        <time>2016-08-11T09:42:13Z</time>
      </trkpt>
      <trkpt lat="49.7059" lon="0.96638">
        <ele>87.935005187988</ele>
        <time>2016-08-11T09:42:17Z</time>
      </trkpt>
      <trkpt lat="49.7059" lon="0.96638">
        <ele>87.935005187988</ele>
        <time>2016-08-11T09:42:22Z</time>
      </trkpt>
      <trkpt lat="49.7059" lon="0.96638">
        <ele>87.935005187988</ele>
        <time>2016-08-11T09:42:32Z</time>
      </trkpt>
      <trkpt lat="49.7059" lon="0.96638">
        <ele>87.935005187988</ele>
        <time>2016-08-11T09:42:37Z</time>
      </trkpt>
      <trkpt lat="49.7059" lon="0.96638">
        <ele>87.935005187988</ele>
        <time>2016-08-11T09:42:48Z</time>
      </trkpt>
      <trkpt lat="49.7059" lon="0.96638">
        <ele>87.935005187988</ele>
        <time>2016-08-11T09:42:52Z</time>
      </trkpt>
      <trkpt lat="49.70589" lon="0.96638">
        <ele>87.935005187988</ele>
        <time>2016-08-11T09:43:02Z</time>
      </trkpt>
      <trkpt lat="49.70589" lon="0.96638">
        <ele>87.935005187988</ele>
        <time>2016-08-11T09:43:09Z</time>
      </trkpt>
      <trkpt lat="49.70589" lon="0.96638">
        <ele>87.935005187988</ele>
        <time>2016-08-11T09:43:18Z</time>
      </trkpt>
      <trkpt lat="49.70589" lon="0.96638">
        <ele>87.935005187988</ele>
        <time>2016-08-11T09:43:22Z</time>
      </trkpt>
      <trkpt lat="49.70588" lon="0.96639">
        <ele>88.101051330566</ele>
        <time>2016-08-11T09:43:34Z</time>
      </trkpt>
      <trkpt lat="49.70588" lon="0.96639">
        <ele>88.101051330566</ele>
        <time>2016-08-11T09:43:37Z</time>
      </trkpt>
      <trkpt lat="49.70585" lon="0.96631">
        <ele>88.101051330566</ele>
        <time>2016-08-11T09:43:52Z</time>
      </trkpt>
      <trkpt lat="49.70584" lon="0.96616">
        <ele>87.699729919434</ele>
        <time>2016-08-11T09:44:03Z</time>
      </trkpt>
      <trkpt lat="49.70584" lon="0.96612">
        <ele>87.699729919434</ele>
        <time>2016-08-11T09:44:07Z</time>
      </trkpt>
      <trkpt lat="49.70586" lon="0.96607">
        <ele>87.699729919434</ele>
        <time>2016-08-11T09:44:12Z</time>
      </trkpt>
      <trkpt lat="49.70588" lon="0.96592">
        <ele>86.391983032227</ele>
        <time>2016-08-11T09:44:24Z</time>
      </trkpt>
      <trkpt lat="49.70588" lon="0.96588">
        <ele>86.391983032227</ele>
        <time>2016-08-11T09:44:27Z</time>
      </trkpt>
      <trkpt lat="49.70591" lon="0.96572">
        <ele>85.856155395508</ele>
        <time>2016-08-11T09:44:38Z</time>
      </trkpt>
      <trkpt lat="49.70591" lon="0.96567">
        <ele>85.856155395508</ele>
        <time>2016-08-11T09:44:42Z</time>
      </trkpt>
      <trkpt lat="49.70593" lon="0.96554">
        <ele>84.999214172363</ele>
        <time>2016-08-11T09:44:52Z</time>
      </trkpt>
      <trkpt lat="49.70601" lon="0.96524">
        <ele>85.487457275391</ele>
        <time>2016-08-11T09:45:08Z</time>
      </trkpt>
      <trkpt lat="49.70603" lon="0.9652">
        <ele>85.487457275391</ele>
        <time>2016-08-11T09:45:12Z</time>
      </trkpt>
      <trkpt lat="49.7061" lon="0.96503">
        <ele>85.77645111084</ele>
        <time>2016-08-11T09:45:23Z</time>
      </trkpt>
      <trkpt lat="49.70614" lon="0.96496">
        <ele>85.77645111084</ele>
        <time>2016-08-11T09:45:28Z</time>
      </trkpt>
      <trkpt lat="49.70622" lon="0.96484">
        <ele>86.844825744629</ele>
        <time>2016-08-11T09:45:37Z</time>
      </trkpt>
      <trkpt lat="49.70626" lon="0.96479">
        <ele>86.844825744629</ele>
        <time>2016-08-11T09:45:42Z</time>
      </trkpt>
      <trkpt lat="49.70632" lon="0.96474">
        <ele>87.252471923828</ele>
        <time>2016-08-11T09:45:53Z</time>
      </trkpt>
      <trkpt lat="49.70637" lon="0.9647">
        <ele>87.252471923828</ele>
        <time>2016-08-11T09:45:59Z</time>
      </trkpt>
      <trkpt lat="49.7065" lon="0.96448">
        <ele>88.226692199707</ele>
        <time>2016-08-11T09:46:14Z</time>
      </trkpt>
      <trkpt lat="49.70663" lon="0.96442">
        <ele>87.734436035156</ele>
        <time>2016-08-11T09:46:27Z</time>
      </trkpt>
      <trkpt lat="49.70667" lon="0.9644">
        <ele>87.734436035156</ele>
        <time>2016-08-11T09:46:32Z</time>
      </trkpt>
      <trkpt lat="49.7068" lon="0.96433">
        <ele>88.021697998047</ele>
        <time>2016-08-11T09:46:42Z</time>
      </trkpt>
      <trkpt lat="49.70685" lon="0.9643">
        <ele>88.021697998047</ele>
        <time>2016-08-11T09:46:47Z</time>
      </trkpt>
      <trkpt lat="49.70698" lon="0.96424">
        <ele>88.176605224609</ele>
        <time>2016-08-11T09:46:59Z</time>
      </trkpt>
      <trkpt lat="49.70701" lon="0.96424">
        <ele>88.176605224609</ele>
        <time>2016-08-11T09:47:02Z</time>
      </trkpt>
      <trkpt lat="49.70714" lon="0.96437">
        <ele>88.381034851074</ele>
        <time>2016-08-11T09:47:13Z</time>
      </trkpt>
      <trkpt lat="49.70718" lon="0.96443">
        <ele>88.381034851074</ele>
        <time>2016-08-11T09:47:18Z</time>
      </trkpt>
      <trkpt lat="49.70718" lon="0.96461">
        <ele>89.292976379395</ele>
        <time>2016-08-11T09:47:27Z</time>
      </trkpt>
      <trkpt lat="49.70723" lon="0.96473">
        <ele>89.292976379395</ele>
        <time>2016-08-11T09:47:33Z</time>
      </trkpt>
      <trkpt lat="49.70731" lon="0.96487">
        <ele>90.363189697266</ele>
        <time>2016-08-11T09:47:43Z</time>
      </trkpt>
      <trkpt lat="49.70733" lon="0.9649">
        <ele>90.363189697266</ele>
        <time>2016-08-11T09:47:47Z</time>
      </trkpt>
      <trkpt lat="49.70731" lon="0.96489">
        <ele>90.363189697266</ele>
        <time>2016-08-11T09:47:57Z</time>
      </trkpt>
      <trkpt lat="49.70732" lon="0.96494">
        <ele>91.263633728027</ele>
        <time>2016-08-11T09:48:02Z</time>
      </trkpt>
      <trkpt lat="49.70733" lon="0.96515">
        <ele>92.026657104492</ele>
        <time>2016-08-11T09:48:17Z</time>
      </trkpt>
      <trkpt lat="49.70732" lon="0.96538">
        <ele>92.713890075684</ele>
        <time>2016-08-11T09:48:33Z</time>
      </trkpt>
      <trkpt lat="49.70733" lon="0.96544">
        <ele>92.713890075684</ele>
        <time>2016-08-11T09:48:37Z</time>
      </trkpt>
      <trkpt lat="49.70732" lon="0.96562">
        <ele>92.870094299316</ele>
        <time>2016-08-11T09:48:48Z</time>
      </trkpt>
      <trkpt lat="49.70732" lon="0.96564">
        <ele>92.870094299316</ele>
        <time>2016-08-11T09:48:52Z</time>
      </trkpt>
      <trkpt lat="49.70736" lon="0.96579">
        <ele>93.029411315918</ele>
        <time>2016-08-11T09:49:03Z</time>
      </trkpt>
      <trkpt lat="49.70737" lon="0.96586">
        <ele>93.029411315918</ele>
        <time>2016-08-11T09:49:08Z</time>
      </trkpt>
      <trkpt lat="49.70736" lon="0.96603">
        <ele>94.721084594727</ele>
        <time>2016-08-11T09:49:17Z</time>
      </trkpt>
      <trkpt lat="49.70735" lon="0.96613">
        <ele>94.721084594727</ele>
        <time>2016-08-11T09:49:22Z</time>
      </trkpt>
      <trkpt lat="49.70735" lon="0.96623">
        <ele>97.107070922852</ele>
        <time>2016-08-11T09:49:33Z</time>
      </trkpt>
      <trkpt lat="49.70733" lon="0.96636">
        <ele>97.107070922852</ele>
        <time>2016-08-11T09:49:37Z</time>
      </trkpt>
      <trkpt lat="49.70738" lon="0.96641">
        <ele>99.059951782227</ele>
        <time>2016-08-11T09:49:47Z</time>
      </trkpt>
      <trkpt lat="49.70739" lon="0.9664">
        <ele>99.059951782227</ele>
        <time>2016-08-11T09:49:53Z</time>
      </trkpt>
      <trkpt lat="49.70738" lon="0.9664">
        <ele>99.059951782227</ele>
        <time>2016-08-11T09:49:57Z</time>
      </trkpt>
      <trkpt lat="49.70747" lon="0.96638">
        <ele>100.82541656494</ele>
        <time>2016-08-11T09:50:07Z</time>
      </trkpt>
      <trkpt lat="49.70763" lon="0.96629">
        <ele>102.89157867432</ele>
        <time>2016-08-11T09:50:22Z</time>
      </trkpt>
      <trkpt lat="49.70769" lon="0.96625">
        <ele>102.89157867432</ele>
        <time>2016-08-11T09:50:27Z</time>
      </trkpt>
      <trkpt lat="49.70781" lon="0.96624">
        <ele>105.39804840088</ele>
        <time>2016-08-11T09:50:37Z</time>
      </trkpt>
      <trkpt lat="49.70787" lon="0.96624">
        <ele>105.39804840088</ele>
        <time>2016-08-11T09:50:43Z</time>
      </trkpt>
      <trkpt lat="49.70797" lon="0.96623">
        <ele>107.75710296631</ele>
        <time>2016-08-11T09:50:54Z</time>
      </trkpt>
      <trkpt lat="49.70801" lon="0.96622">
        <ele>107.75710296631</ele>
        <time>2016-08-11T09:50:58Z</time>
      </trkpt>
      <trkpt lat="49.7081" lon="0.96626">
        <ele>110.56651306152</ele>
        <time>2016-08-11T09:51:07Z</time>
      </trkpt>
      <trkpt lat="49.70812" lon="0.96627">
        <ele>110.56651306152</ele>
        <time>2016-08-11T09:51:12Z</time>
      </trkpt>
      <trkpt lat="49.70819" lon="0.96627">
        <ele>112.69052124023</ele>
        <time>2016-08-11T09:51:23Z</time>
      </trkpt>
      <trkpt lat="49.70821" lon="0.96627">
        <ele>112.69052124023</ele>
        <time>2016-08-11T09:51:27Z</time>
      </trkpt>
      <trkpt lat="49.70831" lon="0.96632">
        <ele>114.34733581543</ele>
        <time>2016-08-11T09:51:37Z</time>
      </trkpt>
      <trkpt lat="49.70838" lon="0.96632">
        <ele>114.34733581543</ele>
        <time>2016-08-11T09:51:44Z</time>
      </trkpt>
      <trkpt lat="49.70845" lon="0.96634">
        <ele>116.22171020508</ele>
        <time>2016-08-11T09:51:59Z</time>
      </trkpt>
      <trkpt lat="49.70845" lon="0.96634">
        <ele>116.22171020508</ele>
        <time>2016-08-11T09:52:12Z</time>
      </trkpt>
      <trkpt lat="49.70845" lon="0.96634">
        <ele>116.22171020508</ele>
        <time>2016-08-11T09:52:17Z</time>
      </trkpt>
      <trkpt lat="49.70845" lon="0.96634">
        <ele>116.22171020508</ele>
        <time>2016-08-11T09:52:27Z</time>
      </trkpt>
      <trkpt lat="49.70845" lon="0.96634">
        <ele>116.22171020508</ele>
        <time>2016-08-11T09:52:33Z</time>
      </trkpt>
      <trkpt lat="49.70845" lon="0.96634">
        <ele>116.22171020508</ele>
        <time>2016-08-11T09:52:44Z</time>
      </trkpt>
      <trkpt lat="49.70846" lon="0.96634">
        <ele>116.22171020508</ele>
        <time>2016-08-11T09:52:48Z</time>
      </trkpt>
      <trkpt lat="49.70846" lon="0.96638">
        <ele>116.22171020508</ele>
        <time>2016-08-11T09:52:57Z</time>
      </trkpt>
      <trkpt lat="49.70845" lon="0.96633">
        <ele>116.22171020508</ele>
        <time>2016-08-11T09:53:03Z</time>
      </trkpt>
      <trkpt lat="49.70843" lon="0.96634">
        <ele>117.17026519775</ele>
        <time>2016-08-11T09:53:13Z</time>
      </trkpt>
      <trkpt lat="49.70843" lon="0.96635">
        <ele>117.17026519775</ele>
        <time>2016-08-11T09:53:17Z</time>
      </trkpt>
      <trkpt lat="49.70841" lon="0.96636">
        <ele>117.17026519775</ele>
        <time>2016-08-11T09:53:28Z</time>
      </trkpt>
      <trkpt lat="49.70837" lon="0.96633">
        <ele>117.17026519775</ele>
        <time>2016-08-11T09:53:33Z</time>
      </trkpt>
      <trkpt lat="49.70826" lon="0.96634">
        <ele>117.87981414795</ele>
        <time>2016-08-11T09:53:42Z</time>
      </trkpt>
      <trkpt lat="49.70823" lon="0.96632">
        <ele>117.87981414795</ele>
        <time>2016-08-11T09:53:48Z</time>
      </trkpt>
      <trkpt lat="49.70814" lon="0.96629">
        <ele>119.13527679443</ele>
        <time>2016-08-11T09:53:58Z</time>
      </trkpt>
      <trkpt lat="49.70813" lon="0.96626">
        <ele>119.13527679443</ele>
        <time>2016-08-11T09:54:02Z</time>
      </trkpt>
      <trkpt lat="49.7081" lon="0.96629">
        <ele>119.13527679443</ele>
        <time>2016-08-11T09:54:12Z</time>
      </trkpt>
      <trkpt lat="49.70808" lon="0.9663">
        <ele>119.13527679443</ele>
        <time>2016-08-11T09:54:17Z</time>
      </trkpt>
      <trkpt lat="49.70803" lon="0.96628">
        <ele>119.83179473877</ele>
        <time>2016-08-11T09:54:22Z</time>
      </trkpt>
      <trkpt lat="49.70791" lon="0.96627">
        <ele>120.68248748779</ele>
        <time>2016-08-11T09:54:32Z</time>
      </trkpt>
      <trkpt lat="49.70786" lon="0.96626">
        <ele>120.68248748779</ele>
        <time>2016-08-11T09:54:37Z</time>
      </trkpt>
      <trkpt lat="49.70779" lon="0.96626">
        <ele>120.73669433594</ele>
        <time>2016-08-11T09:54:42Z</time>
      </trkpt>
      <trkpt lat="49.70771" lon="0.96627">
        <ele>120.73669433594</ele>
        <time>2016-08-11T09:54:47Z</time>
      </trkpt>
      <trkpt lat="49.70768" lon="0.96629">
        <ele>120.4734954834</ele>
        <time>2016-08-11T09:54:52Z</time>
      </trkpt>
      <trkpt lat="49.70752" lon="0.96637">
        <ele>119.90117645264</ele>
        <time>2016-08-11T09:55:02Z</time>
      </trkpt>
      <trkpt lat="49.70746" lon="0.9664">
        <ele>119.90117645264</ele>
        <time>2016-08-11T09:55:07Z</time>
      </trkpt>
      <trkpt lat="49.70734" lon="0.96642">
        <ele>117.70350646973</ele>
        <time>2016-08-11T09:55:17Z</time>
      </trkpt>
      <trkpt lat="49.70734" lon="0.96643">
        <ele>117.70350646973</ele>
        <time>2016-08-11T09:55:22Z</time>
      </trkpt>
      <trkpt lat="49.70733" lon="0.96644">
        <ele>117.70350646973</ele>
        <time>2016-08-11T09:55:27Z</time>
      </trkpt>
      <trkpt lat="49.70732" lon="0.9665">
        <ele>117.70350646973</ele>
        <time>2016-08-11T09:55:32Z</time>
      </trkpt>
      <trkpt lat="49.70731" lon="0.96656">
        <ele>115.24977111816</ele>
        <time>2016-08-11T09:55:37Z</time>
      </trkpt>
      <trkpt lat="49.70733" lon="0.96653">
        <ele>115.24977111816</ele>
        <time>2016-08-11T09:55:42Z</time>
      </trkpt>
      <trkpt lat="49.70731" lon="0.96653">
        <ele>115.24977111816</ele>
        <time>2016-08-11T09:55:47Z</time>
      </trkpt>
      <trkpt lat="49.7073" lon="0.96655">
        <ele>115.24977111816</ele>
        <time>2016-08-11T09:55:52Z</time>
      </trkpt>
      <trkpt lat="49.70728" lon="0.96656">
        <ele>115.24977111816</ele>
        <time>2016-08-11T09:55:57Z</time>
      </trkpt>
      <trkpt lat="49.70729" lon="0.96657">
        <ele>115.24977111816</ele>
        <time>2016-08-11T09:56:02Z</time>
      </trkpt>
      <trkpt lat="49.70724" lon="0.96667">
        <ele>112.70352172852</ele>
        <time>2016-08-11T09:56:12Z</time>
      </trkpt>
      <trkpt lat="49.70724" lon="0.96678">
        <ele>112.70352172852</ele>
        <time>2016-08-11T09:56:17Z</time>
      </trkpt>
      <trkpt lat="49.70719" lon="0.96688">
        <ele>110.20512390137</ele>
        <time>2016-08-11T09:56:24Z</time>
      </trkpt>
      <trkpt lat="49.70718" lon="0.96692">
        <ele>110.20512390137</ele>
        <time>2016-08-11T09:56:27Z</time>
      </trkpt>
      <trkpt lat="49.70717" lon="0.96698">
        <ele>110.20512390137</ele>
        <time>2016-08-11T09:56:32Z</time>
      </trkpt>
      <trkpt lat="49.70719" lon="0.96715">
        <ele>107.87147521973</ele>
        <time>2016-08-11T09:56:42Z</time>
      </trkpt>
      <trkpt lat="49.70722" lon="0.9672">
        <ele>107.87147521973</ele>
        <time>2016-08-11T09:56:47Z</time>
      </trkpt>
      <trkpt lat="49.70726" lon="0.96737">
        <ele>106.94770812988</ele>
        <time>2016-08-11T09:56:58Z</time>
      </trkpt>
      <trkpt lat="49.70728" lon="0.9674">
        <ele>106.94770812988</ele>
        <time>2016-08-11T09:57:02Z</time>
      </trkpt>
      <trkpt lat="49.70732" lon="0.96752">
        <ele>106.14603424072</ele>
        <time>2016-08-11T09:57:12Z</time>
      </trkpt>
      <trkpt lat="49.70737" lon="0.96757">
        <ele>106.14603424072</ele>
        <time>2016-08-11T09:57:17Z</time>
      </trkpt>
      <trkpt lat="49.70738" lon="0.96763">
        <ele>106.57744598389</ele>
        <time>2016-08-11T09:57:28Z</time>
      </trkpt>
      <trkpt lat="49.70739" lon="0.96763">
        <ele>106.57744598389</ele>
        <time>2016-08-11T09:57:32Z</time>
      </trkpt>
      <trkpt lat="49.70748" lon="0.96773">
        <ele>107.77783203125</ele>
        <time>2016-08-11T09:57:43Z</time>
      </trkpt>
      <trkpt lat="49.70753" lon="0.96781">
        <ele>107.77783203125</ele>
        <time>2016-08-11T09:57:47Z</time>
      </trkpt>
      <trkpt lat="49.70768" lon="0.96801">
        <ele>109.80863952637</ele>
        <time>2016-08-11T09:58:03Z</time>
      </trkpt>
      <trkpt lat="49.7077" lon="0.96807">
        <ele>109.80863952637</ele>
        <time>2016-08-11T09:58:17Z</time>
      </trkpt>
      <trkpt lat="49.70771" lon="0.96808">
        <ele>109.80863952637</ele>
        <time>2016-08-11T09:58:22Z</time>
      </trkpt>
      <trkpt lat="49.70779" lon="0.96822">
        <ele>111.46903991699</ele>
        <time>2016-08-11T09:58:34Z</time>
      </trkpt>
      <trkpt lat="49.70787" lon="0.96819">
        <ele>111.46903991699</ele>
        <time>2016-08-11T09:58:37Z</time>
      </trkpt>
      <trkpt lat="49.70794" lon="0.96843">
        <ele>113.83911895752</ele>
        <time>2016-08-11T09:58:48Z</time>
      </trkpt>
      <trkpt lat="49.70799" lon="0.96853">
        <ele>113.83911895752</ele>
        <time>2016-08-11T09:58:53Z</time>
      </trkpt>
      <trkpt lat="49.708" lon="0.96857">
        <ele>116.04183959961</ele>
        <time>2016-08-11T09:59:02Z</time>
      </trkpt>
      <trkpt lat="49.70802" lon="0.96861">
        <ele>116.04183959961</ele>
        <time>2016-08-11T09:59:08Z</time>
      </trkpt>
      <trkpt lat="49.7081" lon="0.96879">
        <ele>117.903175354</ele>
        <time>2016-08-11T09:59:18Z</time>
      </trkpt>
      <trkpt lat="49.7081" lon="0.96882">
        <ele>117.903175354</ele>
        <time>2016-08-11T09:59:22Z</time>
      </trkpt>
      <trkpt lat="49.70816" lon="0.96894">
        <ele>120.19819641113</ele>
        <time>2016-08-11T09:59:33Z</time>
      </trkpt>
      <trkpt lat="49.70818" lon="0.96898">
        <ele>120.19819641113</ele>
        <time>2016-08-11T09:59:38Z</time>
      </trkpt>
      <trkpt lat="49.70827" lon="0.96923">
        <ele>122.42032623291</ele>
        <time>2016-08-11T09:59:53Z</time>
      </trkpt>
      <trkpt lat="49.70828" lon="0.96937">
        <ele>124.405128479</ele>
        <time>2016-08-11T10:00:02Z</time>
      </trkpt>
      <trkpt lat="49.7083" lon="0.96945">
        <ele>124.405128479</ele>
        <time>2016-08-11T10:00:07Z</time>
      </trkpt>
      <trkpt lat="49.70837" lon="0.96968">
        <ele>126.55671691895</ele>
        <time>2016-08-11T10:00:22Z</time>
      </trkpt>
      <trkpt lat="49.7084" lon="0.96978">
        <ele>126.55671691895</ele>
        <time>2016-08-11T10:00:27Z</time>
      </trkpt>
      <trkpt lat="49.70841" lon="0.96991">
        <ele>128.54333496094</ele>
        <time>2016-08-11T10:00:38Z</time>
      </trkpt>
      <trkpt lat="49.70842" lon="0.97001">
        <ele>128.54333496094</ele>
        <time>2016-08-11T10:00:43Z</time>
      </trkpt>
      <trkpt lat="49.70845" lon="0.97011">
        <ele>130.61288452148</ele>
        <time>2016-08-11T10:00:52Z</time>
      </trkpt>
      <trkpt lat="49.70847" lon="0.97023">
        <ele>130.61288452148</ele>
        <time>2016-08-11T10:00:58Z</time>
      </trkpt>
      <trkpt lat="49.7085" lon="0.97037">
        <ele>132.2346496582</ele>
        <time>2016-08-11T10:01:07Z</time>
      </trkpt>
      <trkpt lat="49.70853" lon="0.97044">
        <ele>132.2346496582</ele>
        <time>2016-08-11T10:01:12Z</time>
      </trkpt>
      <trkpt lat="49.70855" lon="0.97061">
        <ele>133.69464111328</ele>
        <time>2016-08-11T10:01:22Z</time>
      </trkpt>
      <trkpt lat="49.70858" lon="0.97069">
        <ele>133.69464111328</ele>
        <time>2016-08-11T10:01:27Z</time>
      </trkpt>
      <trkpt lat="49.70861" lon="0.97088">
        <ele>135.35884094238</ele>
        <time>2016-08-11T10:01:39Z</time>
      </trkpt>
      <trkpt lat="49.70862" lon="0.97094">
        <ele>135.35884094238</ele>
        <time>2016-08-11T10:01:43Z</time>
      </trkpt>
      <trkpt lat="49.70869" lon="0.97117">
        <ele>136.7509765625</ele>
        <time>2016-08-11T10:01:58Z</time>
      </trkpt>
      <trkpt lat="49.70871" lon="0.97126">
        <ele>136.7509765625</ele>
        <time>2016-08-11T10:02:02Z</time>
      </trkpt>
      <trkpt lat="49.70876" lon="0.97142">
        <ele>138.22981262207</ele>
        <time>2016-08-11T10:02:14Z</time>
      </trkpt>
      <trkpt lat="49.70877" lon="0.9715">
        <ele>138.22981262207</ele>
        <time>2016-08-11T10:02:18Z</time>
      </trkpt>
      <trkpt lat="49.70883" lon="0.97165">
        <ele>139.9038848877</ele>
        <time>2016-08-11T10:02:27Z</time>
      </trkpt>
      <trkpt lat="49.70883" lon="0.97173">
        <ele>139.9038848877</ele>
        <time>2016-08-11T10:02:33Z</time>
      </trkpt>
      <trkpt lat="49.70888" lon="0.97187">
        <ele>141.69665527344</ele>
        <time>2016-08-11T10:02:42Z</time>
      </trkpt>
      <trkpt lat="49.70891" lon="0.97198">
        <ele>141.69665527344</ele>
        <time>2016-08-11T10:02:48Z</time>
      </trkpt>
      <trkpt lat="49.70894" lon="0.97213">
        <ele>142.82138061523</ele>
        <time>2016-08-11T10:02:58Z</time>
      </trkpt>
      <trkpt lat="49.70896" lon="0.97221">
        <ele>142.82138061523</ele>
        <time>2016-08-11T10:03:03Z</time>
      </trkpt>
      <trkpt lat="49.70902" lon="0.97244">
        <ele>144.11810302734</ele>
        <time>2016-08-11T10:03:17Z</time>
      </trkpt>
      <trkpt lat="49.70907" lon="0.97264">
        <ele>145.42640686035</ele>
        <time>2016-08-11T10:03:28Z</time>
      </trkpt>
      <trkpt lat="49.7091" lon="0.97273">
        <ele>145.42640686035</ele>
        <time>2016-08-11T10:03:33Z</time>
      </trkpt>
      <trkpt lat="49.70912" lon="0.97276">
        <ele>146.61332702637</ele>
        <time>2016-08-11T10:03:37Z</time>
      </trkpt>
      <trkpt lat="49.70913" lon="0.97285">
        <ele>146.61332702637</ele>
        <time>2016-08-11T10:03:43Z</time>
      </trkpt>
      <trkpt lat="49.70915" lon="0.97295">
        <ele>147.32443237305</ele>
        <time>2016-08-11T10:03:48Z</time>
      </trkpt>
      <trkpt lat="49.70925" lon="0.9732">
        <ele>148.62669372559</ele>
        <time>2016-08-11T10:04:02Z</time>
      </trkpt>
      <trkpt lat="49.70934" lon="0.97342">
        <ele>149.86517333984</ele>
        <time>2016-08-11T10:04:17Z</time>
      </trkpt>
      <trkpt lat="49.70936" lon="0.97348">
        <ele>149.86517333984</ele>
        <time>2016-08-11T10:04:22Z</time>
      </trkpt>
      <trkpt lat="49.70942" lon="0.97366">
        <ele>150.94262695312</ele>
        <time>2016-08-11T10:04:33Z</time>
      </trkpt>
      <trkpt lat="49.70943" lon="0.97371">
        <ele>150.94262695312</ele>
        <time>2016-08-11T10:04:37Z</time>
      </trkpt>
      <trkpt lat="49.7095" lon="0.97392">
        <ele>151.45153808594</ele>
        <time>2016-08-11T10:04:49Z</time>
      </trkpt>
      <trkpt lat="49.70951" lon="0.97399">
        <ele>151.45153808594</ele>
        <time>2016-08-11T10:04:53Z</time>
      </trkpt>
      <trkpt lat="49.70954" lon="0.97412">
        <ele>151.6383972168</ele>
        <time>2016-08-11T10:05:02Z</time>
      </trkpt>
      <trkpt lat="49.70957" lon="0.97419">
        <ele>151.6383972168</ele>
        <time>2016-08-11T10:05:07Z</time>
      </trkpt>
      <trkpt lat="49.70964" lon="0.97443">
        <ele>152.04943847656</ele>
        <time>2016-08-11T10:05:18Z</time>
      </trkpt>
      <trkpt lat="49.70967" lon="0.97451">
        <ele>152.04943847656</ele>
        <time>2016-08-11T10:05:23Z</time>
      </trkpt>
      <trkpt lat="49.70971" lon="0.97467">
        <ele>152.22184753418</ele>
        <time>2016-08-11T10:05:33Z</time>
      </trkpt>
      <trkpt lat="49.70974" lon="0.97477">
        <ele>152.22184753418</ele>
        <time>2016-08-11T10:05:38Z</time>
      </trkpt>
      <trkpt lat="49.70979" lon="0.9749">
        <ele>152.20448303223</ele>
        <time>2016-08-11T10:05:47Z</time>
      </trkpt>
      <trkpt lat="49.70982" lon="0.97498">
        <ele>152.20448303223</ele>
        <time>2016-08-11T10:05:52Z</time>
      </trkpt>
      <trkpt lat="49.70989" lon="0.97516">
        <ele>152.05751037598</ele>
        <time>2016-08-11T10:06:03Z</time>
      </trkpt>
      <trkpt lat="49.70991" lon="0.97524">
        <ele>152.05751037598</ele>
        <time>2016-08-11T10:06:07Z</time>
      </trkpt>
      <trkpt lat="49.70999" lon="0.97543">
        <ele>151.99555969238</ele>
        <time>2016-08-11T10:06:18Z</time>
      </trkpt>
      <trkpt lat="49.71" lon="0.97551">
        <ele>151.99555969238</ele>
        <time>2016-08-11T10:06:23Z</time>
      </trkpt>
      <trkpt lat="49.71009" lon="0.97574">
        <ele>151.78453063965</ele>
        <time>2016-08-11T10:06:37Z</time>
      </trkpt>
      <trkpt lat="49.71013" lon="0.97585">
        <ele>151.78453063965</ele>
        <time>2016-08-11T10:06:48Z</time>
      </trkpt>
      <trkpt lat="49.71015" lon="0.97592">
        <ele>151.5108795166</ele>
        <time>2016-08-11T10:06:52Z</time>
      </trkpt>
      <trkpt lat="49.71023" lon="0.97613">
        <ele>151.09620666504</ele>
        <time>2016-08-11T10:07:03Z</time>
      </trkpt>
      <trkpt lat="49.71026" lon="0.9762">
        <ele>151.09620666504</ele>
        <time>2016-08-11T10:07:07Z</time>
      </trkpt>
      <trkpt lat="49.71037" lon="0.97646">
        <ele>150.61245727539</ele>
        <time>2016-08-11T10:07:23Z</time>
      </trkpt>
      <trkpt lat="49.71042" lon="0.97663">
        <ele>150.37155151367</ele>
        <time>2016-08-11T10:07:33Z</time>
      </trkpt>
      <trkpt lat="49.71044" lon="0.9767">
        <ele>150.37155151367</ele>
        <time>2016-08-11T10:07:37Z</time>
      </trkpt>
      <trkpt lat="49.7105" lon="0.9769">
        <ele>150.15711975098</ele>
        <time>2016-08-11T10:07:48Z</time>
      </trkpt>
      <trkpt lat="49.71051" lon="0.97695">
        <ele>150.15711975098</ele>
        <time>2016-08-11T10:07:52Z</time>
      </trkpt>
      <trkpt lat="49.71055" lon="0.97704">
        <ele>150.18675231934</ele>
        <time>2016-08-11T10:07:57Z</time>
      </trkpt>
      <trkpt lat="49.71061" lon="0.97719">
        <ele>150.11340332031</ele>
        <time>2016-08-11T10:08:07Z</time>
      </trkpt>
      <trkpt lat="49.71063" lon="0.97729">
        <ele>150.11340332031</ele>
        <time>2016-08-11T10:08:13Z</time>
      </trkpt>
      <trkpt lat="49.71071" lon="0.97746">
        <ele>150.37991333008</ele>
        <time>2016-08-11T10:08:23Z</time>
      </trkpt>
      <trkpt lat="49.7107" lon="0.97749">
        <ele>150.37991333008</ele>
        <time>2016-08-11T10:08:27Z</time>
      </trkpt>
      <trkpt lat="49.71077" lon="0.97767">
        <ele>150.06898498535</ele>
        <time>2016-08-11T10:08:37Z</time>
      </trkpt>
      <trkpt lat="49.7108" lon="0.97774">
        <ele>150.06898498535</ele>
        <time>2016-08-11T10:08:42Z</time>
      </trkpt>
      <trkpt lat="49.71086" lon="0.9779">
        <ele>150.03384399414</ele>
        <time>2016-08-11T10:08:52Z</time>
      </trkpt>
      <trkpt lat="49.71091" lon="0.97798">
        <ele>150.03384399414</ele>
        <time>2016-08-11T10:08:57Z</time>
      </trkpt>
      <trkpt lat="49.71099" lon="0.97815">
        <ele>150.44416809082</ele>
        <time>2016-08-11T10:09:09Z</time>
      </trkpt>
      <trkpt lat="49.71101" lon="0.97819">
        <ele>150.44416809082</ele>
        <time>2016-08-11T10:09:12Z</time>
      </trkpt>
      <trkpt lat="49.71104" lon="0.97834">
        <ele>150.72023010254</ele>
        <time>2016-08-11T10:09:22Z</time>
      </trkpt>
      <trkpt lat="49.71104" lon="0.97843">
        <ele>150.72023010254</ele>
        <time>2016-08-11T10:09:27Z</time>
      </trkpt>
      <trkpt lat="49.71112" lon="0.97864">
        <ele>150.44058227539</ele>
        <time>2016-08-11T10:09:42Z</time>
      </trkpt>
      <trkpt lat="49.71114" lon="0.97869">
        <ele>150.44058227539</ele>
        <time>2016-08-11T10:09:47Z</time>
      </trkpt>
      <trkpt lat="49.71116" lon="0.97876">
        <ele>150.44058227539</ele>
        <time>2016-08-11T10:09:52Z</time>
      </trkpt>
      <trkpt lat="49.71117" lon="0.97887">
        <ele>149.80755615234</ele>
        <time>2016-08-11T10:09:57Z</time>
      </trkpt>
      <trkpt lat="49.7112" lon="0.97896">
        <ele>149.80755615234</ele>
        <time>2016-08-11T10:10:02Z</time>
      </trkpt>
      <trkpt lat="49.71124" lon="0.97903">
        <ele>149.88946533203</ele>
        <time>2016-08-11T10:10:07Z</time>
      </trkpt>
      <trkpt lat="49.71128" lon="0.97909">
        <ele>149.88946533203</ele>
        <time>2016-08-11T10:10:12Z</time>
      </trkpt>
      <trkpt lat="49.71132" lon="0.97928">
        <ele>149.51037597656</ele>
        <time>2016-08-11T10:10:22Z</time>
      </trkpt>
      <trkpt lat="49.71136" lon="0.97935">
        <ele>149.51037597656</ele>
        <time>2016-08-11T10:10:27Z</time>
      </trkpt>
      <trkpt lat="49.71142" lon="0.97952">
        <ele>148.90901184082</ele>
        <time>2016-08-11T10:10:37Z</time>
      </trkpt>
      <trkpt lat="49.71147" lon="0.9796">
        <ele>148.90901184082</ele>
        <time>2016-08-11T10:10:42Z</time>
      </trkpt>
      <trkpt lat="49.71148" lon="0.97973">
        <ele>149.15815734863</ele>
        <time>2016-08-11T10:10:52Z</time>
      </trkpt>
      <trkpt lat="49.71149" lon="0.97984">
        <ele>149.15815734863</ele>
        <time>2016-08-11T10:10:57Z</time>
      </trkpt>
      <trkpt lat="49.71157" lon="0.97997">
        <ele>149.4750213623</ele>
        <time>2016-08-11T10:11:08Z</time>
      </trkpt>
      <trkpt lat="49.71164" lon="0.98007">
        <ele>149.98512268066</ele>
        <time>2016-08-11T10:11:13Z</time>
      </trkpt>
      <trkpt lat="49.71164" lon="0.98014">
        <ele>149.98512268066</ele>
        <time>2016-08-11T10:11:17Z</time>
      </trkpt>
      <trkpt lat="49.71175" lon="0.9803">
        <ele>149.36186218262</ele>
        <time>2016-08-11T10:11:28Z</time>
      </trkpt>
      <trkpt lat="49.71181" lon="0.98055">
        <ele>149.07637023926</ele>
        <time>2016-08-11T10:11:42Z</time>
      </trkpt>
      <trkpt lat="49.71188" lon="0.98074">
        <ele>148.4714050293</ele>
        <time>2016-08-11T10:11:57Z</time>
      </trkpt>
      <trkpt lat="49.71194" lon="0.98082">
        <ele>148.4714050293</ele>
        <time>2016-08-11T10:12:03Z</time>
      </trkpt>
      <trkpt lat="49.71201" lon="0.98099">
        <ele>147.84745788574</ele>
        <time>2016-08-11T10:12:14Z</time>
      </trkpt>
      <trkpt lat="49.71205" lon="0.98103">
        <ele>147.84745788574</ele>
        <time>2016-08-11T10:12:17Z</time>
      </trkpt>
      <trkpt lat="49.71213" lon="0.98124">
        <ele>147.69918823242</ele>
        <time>2016-08-11T10:12:27Z</time>
      </trkpt>
      <trkpt lat="49.71223" lon="0.98127">
        <ele>147.34420776367</ele>
        <time>2016-08-11T10:12:33Z</time>
      </trkpt>
      <trkpt lat="49.71223" lon="0.98135">
        <ele>147.34420776367</ele>
        <time>2016-08-11T10:12:43Z</time>
      </trkpt>
      <trkpt lat="49.71223" lon="0.98136">
        <ele>147.34420776367</ele>
        <time>2016-08-11T10:12:47Z</time>
      </trkpt>
      <trkpt lat="49.71227" lon="0.98149">
        <ele>147.5783996582</ele>
        <time>2016-08-11T10:12:57Z</time>
      </trkpt>
      <trkpt lat="49.7123" lon="0.98147">
        <ele>147.5783996582</ele>
        <time>2016-08-11T10:13:02Z</time>
      </trkpt>
      <trkpt lat="49.71238" lon="0.9817">
        <ele>147.82522583008</ele>
        <time>2016-08-11T10:13:18Z</time>
      </trkpt>
      <trkpt lat="49.7125" lon="0.98189">
        <ele>148.06951904297</ele>
        <time>2016-08-11T10:13:32Z</time>
      </trkpt>
      <trkpt lat="49.71262" lon="0.9821">
        <ele>148.48461914062</ele>
        <time>2016-08-11T10:13:47Z</time>
      </trkpt>
      <trkpt lat="49.71265" lon="0.98215">
        <ele>148.48461914062</ele>
        <time>2016-08-11T10:13:52Z</time>
      </trkpt>
      <trkpt lat="49.71273" lon="0.98234">
        <ele>148.50970458984</ele>
        <time>2016-08-11T10:14:03Z</time>
      </trkpt>
      <trkpt lat="49.71276" lon="0.98242">
        <ele>148.50970458984</ele>
        <time>2016-08-11T10:14:07Z</time>
      </trkpt>
      <trkpt lat="49.71281" lon="0.98254">
        <ele>148.15969848633</ele>
        <time>2016-08-11T10:14:17Z</time>
      </trkpt>
      <trkpt lat="49.71287" lon="0.98264">
        <ele>147.9250793457</ele>
        <time>2016-08-11T10:14:24Z</time>
      </trkpt>
      <trkpt lat="49.71294" lon="0.98276">
        <ele>148.00038146973</ele>
        <time>2016-08-11T10:14:32Z</time>
      </trkpt>
      <trkpt lat="49.71297" lon="0.98283">
        <ele>148.00038146973</ele>
        <time>2016-08-11T10:14:37Z</time>
      </trkpt>
      <trkpt lat="49.71304" lon="0.98298">
        <ele>147.7289276123</ele>
        <time>2016-08-11T10:14:47Z</time>
      </trkpt>
      <trkpt lat="49.71309" lon="0.98306">
        <ele>147.7289276123</ele>
        <time>2016-08-11T10:14:52Z</time>
      </trkpt>
      <trkpt lat="49.71316" lon="0.98324">
        <ele>147.15182495117</ele>
        <time>2016-08-11T10:15:03Z</time>
      </trkpt>
      <trkpt lat="49.71318" lon="0.9833">
        <ele>147.15182495117</ele>
        <time>2016-08-11T10:15:07Z</time>
      </trkpt>
      <trkpt lat="49.71325" lon="0.98346">
        <ele>146.69715881348</ele>
        <time>2016-08-11T10:15:17Z</time>
      </trkpt>
      <trkpt lat="49.71329" lon="0.98351">
        <ele>146.69715881348</ele>
        <time>2016-08-11T10:15:22Z</time>
      </trkpt>
      <trkpt lat="49.71339" lon="0.98371">
        <ele>146.25663757324</ele>
        <time>2016-08-11T10:15:33Z</time>
      </trkpt>
      <trkpt lat="49.71342" lon="0.98376">
        <ele>146.25663757324</ele>
        <time>2016-08-11T10:15:37Z</time>
      </trkpt>
      <trkpt lat="49.71353" lon="0.98398">
        <ele>145.71548461914</ele>
        <time>2016-08-11T10:15:53Z</time>
      </trkpt>
      <trkpt lat="49.71356" lon="0.98403">
        <ele>145.71548461914</ele>
        <time>2016-08-11T10:15:57Z</time>
      </trkpt>
      <trkpt lat="49.71364" lon="0.98419">
        <ele>145.16931152344</ele>
        <time>2016-08-11T10:16:08Z</time>
      </trkpt>
      <trkpt lat="49.71368" lon="0.9843">
        <ele>145.16931152344</ele>
        <time>2016-08-11T10:16:13Z</time>
      </trkpt>
      <trkpt lat="49.71373" lon="0.98444">
        <ele>144.51930236816</ele>
        <time>2016-08-11T10:16:22Z</time>
      </trkpt>
      <trkpt lat="49.71377" lon="0.98456">
        <ele>144.51930236816</ele>
        <time>2016-08-11T10:16:29Z</time>
      </trkpt>
      <trkpt lat="49.7138" lon="0.98472">
        <ele>143.91917419434</ele>
        <time>2016-08-11T10:16:37Z</time>
      </trkpt>
      <trkpt lat="49.71382" lon="0.98479">
        <ele>143.91917419434</ele>
        <time>2016-08-11T10:16:42Z</time>
      </trkpt>
      <trkpt lat="49.71387" lon="0.98502">
        <ele>143.55433654785</ele>
        <time>2016-08-11T10:16:53Z</time>
      </trkpt>
      <trkpt lat="49.71389" lon="0.98509">
        <ele>143.55433654785</ele>
        <time>2016-08-11T10:16:57Z</time>
      </trkpt>
      <trkpt lat="49.71398" lon="0.98531">
        <ele>143.56706237793</ele>
        <time>2016-08-11T10:17:08Z</time>
      </trkpt>
      <trkpt lat="49.714" lon="0.98537">
        <ele>143.56706237793</ele>
        <time>2016-08-11T10:17:13Z</time>
      </trkpt>
      <trkpt lat="49.71403" lon="0.98554">
        <ele>143.5548248291</ele>
        <time>2016-08-11T10:17:22Z</time>
      </trkpt>
      <trkpt lat="49.71404" lon="0.98559">
        <ele>143.5548248291</ele>
        <time>2016-08-11T10:17:27Z</time>
      </trkpt>
      <trkpt lat="49.71413" lon="0.98589">
        <ele>143.3752746582</ele>
        <time>2016-08-11T10:17:42Z</time>
      </trkpt>
      <trkpt lat="49.71416" lon="0.98597">
        <ele>143.3752746582</ele>
        <time>2016-08-11T10:17:47Z</time>
      </trkpt>
      <trkpt lat="49.71421" lon="0.98621">
        <ele>143.45899963379</ele>
        <time>2016-08-11T10:17:58Z</time>
      </trkpt>
      <trkpt lat="49.71421" lon="0.98629">
        <ele>143.45899963379</ele>
        <time>2016-08-11T10:18:02Z</time>
      </trkpt>
      <trkpt lat="49.71427" lon="0.98649">
        <ele>144.0023651123</ele>
        <time>2016-08-11T10:18:12Z</time>
      </trkpt>
      <trkpt lat="49.71428" lon="0.98658">
        <ele>144.0023651123</ele>
        <time>2016-08-11T10:18:18Z</time>
      </trkpt>
      <trkpt lat="49.71433" lon="0.98677">
        <ele>144.82572937012</ele>
        <time>2016-08-11T10:18:27Z</time>
      </trkpt>
      <trkpt lat="49.71434" lon="0.98686">
        <ele>144.82572937012</ele>
        <time>2016-08-11T10:18:33Z</time>
      </trkpt>
      <trkpt lat="49.71437" lon="0.98703">
        <ele>145.07011413574</ele>
        <time>2016-08-11T10:18:43Z</time>
      </trkpt>
      <trkpt lat="49.71439" lon="0.98709">
        <ele>145.07011413574</ele>
        <time>2016-08-11T10:18:47Z</time>
      </trkpt>
      <trkpt lat="49.71445" lon="0.98729">
        <ele>145.62730407715</ele>
        <time>2016-08-11T10:18:57Z</time>
      </trkpt>
      <trkpt lat="49.71446" lon="0.98739">
        <ele>145.62730407715</ele>
        <time>2016-08-11T10:19:04Z</time>
      </trkpt>
      <trkpt lat="49.71449" lon="0.98755">
        <ele>145.9104309082</ele>
        <time>2016-08-11T10:19:12Z</time>
      </trkpt>
      <trkpt lat="49.7145" lon="0.98763">
        <ele>145.9104309082</ele>
        <time>2016-08-11T10:19:17Z</time>
      </trkpt>
      <trkpt lat="49.71457" lon="0.98796">
        <ele>146.78874206543</ele>
        <time>2016-08-11T10:19:32Z</time>
      </trkpt>
      <trkpt lat="49.71461" lon="0.98815">
        <ele>147.42309570312</ele>
        <time>2016-08-11T10:19:43Z</time>
      </trkpt>
      <trkpt lat="49.71462" lon="0.98824">
        <ele>147.42309570312</ele>
        <time>2016-08-11T10:19:47Z</time>
      </trkpt>
      <trkpt lat="49.71462" lon="0.98832">
        <ele>147.81491088867</ele>
        <time>2016-08-11T10:19:52Z</time>
      </trkpt>
      <trkpt lat="49.71467" lon="0.98852">
        <ele>148.283203125</ele>
        <time>2016-08-11T10:20:03Z</time>
      </trkpt>
      <trkpt lat="49.71465" lon="0.98858">
        <ele>148.283203125</ele>
        <time>2016-08-11T10:20:07Z</time>
      </trkpt>
      <trkpt lat="49.71471" lon="0.9888">
        <ele>148.48927307129</ele>
        <time>2016-08-11T10:20:17Z</time>
      </trkpt>
      <trkpt lat="49.71471" lon="0.98888">
        <ele>148.48927307129</ele>
        <time>2016-08-11T10:20:23Z</time>
      </trkpt>
      <trkpt lat="49.71478" lon="0.98907">
        <ele>149.1576385498</ele>
        <time>2016-08-11T10:20:32Z</time>
      </trkpt>
      <trkpt lat="49.71479" lon="0.98913">
        <ele>149.1576385498</ele>
        <time>2016-08-11T10:20:37Z</time>
      </trkpt>
      <trkpt lat="49.71484" lon="0.98937">
        <ele>149.47399902344</ele>
        <time>2016-08-11T10:20:48Z</time>
      </trkpt>
      <trkpt lat="49.71486" lon="0.98942">
        <ele>149.47399902344</ele>
        <time>2016-08-11T10:20:52Z</time>
      </trkpt>
      <trkpt lat="49.71489" lon="0.98958">
        <ele>149.1748046875</ele>
        <time>2016-08-11T10:21:03Z</time>
      </trkpt>
      <trkpt lat="49.7149" lon="0.98967">
        <ele>149.1748046875</ele>
        <time>2016-08-11T10:21:07Z</time>
      </trkpt>
      <trkpt lat="49.71496" lon="0.98992">
        <ele>148.43559265137</ele>
        <time>2016-08-11T10:21:23Z</time>
      </trkpt>
      <trkpt lat="49.71503" lon="0.99022">
        <ele>148.12640380859</ele>
        <time>2016-08-11T10:21:37Z</time>
      </trkpt>
      <trkpt lat="49.71505" lon="0.9903">
        <ele>148.12640380859</ele>
        <time>2016-08-11T10:21:42Z</time>
      </trkpt>
      <trkpt lat="49.71511" lon="0.9905">
        <ele>147.92807006836</ele>
        <time>2016-08-11T10:21:52Z</time>
      </trkpt>
      <trkpt lat="49.71514" lon="0.9906">
        <ele>147.92807006836</ele>
        <time>2016-08-11T10:21:57Z</time>
      </trkpt>
      <trkpt lat="49.71517" lon="0.99078">
        <ele>147.81840515137</ele>
        <time>2016-08-11T10:22:08Z</time>
      </trkpt>
      <trkpt lat="49.71523" lon="0.99092">
        <ele>148.35305786133</ele>
        <time>2016-08-11T10:22:13Z</time>
      </trkpt>
      <trkpt lat="49.7153" lon="0.99114">
        <ele>148.61834716797</ele>
        <time>2016-08-11T10:22:28Z</time>
      </trkpt>
      <trkpt lat="49.71536" lon="0.99129">
        <ele>148.50344848633</ele>
        <time>2016-08-11T10:22:37Z</time>
      </trkpt>
      <trkpt lat="49.71538" lon="0.99136">
        <ele>148.50344848633</ele>
        <time>2016-08-11T10:22:42Z</time>
      </trkpt>
      <trkpt lat="49.71541" lon="0.99146">
        <ele>148.20938110352</ele>
        <time>2016-08-11T10:22:47Z</time>
      </trkpt>
      <trkpt lat="49.71543" lon="0.99155">
        <ele>148.20938110352</ele>
        <time>2016-08-11T10:22:54Z</time>
      </trkpt>
      <trkpt lat="49.71546" lon="0.99163">
        <ele>147.77882385254</ele>
        <time>2016-08-11T10:22:58Z</time>
      </trkpt>
      <trkpt lat="49.71548" lon="0.99169">
        <ele>147.77882385254</ele>
        <time>2016-08-11T10:23:02Z</time>
      </trkpt>
      <trkpt lat="49.71555" lon="0.9919">
        <ele>147.55435180664</ele>
        <time>2016-08-11T10:23:13Z</time>
      </trkpt>
      <trkpt lat="49.71558" lon="0.99198">
        <ele>147.55435180664</ele>
        <time>2016-08-11T10:23:17Z</time>
      </trkpt>
      <trkpt lat="49.71562" lon="0.99212">
        <ele>147.13220214844</ele>
        <time>2016-08-11T10:23:27Z</time>
      </trkpt>
      <trkpt lat="49.71566" lon="0.99222">
        <ele>147.13220214844</ele>
        <time>2016-08-11T10:23:33Z</time>
      </trkpt>
      <trkpt lat="49.71571" lon="0.99238">
        <ele>146.57119750977</ele>
        <time>2016-08-11T10:23:42Z</time>
      </trkpt>
      <trkpt lat="49.71573" lon="0.99244">
        <ele>146.57119750977</ele>
        <time>2016-08-11T10:23:47Z</time>
      </trkpt>
      <trkpt lat="49.71581" lon="0.99265">
        <ele>145.92623901367</ele>
        <time>2016-08-11T10:23:59Z</time>
      </trkpt>
      <trkpt lat="49.71584" lon="0.99271">
        <ele>145.92623901367</ele>
        <time>2016-08-11T10:24:03Z</time>
      </trkpt>
      <trkpt lat="49.71591" lon="0.99287">
        <ele>145.39250183105</ele>
        <time>2016-08-11T10:24:14Z</time>
      </trkpt>
      <trkpt lat="49.71593" lon="0.99294">
        <ele>145.39250183105</ele>
        <time>2016-08-11T10:24:17Z</time>
      </trkpt>
      <trkpt lat="49.71598" lon="0.99311">
        <ele>145.06405639648</ele>
        <time>2016-08-11T10:24:27Z</time>
      </trkpt>
      <trkpt lat="49.71601" lon="0.9932">
        <ele>145.06405639648</ele>
        <time>2016-08-11T10:24:32Z</time>
      </trkpt>
      <trkpt lat="49.71608" lon="0.99342">
        <ele>144.50866699219</ele>
        <time>2016-08-11T10:24:43Z</time>
      </trkpt>
      <trkpt lat="49.71611" lon="0.99349">
        <ele>144.50866699219</ele>
        <time>2016-08-11T10:24:47Z</time>
      </trkpt>
      <trkpt lat="49.71617" lon="0.99365">
        <ele>144.26321411133</ele>
        <time>2016-08-11T10:24:58Z</time>
      </trkpt>
      <trkpt lat="49.7162" lon="0.99373">
        <ele>144.26321411133</ele>
        <time>2016-08-11T10:25:03Z</time>
      </trkpt>
      <trkpt lat="49.71628" lon="0.99399">
        <ele>143.75779724121</ele>
        <time>2016-08-11T10:25:17Z</time>
      </trkpt>
      <trkpt lat="49.71634" lon="0.99417">
        <ele>143.31536865234</ele>
        <time>2016-08-11T10:25:28Z</time>
      </trkpt>
      <trkpt lat="49.71637" lon="0.99426">
        <ele>143.31536865234</ele>
        <time>2016-08-11T10:25:32Z</time>
      </trkpt>
      <trkpt lat="49.71639" lon="0.99435">
        <ele>143.03321838379</ele>
        <time>2016-08-11T10:25:37Z</time>
      </trkpt>
      <trkpt lat="49.71643" lon="0.99444">
        <ele>143.03321838379</ele>
        <time>2016-08-11T10:25:44Z</time>
      </trkpt>
      <trkpt lat="49.71645" lon="0.99451">
        <ele>142.56864929199</ele>
        <time>2016-08-11T10:25:47Z</time>
      </trkpt>
      <trkpt lat="49.71647" lon="0.9946">
        <ele>142.56864929199</ele>
        <time>2016-08-11T10:25:52Z</time>
      </trkpt>
      <trkpt lat="49.71655" lon="0.99481">
        <ele>142.06582641602</ele>
        <time>2016-08-11T10:26:04Z</time>
      </trkpt>
      <trkpt lat="49.71655" lon="0.99484">
        <ele>142.06582641602</ele>
        <time>2016-08-11T10:26:08Z</time>
      </trkpt>
      <trkpt lat="49.71664" lon="0.99506">
        <ele>142.0763092041</ele>
        <time>2016-08-11T10:26:17Z</time>
      </trkpt>
      <trkpt lat="49.71668" lon="0.9952">
        <ele>142.08647155762</ele>
        <time>2016-08-11T10:26:24Z</time>
      </trkpt>
      <trkpt lat="49.71674" lon="0.99539">
        <ele>142.39862060547</ele>
        <time>2016-08-11T10:26:33Z</time>
      </trkpt>
      <trkpt lat="49.71676" lon="0.99546">
        <ele>142.39862060547</ele>
        <time>2016-08-11T10:26:37Z</time>
      </trkpt>
      <trkpt lat="49.71682" lon="0.99565">
        <ele>142.74436950684</ele>
        <time>2016-08-11T10:26:49Z</time>
      </trkpt>
      <trkpt lat="49.71685" lon="0.99572">
        <ele>142.74436950684</ele>
        <time>2016-08-11T10:26:53Z</time>
      </trkpt>
      <trkpt lat="49.71689" lon="0.99587">
        <ele>142.78848266602</ele>
        <time>2016-08-11T10:27:02Z</time>
      </trkpt>
      <trkpt lat="49.71693" lon="0.99598">
        <ele>142.78848266602</ele>
        <time>2016-08-11T10:27:08Z</time>
      </trkpt>
      <trkpt lat="49.71698" lon="0.99614">
        <ele>142.88404846191</ele>
        <time>2016-08-11T10:27:17Z</time>
      </trkpt>
      <trkpt lat="49.717" lon="0.99621">
        <ele>142.88404846191</ele>
        <time>2016-08-11T10:27:22Z</time>
      </trkpt>
      <trkpt lat="49.7171" lon="0.99639">
        <ele>143.18521118164</ele>
        <time>2016-08-11T10:27:34Z</time>
      </trkpt>
      <trkpt lat="49.71712" lon="0.99642">
        <ele>143.18521118164</ele>
        <time>2016-08-11T10:27:37Z</time>
      </trkpt>
      <trkpt lat="49.71719" lon="0.99648">
        <ele>142.83976745605</ele>
        <time>2016-08-11T10:27:48Z</time>
      </trkpt>
      <trkpt lat="49.71724" lon="0.99657">
        <ele>142.83976745605</ele>
        <time>2016-08-11T10:27:53Z</time>
      </trkpt>
      <trkpt lat="49.71737" lon="0.99679">
        <ele>142.73165893555</ele>
        <time>2016-08-11T10:28:08Z</time>
      </trkpt>
      <trkpt lat="49.71744" lon="0.99694">
        <ele>142.51191711426</ele>
        <time>2016-08-11T10:28:17Z</time>
      </trkpt>
      <trkpt lat="49.71747" lon="0.997">
        <ele>142.51191711426</ele>
        <time>2016-08-11T10:28:22Z</time>
      </trkpt>
      <trkpt lat="49.71751" lon="0.99709">
        <ele>142.47718811035</ele>
        <time>2016-08-11T10:28:27Z</time>
      </trkpt>
      <trkpt lat="49.71762" lon="0.99729">
        <ele>142.57037353516</ele>
        <time>2016-08-11T10:28:38Z</time>
      </trkpt>
      <trkpt lat="49.71766" lon="0.99734">
        <ele>142.57037353516</ele>
        <time>2016-08-11T10:28:42Z</time>
      </trkpt>
      <trkpt lat="49.71773" lon="0.9975">
        <ele>142.50762939453</ele>
        <time>2016-08-11T10:28:53Z</time>
      </trkpt>
      <trkpt lat="49.71782" lon="0.99769">
        <ele>142.12724304199</ele>
        <time>2016-08-11T10:29:07Z</time>
      </trkpt>
      <trkpt lat="49.71786" lon="0.99775">
        <ele>142.12724304199</ele>
        <time>2016-08-11T10:29:13Z</time>
      </trkpt>
      <trkpt lat="49.71793" lon="0.99788">
        <ele>141.43882751465</ele>
        <time>2016-08-11T10:29:22Z</time>
      </trkpt>
      <trkpt lat="49.71798" lon="0.99798">
        <ele>141.43882751465</ele>
        <time>2016-08-11T10:29:27Z</time>
      </trkpt>
      <trkpt lat="49.71807" lon="0.99811">
        <ele>141.04298400879</ele>
        <time>2016-08-11T10:29:37Z</time>
      </trkpt>
      <trkpt lat="49.71812" lon="0.99821">
        <ele>141.04298400879</ele>
        <time>2016-08-11T10:29:43Z</time>
      </trkpt>
      <trkpt lat="49.71822" lon="0.99834">
        <ele>140.67398071289</ele>
        <time>2016-08-11T10:29:52Z</time>
      </trkpt>
      <trkpt lat="49.71826" lon="0.9984">
        <ele>140.67398071289</ele>
        <time>2016-08-11T10:29:58Z</time>
      </trkpt>
      <trkpt lat="49.71835" lon="0.99854">
        <ele>140.35928344727</ele>
        <time>2016-08-11T10:30:08Z</time>
      </trkpt>
      <trkpt lat="49.71839" lon="0.99858">
        <ele>140.35928344727</ele>
        <time>2016-08-11T10:30:12Z</time>
      </trkpt>
      <trkpt lat="49.71857" lon="0.99874">
        <ele>139.76391601562</ele>
        <time>2016-08-11T10:30:28Z</time>
      </trkpt>
      <trkpt lat="49.71862" lon="0.99879">
        <ele>139.76391601562</ele>
        <time>2016-08-11T10:30:32Z</time>
      </trkpt>
      <trkpt lat="49.71873" lon="0.99892">
        <ele>139.12593078613</ele>
        <time>2016-08-11T10:30:43Z</time>
      </trkpt>
      <trkpt lat="49.71878" lon="0.99898">
        <ele>139.12593078613</ele>
        <time>2016-08-11T10:30:48Z</time>
      </trkpt>
      <trkpt lat="49.71888" lon="0.99908">
        <ele>138.66598510742</ele>
        <time>2016-08-11T10:30:58Z</time>
      </trkpt>
      <trkpt lat="49.71895" lon="0.99915">
        <ele>138.66598510742</ele>
        <time>2016-08-11T10:31:03Z</time>
      </trkpt>
      <trkpt lat="49.71903" lon="0.99922">
        <ele>138.25654602051</ele>
        <time>2016-08-11T10:31:12Z</time>
      </trkpt>
      <trkpt lat="49.71911" lon="0.99928">
        <ele>138.25654602051</ele>
        <time>2016-08-11T10:31:18Z</time>
      </trkpt>
      <trkpt lat="49.71921" lon="0.99938">
        <ele>138.08193969727</ele>
        <time>2016-08-11T10:31:27Z</time>
      </trkpt>
      <trkpt lat="49.71927" lon="0.99943">
        <ele>138.08193969727</ele>
        <time>2016-08-11T10:31:32Z</time>
      </trkpt>
      <trkpt lat="49.71941" lon="0.99953">
        <ele>138.13935852051</ele>
        <time>2016-08-11T10:31:42Z</time>
      </trkpt>
      <trkpt lat="49.71947" lon="0.99955">
        <ele>138.13935852051</ele>
        <time>2016-08-11T10:31:47Z</time>
      </trkpt>
      <trkpt lat="49.71959" lon="0.99962">
        <ele>138.15167236328</ele>
        <time>2016-08-11T10:31:58Z</time>
      </trkpt>
      <trkpt lat="49.71965" lon="0.99966">
        <ele>138.15167236328</ele>
        <time>2016-08-11T10:32:03Z</time>
      </trkpt>
      <trkpt lat="49.7197" lon="0.99969">
        <ele>138.2081451416</ele>
        <time>2016-08-11T10:32:07Z</time>
      </trkpt>
      <trkpt lat="49.71986" lon="0.99979">
        <ele>138.56423950195</ele>
        <time>2016-08-11T10:32:18Z</time>
      </trkpt>
      <trkpt lat="49.72002" lon="0.99989">
        <ele>138.82176208496</ele>
        <time>2016-08-11T10:32:33Z</time>
      </trkpt>
      <trkpt lat="49.72009" lon="0.99992">
        <ele>138.82176208496</ele>
        <time>2016-08-11T10:32:37Z</time>
      </trkpt>
      <trkpt lat="49.72013" lon="0.99995">
        <ele>138.90022277832</ele>
        <time>2016-08-11T10:32:42Z</time>
      </trkpt>
      <trkpt lat="49.72019" lon="0.99998">
        <ele>138.90022277832</ele>
        <time>2016-08-11T10:32:47Z</time>
      </trkpt>
      <trkpt lat="49.72025" lon="1.00001">
        <ele>138.95616149902</ele>
        <time>2016-08-11T10:32:53Z</time>
      </trkpt>
      <trkpt lat="49.72028" lon="1.00002">
        <ele>138.95616149902</ele>
        <time>2016-08-11T10:32:59Z</time>
      </trkpt>
      <trkpt lat="49.72025" lon="0.99999">
        <ele>138.95616149902</ele>
        <time>2016-08-11T10:33:07Z</time>
      </trkpt>
      <trkpt lat="49.72026" lon="0.99999">
        <ele>138.95616149902</ele>
        <time>2016-08-11T10:33:12Z</time>
      </trkpt>
      <trkpt lat="49.72029" lon="1.00003">
        <ele>138.29879760742</ele>
        <time>2016-08-11T10:33:28Z</time>
      </trkpt>
      <trkpt lat="49.72032" lon="1.00009">
        <ele>138.29879760742</ele>
        <time>2016-08-11T10:33:32Z</time>
      </trkpt>
      <trkpt lat="49.72042" lon="1.00021">
        <ele>138.00505065918</ele>
        <time>2016-08-11T10:33:42Z</time>
      </trkpt>
      <trkpt lat="49.72055" lon="1.00036">
        <ele>138.01969909668</ele>
        <time>2016-08-11T10:33:57Z</time>
      </trkpt>
      <trkpt lat="49.72061" lon="1.00041">
        <ele>138.01969909668</ele>
        <time>2016-08-11T10:34:02Z</time>
      </trkpt>
      <trkpt lat="49.72071" lon="1.00053">
        <ele>138.04571533203</ele>
        <time>2016-08-11T10:34:13Z</time>
      </trkpt>
      <trkpt lat="49.72078" lon="1.00059">
        <ele>138.04571533203</ele>
        <time>2016-08-11T10:34:17Z</time>
      </trkpt>
      <trkpt lat="49.7209" lon="1.00071">
        <ele>138.26902770996</ele>
        <time>2016-08-11T10:34:28Z</time>
      </trkpt>
      <trkpt lat="49.72097" lon="1.00078">
        <ele>138.26902770996</ele>
        <time>2016-08-11T10:34:33Z</time>
      </trkpt>
      <trkpt lat="49.72108" lon="1.0009">
        <ele>138.68841552734</ele>
        <time>2016-08-11T10:34:42Z</time>
      </trkpt>
      <trkpt lat="49.72112" lon="1.00095">
        <ele>138.68841552734</ele>
        <time>2016-08-11T10:34:47Z</time>
      </trkpt>
      <trkpt lat="49.72123" lon="1.00105">
        <ele>138.88429260254</ele>
        <time>2016-08-11T10:34:57Z</time>
      </trkpt>
      <trkpt lat="49.7213" lon="1.00111">
        <ele>138.88429260254</ele>
        <time>2016-08-11T10:35:02Z</time>
      </trkpt>
      <trkpt lat="49.72144" lon="1.00126">
        <ele>139.04496765137</ele>
        <time>2016-08-11T10:35:13Z</time>
      </trkpt>
      <trkpt lat="49.72146" lon="1.00129">
        <ele>139.04496765137</ele>
        <time>2016-08-11T10:35:17Z</time>
      </trkpt>
      <trkpt lat="49.72153" lon="1.00138">
        <ele>139.22973632812</ele>
        <time>2016-08-11T10:35:22Z</time>
      </trkpt>
      <trkpt lat="49.72162" lon="1.00151">
        <ele>139.29174804688</ele>
        <time>2016-08-11T10:35:34Z</time>
      </trkpt>
      <trkpt lat="49.72168" lon="1.00157">
        <ele>139.29174804688</ele>
        <time>2016-08-11T10:35:37Z</time>
      </trkpt>
      <trkpt lat="49.72178" lon="1.00168">
        <ele>139.13851928711</ele>
        <time>2016-08-11T10:35:47Z</time>
      </trkpt>
      <trkpt lat="49.72184" lon="1.00176">
        <ele>139.13851928711</ele>
        <time>2016-08-11T10:35:53Z</time>
      </trkpt>
      <trkpt lat="49.72198" lon="1.00188">
        <ele>139.3190612793</ele>
        <time>2016-08-11T10:36:02Z</time>
      </trkpt>
      <trkpt lat="49.722" lon="1.00193">
        <ele>139.3190612793</ele>
        <time>2016-08-11T10:36:07Z</time>
      </trkpt>
      <trkpt lat="49.72211" lon="1.00204">
        <ele>139.30354309082</ele>
        <time>2016-08-11T10:36:18Z</time>
      </trkpt>
      <trkpt lat="49.72217" lon="1.00211">
        <ele>139.30354309082</ele>
        <time>2016-08-11T10:36:22Z</time>
      </trkpt>
      <trkpt lat="49.72229" lon="1.00224">
        <ele>139.26455688477</ele>
        <time>2016-08-11T10:36:33Z</time>
      </trkpt>
      <trkpt lat="49.72233" lon="1.0023">
        <ele>139.26455688477</ele>
        <time>2016-08-11T10:36:38Z</time>
      </trkpt>
      <trkpt lat="49.72248" lon="1.00251">
        <ele>138.68475341797</ele>
        <time>2016-08-11T10:36:54Z</time>
      </trkpt>
      <trkpt lat="49.72252" lon="1.00256">
        <ele>138.68475341797</ele>
        <time>2016-08-11T10:36:57Z</time>
      </trkpt>
      <trkpt lat="49.72259" lon="1.00268">
        <ele>138.3544921875</ele>
        <time>2016-08-11T10:37:07Z</time>
      </trkpt>
      <trkpt lat="49.7226" lon="1.00269">
        <ele>138.3544921875</ele>
        <time>2016-08-11T10:37:13Z</time>
      </trkpt>
      <trkpt lat="49.72268" lon="1.00281">
        <ele>137.93896484375</ele>
        <time>2016-08-11T10:37:22Z</time>
      </trkpt>
      <trkpt lat="49.72273" lon="1.00291">
        <ele>137.93896484375</ele>
        <time>2016-08-11T10:37:27Z</time>
      </trkpt>
      <trkpt lat="49.72283" lon="1.00305">
        <ele>137.8487701416</ele>
        <time>2016-08-11T10:37:38Z</time>
      </trkpt>
      <trkpt lat="49.72287" lon="1.00311">
        <ele>137.8487701416</ele>
        <time>2016-08-11T10:37:42Z</time>
      </trkpt>
      <trkpt lat="49.72297" lon="1.00323">
        <ele>137.44026184082</ele>
        <time>2016-08-11T10:37:53Z</time>
      </trkpt>
      <trkpt lat="49.72301" lon="1.00329">
        <ele>137.44026184082</ele>
        <time>2016-08-11T10:37:57Z</time>
      </trkpt>
      <trkpt lat="49.72312" lon="1.00341">
        <ele>136.83851623535</ele>
        <time>2016-08-11T10:38:07Z</time>
      </trkpt>
      <trkpt lat="49.72318" lon="1.0035">
        <ele>136.83851623535</ele>
        <time>2016-08-11T10:38:13Z</time>
      </trkpt>
      <trkpt lat="49.72328" lon="1.00364">
        <ele>136.3761138916</ele>
        <time>2016-08-11T10:38:22Z</time>
      </trkpt>
      <trkpt lat="49.72331" lon="1.0037">
        <ele>136.3761138916</ele>
        <time>2016-08-11T10:38:27Z</time>
      </trkpt>
      <trkpt lat="49.7234" lon="1.00387">
        <ele>135.79881286621</ele>
        <time>2016-08-11T10:38:38Z</time>
      </trkpt>
      <trkpt lat="49.72344" lon="1.00392">
        <ele>135.79881286621</ele>
        <time>2016-08-11T10:38:42Z</time>
      </trkpt>
      <trkpt lat="49.72349" lon="1.00399">
        <ele>135.28926086426</ele>
        <time>2016-08-11T10:38:47Z</time>
      </trkpt>
      <trkpt lat="49.72354" lon="1.00409">
        <ele>135.28926086426</ele>
        <time>2016-08-11T10:38:53Z</time>
      </trkpt>
      <trkpt lat="49.72357" lon="1.00414">
        <ele>134.9012298584</ele>
        <time>2016-08-11T10:38:58Z</time>
      </trkpt>
      <trkpt lat="49.72362" lon="1.00425">
        <ele>134.9012298584</ele>
        <time>2016-08-11T10:39:12Z</time>
      </trkpt>
      <trkpt lat="49.72362" lon="1.00426">
        <ele>135.15971374512</ele>
        <time>2016-08-11T10:39:17Z</time>
      </trkpt>
      <trkpt lat="49.72364" lon="1.00432">
        <ele>135.15971374512</ele>
        <time>2016-08-11T10:39:27Z</time>
      </trkpt>
      <trkpt lat="49.72364" lon="1.00433">
        <ele>135.15971374512</ele>
        <time>2016-08-11T10:39:32Z</time>
      </trkpt>
      <trkpt lat="49.72364" lon="1.00433">
        <ele>135.15971374512</ele>
        <time>2016-08-11T10:39:37Z</time>
      </trkpt>
      <trkpt lat="49.72364" lon="1.00433">
        <ele>135.15971374512</ele>
        <time>2016-08-11T10:39:42Z</time>
      </trkpt>
      <trkpt lat="49.72364" lon="1.00433">
        <ele>135.15971374512</ele>
        <time>2016-08-11T10:39:47Z</time>
      </trkpt>
      <trkpt lat="49.72364" lon="1.00433">
        <ele>135.15971374512</ele>
        <time>2016-08-11T10:39:52Z</time>
      </trkpt>
      <trkpt lat="49.72364" lon="1.00433">
        <ele>135.15971374512</ele>
        <time>2016-08-11T10:39:57Z</time>
      </trkpt>
      <trkpt lat="49.72364" lon="1.00433">
        <ele>135.15971374512</ele>
        <time>2016-08-11T10:40:07Z</time>
      </trkpt>
      <trkpt lat="49.72364" lon="1.00433">
        <ele>135.15971374512</ele>
        <time>2016-08-11T10:40:12Z</time>
      </trkpt>
      <trkpt lat="49.7236" lon="1.00432">
        <ele>135.41090393066</ele>
        <time>2016-08-11T10:40:22Z</time>
      </trkpt>
      <trkpt lat="49.7236" lon="1.00431">
        <ele>135.41090393066</ele>
        <time>2016-08-11T10:40:28Z</time>
      </trkpt>
      <trkpt lat="49.72358" lon="1.00432">
        <ele>135.41090393066</ele>
        <time>2016-08-11T10:40:37Z</time>
      </trkpt>
      <trkpt lat="49.72357" lon="1.00433">
        <ele>135.41090393066</ele>
        <time>2016-08-11T10:40:42Z</time>
      </trkpt>
      <trkpt lat="49.72358" lon="1.00433">
        <ele>135.41090393066</ele>
        <time>2016-08-11T10:40:52Z</time>
      </trkpt>
      <trkpt lat="49.72358" lon="1.00433">
        <ele>135.41090393066</ele>
        <time>2016-08-11T10:40:57Z</time>
      </trkpt>
      <trkpt lat="49.7236" lon="1.00434">
        <ele>135.41090393066</ele>
        <time>2016-08-11T10:41:12Z</time>
      </trkpt>
      <trkpt lat="49.72368" lon="1.00437">
        <ele>135.29396057129</ele>
        <time>2016-08-11T10:41:23Z</time>
      </trkpt>
      <trkpt lat="49.72368" lon="1.00438">
        <ele>135.29396057129</ele>
        <time>2016-08-11T10:41:28Z</time>
      </trkpt>
      <trkpt lat="49.72381" lon="1.00448">
        <ele>135.64291381836</ele>
        <time>2016-08-11T10:41:42Z</time>
      </trkpt>
      <trkpt lat="49.72386" lon="1.00451">
        <ele>135.64291381836</ele>
        <time>2016-08-11T10:41:48Z</time>
      </trkpt>
      <trkpt lat="49.72394" lon="1.00457">
        <ele>135.77368164062</ele>
        <time>2016-08-11T10:41:57Z</time>
      </trkpt>
      <trkpt lat="49.72398" lon="1.00461">
        <ele>135.77368164062</ele>
        <time>2016-08-11T10:42:02Z</time>
      </trkpt>
      <trkpt lat="49.7241" lon="1.00474">
        <ele>136.16271972656</ele>
        <time>2016-08-11T10:42:13Z</time>
      </trkpt>
      <trkpt lat="49.72416" lon="1.00478">
        <ele>136.16271972656</ele>
        <time>2016-08-11T10:42:17Z</time>
      </trkpt>
      <trkpt lat="49.72427" lon="1.00484">
        <ele>136.48693847656</ele>
        <time>2016-08-11T10:42:28Z</time>
      </trkpt>
      <trkpt lat="49.72434" lon="1.00489">
        <ele>136.48693847656</ele>
        <time>2016-08-11T10:42:34Z</time>
      </trkpt>
      <trkpt lat="49.72444" lon="1.00494">
        <ele>136.8939666748</ele>
        <time>2016-08-11T10:42:42Z</time>
      </trkpt>
      <trkpt lat="49.72451" lon="1.00497">
        <ele>136.8939666748</ele>
        <time>2016-08-11T10:42:48Z</time>
      </trkpt>
      <trkpt lat="49.72463" lon="1.00499">
        <ele>137.52030944824</ele>
        <time>2016-08-11T10:42:58Z</time>
      </trkpt>
      <trkpt lat="49.72468" lon="1.005">
        <ele>137.52030944824</ele>
        <time>2016-08-11T10:43:02Z</time>
      </trkpt>
      <trkpt lat="49.72481" lon="1.00504">
        <ele>137.90104675293</ele>
        <time>2016-08-11T10:43:14Z</time>
      </trkpt>
      <trkpt lat="49.72482" lon="1.00506">
        <ele>137.90104675293</ele>
        <time>2016-08-11T10:43:17Z</time>
      </trkpt>
      <trkpt lat="49.72483" lon="1.00506">
        <ele>137.90104675293</ele>
        <time>2016-08-11T10:43:22Z</time>
      </trkpt>
      <trkpt lat="49.72487" lon="1.0051">
        <ele>137.90104675293</ele>
        <time>2016-08-11T10:43:27Z</time>
      </trkpt>
      <trkpt lat="49.7249" lon="1.00517">
        <ele>138.26898193359</ele>
        <time>2016-08-11T10:43:32Z</time>
      </trkpt>
      <trkpt lat="49.72496" lon="1.00525">
        <ele>138.26898193359</ele>
        <time>2016-08-11T10:43:37Z</time>
      </trkpt>
      <trkpt lat="49.72495" lon="1.00537">
        <ele>138.16258239746</ele>
        <time>2016-08-11T10:43:47Z</time>
      </trkpt>
      <trkpt lat="49.72498" lon="1.00545">
        <ele>138.16258239746</ele>
        <time>2016-08-11T10:43:52Z</time>
      </trkpt>
      <trkpt lat="49.72505" lon="1.00558">
        <ele>137.31407165527</ele>
        <time>2016-08-11T10:44:03Z</time>
      </trkpt>
      <trkpt lat="49.72509" lon="1.00564">
        <ele>137.31407165527</ele>
        <time>2016-08-11T10:44:07Z</time>
      </trkpt>
      <trkpt lat="49.72517" lon="1.00584">
        <ele>136.78886413574</ele>
        <time>2016-08-11T10:44:18Z</time>
      </trkpt>
      <trkpt lat="49.7252" lon="1.00595">
        <ele>136.78886413574</ele>
        <time>2016-08-11T10:44:23Z</time>
      </trkpt>
      <trkpt lat="49.72529" lon="1.00612">
        <ele>136.73736572266</ele>
        <time>2016-08-11T10:44:33Z</time>
      </trkpt>
      <trkpt lat="49.72535" lon="1.00623">
        <ele>137.38412475586</ele>
        <time>2016-08-11T10:44:38Z</time>
      </trkpt>
      <trkpt lat="49.72542" lon="1.00633">
        <ele>137.78231811523</ele>
        <time>2016-08-11T10:44:47Z</time>
      </trkpt>
      <trkpt lat="49.72547" lon="1.00639">
        <ele>137.78231811523</ele>
        <time>2016-08-11T10:44:53Z</time>
      </trkpt>
      <trkpt lat="49.72559" lon="1.00655">
        <ele>138.58296203613</ele>
        <time>2016-08-11T10:45:03Z</time>
      </trkpt>
      <trkpt lat="49.72561" lon="1.00657">
        <ele>138.58296203613</ele>
        <time>2016-08-11T10:45:07Z</time>
      </trkpt>
      <trkpt lat="49.72564" lon="1.0066">
        <ele>138.58296203613</ele>
        <time>2016-08-11T10:45:12Z</time>
      </trkpt>
      <trkpt lat="49.72574" lon="1.00671">
        <ele>138.55793762207</ele>
        <time>2016-08-11T10:45:22Z</time>
      </trkpt>
      <trkpt lat="49.72579" lon="1.00677">
        <ele>138.55793762207</ele>
        <time>2016-08-11T10:45:27Z</time>
      </trkpt>
      <trkpt lat="49.72587" lon="1.00693">
        <ele>138.51721191406</ele>
        <time>2016-08-11T10:45:38Z</time>
      </trkpt>
      <trkpt lat="49.7259" lon="1.00701">
        <ele>138.51721191406</ele>
        <time>2016-08-11T10:45:42Z</time>
      </trkpt>
      <trkpt lat="49.72592" lon="1.0071">
        <ele>138.41865539551</ele>
        <time>2016-08-11T10:45:52Z</time>
      </trkpt>
      <trkpt lat="49.7259" lon="1.00711">
        <ele>138.41865539551</ele>
        <time>2016-08-11T10:45:58Z</time>
      </trkpt>
      <trkpt lat="49.72582" lon="1.00726">
        <ele>138.09375</ele>
        <time>2016-08-11T10:46:07Z</time>
      </trkpt>
      <trkpt lat="49.72581" lon="1.00734">
        <ele>138.09375</ele>
        <time>2016-08-11T10:46:12Z</time>
      </trkpt>
      <trkpt lat="49.72587" lon="1.00749">
        <ele>136.99787902832</ele>
        <time>2016-08-11T10:46:23Z</time>
      </trkpt>
      <trkpt lat="49.72593" lon="1.0076">
        <ele>136.99787902832</ele>
        <time>2016-08-11T10:46:28Z</time>
      </trkpt>
      <trkpt lat="49.72599" lon="1.00774">
        <ele>136.51649475098</ele>
        <time>2016-08-11T10:46:37Z</time>
      </trkpt>
      <trkpt lat="49.72604" lon="1.00785">
        <ele>136.51649475098</ele>
        <time>2016-08-11T10:46:44Z</time>
      </trkpt>
      <trkpt lat="49.7261" lon="1.00798">
        <ele>135.85632324219</ele>
        <time>2016-08-11T10:46:53Z</time>
      </trkpt>
      <trkpt lat="49.72613" lon="1.00805">
        <ele>135.85632324219</ele>
        <time>2016-08-11T10:46:57Z</time>
      </trkpt>
      <trkpt lat="49.72624" lon="1.00824">
        <ele>135.45021057129</ele>
        <time>2016-08-11T10:47:08Z</time>
      </trkpt>
      <trkpt lat="49.72628" lon="1.00829">
        <ele>135.45021057129</ele>
        <time>2016-08-11T10:47:12Z</time>
      </trkpt>
      <trkpt lat="49.72635" lon="1.00844">
        <ele>134.51672363281</ele>
        <time>2016-08-11T10:47:23Z</time>
      </trkpt>
      <trkpt lat="49.72638" lon="1.00849">
        <ele>134.51672363281</ele>
        <time>2016-08-11T10:47:27Z</time>
      </trkpt>
      <trkpt lat="49.72637" lon="1.00848">
        <ele>134.51672363281</ele>
        <time>2016-08-11T10:47:32Z</time>
      </trkpt>
      <trkpt lat="49.72636" lon="1.00848">
        <ele>134.51672363281</ele>
        <time>2016-08-11T10:47:37Z</time>
      </trkpt>
      <trkpt lat="49.72636" lon="1.00847">
        <ele>134.51672363281</ele>
        <time>2016-08-11T10:47:42Z</time>
      </trkpt>
      <trkpt lat="49.72636" lon="1.00847">
        <ele>134.51672363281</ele>
        <time>2016-08-11T10:47:48Z</time>
      </trkpt>
      <trkpt lat="49.72644" lon="1.0086">
        <ele>133.64476013184</ele>
        <time>2016-08-11T10:48:02Z</time>
      </trkpt>
      <trkpt lat="49.7265" lon="1.00869">
        <ele>133.64476013184</ele>
        <time>2016-08-11T10:48:07Z</time>
      </trkpt>
      <trkpt lat="49.72656" lon="1.00879">
        <ele>133.27886962891</ele>
        <time>2016-08-11T10:48:17Z</time>
      </trkpt>
      <trkpt lat="49.72661" lon="1.00884">
        <ele>133.27886962891</ele>
        <time>2016-08-11T10:48:22Z</time>
      </trkpt>
      <trkpt lat="49.72673" lon="1.00894">
        <ele>132.70544433594</ele>
        <time>2016-08-11T10:48:33Z</time>
      </trkpt>
      <trkpt lat="49.72677" lon="1.00899">
        <ele>132.70544433594</ele>
        <time>2016-08-11T10:48:38Z</time>
      </trkpt>
      <trkpt lat="49.72687" lon="1.00911">
        <ele>131.58090209961</ele>
        <time>2016-08-11T10:48:48Z</time>
      </trkpt>
      <trkpt lat="49.72693" lon="1.00916">
        <ele>131.58090209961</ele>
        <time>2016-08-11T10:48:54Z</time>
      </trkpt>
      <trkpt lat="49.72706" lon="1.00927">
        <ele>131.46188354492</ele>
        <time>2016-08-11T10:49:02Z</time>
      </trkpt>
      <trkpt lat="49.7271" lon="1.00927">
        <ele>131.46188354492</ele>
        <time>2016-08-11T10:49:07Z</time>
      </trkpt>
      <trkpt lat="49.72719" lon="1.00937">
        <ele>130.94879150391</ele>
        <time>2016-08-11T10:49:18Z</time>
      </trkpt>
      <trkpt lat="49.72727" lon="1.00939">
        <ele>130.94879150391</ele>
        <time>2016-08-11T10:49:23Z</time>
      </trkpt>
      <trkpt lat="49.72737" lon="1.00931">
        <ele>130.83558654785</ele>
        <time>2016-08-11T10:49:33Z</time>
      </trkpt>
      <trkpt lat="49.72741" lon="1.00922">
        <ele>130.83558654785</ele>
        <time>2016-08-11T10:49:37Z</time>
      </trkpt>
      <trkpt lat="49.72752" lon="1.00911">
        <ele>129.66622924805</ele>
        <time>2016-08-11T10:49:53Z</time>
      </trkpt>
      <trkpt lat="49.72765" lon="1.00918">
        <ele>128.84710693359</ele>
        <time>2016-08-11T10:50:03Z</time>
      </trkpt>
      <trkpt lat="49.72768" lon="1.00924">
        <ele>128.84710693359</ele>
        <time>2016-08-11T10:50:07Z</time>
      </trkpt>
      <trkpt lat="49.72772" lon="1.0093">
        <ele>127.90769195557</ele>
        <time>2016-08-11T10:50:12Z</time>
      </trkpt>
      <trkpt lat="49.72782" lon="1.00945">
        <ele>127.1040802002</ele>
        <time>2016-08-11T10:50:23Z</time>
      </trkpt>
      <trkpt lat="49.72786" lon="1.00951">
        <ele>127.1040802002</ele>
        <time>2016-08-11T10:50:27Z</time>
      </trkpt>
      <trkpt lat="49.72796" lon="1.00966">
        <ele>126.87487030029</ele>
        <time>2016-08-11T10:50:39Z</time>
      </trkpt>
      <trkpt lat="49.72799" lon="1.00969">
        <ele>126.87487030029</ele>
        <time>2016-08-11T10:50:42Z</time>
      </trkpt>
      <trkpt lat="49.72809" lon="1.00977">
        <ele>126.37102508545</ele>
        <time>2016-08-11T10:50:52Z</time>
      </trkpt>
      <trkpt lat="49.72812" lon="1.00979">
        <ele>126.37102508545</ele>
        <time>2016-08-11T10:50:57Z</time>
      </trkpt>
      <trkpt lat="49.72831" lon="1.00996">
        <ele>125.78656005859</ele>
        <time>2016-08-11T10:51:12Z</time>
      </trkpt>
      <trkpt lat="49.72841" lon="1.01007">
        <ele>125.50317382812</ele>
        <time>2016-08-11T10:51:23Z</time>
      </trkpt>
      <trkpt lat="49.72845" lon="1.01012">
        <ele>125.50317382812</ele>
        <time>2016-08-11T10:51:28Z</time>
      </trkpt>
      <trkpt lat="49.72846" lon="1.01016">
        <ele>125.50317382812</ele>
        <time>2016-08-11T10:51:32Z</time>
      </trkpt>
      <trkpt lat="49.72846" lon="1.01023">
        <ele>125.34044647217</ele>
        <time>2016-08-11T10:51:37Z</time>
      </trkpt>
      <trkpt lat="49.72848" lon="1.01024">
        <ele>125.34044647217</ele>
        <time>2016-08-11T10:51:43Z</time>
      </trkpt>
      <trkpt lat="49.72848" lon="1.0103">
        <ele>125.34044647217</ele>
        <time>2016-08-11T10:51:47Z</time>
      </trkpt>
      <trkpt lat="49.72844" lon="1.01037">
        <ele>125.41903686523</ele>
        <time>2016-08-11T10:51:57Z</time>
      </trkpt>
      <trkpt lat="49.72843" lon="1.0104">
        <ele>125.41903686523</ele>
        <time>2016-08-11T10:52:02Z</time>
      </trkpt>
      <trkpt lat="49.7284" lon="1.01042">
        <ele>125.41903686523</ele>
        <time>2016-08-11T10:52:13Z</time>
      </trkpt>
      <trkpt lat="49.72841" lon="1.01042">
        <ele>125.41903686523</ele>
        <time>2016-08-11T10:52:17Z</time>
      </trkpt>
      <trkpt lat="49.72841" lon="1.01042">
        <ele>125.41903686523</ele>
        <time>2016-08-11T10:52:27Z</time>
      </trkpt>
      <trkpt lat="49.72841" lon="1.01044">
        <ele>125.41903686523</ele>
        <time>2016-08-11T10:52:32Z</time>
      </trkpt>
      <trkpt lat="49.72845" lon="1.01043">
        <ele>125.66269683838</ele>
        <time>2016-08-11T10:52:49Z</time>
      </trkpt>
      <trkpt lat="49.72845" lon="1.01043">
        <ele>125.66269683838</ele>
        <time>2016-08-11T10:53:02Z</time>
      </trkpt>
      <trkpt lat="49.72845" lon="1.01043">
        <ele>125.66269683838</ele>
        <time>2016-08-11T10:53:07Z</time>
      </trkpt>
      <trkpt lat="49.72845" lon="1.01043">
        <ele>125.66269683838</ele>
        <time>2016-08-11T10:53:12Z</time>
      </trkpt>
      <trkpt lat="49.72845" lon="1.01043">
        <ele>125.66269683838</ele>
        <time>2016-08-11T10:53:17Z</time>
      </trkpt>
      <trkpt lat="49.72845" lon="1.01043">
        <ele>125.66269683838</ele>
        <time>2016-08-11T10:53:22Z</time>
      </trkpt>
      <trkpt lat="49.72839" lon="1.0104">
        <ele>125.66269683838</ele>
        <time>2016-08-11T10:53:27Z</time>
      </trkpt>
      <trkpt lat="49.72842" lon="1.0104">
        <ele>126.44702148438</ele>
        <time>2016-08-11T10:53:32Z</time>
      </trkpt>
      <trkpt lat="49.72843" lon="1.01042">
        <ele>126.44702148438</ele>
        <time>2016-08-11T10:53:37Z</time>
      </trkpt>
      <trkpt lat="49.72842" lon="1.01043">
        <ele>126.44702148438</ele>
        <time>2016-08-11T10:53:42Z</time>
      </trkpt>
      <trkpt lat="49.72842" lon="1.01044">
        <ele>126.44702148438</ele>
        <time>2016-08-11T10:53:47Z</time>
      </trkpt>
      <trkpt lat="49.72844" lon="1.01046">
        <ele>126.44702148438</ele>
        <time>2016-08-11T10:53:57Z</time>
      </trkpt>
      <trkpt lat="49.72843" lon="1.01046">
        <ele>126.44702148438</ele>
        <time>2016-08-11T10:54:03Z</time>
      </trkpt>
      <trkpt lat="49.72845" lon="1.01046">
        <ele>126.44702148438</ele>
        <time>2016-08-11T10:54:12Z</time>
      </trkpt>
      <trkpt lat="49.72845" lon="1.01046">
        <ele>126.44702148438</ele>
        <time>2016-08-11T10:54:17Z</time>
      </trkpt>
      <trkpt lat="49.72835" lon="1.01059">
        <ele>126.92237854004</ele>
        <time>2016-08-11T10:54:32Z</time>
      </trkpt>
      <trkpt lat="49.72819" lon="1.01083">
        <ele>126.84999084473</ele>
        <time>2016-08-11T10:54:48Z</time>
      </trkpt>
      <trkpt lat="49.72817" lon="1.0109">
        <ele>126.84999084473</ele>
        <time>2016-08-11T10:54:52Z</time>
      </trkpt>
      <trkpt lat="49.72807" lon="1.01104">
        <ele>126.60102081299</ele>
        <time>2016-08-11T10:55:04Z</time>
      </trkpt>
      <trkpt lat="49.72801" lon="1.01111">
        <ele>126.60102081299</ele>
        <time>2016-08-11T10:55:07Z</time>
      </trkpt>
      <trkpt lat="49.72801" lon="1.01123">
        <ele>126.30368804932</ele>
        <time>2016-08-11T10:55:17Z</time>
      </trkpt>
      <trkpt lat="49.72784" lon="1.0115">
        <ele>125.73105621338</ele>
        <time>2016-08-11T10:55:33Z</time>
      </trkpt>
      <trkpt lat="49.72781" lon="1.01156">
        <ele>125.73105621338</ele>
        <time>2016-08-11T10:55:37Z</time>
      </trkpt>
      <trkpt lat="49.72774" lon="1.0117">
        <ele>124.80333709717</ele>
        <time>2016-08-11T10:55:47Z</time>
      </trkpt>
      <trkpt lat="49.72771" lon="1.01177">
        <ele>124.80333709717</ele>
        <time>2016-08-11T10:55:53Z</time>
      </trkpt>
      <trkpt lat="49.72758" lon="1.01188">
        <ele>124.25458526611</ele>
        <time>2016-08-11T10:56:02Z</time>
      </trkpt>
      <trkpt lat="49.72756" lon="1.01193">
        <ele>124.25458526611</ele>
        <time>2016-08-11T10:56:08Z</time>
      </trkpt>
      <trkpt lat="49.72745" lon="1.01207">
        <ele>123.46688842773</ele>
        <time>2016-08-11T10:56:17Z</time>
      </trkpt>
      <trkpt lat="49.72742" lon="1.01213">
        <ele>123.46688842773</ele>
        <time>2016-08-11T10:56:22Z</time>
      </trkpt>
      <trkpt lat="49.72731" lon="1.01227">
        <ele>122.60334014893</ele>
        <time>2016-08-11T10:56:33Z</time>
      </trkpt>
      <trkpt lat="49.72724" lon="1.01238">
        <ele>121.71437072754</ele>
        <time>2016-08-11T10:56:38Z</time>
      </trkpt>
      <trkpt lat="49.72716" lon="1.01249">
        <ele>120.64500427246</ele>
        <time>2016-08-11T10:56:47Z</time>
      </trkpt>
      <trkpt lat="49.72711" lon="1.01254">
        <ele>120.64500427246</ele>
        <time>2016-08-11T10:56:53Z</time>
      </trkpt>
      <trkpt lat="49.72697" lon="1.01272">
        <ele>120.01591491699</ele>
        <time>2016-08-11T10:57:03Z</time>
      </trkpt>
      <trkpt lat="49.72693" lon="1.01278">
        <ele>120.01591491699</ele>
        <time>2016-08-11T10:57:07Z</time>
      </trkpt>
      <trkpt lat="49.72681" lon="1.01291">
        <ele>119.39215087891</ele>
        <time>2016-08-11T10:57:19Z</time>
      </trkpt>
      <trkpt lat="49.72678" lon="1.01291">
        <ele>119.39215087891</ele>
        <time>2016-08-11T10:57:22Z</time>
      </trkpt>
      <trkpt lat="49.72678" lon="1.01291">
        <ele>119.39215087891</ele>
        <time>2016-08-11T10:57:27Z</time>
      </trkpt>
      <trkpt lat="49.72673" lon="1.01295">
        <ele>119.39215087891</ele>
        <time>2016-08-11T10:57:32Z</time>
      </trkpt>
      <trkpt lat="49.72669" lon="1.01297">
        <ele>118.50035858154</ele>
        <time>2016-08-11T10:57:37Z</time>
      </trkpt>
      <trkpt lat="49.72653" lon="1.01302">
        <ele>117.21770477295</ele>
        <time>2016-08-11T10:57:52Z</time>
      </trkpt>
      <trkpt lat="49.72636" lon="1.01293">
        <ele>116.77165985107</ele>
        <time>2016-08-11T10:58:02Z</time>
      </trkpt>
      <trkpt lat="49.72631" lon="1.01294">
        <ele>116.77165985107</ele>
        <time>2016-08-11T10:58:07Z</time>
      </trkpt>
      <trkpt lat="49.72607" lon="1.01284">
        <ele>116.68310546875</ele>
        <time>2016-08-11T10:58:22Z</time>
      </trkpt>
      <trkpt lat="49.72603" lon="1.01285">
        <ele>116.68310546875</ele>
        <time>2016-08-11T10:58:27Z</time>
      </trkpt>
      <trkpt lat="49.72594" lon="1.01287">
        <ele>117.2852935791</ele>
        <time>2016-08-11T10:58:33Z</time>
      </trkpt>
      <trkpt lat="49.7259" lon="1.01288">
        <ele>117.2852935791</ele>
        <time>2016-08-11T10:58:38Z</time>
      </trkpt>
      <trkpt lat="49.72586" lon="1.01288">
        <ele>117.2852935791</ele>
        <time>2016-08-11T10:58:42Z</time>
      </trkpt>
      <trkpt lat="49.72569" lon="1.01292">
        <ele>118.76972961426</ele>
        <time>2016-08-11T10:58:52Z</time>
      </trkpt>
      <trkpt lat="49.72566" lon="1.01297">
        <ele>118.76972961426</ele>
        <time>2016-08-11T10:58:57Z</time>
      </trkpt>
      <trkpt lat="49.72554" lon="1.01298">
        <ele>119.97113800049</ele>
        <time>2016-08-11T10:59:07Z</time>
      </trkpt>
      <trkpt lat="49.72541" lon="1.0132">
        <ele>119.95473480225</ele>
        <time>2016-08-11T10:59:22Z</time>
      </trkpt>
      <trkpt lat="49.72536" lon="1.01328">
        <ele>119.95473480225</ele>
        <time>2016-08-11T10:59:27Z</time>
      </trkpt>
      <trkpt lat="49.72523" lon="1.01337">
        <ele>120.65358734131</ele>
        <time>2016-08-11T10:59:39Z</time>
      </trkpt>
      <trkpt lat="49.72518" lon="1.01342">
        <ele>120.65358734131</ele>
        <time>2016-08-11T10:59:42Z</time>
      </trkpt>
      <trkpt lat="49.72504" lon="1.01346">
        <ele>122.25714874268</ele>
        <time>2016-08-11T10:59:52Z</time>
      </trkpt>
      <trkpt lat="49.725" lon="1.01349">
        <ele>122.25714874268</ele>
        <time>2016-08-11T10:59:58Z</time>
      </trkpt>
      <trkpt lat="49.72499" lon="1.01363">
        <ele>122.21472167969</ele>
        <time>2016-08-11T11:00:07Z</time>
      </trkpt>
      <trkpt lat="49.72496" lon="1.01363">
        <ele>122.21472167969</ele>
        <time>2016-08-11T11:00:12Z</time>
      </trkpt>
      <trkpt lat="49.72489" lon="1.01378">
        <ele>121.58306884766</ele>
        <time>2016-08-11T11:00:23Z</time>
      </trkpt>
      <trkpt lat="49.72484" lon="1.01387">
        <ele>121.58306884766</ele>
        <time>2016-08-11T11:00:27Z</time>
      </trkpt>
      <trkpt lat="49.72476" lon="1.01402">
        <ele>121.24214172363</ele>
        <time>2016-08-11T11:00:39Z</time>
      </trkpt>
      <trkpt lat="49.72477" lon="1.01402">
        <ele>121.24214172363</ele>
        <time>2016-08-11T11:00:43Z</time>
      </trkpt>
      <trkpt lat="49.72455" lon="1.01419">
        <ele>123.15933227539</ele>
        <time>2016-08-11T11:00:58Z</time>
      </trkpt>
      <trkpt lat="49.7245" lon="1.01433">
        <ele>124.49645996094</ele>
        <time>2016-08-11T11:01:08Z</time>
      </trkpt>
      <trkpt lat="49.72448" lon="1.01442">
        <ele>124.49645996094</ele>
        <time>2016-08-11T11:01:12Z</time>
      </trkpt>
      <trkpt lat="49.72435" lon="1.01459">
        <ele>126.02649688721</ele>
        <time>2016-08-11T11:01:27Z</time>
      </trkpt>
      <trkpt lat="49.72424" lon="1.01481">
        <ele>127.68697357178</ele>
        <time>2016-08-11T11:01:43Z</time>
      </trkpt>
      <trkpt lat="49.72422" lon="1.01485">
        <ele>127.68697357178</ele>
        <time>2016-08-11T11:01:47Z</time>
      </trkpt>
      <trkpt lat="49.72417" lon="1.01505">
        <ele>128.0506439209</ele>
        <time>2016-08-11T11:01:59Z</time>
      </trkpt>
      <trkpt lat="49.7241" lon="1.01508">
        <ele>128.0506439209</ele>
        <time>2016-08-11T11:02:03Z</time>
      </trkpt>
      <trkpt lat="49.72397" lon="1.01527">
        <ele>130.0500793457</ele>
        <time>2016-08-11T11:02:13Z</time>
      </trkpt>
      <trkpt lat="49.72396" lon="1.01534">
        <ele>130.0500793457</ele>
        <time>2016-08-11T11:02:18Z</time>
      </trkpt>
      <trkpt lat="49.72388" lon="1.01543">
        <ele>131.41171264648</ele>
        <time>2016-08-11T11:02:27Z</time>
      </trkpt>
      <trkpt lat="49.72385" lon="1.01549">
        <ele>131.41171264648</ele>
        <time>2016-08-11T11:02:32Z</time>
      </trkpt>
      <trkpt lat="49.72373" lon="1.01564">
        <ele>133.02835083008</ele>
        <time>2016-08-11T11:02:43Z</time>
      </trkpt>
      <trkpt lat="49.7237" lon="1.01567">
        <ele>133.02835083008</ele>
        <time>2016-08-11T11:02:47Z</time>
      </trkpt>
      <trkpt lat="49.72361" lon="1.01587">
        <ele>133.98284912109</ele>
        <time>2016-08-11T11:02:59Z</time>
      </trkpt>
      <trkpt lat="49.72359" lon="1.01596">
        <ele>133.98284912109</ele>
        <time>2016-08-11T11:03:02Z</time>
      </trkpt>
      <trkpt lat="49.72345" lon="1.01604">
        <ele>135.22880554199</ele>
        <time>2016-08-11T11:03:18Z</time>
      </trkpt>
      <trkpt lat="49.72332" lon="1.0162">
        <ele>136.97172546387</ele>
        <time>2016-08-11T11:03:28Z</time>
      </trkpt>
      <trkpt lat="49.7233" lon="1.01619">
        <ele>136.97172546387</ele>
        <time>2016-08-11T11:03:32Z</time>
      </trkpt>
      <trkpt lat="49.72328" lon="1.0163">
        <ele>138.37753295898</ele>
        <time>2016-08-11T11:03:37Z</time>
      </trkpt>
      <trkpt lat="49.72316" lon="1.01649">
        <ele>140.24530029297</ele>
        <time>2016-08-11T11:03:48Z</time>
      </trkpt>
      <trkpt lat="49.72315" lon="1.0165">
        <ele>140.24530029297</ele>
        <time>2016-08-11T11:03:52Z</time>
      </trkpt>
      <trkpt lat="49.72306" lon="1.01663">
        <ele>141.74342346191</ele>
        <time>2016-08-11T11:04:03Z</time>
      </trkpt>
      <trkpt lat="49.72297" lon="1.01668">
        <ele>143.60127258301</ele>
        <time>2016-08-11T11:04:08Z</time>
      </trkpt>
      <trkpt lat="49.72292" lon="1.01676">
        <ele>143.60127258301</ele>
        <time>2016-08-11T11:04:17Z</time>
      </trkpt>
      <trkpt lat="49.72287" lon="1.01688">
        <ele>144.86532592773</ele>
        <time>2016-08-11T11:04:22Z</time>
      </trkpt>
      <trkpt lat="49.72279" lon="1.01702">
        <ele>145.48976135254</ele>
        <time>2016-08-11T11:04:33Z</time>
      </trkpt>
      <trkpt lat="49.72274" lon="1.01703">
        <ele>145.48976135254</ele>
        <time>2016-08-11T11:04:37Z</time>
      </trkpt>
      <trkpt lat="49.72266" lon="1.01722">
        <ele>145.6789855957</ele>
        <time>2016-08-11T11:04:49Z</time>
      </trkpt>
      <trkpt lat="49.72261" lon="1.01729">
        <ele>145.6789855957</ele>
        <time>2016-08-11T11:04:53Z</time>
      </trkpt>
      <trkpt lat="49.72252" lon="1.01739">
        <ele>146.70458984375</ele>
        <time>2016-08-11T11:05:02Z</time>
      </trkpt>
      <trkpt lat="49.72246" lon="1.01746">
        <ele>146.70458984375</ele>
        <time>2016-08-11T11:05:08Z</time>
      </trkpt>
      <trkpt lat="49.72235" lon="1.01765">
        <ele>147.58087158203</ele>
        <time>2016-08-11T11:05:17Z</time>
      </trkpt>
      <trkpt lat="49.7223" lon="1.01768">
        <ele>147.58087158203</ele>
        <time>2016-08-11T11:05:23Z</time>
      </trkpt>
      <trkpt lat="49.72222" lon="1.01782">
        <ele>148.24530029297</ele>
        <time>2016-08-11T11:05:32Z</time>
      </trkpt>
      <trkpt lat="49.72219" lon="1.01788">
        <ele>148.24530029297</ele>
        <time>2016-08-11T11:05:38Z</time>
      </trkpt>
      <trkpt lat="49.72211" lon="1.018">
        <ele>149.00094604492</ele>
        <time>2016-08-11T11:05:48Z</time>
      </trkpt>
      <trkpt lat="49.72208" lon="1.01806">
        <ele>149.00094604492</ele>
        <time>2016-08-11T11:05:54Z</time>
      </trkpt>
      <trkpt lat="49.72194" lon="1.01829">
        <ele>148.70170593262</ele>
        <time>2016-08-11T11:06:08Z</time>
      </trkpt>
      <trkpt lat="49.72185" lon="1.01839">
        <ele>148.55131530762</ele>
        <time>2016-08-11T11:06:22Z</time>
      </trkpt>
      <trkpt lat="49.72181" lon="1.01847">
        <ele>148.55131530762</ele>
        <time>2016-08-11T11:06:27Z</time>
      </trkpt>
      <trkpt lat="49.72172" lon="1.01862">
        <ele>148.41096496582</ele>
        <time>2016-08-11T11:06:38Z</time>
      </trkpt>
      <trkpt lat="49.72167" lon="1.01869">
        <ele>148.41096496582</ele>
        <time>2016-08-11T11:06:42Z</time>
      </trkpt>
      <trkpt lat="49.72159" lon="1.01883">
        <ele>148.7717590332</ele>
        <time>2016-08-11T11:06:53Z</time>
      </trkpt>
      <trkpt lat="49.72155" lon="1.01891">
        <ele>148.7717590332</ele>
        <time>2016-08-11T11:06:58Z</time>
      </trkpt>
      <trkpt lat="49.72144" lon="1.01907">
        <ele>148.64627075195</ele>
        <time>2016-08-11T11:07:14Z</time>
      </trkpt>
      <trkpt lat="49.7214" lon="1.01912">
        <ele>148.64627075195</ele>
        <time>2016-08-11T11:07:17Z</time>
      </trkpt>
      <trkpt lat="49.72138" lon="1.01921">
        <ele>148.57653808594</ele>
        <time>2016-08-11T11:07:24Z</time>
      </trkpt>
      <trkpt lat="49.72135" lon="1.01927">
        <ele>148.57653808594</ele>
        <time>2016-08-11T11:07:27Z</time>
      </trkpt>
      <trkpt lat="49.72128" lon="1.01942">
        <ele>147.09037780762</ele>
        <time>2016-08-11T11:07:43Z</time>
      </trkpt>
      <trkpt lat="49.72125" lon="1.01948">
        <ele>147.09037780762</ele>
        <time>2016-08-11T11:07:47Z</time>
      </trkpt>
      <trkpt lat="49.72117" lon="1.01965">
        <ele>146.02699279785</ele>
        <time>2016-08-11T11:07:58Z</time>
      </trkpt>
      <trkpt lat="49.72111" lon="1.01974">
        <ele>146.02699279785</ele>
        <time>2016-08-11T11:08:03Z</time>
      </trkpt>
      <trkpt lat="49.72104" lon="1.01985">
        <ele>145.50407409668</ele>
        <time>2016-08-11T11:08:13Z</time>
      </trkpt>
      <trkpt lat="49.72095" lon="1.01991">
        <ele>145.45625305176</ele>
        <time>2016-08-11T11:08:19Z</time>
      </trkpt>
      <trkpt lat="49.72086" lon="1.02002">
        <ele>145.4181060791</ele>
        <time>2016-08-11T11:08:27Z</time>
      </trkpt>
      <trkpt lat="49.72089" lon="1.01998">
        <ele>145.4181060791</ele>
        <time>2016-08-11T11:08:32Z</time>
      </trkpt>
      <trkpt lat="49.7208" lon="1.02008">
        <ele>144.81420898438</ele>
        <time>2016-08-11T11:08:47Z</time>
      </trkpt>
      <trkpt lat="49.72076" lon="1.02012">
        <ele>144.81420898438</ele>
        <time>2016-08-11T11:08:52Z</time>
      </trkpt>
      <trkpt lat="49.72066" lon="1.02022">
        <ele>143.64624023438</ele>
        <time>2016-08-11T11:09:03Z</time>
      </trkpt>
      <trkpt lat="49.72068" lon="1.02022">
        <ele>143.64624023438</ele>
        <time>2016-08-11T11:09:07Z</time>
      </trkpt>
      <trkpt lat="49.72068" lon="1.02025">
        <ele>143.64624023438</ele>
        <time>2016-08-11T11:09:18Z</time>
      </trkpt>
      <trkpt lat="49.72068" lon="1.02026">
        <ele>143.64624023438</ele>
        <time>2016-08-11T11:09:22Z</time>
      </trkpt>
      <trkpt lat="49.72066" lon="1.02031">
        <ele>143.64624023438</ele>
        <time>2016-08-11T11:09:32Z</time>
      </trkpt>
      <trkpt lat="49.72067" lon="1.02031">
        <ele>143.12780761719</ele>
        <time>2016-08-11T11:09:38Z</time>
      </trkpt>
      <trkpt lat="49.72065" lon="1.0203">
        <ele>143.12780761719</ele>
        <time>2016-08-11T11:09:48Z</time>
      </trkpt>
      <trkpt lat="49.72064" lon="1.02031">
        <ele>143.12780761719</ele>
        <time>2016-08-11T11:09:52Z</time>
      </trkpt>
      <trkpt lat="49.72056" lon="1.02035">
        <ele>142.78186035156</ele>
        <time>2016-08-11T11:10:02Z</time>
      </trkpt>
      <trkpt lat="49.72051" lon="1.02034">
        <ele>142.78186035156</ele>
        <time>2016-08-11T11:10:08Z</time>
      </trkpt>
      <trkpt lat="49.72034" lon="1.02028">
        <ele>142.94410705566</ele>
        <time>2016-08-11T11:10:24Z</time>
      </trkpt>
      <trkpt lat="49.72018" lon="1.02019">
        <ele>143.18913269043</ele>
        <time>2016-08-11T11:10:37Z</time>
      </trkpt>
      <trkpt lat="49.72013" lon="1.02017">
        <ele>143.18913269043</ele>
        <time>2016-08-11T11:10:42Z</time>
      </trkpt>
      <trkpt lat="49.7201" lon="1.02017">
        <ele>143.18913269043</ele>
        <time>2016-08-11T11:10:47Z</time>
      </trkpt>
      <trkpt lat="49.72011" lon="1.02019">
        <ele>142.86306762695</ele>
        <time>2016-08-11T11:10:52Z</time>
      </trkpt>
      <trkpt lat="49.72009" lon="1.0202">
        <ele>142.86306762695</ele>
        <time>2016-08-11T11:10:58Z</time>
      </trkpt>
      <trkpt lat="49.72011" lon="1.0202">
        <ele>142.86306762695</ele>
        <time>2016-08-11T11:11:02Z</time>
      </trkpt>
      <trkpt lat="49.72005" lon="1.02029">
        <ele>142.09663391113</ele>
        <time>2016-08-11T11:11:12Z</time>
      </trkpt>
      <trkpt lat="49.72005" lon="1.02028">
        <ele>142.09663391113</ele>
        <time>2016-08-11T11:11:18Z</time>
      </trkpt>
      <trkpt lat="49.72004" lon="1.02031">
        <ele>142.09663391113</ele>
        <time>2016-08-11T11:11:27Z</time>
      </trkpt>
      <trkpt lat="49.72001" lon="1.02038">
        <ele>142.09663391113</ele>
        <time>2016-08-11T11:11:33Z</time>
      </trkpt>
      <trkpt lat="49.71998" lon="1.02055">
        <ele>140.66622924805</ele>
        <time>2016-08-11T11:11:43Z</time>
      </trkpt>
      <trkpt lat="49.71998" lon="1.02061">
        <ele>140.66622924805</ele>
        <time>2016-08-11T11:11:47Z</time>
      </trkpt>
      <trkpt lat="49.71993" lon="1.02074">
        <ele>139.34648132324</ele>
        <time>2016-08-11T11:11:58Z</time>
      </trkpt>
      <trkpt lat="49.71995" lon="1.02085">
        <ele>139.34648132324</ele>
        <time>2016-08-11T11:12:02Z</time>
      </trkpt>
      <trkpt lat="49.71988" lon="1.02102">
        <ele>138.45115661621</ele>
        <time>2016-08-11T11:12:12Z</time>
      </trkpt>
      <trkpt lat="49.71985" lon="1.0211">
        <ele>138.45115661621</ele>
        <time>2016-08-11T11:12:18Z</time>
      </trkpt>
      <trkpt lat="49.71983" lon="1.02126">
        <ele>137.30421447754</ele>
        <time>2016-08-11T11:12:28Z</time>
      </trkpt>
      <trkpt lat="49.71984" lon="1.02132">
        <ele>137.30421447754</ele>
        <time>2016-08-11T11:12:32Z</time>
      </trkpt>
      <trkpt lat="49.71975" lon="1.02156">
        <ele>136.02926635742</ele>
        <time>2016-08-11T11:12:44Z</time>
      </trkpt>
      <trkpt lat="49.71974" lon="1.02161">
        <ele>136.02926635742</ele>
        <time>2016-08-11T11:12:47Z</time>
      </trkpt>
      <trkpt lat="49.71972" lon="1.02178">
        <ele>134.66903686523</ele>
        <time>2016-08-11T11:12:57Z</time>
      </trkpt>
      <trkpt lat="49.71972" lon="1.02193">
        <ele>133.49383544922</ele>
        <time>2016-08-11T11:13:03Z</time>
      </trkpt>
      <trkpt lat="49.71971" lon="1.0221">
        <ele>132.7967376709</ele>
        <time>2016-08-11T11:13:12Z</time>
      </trkpt>
      <trkpt lat="49.71965" lon="1.02224">
        <ele>132.32904052734</ele>
        <time>2016-08-11T11:13:17Z</time>
      </trkpt>
      <trkpt lat="49.71957" lon="1.02244">
        <ele>132.19102478027</ele>
        <time>2016-08-11T11:13:28Z</time>
      </trkpt>
      <trkpt lat="49.71957" lon="1.02243">
        <ele>132.19102478027</ele>
        <time>2016-08-11T11:13:33Z</time>
      </trkpt>
      <trkpt lat="49.71953" lon="1.02261">
        <ele>132.04223632812</ele>
        <time>2016-08-11T11:13:43Z</time>
      </trkpt>
      <trkpt lat="49.71952" lon="1.02269">
        <ele>132.04223632812</ele>
        <time>2016-08-11T11:13:48Z</time>
      </trkpt>
      <trkpt lat="49.71951" lon="1.0229">
        <ele>130.99070739746</ele>
        <time>2016-08-11T11:14:02Z</time>
      </trkpt>
      <trkpt lat="49.71949" lon="1.02293">
        <ele>130.99070739746</ele>
        <time>2016-08-11T11:14:07Z</time>
      </trkpt>
      <trkpt lat="49.71949" lon="1.02293">
        <ele>130.99070739746</ele>
        <time>2016-08-11T11:14:14Z</time>
      </trkpt>
      <trkpt lat="49.71951" lon="1.02294">
        <ele>130.99070739746</ele>
        <time>2016-08-11T11:14:17Z</time>
      </trkpt>
      <trkpt lat="49.71954" lon="1.02296">
        <ele>130.99070739746</ele>
        <time>2016-08-11T11:14:22Z</time>
      </trkpt>
      <trkpt lat="49.71954" lon="1.02297">
        <ele>130.99070739746</ele>
        <time>2016-08-11T11:14:32Z</time>
      </trkpt>
      <trkpt lat="49.71954" lon="1.02297">
        <ele>130.99070739746</ele>
        <time>2016-08-11T11:14:37Z</time>
      </trkpt>
      <trkpt lat="49.71954" lon="1.02297">
        <ele>130.25880432129</ele>
        <time>2016-08-11T11:14:48Z</time>
      </trkpt>
      <trkpt lat="49.71954" lon="1.02297">
        <ele>130.25880432129</ele>
        <time>2016-08-11T11:14:52Z</time>
      </trkpt>
      <trkpt lat="49.71955" lon="1.02306">
        <ele>130.25880432129</ele>
        <time>2016-08-11T11:15:02Z</time>
      </trkpt>
      <trkpt lat="49.71954" lon="1.02303">
        <ele>130.25880432129</ele>
        <time>2016-08-11T11:15:07Z</time>
      </trkpt>
      <trkpt lat="49.71954" lon="1.02305">
        <ele>130.25880432129</ele>
        <time>2016-08-11T11:15:18Z</time>
      </trkpt>
      <trkpt lat="49.71954" lon="1.02305">
        <ele>130.25880432129</ele>
        <time>2016-08-11T11:15:23Z</time>
      </trkpt>
      <trkpt lat="49.71952" lon="1.0235">
        <ele>130.12788391113</ele>
        <time>2016-08-11T11:15:37Z</time>
      </trkpt>
      <trkpt lat="49.71959" lon="1.02383">
        <ele>129.89126586914</ele>
        <time>2016-08-11T11:15:53Z</time>
      </trkpt>
      <trkpt lat="49.71954" lon="1.02397">
        <ele>130.3787689209</ele>
        <time>2016-08-11T11:15:57Z</time>
      </trkpt>
      <trkpt lat="49.71954" lon="1.02417">
        <ele>130.44046020508</ele>
        <time>2016-08-11T11:16:09Z</time>
      </trkpt>
      <trkpt lat="49.71954" lon="1.02416">
        <ele>130.44046020508</ele>
        <time>2016-08-11T11:16:13Z</time>
      </trkpt>
      <trkpt lat="49.71956" lon="1.0243">
        <ele>129.90545654297</ele>
        <time>2016-08-11T11:16:25Z</time>
      </trkpt>
      <trkpt lat="49.71956" lon="1.0244">
        <ele>129.90545654297</ele>
        <time>2016-08-11T11:16:27Z</time>
      </trkpt>
      <trkpt lat="49.71953" lon="1.02462">
        <ele>129.68350219727</ele>
        <time>2016-08-11T11:16:38Z</time>
      </trkpt>
      <trkpt lat="49.71953" lon="1.02467">
        <ele>129.68350219727</ele>
        <time>2016-08-11T11:16:42Z</time>
      </trkpt>
      <trkpt lat="49.71959" lon="1.02488">
        <ele>128.81512451172</ele>
        <time>2016-08-11T11:16:54Z</time>
      </trkpt>
      <trkpt lat="49.71958" lon="1.02494">
        <ele>128.81512451172</ele>
        <time>2016-08-11T11:16:57Z</time>
      </trkpt>
      <trkpt lat="49.71958" lon="1.02511">
        <ele>127.91188049316</ele>
        <time>2016-08-11T11:17:07Z</time>
      </trkpt>
      <trkpt lat="49.71958" lon="1.0252">
        <ele>127.91188049316</ele>
        <time>2016-08-11T11:17:13Z</time>
      </trkpt>
      <trkpt lat="49.71957" lon="1.02537">
        <ele>126.8775177002</ele>
        <time>2016-08-11T11:17:22Z</time>
      </trkpt>
      <trkpt lat="49.71957" lon="1.02544">
        <ele>126.8775177002</ele>
        <time>2016-08-11T11:17:27Z</time>
      </trkpt>
      <trkpt lat="49.71963" lon="1.02565">
        <ele>125.83930969238</ele>
        <time>2016-08-11T11:17:37Z</time>
      </trkpt>
      <trkpt lat="49.71965" lon="1.02574">
        <ele>125.83930969238</ele>
        <time>2016-08-11T11:17:42Z</time>
      </trkpt>
      <trkpt lat="49.71966" lon="1.02579">
        <ele>124.6413192749</ele>
        <time>2016-08-11T11:17:47Z</time>
      </trkpt>
      <trkpt lat="49.71966" lon="1.0259">
        <ele>124.6413192749</ele>
        <time>2016-08-11T11:17:53Z</time>
      </trkpt>
      <trkpt lat="49.71969" lon="1.02603">
        <ele>123.81677246094</ele>
        <time>2016-08-11T11:17:58Z</time>
      </trkpt>
      <trkpt lat="49.71974" lon="1.0263">
        <ele>123.05158233643</ele>
        <time>2016-08-11T11:18:13Z</time>
      </trkpt>
      <trkpt lat="49.71976" lon="1.02636">
        <ele>123.05158233643</ele>
        <time>2016-08-11T11:18:17Z</time>
      </trkpt>
      <trkpt lat="49.71979" lon="1.02659">
        <ele>122.57330322266</ele>
        <time>2016-08-11T11:18:28Z</time>
      </trkpt>
      <trkpt lat="49.71984" lon="1.0268">
        <ele>121.98661804199</ele>
        <time>2016-08-11T11:18:42Z</time>
      </trkpt>
      <trkpt lat="49.71988" lon="1.02711">
        <ele>122.04957580566</ele>
        <time>2016-08-11T11:18:57Z</time>
      </trkpt>
      <trkpt lat="49.71989" lon="1.0272">
        <ele>122.04957580566</ele>
        <time>2016-08-11T11:19:02Z</time>
      </trkpt>
      <trkpt lat="49.71988" lon="1.02742">
        <ele>122.29534912109</ele>
        <time>2016-08-11T11:19:14Z</time>
      </trkpt>
      <trkpt lat="49.71988" lon="1.02747">
        <ele>122.29534912109</ele>
        <time>2016-08-11T11:19:17Z</time>
      </trkpt>
      <trkpt lat="49.71987" lon="1.02766">
        <ele>122.47818756104</ele>
        <time>2016-08-11T11:19:28Z</time>
      </trkpt>
      <trkpt lat="49.71988" lon="1.02775">
        <ele>122.47818756104</ele>
        <time>2016-08-11T11:19:32Z</time>
      </trkpt>
      <trkpt lat="49.71988" lon="1.02792">
        <ele>122.78842926025</ele>
        <time>2016-08-11T11:19:42Z</time>
      </trkpt>
      <trkpt lat="49.71988" lon="1.02807">
        <ele>123.37323760986</ele>
        <time>2016-08-11T11:19:48Z</time>
      </trkpt>
      <trkpt lat="49.71988" lon="1.02822">
        <ele>123.90699768066</ele>
        <time>2016-08-11T11:19:58Z</time>
      </trkpt>
      <trkpt lat="49.71989" lon="1.0283">
        <ele>123.90699768066</ele>
        <time>2016-08-11T11:20:02Z</time>
      </trkpt>
      <trkpt lat="49.71987" lon="1.02846">
        <ele>124.41960144043</ele>
        <time>2016-08-11T11:20:12Z</time>
      </trkpt>
      <trkpt lat="49.71988" lon="1.02854">
        <ele>124.41960144043</ele>
        <time>2016-08-11T11:20:17Z</time>
      </trkpt>
      <trkpt lat="49.7199" lon="1.02873">
        <ele>124.90998077393</ele>
        <time>2016-08-11T11:20:27Z</time>
      </trkpt>
      <trkpt lat="49.71991" lon="1.02881">
        <ele>124.90998077393</ele>
        <time>2016-08-11T11:20:32Z</time>
      </trkpt>
      <trkpt lat="49.71991" lon="1.02891">
        <ele>125.33396148682</ele>
        <time>2016-08-11T11:20:38Z</time>
      </trkpt>
      <trkpt lat="49.7199" lon="1.02898">
        <ele>125.33396148682</ele>
        <time>2016-08-11T11:20:42Z</time>
      </trkpt>
      <trkpt lat="49.71989" lon="1.02916">
        <ele>125.92462921143</ele>
        <time>2016-08-11T11:20:53Z</time>
      </trkpt>
      <trkpt lat="49.71989" lon="1.02923">
        <ele>125.92462921143</ele>
        <time>2016-08-11T11:20:57Z</time>
      </trkpt>
      <trkpt lat="49.7199" lon="1.02943">
        <ele>126.92632293701</ele>
        <time>2016-08-11T11:21:07Z</time>
      </trkpt>
      <trkpt lat="49.71993" lon="1.0295">
        <ele>126.92632293701</ele>
        <time>2016-08-11T11:21:13Z</time>
      </trkpt>
      <trkpt lat="49.71994" lon="1.02948">
        <ele>126.92632293701</ele>
        <time>2016-08-11T11:21:22Z</time>
      </trkpt>
      <trkpt lat="49.71995" lon="1.02949">
        <ele>126.92632293701</ele>
        <time>2016-08-11T11:21:27Z</time>
      </trkpt>
      <trkpt lat="49.72003" lon="1.02954">
        <ele>127.81490325928</ele>
        <time>2016-08-11T11:21:37Z</time>
      </trkpt>
      <trkpt lat="49.72009" lon="1.02956">
        <ele>127.81490325928</ele>
        <time>2016-08-11T11:21:43Z</time>
      </trkpt>
      <trkpt lat="49.72027" lon="1.02959">
        <ele>128.59509277344</ele>
        <time>2016-08-11T11:21:58Z</time>
      </trkpt>
      <trkpt lat="49.72032" lon="1.0296">
        <ele>128.59509277344</ele>
        <time>2016-08-11T11:22:02Z</time>
      </trkpt>
      <trkpt lat="49.7204" lon="1.02964">
        <ele>128.98335266113</ele>
        <time>2016-08-11T11:22:12Z</time>
      </trkpt>
      <trkpt lat="49.72052" lon="1.02969">
        <ele>129.48194885254</ele>
        <time>2016-08-11T11:22:23Z</time>
      </trkpt>
      <trkpt lat="49.72054" lon="1.02971">
        <ele>129.48194885254</ele>
        <time>2016-08-11T11:22:27Z</time>
      </trkpt>
      <trkpt lat="49.72062" lon="1.02972">
        <ele>130.22450256348</ele>
        <time>2016-08-11T11:22:32Z</time>
      </trkpt>
      <trkpt lat="49.72075" lon="1.02976">
        <ele>131.13244628906</ele>
        <time>2016-08-11T11:22:43Z</time>
      </trkpt>
      <trkpt lat="49.7208" lon="1.0298">
        <ele>131.13244628906</ele>
        <time>2016-08-11T11:22:48Z</time>
      </trkpt>
      <trkpt lat="49.72094" lon="1.02983">
        <ele>132.10377502441</ele>
        <time>2016-08-11T11:22:58Z</time>
      </trkpt>
      <trkpt lat="49.72098" lon="1.02985">
        <ele>132.10377502441</ele>
        <time>2016-08-11T11:23:03Z</time>
      </trkpt>
      <trkpt lat="49.72106" lon="1.02991">
        <ele>132.59707641602</ele>
        <time>2016-08-11T11:23:12Z</time>
      </trkpt>
      <trkpt lat="49.72112" lon="1.02995">
        <ele>132.59707641602</ele>
        <time>2016-08-11T11:23:17Z</time>
      </trkpt>
      <trkpt lat="49.72125" lon="1.02996">
        <ele>132.71742248535</ele>
        <time>2016-08-11T11:23:28Z</time>
      </trkpt>
      <trkpt lat="49.72129" lon="1.02998">
        <ele>132.71742248535</ele>
        <time>2016-08-11T11:23:32Z</time>
      </trkpt>
      <trkpt lat="49.72145" lon="1.02997">
        <ele>132.79385375977</ele>
        <time>2016-08-11T11:23:44Z</time>
      </trkpt>
      <trkpt lat="49.72149" lon="1.02996">
        <ele>132.79385375977</ele>
        <time>2016-08-11T11:23:47Z</time>
      </trkpt>
      <trkpt lat="49.72159" lon="1.02996">
        <ele>132.75672912598</ele>
        <time>2016-08-11T11:23:57Z</time>
      </trkpt>
      <trkpt lat="49.72168" lon="1.02993">
        <ele>132.77249145508</ele>
        <time>2016-08-11T11:24:03Z</time>
      </trkpt>
      <trkpt lat="49.72176" lon="1.02989">
        <ele>132.77249145508</ele>
        <time>2016-08-11T11:24:13Z</time>
      </trkpt>
      <trkpt lat="49.7218" lon="1.02988">
        <ele>132.14501953125</ele>
        <time>2016-08-11T11:24:17Z</time>
      </trkpt>
      <trkpt lat="49.72198" lon="1.02981">
        <ele>131.41290283203</ele>
        <time>2016-08-11T11:24:28Z</time>
      </trkpt>
      <trkpt lat="49.72203" lon="1.02978">
        <ele>131.41290283203</ele>
        <time>2016-08-11T11:24:33Z</time>
      </trkpt>
      <trkpt lat="49.72208" lon="1.02976">
        <ele>130.96018981934</ele>
        <time>2016-08-11T11:24:37Z</time>
      </trkpt>
      <trkpt lat="49.72212" lon="1.02972">
        <ele>130.96018981934</ele>
        <time>2016-08-11T11:24:42Z</time>
      </trkpt>
      <trkpt lat="49.72217" lon="1.02971">
        <ele>130.66647338867</ele>
        <time>2016-08-11T11:24:47Z</time>
      </trkpt>
      <trkpt lat="49.72241" lon="1.02958">
        <ele>131.37084960938</ele>
        <time>2016-08-11T11:25:02Z</time>
      </trkpt>
      <trkpt lat="49.72247" lon="1.02955">
        <ele>131.37084960938</ele>
        <time>2016-08-11T11:25:07Z</time>
      </trkpt>
      <trkpt lat="49.7226" lon="1.0295">
        <ele>131.85932922363</ele>
        <time>2016-08-11T11:25:18Z</time>
      </trkpt>
      <trkpt lat="49.72262" lon="1.0295">
        <ele>131.85932922363</ele>
        <time>2016-08-11T11:25:22Z</time>
      </trkpt>
      <trkpt lat="49.72275" lon="1.02946">
        <ele>132.11735534668</ele>
        <time>2016-08-11T11:25:32Z</time>
      </trkpt>
      <trkpt lat="49.72284" lon="1.02943">
        <ele>132.11735534668</ele>
        <time>2016-08-11T11:25:38Z</time>
      </trkpt>
      <trkpt lat="49.72294" lon="1.0294">
        <ele>132.30508422852</ele>
        <time>2016-08-11T11:25:47Z</time>
      </trkpt>
      <trkpt lat="49.72298" lon="1.0294">
        <ele>132.30508422852</ele>
        <time>2016-08-11T11:25:53Z</time>
      </trkpt>
      <trkpt lat="49.72314" lon="1.02939">
        <ele>132.4270324707</ele>
        <time>2016-08-11T11:26:02Z</time>
      </trkpt>
      <trkpt lat="49.72318" lon="1.02938">
        <ele>132.4270324707</ele>
        <time>2016-08-11T11:26:07Z</time>
      </trkpt>
      <trkpt lat="49.7233" lon="1.02942">
        <ele>132.11288452148</ele>
        <time>2016-08-11T11:26:19Z</time>
      </trkpt>
      <trkpt lat="49.72335" lon="1.02943">
        <ele>132.11288452148</ele>
        <time>2016-08-11T11:26:22Z</time>
      </trkpt>
      <trkpt lat="49.72347" lon="1.02943">
        <ele>131.97196960449</ele>
        <time>2016-08-11T11:26:33Z</time>
      </trkpt>
      <trkpt lat="49.72352" lon="1.02943">
        <ele>131.97196960449</ele>
        <time>2016-08-11T11:26:38Z</time>
      </trkpt>
      <trkpt lat="49.72364" lon="1.02942">
        <ele>131.40104675293</ele>
        <time>2016-08-11T11:26:47Z</time>
      </trkpt>
      <trkpt lat="49.72371" lon="1.0294">
        <ele>131.40104675293</ele>
        <time>2016-08-11T11:26:53Z</time>
      </trkpt>
      <trkpt lat="49.72383" lon="1.02937">
        <ele>131.1106262207</ele>
        <time>2016-08-11T11:27:03Z</time>
      </trkpt>
      <trkpt lat="49.72391" lon="1.02938">
        <ele>131.1106262207</ele>
        <time>2016-08-11T11:27:07Z</time>
      </trkpt>
      <trkpt lat="49.72397" lon="1.02938">
        <ele>130.80712890625</ele>
        <time>2016-08-11T11:27:12Z</time>
      </trkpt>
      <trkpt lat="49.72405" lon="1.02937">
        <ele>130.80712890625</ele>
        <time>2016-08-11T11:27:18Z</time>
      </trkpt>
      <trkpt lat="49.72411" lon="1.02936">
        <ele>130.46356201172</ele>
        <time>2016-08-11T11:27:23Z</time>
      </trkpt>
      <trkpt lat="49.72416" lon="1.02936">
        <ele>130.46356201172</ele>
        <time>2016-08-11T11:27:28Z</time>
      </trkpt>
      <trkpt lat="49.72428" lon="1.02934">
        <ele>130.04064941406</ele>
        <time>2016-08-11T11:27:38Z</time>
      </trkpt>
      <trkpt lat="49.72433" lon="1.02933">
        <ele>130.04064941406</ele>
        <time>2016-08-11T11:27:44Z</time>
      </trkpt>
      <trkpt lat="49.72445" lon="1.02929">
        <ele>129.96336364746</ele>
        <time>2016-08-11T11:27:52Z</time>
      </trkpt>
      <trkpt lat="49.72452" lon="1.02929">
        <ele>129.96336364746</ele>
        <time>2016-08-11T11:27:58Z</time>
      </trkpt>
      <trkpt lat="49.72465" lon="1.02926">
        <ele>129.64457702637</ele>
        <time>2016-08-11T11:28:08Z</time>
      </trkpt>
      <trkpt lat="49.72472" lon="1.02926">
        <ele>129.64457702637</ele>
        <time>2016-08-11T11:28:12Z</time>
      </trkpt>
      <trkpt lat="49.72483" lon="1.02924">
        <ele>129.33352661133</ele>
        <time>2016-08-11T11:28:22Z</time>
      </trkpt>
      <trkpt lat="49.7249" lon="1.02924">
        <ele>129.33352661133</ele>
        <time>2016-08-11T11:28:27Z</time>
      </trkpt>
      <trkpt lat="49.72502" lon="1.02924">
        <ele>129.04501342773</ele>
        <time>2016-08-11T11:28:37Z</time>
      </trkpt>
      <trkpt lat="49.7251" lon="1.02922">
        <ele>129.04501342773</ele>
        <time>2016-08-11T11:28:42Z</time>
      </trkpt>
      <trkpt lat="49.72525" lon="1.02919">
        <ele>128.951171875</ele>
        <time>2016-08-11T11:28:53Z</time>
      </trkpt>
      <trkpt lat="49.72528" lon="1.02919">
        <ele>128.951171875</ele>
        <time>2016-08-11T11:28:57Z</time>
      </trkpt>
      <trkpt lat="49.72547" lon="1.02917">
        <ele>128.33184814453</ele>
        <time>2016-08-11T11:29:13Z</time>
      </trkpt>
      <trkpt lat="49.72555" lon="1.02915">
        <ele>128.33184814453</ele>
        <time>2016-08-11T11:29:17Z</time>
      </trkpt>
      <trkpt lat="49.72571" lon="1.02913">
        <ele>128.19299316406</ele>
        <time>2016-08-11T11:29:28Z</time>
      </trkpt>
      <trkpt lat="49.72576" lon="1.02915">
        <ele>128.19299316406</ele>
        <time>2016-08-11T11:29:32Z</time>
      </trkpt>
      <trkpt lat="49.72588" lon="1.02917">
        <ele>128.25471496582</ele>
        <time>2016-08-11T11:29:43Z</time>
      </trkpt>
      <trkpt lat="49.7259" lon="1.02917">
        <ele>128.25471496582</ele>
        <time>2016-08-11T11:29:48Z</time>
      </trkpt>
      <trkpt lat="49.72601" lon="1.02918">
        <ele>127.85364532471</ele>
        <time>2016-08-11T11:29:57Z</time>
      </trkpt>
      <trkpt lat="49.72608" lon="1.02916">
        <ele>127.85364532471</ele>
        <time>2016-08-11T11:30:02Z</time>
      </trkpt>
      <trkpt lat="49.72624" lon="1.02913">
        <ele>127.28430175781</ele>
        <time>2016-08-11T11:30:14Z</time>
      </trkpt>
      <trkpt lat="49.72627" lon="1.02915">
        <ele>127.28430175781</ele>
        <time>2016-08-11T11:30:17Z</time>
      </trkpt>
      <trkpt lat="49.72641" lon="1.02913">
        <ele>126.7191619873</ele>
        <time>2016-08-11T11:30:27Z</time>
      </trkpt>
      <trkpt lat="49.72646" lon="1.02914">
        <ele>126.7191619873</ele>
        <time>2016-08-11T11:30:33Z</time>
      </trkpt>
      <trkpt lat="49.72659" lon="1.02914">
        <ele>126.50534820557</ele>
        <time>2016-08-11T11:30:42Z</time>
      </trkpt>
      <trkpt lat="49.72666" lon="1.02912">
        <ele>126.50534820557</ele>
        <time>2016-08-11T11:30:48Z</time>
      </trkpt>
      <trkpt lat="49.7268" lon="1.02912">
        <ele>126.43025970459</ele>
        <time>2016-08-11T11:30:59Z</time>
      </trkpt>
      <trkpt lat="49.72686" lon="1.02913">
        <ele>126.43025970459</ele>
        <time>2016-08-11T11:31:02Z</time>
      </trkpt>
      <trkpt lat="49.72703" lon="1.02908">
        <ele>127.10354614258</ele>
        <time>2016-08-11T11:31:13Z</time>
      </trkpt>
      <trkpt lat="49.72708" lon="1.02908">
        <ele>127.10354614258</ele>
        <time>2016-08-11T11:31:18Z</time>
      </trkpt>
      <trkpt lat="49.72719" lon="1.0291">
        <ele>127.64682769775</ele>
        <time>2016-08-11T11:31:27Z</time>
      </trkpt>
      <trkpt lat="49.72724" lon="1.02911">
        <ele>127.64682769775</ele>
        <time>2016-08-11T11:31:33Z</time>
      </trkpt>
      <trkpt lat="49.72734" lon="1.02913">
        <ele>127.37630462646</ele>
        <time>2016-08-11T11:31:43Z</time>
      </trkpt>
      <trkpt lat="49.72739" lon="1.02914">
        <ele>127.37630462646</ele>
        <time>2016-08-11T11:31:47Z</time>
      </trkpt>
      <trkpt lat="49.7276" lon="1.02918">
        <ele>127.5485534668</ele>
        <time>2016-08-11T11:32:03Z</time>
      </trkpt>
      <trkpt lat="49.72764" lon="1.02918">
        <ele>127.5485534668</ele>
        <time>2016-08-11T11:32:07Z</time>
      </trkpt>
      <trkpt lat="49.72774" lon="1.02919">
        <ele>127.19373321533</ele>
        <time>2016-08-11T11:32:18Z</time>
      </trkpt>
      <trkpt lat="49.72778" lon="1.02919">
        <ele>127.19373321533</ele>
        <time>2016-08-11T11:32:22Z</time>
      </trkpt>
      <trkpt lat="49.72791" lon="1.02921">
        <ele>127.34580993652</ele>
        <time>2016-08-11T11:32:32Z</time>
      </trkpt>
      <trkpt lat="49.728" lon="1.02919">
        <ele>127.34580993652</ele>
        <time>2016-08-11T11:32:38Z</time>
      </trkpt>
      <trkpt lat="49.72812" lon="1.02918">
        <ele>128.06788635254</ele>
        <time>2016-08-11T11:32:48Z</time>
      </trkpt>
      <trkpt lat="49.72817" lon="1.02917">
        <ele>128.06788635254</ele>
        <time>2016-08-11T11:32:52Z</time>
      </trkpt>
      <trkpt lat="49.72829" lon="1.02918">
        <ele>129.24388122559</ele>
        <time>2016-08-11T11:33:02Z</time>
      </trkpt>
      <trkpt lat="49.72831" lon="1.0292">
        <ele>129.24388122559</ele>
        <time>2016-08-11T11:33:07Z</time>
      </trkpt>
      <trkpt lat="49.72837" lon="1.02923">
        <ele>129.24388122559</ele>
        <time>2016-08-11T11:33:12Z</time>
      </trkpt>
      <trkpt lat="49.72842" lon="1.02925">
        <ele>129.49681091309</ele>
        <time>2016-08-11T11:33:17Z</time>
      </trkpt>
      <trkpt lat="49.72847" lon="1.02929">
        <ele>129.49681091309</ele>
        <time>2016-08-11T11:33:22Z</time>
      </trkpt>
      <trkpt lat="49.72851" lon="1.0293">
        <ele>129.55657958984</ele>
        <time>2016-08-11T11:33:27Z</time>
      </trkpt>
      <trkpt lat="49.7286" lon="1.02936">
        <ele>130.05679321289</ele>
        <time>2016-08-11T11:33:42Z</time>
      </trkpt>
      <trkpt lat="49.72859" lon="1.02936">
        <ele>130.05679321289</ele>
        <time>2016-08-11T11:33:47Z</time>
      </trkpt>
      <trkpt lat="49.72859" lon="1.02936">
        <ele>130.05679321289</ele>
        <time>2016-08-11T11:33:52Z</time>
      </trkpt>
      <trkpt lat="49.72859" lon="1.02936">
        <ele>130.05679321289</ele>
        <time>2016-08-11T11:33:57Z</time>
      </trkpt>
      <trkpt lat="49.72859" lon="1.02936">
        <ele>130.05679321289</ele>
        <time>2016-08-11T11:34:02Z</time>
      </trkpt>
      <trkpt lat="49.72859" lon="1.02936">
        <ele>130.05679321289</ele>
        <time>2016-08-11T11:34:07Z</time>
      </trkpt>
      <trkpt lat="49.72855" lon="1.02936">
        <ele>130.05679321289</ele>
        <time>2016-08-11T11:34:12Z</time>
      </trkpt>
      <trkpt lat="49.72856" lon="1.02933">
        <ele>130.05679321289</ele>
        <time>2016-08-11T11:34:17Z</time>
      </trkpt>
      <trkpt lat="49.72853" lon="1.02931">
        <ele>130.41598510742</ele>
        <time>2016-08-11T11:34:27Z</time>
      </trkpt>
      <trkpt lat="49.72853" lon="1.02928">
        <ele>130.41598510742</ele>
        <time>2016-08-11T11:34:32Z</time>
      </trkpt>
      <trkpt lat="49.72854" lon="1.02922">
        <ele>130.41598510742</ele>
        <time>2016-08-11T11:34:42Z</time>
      </trkpt>
      <trkpt lat="49.72857" lon="1.02919">
        <ele>130.1967010498</ele>
        <time>2016-08-11T11:34:47Z</time>
      </trkpt>
      <trkpt lat="49.72855" lon="1.02918">
        <ele>130.1967010498</ele>
        <time>2016-08-11T11:34:58Z</time>
      </trkpt>
      <trkpt lat="49.72856" lon="1.02918">
        <ele>130.1967010498</ele>
        <time>2016-08-11T11:35:02Z</time>
      </trkpt>
      <trkpt lat="49.72861" lon="1.02912">
        <ele>130.1967010498</ele>
        <time>2016-08-11T11:35:07Z</time>
      </trkpt>
      <trkpt lat="49.72861" lon="1.02908">
        <ele>129.94638061523</ele>
        <time>2016-08-11T11:35:12Z</time>
      </trkpt>
      <trkpt lat="49.72866" lon="1.029">
        <ele>129.94638061523</ele>
        <time>2016-08-11T11:35:17Z</time>
      </trkpt>
      <trkpt lat="49.72879" lon="1.0288">
        <ele>129.56709289551</ele>
        <time>2016-08-11T11:35:32Z</time>
      </trkpt>
      <trkpt lat="49.72884" lon="1.02875">
        <ele>129.56709289551</ele>
        <time>2016-08-11T11:35:37Z</time>
      </trkpt>
      <trkpt lat="49.72889" lon="1.02873">
        <ele>129.81874084473</ele>
        <time>2016-08-11T11:35:42Z</time>
      </trkpt>
      <trkpt lat="49.72893" lon="1.02873">
        <ele>129.81874084473</ele>
        <time>2016-08-11T11:35:47Z</time>
      </trkpt>
      <trkpt lat="49.72898" lon="1.02874">
        <ele>129.81874084473</ele>
        <time>2016-08-11T11:35:53Z</time>
      </trkpt>
      <trkpt lat="49.7291" lon="1.02868">
        <ele>128.7375793457</ele>
        <time>2016-08-11T11:36:07Z</time>
      </trkpt>
      <trkpt lat="49.72914" lon="1.02865">
        <ele>128.7375793457</ele>
        <time>2016-08-11T11:36:12Z</time>
      </trkpt>
      <trkpt lat="49.72914" lon="1.02865">
        <ele>128.7375793457</ele>
        <time>2016-08-11T11:36:17Z</time>
      </trkpt>
      <trkpt lat="49.72915" lon="1.02867">
        <ele>128.7375793457</ele>
        <time>2016-08-11T11:36:22Z</time>
      </trkpt>
      <trkpt lat="49.72916" lon="1.02865">
        <ele>128.7375793457</ele>
        <time>2016-08-11T11:36:27Z</time>
      </trkpt>
      <trkpt lat="49.72916" lon="1.02859">
        <ele>128.65824890137</ele>
        <time>2016-08-11T11:36:32Z</time>
      </trkpt>
      <trkpt lat="49.72923" lon="1.0285">
        <ele>128.65824890137</ele>
        <time>2016-08-11T11:36:37Z</time>
      </trkpt>
      <trkpt lat="49.72927" lon="1.02841">
        <ele>128.71478271484</ele>
        <time>2016-08-11T11:36:42Z</time>
      </trkpt>
      <trkpt lat="49.72933" lon="1.02837">
        <ele>128.71478271484</ele>
        <time>2016-08-11T11:36:47Z</time>
      </trkpt>
      <trkpt lat="49.72936" lon="1.02832">
        <ele>128.79614257812</ele>
        <time>2016-08-11T11:36:52Z</time>
      </trkpt>
      <trkpt lat="49.72939" lon="1.02827">
        <ele>128.79614257812</ele>
        <time>2016-08-11T11:36:57Z</time>
      </trkpt>
      <trkpt lat="49.72945" lon="1.02822">
        <ele>128.35266113281</ele>
        <time>2016-08-11T11:37:03Z</time>
      </trkpt>
      <trkpt lat="49.72954" lon="1.02816">
        <ele>127.74116516113</ele>
        <time>2016-08-11T11:37:17Z</time>
      </trkpt>
      <trkpt lat="49.72967" lon="1.02827">
        <ele>127.53775024414</ele>
        <time>2016-08-11T11:37:28Z</time>
      </trkpt>
      <trkpt lat="49.72974" lon="1.02831">
        <ele>127.53775024414</ele>
        <time>2016-08-11T11:37:32Z</time>
      </trkpt>
      <trkpt lat="49.72988" lon="1.02846">
        <ele>127.9723815918</ele>
        <time>2016-08-11T11:37:48Z</time>
      </trkpt>
      <trkpt lat="49.73003" lon="1.02867">
        <ele>128.11787414551</ele>
        <time>2016-08-11T11:38:03Z</time>
      </trkpt>
      <trkpt lat="49.73003" lon="1.02871">
        <ele>128.11787414551</ele>
        <time>2016-08-11T11:38:07Z</time>
      </trkpt>
      <trkpt lat="49.73009" lon="1.02877">
        <ele>128.25444030762</ele>
        <time>2016-08-11T11:38:17Z</time>
      </trkpt>
      <trkpt lat="49.73015" lon="1.02886">
        <ele>128.52642822266</ele>
        <time>2016-08-11T11:38:22Z</time>
      </trkpt>
      <trkpt lat="49.73026" lon="1.02891">
        <ele>128.69250488281</ele>
        <time>2016-08-11T11:38:32Z</time>
      </trkpt>
      <trkpt lat="49.73032" lon="1.02896">
        <ele>128.69250488281</ele>
        <time>2016-08-11T11:38:37Z</time>
      </trkpt>
      <trkpt lat="49.73034" lon="1.02903">
        <ele>129.06262207031</ele>
        <time>2016-08-11T11:38:42Z</time>
      </trkpt>
      <trkpt lat="49.73042" lon="1.02905">
        <ele>129.06262207031</ele>
        <time>2016-08-11T11:38:47Z</time>
      </trkpt>
      <trkpt lat="49.73053" lon="1.02915">
        <ele>129.08746337891</ele>
        <time>2016-08-11T11:39:03Z</time>
      </trkpt>
      <trkpt lat="49.73054" lon="1.02915">
        <ele>129.08746337891</ele>
        <time>2016-08-11T11:39:07Z</time>
      </trkpt>
      <trkpt lat="49.7306" lon="1.02922">
        <ele>129.08746337891</ele>
        <time>2016-08-11T11:39:17Z</time>
      </trkpt>
      <trkpt lat="49.73061" lon="1.02918">
        <ele>129.61378479004</ele>
        <time>2016-08-11T11:39:22Z</time>
      </trkpt>
      <trkpt lat="49.7306" lon="1.02923">
        <ele>129.61378479004</ele>
        <time>2016-08-11T11:39:33Z</time>
      </trkpt>
      <trkpt lat="49.7306" lon="1.02924">
        <ele>129.61378479004</ele>
        <time>2016-08-11T11:39:37Z</time>
      </trkpt>
      <trkpt lat="49.73064" lon="1.02926">
        <ele>129.61378479004</ele>
        <time>2016-08-11T11:39:47Z</time>
      </trkpt>
      <trkpt lat="49.73071" lon="1.02935">
        <ele>129.63766479492</ele>
        <time>2016-08-11T11:39:53Z</time>
      </trkpt>
      <trkpt lat="49.73079" lon="1.02944">
        <ele>129.16714477539</ele>
        <time>2016-08-11T11:40:02Z</time>
      </trkpt>
      <trkpt lat="49.73083" lon="1.02946">
        <ele>129.16714477539</ele>
        <time>2016-08-11T11:40:07Z</time>
      </trkpt>
      <trkpt lat="49.73095" lon="1.0296">
        <ele>128.68658447266</ele>
        <time>2016-08-11T11:40:19Z</time>
      </trkpt>
      <trkpt lat="49.73099" lon="1.02961">
        <ele>128.68658447266</ele>
        <time>2016-08-11T11:40:22Z</time>
      </trkpt>
      <trkpt lat="49.7311" lon="1.02973">
        <ele>128.44306945801</ele>
        <time>2016-08-11T11:40:34Z</time>
      </trkpt>
      <trkpt lat="49.73116" lon="1.02976">
        <ele>128.44306945801</ele>
        <time>2016-08-11T11:40:38Z</time>
      </trkpt>
      <trkpt lat="49.73124" lon="1.02989">
        <ele>128.11721801758</ele>
        <time>2016-08-11T11:40:52Z</time>
      </trkpt>
      <trkpt lat="49.73131" lon="1.02994">
        <ele>128.11721801758</ele>
        <time>2016-08-11T11:40:57Z</time>
      </trkpt>
      <trkpt lat="49.73141" lon="1.03005">
        <ele>127.73042297363</ele>
        <time>2016-08-11T11:41:07Z</time>
      </trkpt>
      <trkpt lat="49.73147" lon="1.0301">
        <ele>127.73042297363</ele>
        <time>2016-08-11T11:41:13Z</time>
      </trkpt>
      <trkpt lat="49.73157" lon="1.03017">
        <ele>127.17294311523</ele>
        <time>2016-08-11T11:41:22Z</time>
      </trkpt>
      <trkpt lat="49.73164" lon="1.03022">
        <ele>127.17294311523</ele>
        <time>2016-08-11T11:41:28Z</time>
      </trkpt>
      <trkpt lat="49.73175" lon="1.03032">
        <ele>126.94884490967</ele>
        <time>2016-08-11T11:41:37Z</time>
      </trkpt>
      <trkpt lat="49.73181" lon="1.03037">
        <ele>126.94884490967</ele>
        <time>2016-08-11T11:41:43Z</time>
      </trkpt>
      <trkpt lat="49.73193" lon="1.03047">
        <ele>126.42896270752</ele>
        <time>2016-08-11T11:41:53Z</time>
      </trkpt>
      <trkpt lat="49.73197" lon="1.03051">
        <ele>126.42896270752</ele>
        <time>2016-08-11T11:41:57Z</time>
      </trkpt>
      <trkpt lat="49.73209" lon="1.03062">
        <ele>125.73733520508</ele>
        <time>2016-08-11T11:42:08Z</time>
      </trkpt>
      <trkpt lat="49.73213" lon="1.03065">
        <ele>125.73733520508</ele>
        <time>2016-08-11T11:42:12Z</time>
      </trkpt>
      <trkpt lat="49.73222" lon="1.03074">
        <ele>124.96051025391</ele>
        <time>2016-08-11T11:42:30Z</time>
      </trkpt>
      <trkpt lat="49.73222" lon="1.03073">
        <ele>124.96051025391</ele>
        <time>2016-08-11T11:42:33Z</time>
      </trkpt>
      <trkpt lat="49.73222" lon="1.03073">
        <ele>124.96051025391</ele>
        <time>2016-08-11T11:42:42Z</time>
      </trkpt>
      <trkpt lat="49.73227" lon="1.03075">
        <ele>124.96051025391</ele>
        <time>2016-08-11T11:42:47Z</time>
      </trkpt>
      <trkpt lat="49.73238" lon="1.03084">
        <ele>124.23655700684</ele>
        <time>2016-08-11T11:42:57Z</time>
      </trkpt>
      <trkpt lat="49.73244" lon="1.03089">
        <ele>124.23655700684</ele>
        <time>2016-08-11T11:43:03Z</time>
      </trkpt>
      <trkpt lat="49.73253" lon="1.03103">
        <ele>123.60673522949</ele>
        <time>2016-08-11T11:43:12Z</time>
      </trkpt>
      <trkpt lat="49.73262" lon="1.03111">
        <ele>122.90726470947</ele>
        <time>2016-08-11T11:43:19Z</time>
      </trkpt>
      <trkpt lat="49.73273" lon="1.03112">
        <ele>122.34680175781</ele>
        <time>2016-08-11T11:43:28Z</time>
      </trkpt>
      <trkpt lat="49.73274" lon="1.03112">
        <ele>122.34680175781</ele>
        <time>2016-08-11T11:43:32Z</time>
      </trkpt>
      <trkpt lat="49.73283" lon="1.03121">
        <ele>121.68593597412</ele>
        <time>2016-08-11T11:43:42Z</time>
      </trkpt>
      <trkpt lat="49.7329" lon="1.03125">
        <ele>121.68593597412</ele>
        <time>2016-08-11T11:43:47Z</time>
      </trkpt>
      <trkpt lat="49.73302" lon="1.03132">
        <ele>121.13542175293</ele>
        <time>2016-08-11T11:43:58Z</time>
      </trkpt>
      <trkpt lat="49.73309" lon="1.03135">
        <ele>121.13542175293</ele>
        <time>2016-08-11T11:44:02Z</time>
      </trkpt>
      <trkpt lat="49.73324" lon="1.03143">
        <ele>120.5154876709</ele>
        <time>2016-08-11T11:44:14Z</time>
      </trkpt>
      <trkpt lat="49.73329" lon="1.03146">
        <ele>120.5154876709</ele>
        <time>2016-08-11T11:44:17Z</time>
      </trkpt>
      <trkpt lat="49.73349" lon="1.03157">
        <ele>119.64531707764</ele>
        <time>2016-08-11T11:44:33Z</time>
      </trkpt>
      <trkpt lat="49.73362" lon="1.03161">
        <ele>118.93448638916</ele>
        <time>2016-08-11T11:44:43Z</time>
      </trkpt>
      <trkpt lat="49.73367" lon="1.03164">
        <ele>118.93448638916</ele>
        <time>2016-08-11T11:44:47Z</time>
      </trkpt>
      <trkpt lat="49.73382" lon="1.0317">
        <ele>118.18553161621</ele>
        <time>2016-08-11T11:44:59Z</time>
      </trkpt>
      <trkpt lat="49.73387" lon="1.03171">
        <ele>118.18553161621</ele>
        <time>2016-08-11T11:45:02Z</time>
      </trkpt>
      <trkpt lat="49.73393" lon="1.03173">
        <ele>117.41733551025</ele>
        <time>2016-08-11T11:45:07Z</time>
      </trkpt>
      <trkpt lat="49.73399" lon="1.03171">
        <ele>117.41733551025</ele>
        <time>2016-08-11T11:45:19Z</time>
      </trkpt>
      <trkpt lat="49.73401" lon="1.03171">
        <ele>117.41733551025</ele>
        <time>2016-08-11T11:45:22Z</time>
      </trkpt>
      <trkpt lat="49.73409" lon="1.03177">
        <ele>116.79148864746</ele>
        <time>2016-08-11T11:45:33Z</time>
      </trkpt>
      <trkpt lat="49.73416" lon="1.03181">
        <ele>116.79148864746</ele>
        <time>2016-08-11T11:45:39Z</time>
      </trkpt>
      <trkpt lat="49.7343" lon="1.03186">
        <ele>115.98171234131</ele>
        <time>2016-08-11T11:45:47Z</time>
      </trkpt>
      <trkpt lat="49.73435" lon="1.03186">
        <ele>115.98171234131</ele>
        <time>2016-08-11T11:45:52Z</time>
      </trkpt>
      <trkpt lat="49.73448" lon="1.03194">
        <ele>115.26260375977</ele>
        <time>2016-08-11T11:46:04Z</time>
      </trkpt>
      <trkpt lat="49.73451" lon="1.03194">
        <ele>115.26260375977</ele>
        <time>2016-08-11T11:46:07Z</time>
      </trkpt>
      <trkpt lat="49.73458" lon="1.03197">
        <ele>114.21096801758</ele>
        <time>2016-08-11T11:46:19Z</time>
      </trkpt>
      <trkpt lat="49.7346" lon="1.03197">
        <ele>114.21096801758</ele>
        <time>2016-08-11T11:46:22Z</time>
      </trkpt>
      <trkpt lat="49.73474" lon="1.03202">
        <ele>113.15612030029</ele>
        <time>2016-08-11T11:46:37Z</time>
      </trkpt>
      <trkpt lat="49.7349" lon="1.03209">
        <ele>112.33109283447</ele>
        <time>2016-08-11T11:46:52Z</time>
      </trkpt>
      <trkpt lat="49.73495" lon="1.03211">
        <ele>112.33109283447</ele>
        <time>2016-08-11T11:46:57Z</time>
      </trkpt>
      <trkpt lat="49.7351" lon="1.03218">
        <ele>111.54758453369</ele>
        <time>2016-08-11T11:47:08Z</time>
      </trkpt>
      <trkpt lat="49.73516" lon="1.03222">
        <ele>111.54758453369</ele>
        <time>2016-08-11T11:47:13Z</time>
      </trkpt>
      <trkpt lat="49.73527" lon="1.03224">
        <ele>110.5445098877</ele>
        <time>2016-08-11T11:47:22Z</time>
      </trkpt>
      <trkpt lat="49.73533" lon="1.03225">
        <ele>110.5445098877</ele>
        <time>2016-08-11T11:47:28Z</time>
      </trkpt>
      <trkpt lat="49.73545" lon="1.03227">
        <ele>109.55604553223</ele>
        <time>2016-08-11T11:47:38Z</time>
      </trkpt>
      <trkpt lat="49.73549" lon="1.03227">
        <ele>109.55604553223</ele>
        <time>2016-08-11T11:47:42Z</time>
      </trkpt>
      <trkpt lat="49.7356" lon="1.03231">
        <ele>108.38119506836</ele>
        <time>2016-08-11T11:47:54Z</time>
      </trkpt>
      <trkpt lat="49.73563" lon="1.0323">
        <ele>108.38119506836</ele>
        <time>2016-08-11T11:47:57Z</time>
      </trkpt>
      <trkpt lat="49.73572" lon="1.03234">
        <ele>107.71321868896</ele>
        <time>2016-08-11T11:48:02Z</time>
      </trkpt>
      <trkpt lat="49.73578" lon="1.03235">
        <ele>107.71321868896</ele>
        <time>2016-08-11T11:48:07Z</time>
      </trkpt>
      <trkpt lat="49.7358" lon="1.03239">
        <ele>107.71321868896</ele>
        <time>2016-08-11T11:48:12Z</time>
      </trkpt>
      <trkpt lat="49.73592" lon="1.03238">
        <ele>107.22747039795</ele>
        <time>2016-08-11T11:48:27Z</time>
      </trkpt>
      <trkpt lat="49.73598" lon="1.03238">
        <ele>107.22747039795</ele>
        <time>2016-08-11T11:48:32Z</time>
      </trkpt>
      <trkpt lat="49.73612" lon="1.03246">
        <ele>106.95401000977</ele>
        <time>2016-08-11T11:48:42Z</time>
      </trkpt>
      <trkpt lat="49.73616" lon="1.03251">
        <ele>106.95401000977</ele>
        <time>2016-08-11T11:48:47Z</time>
      </trkpt>
      <trkpt lat="49.73626" lon="1.0326">
        <ele>106.8768157959</ele>
        <time>2016-08-11T11:48:59Z</time>
      </trkpt>
      <trkpt lat="49.73628" lon="1.03264">
        <ele>106.8768157959</ele>
        <time>2016-08-11T11:49:03Z</time>
      </trkpt>
      <trkpt lat="49.73638" lon="1.03275">
        <ele>106.99485778809</ele>
        <time>2016-08-11T11:49:12Z</time>
      </trkpt>
      <trkpt lat="49.73639" lon="1.03279">
        <ele>106.99485778809</ele>
        <time>2016-08-11T11:49:17Z</time>
      </trkpt>
      <trkpt lat="49.73645" lon="1.0329">
        <ele>107.23454284668</ele>
        <time>2016-08-11T11:49:27Z</time>
      </trkpt>
      <trkpt lat="49.73647" lon="1.03293">
        <ele>107.23454284668</ele>
        <time>2016-08-11T11:49:32Z</time>
      </trkpt>
      <trkpt lat="49.73654" lon="1.03301">
        <ele>107.95962524414</ele>
        <time>2016-08-11T11:49:43Z</time>
      </trkpt>
      <trkpt lat="49.73658" lon="1.03299">
        <ele>107.95962524414</ele>
        <time>2016-08-11T11:49:48Z</time>
      </trkpt>
      <trkpt lat="49.73665" lon="1.03301">
        <ele>108.72756958008</ele>
        <time>2016-08-11T11:49:57Z</time>
      </trkpt>
      <trkpt lat="49.73665" lon="1.03296">
        <ele>108.72756958008</ele>
        <time>2016-08-11T11:50:03Z</time>
      </trkpt>
      <trkpt lat="49.73664" lon="1.03296">
        <ele>108.72756958008</ele>
        <time>2016-08-11T11:50:17Z</time>
      </trkpt>
      <trkpt lat="49.73669" lon="1.0328">
        <ele>109.20025634766</ele>
        <time>2016-08-11T11:50:32Z</time>
      </trkpt>
      <trkpt lat="49.7367" lon="1.03274">
        <ele>109.20025634766</ele>
        <time>2016-08-11T11:50:37Z</time>
      </trkpt>
      <trkpt lat="49.73666" lon="1.03256">
        <ele>109.9010925293</ele>
        <time>2016-08-11T11:50:48Z</time>
      </trkpt>
      <trkpt lat="49.73668" lon="1.03255">
        <ele>109.9010925293</ele>
        <time>2016-08-11T11:50:52Z</time>
      </trkpt>
      <trkpt lat="49.73667" lon="1.03248">
        <ele>109.9010925293</ele>
        <time>2016-08-11T11:51:02Z</time>
      </trkpt>
      <trkpt lat="49.73667" lon="1.03249">
        <ele>109.9010925293</ele>
        <time>2016-08-11T11:51:07Z</time>
      </trkpt>
      <trkpt lat="49.73667" lon="1.03237">
        <ele>110.91086578369</ele>
        <time>2016-08-11T11:51:17Z</time>
      </trkpt>
      <trkpt lat="49.73662" lon="1.03229">
        <ele>110.91086578369</ele>
        <time>2016-08-11T11:51:22Z</time>
      </trkpt>
      <trkpt lat="49.73667" lon="1.03226">
        <ele>111.09307098389</ele>
        <time>2016-08-11T11:51:34Z</time>
      </trkpt>
      <trkpt lat="49.7367" lon="1.03216">
        <ele>111.09307098389</ele>
        <time>2016-08-11T11:51:37Z</time>
      </trkpt>
      <trkpt lat="49.73669" lon="1.03214">
        <ele>111.09307098389</ele>
        <time>2016-08-11T11:51:48Z</time>
      </trkpt>
      <trkpt lat="49.73664" lon="1.03211">
        <ele>111.76044464111</ele>
        <time>2016-08-11T11:51:52Z</time>
      </trkpt>
      <trkpt lat="49.73661" lon="1.03216">
        <ele>111.76044464111</ele>
        <time>2016-08-11T11:52:02Z</time>
      </trkpt>
      <trkpt lat="49.73661" lon="1.03216">
        <ele>111.76044464111</ele>
        <time>2016-08-11T11:52:08Z</time>
      </trkpt>
      <trkpt lat="49.73669" lon="1.032">
        <ele>111.62041473389</ele>
        <time>2016-08-11T11:52:18Z</time>
      </trkpt>
      <trkpt lat="49.7367" lon="1.03201">
        <ele>111.62041473389</ele>
        <time>2016-08-11T11:52:22Z</time>
      </trkpt>
      <trkpt lat="49.73669" lon="1.03201">
        <ele>111.62041473389</ele>
        <time>2016-08-11T11:52:32Z</time>
      </trkpt>
      <trkpt lat="49.73668" lon="1.032">
        <ele>111.62041473389</ele>
        <time>2016-08-11T11:52:37Z</time>
      </trkpt>
      <trkpt lat="49.73656" lon="1.03164">
        <ele>110.71704864502</ele>
        <time>2016-08-11T11:52:52Z</time>
      </trkpt>
      <trkpt lat="49.7366" lon="1.03179">
        <ele>110.82264709473</ele>
        <time>2016-08-11T11:53:07Z</time>
      </trkpt>
      <trkpt lat="49.73666" lon="1.03164">
        <ele>110.92490386963</ele>
        <time>2016-08-11T11:53:22Z</time>
      </trkpt>
      <trkpt lat="49.7367" lon="1.03159">
        <ele>110.92490386963</ele>
        <time>2016-08-11T11:53:27Z</time>
      </trkpt>
      <trkpt lat="49.73673" lon="1.03143">
        <ele>110.40294647217</ele>
        <time>2016-08-11T11:53:32Z</time>
      </trkpt>
      <trkpt lat="49.73678" lon="1.03137">
        <ele>110.40294647217</ele>
        <time>2016-08-11T11:53:37Z</time>
      </trkpt>
      <trkpt lat="49.73675" lon="1.0312">
        <ele>110.3694152832</ele>
        <time>2016-08-11T11:53:42Z</time>
      </trkpt>
      <trkpt lat="49.73678" lon="1.03114">
        <ele>110.3694152832</ele>
        <time>2016-08-11T11:53:47Z</time>
      </trkpt>
      <trkpt lat="49.73676" lon="1.03101">
        <ele>110.11012268066</ele>
        <time>2016-08-11T11:53:52Z</time>
      </trkpt>
      <trkpt lat="49.73686" lon="1.03068">
        <ele>108.99282073975</ele>
        <time>2016-08-11T11:54:07Z</time>
      </trkpt>
      <trkpt lat="49.73685" lon="1.0306">
        <ele>108.99282073975</ele>
        <time>2016-08-11T11:54:12Z</time>
      </trkpt>
      <trkpt lat="49.73686" lon="1.03037">
        <ele>108.59582519531</ele>
        <time>2016-08-11T11:54:23Z</time>
      </trkpt>
      <trkpt lat="49.73691" lon="1.03034">
        <ele>108.59582519531</ele>
        <time>2016-08-11T11:54:27Z</time>
      </trkpt>
      <trkpt lat="49.73685" lon="1.03009">
        <ele>109.11132049561</ele>
        <time>2016-08-11T11:54:37Z</time>
      </trkpt>
      <trkpt lat="49.73692" lon="1.02977">
        <ele>108.95669555664</ele>
        <time>2016-08-11T11:54:52Z</time>
      </trkpt>
      <trkpt lat="49.73691" lon="1.02963">
        <ele>108.95669555664</ele>
        <time>2016-08-11T11:54:58Z</time>
      </trkpt>
      <trkpt lat="49.73692" lon="1.0294">
        <ele>109.17502593994</ele>
        <time>2016-08-11T11:55:08Z</time>
      </trkpt>
      <trkpt lat="49.73691" lon="1.02936">
        <ele>109.17502593994</ele>
        <time>2016-08-11T11:55:12Z</time>
      </trkpt>
      <trkpt lat="49.73694" lon="1.02909">
        <ele>109.4203338623</ele>
        <time>2016-08-11T11:55:22Z</time>
      </trkpt>
      <trkpt lat="49.73703" lon="1.02909">
        <ele>109.96286010742</ele>
        <time>2016-08-11T11:55:28Z</time>
      </trkpt>
      <trkpt lat="49.73702" lon="1.02872">
        <ele>109.81284332275</ele>
        <time>2016-08-11T11:55:42Z</time>
      </trkpt>
      <trkpt lat="49.73706" lon="1.02867">
        <ele>109.81284332275</ele>
        <time>2016-08-11T11:55:47Z</time>
      </trkpt>
      <trkpt lat="49.73709" lon="1.0286">
        <ele>108.66046142578</ele>
        <time>2016-08-11T11:55:52Z</time>
      </trkpt>
      <trkpt lat="49.73708" lon="1.02859">
        <ele>108.66046142578</ele>
        <time>2016-08-11T11:55:57Z</time>
      </trkpt>
      <trkpt lat="49.73709" lon="1.02838">
        <ele>107.79232025146</ele>
        <time>2016-08-11T11:56:02Z</time>
      </trkpt>
      <trkpt lat="49.73711" lon="1.02828">
        <ele>107.79232025146</ele>
        <time>2016-08-11T11:56:09Z</time>
      </trkpt>
      <trkpt lat="49.73715" lon="1.02825">
        <ele>107.83768463135</ele>
        <time>2016-08-11T11:56:17Z</time>
      </trkpt>
      <trkpt lat="49.7372" lon="1.0283">
        <ele>107.83768463135</ele>
        <time>2016-08-11T11:56:22Z</time>
      </trkpt>
      <trkpt lat="49.73718" lon="1.02822">
        <ele>107.30186462402</ele>
        <time>2016-08-11T11:56:32Z</time>
      </trkpt>
      <trkpt lat="49.73715" lon="1.02821">
        <ele>107.30186462402</ele>
        <time>2016-08-11T11:56:37Z</time>
      </trkpt>
      <trkpt lat="49.73715" lon="1.02821">
        <ele>107.30186462402</ele>
        <time>2016-08-11T11:56:42Z</time>
      </trkpt>
      <trkpt lat="49.73716" lon="1.0282">
        <ele>107.30186462402</ele>
        <time>2016-08-11T11:56:47Z</time>
      </trkpt>
      <trkpt lat="49.73717" lon="1.0282">
        <ele>107.30186462402</ele>
        <time>2016-08-11T11:56:52Z</time>
      </trkpt>
      <trkpt lat="49.73717" lon="1.02819">
        <ele>107.30186462402</ele>
        <time>2016-08-11T11:57:02Z</time>
      </trkpt>
      <trkpt lat="49.73717" lon="1.02819">
        <ele>107.30186462402</ele>
        <time>2016-08-11T11:57:08Z</time>
      </trkpt>
      <trkpt lat="49.73717" lon="1.02819">
        <ele>107.30186462402</ele>
        <time>2016-08-11T11:57:17Z</time>
      </trkpt>
      <trkpt lat="49.73717" lon="1.02819">
        <ele>107.30186462402</ele>
        <time>2016-08-11T11:57:22Z</time>
      </trkpt>
      <trkpt lat="49.73717" lon="1.02819">
        <ele>107.30186462402</ele>
        <time>2016-08-11T11:57:38Z</time>
      </trkpt>
      <trkpt lat="49.73717" lon="1.02819">
        <ele>107.30186462402</ele>
        <time>2016-08-11T11:57:42Z</time>
      </trkpt>
      <trkpt lat="49.73719" lon="1.02819">
        <ele>107.30186462402</ele>
        <time>2016-08-11T11:57:47Z</time>
      </trkpt>
      <trkpt lat="49.73727" lon="1.02806">
        <ele>107.32355499268</ele>
        <time>2016-08-11T11:57:52Z</time>
      </trkpt>
      <trkpt lat="49.73739" lon="1.02792">
        <ele>107.6736831665</ele>
        <time>2016-08-11T11:58:02Z</time>
      </trkpt>
      <trkpt lat="49.7374" lon="1.02786">
        <ele>107.6736831665</ele>
        <time>2016-08-11T11:58:07Z</time>
      </trkpt>
      <trkpt lat="49.73744" lon="1.0278">
        <ele>108.34084320068</ele>
        <time>2016-08-11T11:58:12Z</time>
      </trkpt>
      <trkpt lat="49.73746" lon="1.02781">
        <ele>108.34084320068</ele>
        <time>2016-08-11T11:58:17Z</time>
      </trkpt>
      <trkpt lat="49.73747" lon="1.0278">
        <ele>108.34084320068</ele>
        <time>2016-08-11T11:58:22Z</time>
      </trkpt>
      <trkpt lat="49.73748" lon="1.02778">
        <ele>108.34084320068</ele>
        <time>2016-08-11T11:58:27Z</time>
      </trkpt>
      <trkpt lat="49.73752" lon="1.02772">
        <ele>110.39443969727</ele>
        <time>2016-08-11T11:58:38Z</time>
      </trkpt>
      <trkpt lat="49.73756" lon="1.02762">
        <ele>110.39443969727</ele>
        <time>2016-08-11T11:58:42Z</time>
      </trkpt>
      <trkpt lat="49.73772" lon="1.02736">
        <ele>112.31391906738</ele>
        <time>2016-08-11T11:58:47Z</time>
      </trkpt>
      <trkpt lat="49.73775" lon="1.02736">
        <ele>112.31391906738</ele>
        <time>2016-08-11T11:58:52Z</time>
      </trkpt>
      <trkpt lat="49.73781" lon="1.02729">
        <ele>113.71404266357</ele>
        <time>2016-08-11T11:58:58Z</time>
      </trkpt>
      <trkpt lat="49.73789" lon="1.02722">
        <ele>114.05204772949</ele>
        <time>2016-08-11T11:59:07Z</time>
      </trkpt>
      <trkpt lat="49.73793" lon="1.02713">
        <ele>114.05204772949</ele>
        <time>2016-08-11T11:59:12Z</time>
      </trkpt>
      <trkpt lat="49.73806" lon="1.02695">
        <ele>114.97532653809</ele>
        <time>2016-08-11T11:59:27Z</time>
      </trkpt>
      <trkpt lat="49.73809" lon="1.02688">
        <ele>114.97532653809</ele>
        <time>2016-08-11T11:59:32Z</time>
      </trkpt>
      <trkpt lat="49.73816" lon="1.02673">
        <ele>116.07759094238</ele>
        <time>2016-08-11T11:59:44Z</time>
      </trkpt>
      <trkpt lat="49.73819" lon="1.02666">
        <ele>116.07759094238</ele>
        <time>2016-08-11T11:59:47Z</time>
      </trkpt>
      <trkpt lat="49.73832" lon="1.02657">
        <ele>117.09725952148</ele>
        <time>2016-08-11T11:59:58Z</time>
      </trkpt>
      <trkpt lat="49.73836" lon="1.02654">
        <ele>117.09725952148</ele>
        <time>2016-08-11T12:00:02Z</time>
      </trkpt>
      <trkpt lat="49.73842" lon="1.02638">
        <ele>117.72023010254</ele>
        <time>2016-08-11T12:00:13Z</time>
      </trkpt>
      <trkpt lat="49.73846" lon="1.02634">
        <ele>117.72023010254</ele>
        <time>2016-08-11T12:00:18Z</time>
      </trkpt>
      <trkpt lat="49.73851" lon="1.0262">
        <ele>119.02569580078</ele>
        <time>2016-08-11T12:00:27Z</time>
      </trkpt>
      <trkpt lat="49.73846" lon="1.02605">
        <ele>119.6339263916</ele>
        <time>2016-08-11T12:00:32Z</time>
      </trkpt>
      <trkpt lat="49.73861" lon="1.02607">
        <ele>120.01232147217</ele>
        <time>2016-08-11T12:00:42Z</time>
      </trkpt>
      <trkpt lat="49.73865" lon="1.02607">
        <ele>120.01232147217</ele>
        <time>2016-08-11T12:00:47Z</time>
      </trkpt>
      <trkpt lat="49.73867" lon="1.02592">
        <ele>121.04141235352</ele>
        <time>2016-08-11T12:00:59Z</time>
      </trkpt>
      <trkpt lat="49.73875" lon="1.02591">
        <ele>121.04141235352</ele>
        <time>2016-08-11T12:01:03Z</time>
      </trkpt>
      <trkpt lat="49.73882" lon="1.0258">
        <ele>122.35359954834</ele>
        <time>2016-08-11T12:01:13Z</time>
      </trkpt>
      <trkpt lat="49.73885" lon="1.02575">
        <ele>122.35359954834</ele>
        <time>2016-08-11T12:01:17Z</time>
      </trkpt>
      <trkpt lat="49.73889" lon="1.02566">
        <ele>122.95908355713</ele>
        <time>2016-08-11T12:01:22Z</time>
      </trkpt>
      <trkpt lat="49.73897" lon="1.02544">
        <ele>123.74420928955</ele>
        <time>2016-08-11T12:01:33Z</time>
      </trkpt>
      <trkpt lat="49.73899" lon="1.02539">
        <ele>123.74420928955</ele>
        <time>2016-08-11T12:01:38Z</time>
      </trkpt>
      <trkpt lat="49.7391" lon="1.02539">
        <ele>123.58430480957</ele>
        <time>2016-08-11T12:01:47Z</time>
      </trkpt>
      <trkpt lat="49.73915" lon="1.02531">
        <ele>123.58430480957</ele>
        <time>2016-08-11T12:01:52Z</time>
      </trkpt>
      <trkpt lat="49.73923" lon="1.02516">
        <ele>124.20698547363</ele>
        <time>2016-08-11T12:02:02Z</time>
      </trkpt>
      <trkpt lat="49.73927" lon="1.02514">
        <ele>124.20698547363</ele>
        <time>2016-08-11T12:02:07Z</time>
      </trkpt>
      <trkpt lat="49.73931" lon="1.02506">
        <ele>124.68888092041</ele>
        <time>2016-08-11T12:02:17Z</time>
      </trkpt>
      <trkpt lat="49.73932" lon="1.02501">
        <ele>124.68888092041</ele>
        <time>2016-08-11T12:02:22Z</time>
      </trkpt>
      <trkpt lat="49.73934" lon="1.02499">
        <ele>124.68888092041</ele>
        <time>2016-08-11T12:02:27Z</time>
      </trkpt>
      <trkpt lat="49.73936" lon="1.02489">
        <ele>124.3766784668</ele>
        <time>2016-08-11T12:02:32Z</time>
      </trkpt>
      <trkpt lat="49.73944" lon="1.02484">
        <ele>124.3766784668</ele>
        <time>2016-08-11T12:02:38Z</time>
      </trkpt>
      <trkpt lat="49.73954" lon="1.02476">
        <ele>124.87224578857</ele>
        <time>2016-08-11T12:02:47Z</time>
      </trkpt>
      <trkpt lat="49.73958" lon="1.02469">
        <ele>124.87224578857</ele>
        <time>2016-08-11T12:02:52Z</time>
      </trkpt>
      <trkpt lat="49.73965" lon="1.02451">
        <ele>125.6976852417</ele>
        <time>2016-08-11T12:03:02Z</time>
      </trkpt>
      <trkpt lat="49.73967" lon="1.02445">
        <ele>125.6976852417</ele>
        <time>2016-08-11T12:03:07Z</time>
      </trkpt>
      <trkpt lat="49.73978" lon="1.02427">
        <ele>125.53022766113</ele>
        <time>2016-08-11T12:03:23Z</time>
      </trkpt>
      <trkpt lat="49.73986" lon="1.02413">
        <ele>124.55941772461</ele>
        <time>2016-08-11T12:03:33Z</time>
      </trkpt>
      <trkpt lat="49.73986" lon="1.02409">
        <ele>124.55941772461</ele>
        <time>2016-08-11T12:03:37Z</time>
      </trkpt>
      <trkpt lat="49.74004" lon="1.02394">
        <ele>124.47634887695</ele>
        <time>2016-08-11T12:03:53Z</time>
      </trkpt>
      <trkpt lat="49.74009" lon="1.02385">
        <ele>124.47634887695</ele>
        <time>2016-08-11T12:03:57Z</time>
      </trkpt>
      <trkpt lat="49.74019" lon="1.02377">
        <ele>125.75016784668</ele>
        <time>2016-08-11T12:04:09Z</time>
      </trkpt>
      <trkpt lat="49.74024" lon="1.02371">
        <ele>125.75016784668</ele>
        <time>2016-08-11T12:04:13Z</time>
      </trkpt>
      <trkpt lat="49.74034" lon="1.02361">
        <ele>126.50604248047</ele>
        <time>2016-08-11T12:04:23Z</time>
      </trkpt>
      <trkpt lat="49.74037" lon="1.02358">
        <ele>126.50604248047</ele>
        <time>2016-08-11T12:04:27Z</time>
      </trkpt>
      <trkpt lat="49.74047" lon="1.02353">
        <ele>126.75205993652</ele>
        <time>2016-08-11T12:04:37Z</time>
      </trkpt>
      <trkpt lat="49.74054" lon="1.02348">
        <ele>126.75205993652</ele>
        <time>2016-08-11T12:04:44Z</time>
      </trkpt>
      <trkpt lat="49.74068" lon="1.02337">
        <ele>127.0304107666</ele>
        <time>2016-08-11T12:04:58Z</time>
      </trkpt>
      <trkpt lat="49.74079" lon="1.02331">
        <ele>127.39663696289</ele>
        <time>2016-08-11T12:05:08Z</time>
      </trkpt>
      <trkpt lat="49.74083" lon="1.02328">
        <ele>127.39663696289</ele>
        <time>2016-08-11T12:05:12Z</time>
      </trkpt>
      <trkpt lat="49.74098" lon="1.02316">
        <ele>127.62817382812</ele>
        <time>2016-08-11T12:05:28Z</time>
      </trkpt>
      <trkpt lat="49.74102" lon="1.02313">
        <ele>127.62817382812</ele>
        <time>2016-08-11T12:05:32Z</time>
      </trkpt>
      <trkpt lat="49.74114" lon="1.02308">
        <ele>127.07247161865</ele>
        <time>2016-08-11T12:05:44Z</time>
      </trkpt>
      <trkpt lat="49.74126" lon="1.02296">
        <ele>126.16472625732</ele>
        <time>2016-08-11T12:05:57Z</time>
      </trkpt>
      <trkpt lat="49.74129" lon="1.02298">
        <ele>126.16472625732</ele>
        <time>2016-08-11T12:06:03Z</time>
      </trkpt>
      <trkpt lat="49.74131" lon="1.02295">
        <ele>126.16472625732</ele>
        <time>2016-08-11T12:06:12Z</time>
      </trkpt>
      <trkpt lat="49.74135" lon="1.02291">
        <ele>125.13624572754</ele>
        <time>2016-08-11T12:06:17Z</time>
      </trkpt>
      <trkpt lat="49.74147" lon="1.02281">
        <ele>124.18727111816</ele>
        <time>2016-08-11T12:06:28Z</time>
      </trkpt>
      <trkpt lat="49.74153" lon="1.02277">
        <ele>124.18727111816</ele>
        <time>2016-08-11T12:06:33Z</time>
      </trkpt>
      <trkpt lat="49.74167" lon="1.02268">
        <ele>123.58954620361</ele>
        <time>2016-08-11T12:06:43Z</time>
      </trkpt>
      <trkpt lat="49.74172" lon="1.02265">
        <ele>123.58954620361</ele>
        <time>2016-08-11T12:06:49Z</time>
      </trkpt>
      <trkpt lat="49.74181" lon="1.02259">
        <ele>123.29123687744</ele>
        <time>2016-08-11T12:06:57Z</time>
      </trkpt>
      <trkpt lat="49.74188" lon="1.02257">
        <ele>123.29123687744</ele>
        <time>2016-08-11T12:07:02Z</time>
      </trkpt>
      <trkpt lat="49.74198" lon="1.0225">
        <ele>122.96963500977</ele>
        <time>2016-08-11T12:07:13Z</time>
      </trkpt>
      <trkpt lat="49.74204" lon="1.02247">
        <ele>122.96963500977</ele>
        <time>2016-08-11T12:07:17Z</time>
      </trkpt>
      <trkpt lat="49.74217" lon="1.02241">
        <ele>122.68604278564</ele>
        <time>2016-08-11T12:07:29Z</time>
      </trkpt>
      <trkpt lat="49.74222" lon="1.02241">
        <ele>122.68604278564</ele>
        <time>2016-08-11T12:07:33Z</time>
      </trkpt>
      <trkpt lat="49.74236" lon="1.02238">
        <ele>122.41064453125</ele>
        <time>2016-08-11T12:07:47Z</time>
      </trkpt>
      <trkpt lat="49.74254" lon="1.02227">
        <ele>121.71225738525</ele>
        <time>2016-08-11T12:08:02Z</time>
      </trkpt>
      <trkpt lat="49.74259" lon="1.02227">
        <ele>121.71225738525</ele>
        <time>2016-08-11T12:08:07Z</time>
      </trkpt>
      <trkpt lat="49.74273" lon="1.02226">
        <ele>121.20127868652</ele>
        <time>2016-08-11T12:08:19Z</time>
      </trkpt>
      <trkpt lat="49.74277" lon="1.02225">
        <ele>121.20127868652</ele>
        <time>2016-08-11T12:08:22Z</time>
      </trkpt>
      <trkpt lat="49.74288" lon="1.02221">
        <ele>120.52040100098</ele>
        <time>2016-08-11T12:08:32Z</time>
      </trkpt>
      <trkpt lat="49.74296" lon="1.0222">
        <ele>120.52040100098</ele>
        <time>2016-08-11T12:08:37Z</time>
      </trkpt>
      <trkpt lat="49.7431" lon="1.02211">
        <ele>119.6416015625</ele>
        <time>2016-08-11T12:08:53Z</time>
      </trkpt>
      <trkpt lat="49.74317" lon="1.02206">
        <ele>119.6416015625</ele>
        <time>2016-08-11T12:09:03Z</time>
      </trkpt>
      <trkpt lat="49.74322" lon="1.02206">
        <ele>118.03504180908</ele>
        <time>2016-08-11T12:09:07Z</time>
      </trkpt>
      <trkpt lat="49.74327" lon="1.022">
        <ele>118.03504180908</ele>
        <time>2016-08-11T12:09:12Z</time>
      </trkpt>
      <trkpt lat="49.74338" lon="1.02194">
        <ele>116.91229248047</ele>
        <time>2016-08-11T12:09:23Z</time>
      </trkpt>
      <trkpt lat="49.74343" lon="1.02192">
        <ele>116.91229248047</ele>
        <time>2016-08-11T12:09:27Z</time>
      </trkpt>
      <trkpt lat="49.74355" lon="1.02189">
        <ele>115.34810638428</ele>
        <time>2016-08-11T12:09:37Z</time>
      </trkpt>
      <trkpt lat="49.74359" lon="1.02186">
        <ele>115.34810638428</ele>
        <time>2016-08-11T12:09:42Z</time>
      </trkpt>
      <trkpt lat="49.74364" lon="1.02179">
        <ele>113.01958465576</ele>
        <time>2016-08-11T12:09:48Z</time>
      </trkpt>
      <trkpt lat="49.74374" lon="1.02171">
        <ele>111.1715927124</ele>
        <time>2016-08-11T12:09:57Z</time>
      </trkpt>
      <trkpt lat="49.74374" lon="1.02174">
        <ele>111.1715927124</ele>
        <time>2016-08-11T12:10:02Z</time>
      </trkpt>
      <trkpt lat="49.74375" lon="1.02171">
        <ele>111.1715927124</ele>
        <time>2016-08-11T12:10:17Z</time>
      </trkpt>
      <trkpt lat="49.74376" lon="1.02174">
        <ele>111.1715927124</ele>
        <time>2016-08-11T12:10:23Z</time>
      </trkpt>
      <trkpt lat="49.74376" lon="1.02172">
        <ele>111.1715927124</ele>
        <time>2016-08-11T12:10:33Z</time>
      </trkpt>
      <trkpt lat="49.74376" lon="1.02172">
        <ele>111.1715927124</ele>
        <time>2016-08-11T12:10:37Z</time>
      </trkpt>
      <trkpt lat="49.74376" lon="1.02171">
        <ele>111.1715927124</ele>
        <time>2016-08-11T12:10:47Z</time>
      </trkpt>
      <trkpt lat="49.74377" lon="1.02171">
        <ele>111.1715927124</ele>
        <time>2016-08-11T12:10:52Z</time>
      </trkpt>
      <trkpt lat="49.74387" lon="1.02166">
        <ele>109.55821228027</ele>
        <time>2016-08-11T12:11:04Z</time>
      </trkpt>
      <trkpt lat="49.74392" lon="1.02162">
        <ele>109.55821228027</ele>
        <time>2016-08-11T12:11:08Z</time>
      </trkpt>
      <trkpt lat="49.74397" lon="1.02158">
        <ele>108.61376190186</ele>
        <time>2016-08-11T12:11:19Z</time>
      </trkpt>
      <trkpt lat="49.74399" lon="1.02157">
        <ele>108.61376190186</ele>
        <time>2016-08-11T12:11:23Z</time>
      </trkpt>
      <trkpt lat="49.74409" lon="1.02152">
        <ele>107.47045135498</ele>
        <time>2016-08-11T12:11:33Z</time>
      </trkpt>
      <trkpt lat="49.74413" lon="1.0215">
        <ele>107.47045135498</ele>
        <time>2016-08-11T12:11:38Z</time>
      </trkpt>
      <trkpt lat="49.74421" lon="1.02149">
        <ele>107.01081085205</ele>
        <time>2016-08-11T12:11:49Z</time>
      </trkpt>
      <trkpt lat="49.74421" lon="1.02148">
        <ele>107.01081085205</ele>
        <time>2016-08-11T12:11:52Z</time>
      </trkpt>
      <trkpt lat="49.74423" lon="1.02145">
        <ele>107.01081085205</ele>
        <time>2016-08-11T12:12:04Z</time>
      </trkpt>
      <trkpt lat="49.74424" lon="1.02145">
        <ele>107.01081085205</ele>
        <time>2016-08-11T12:12:07Z</time>
      </trkpt>
      <trkpt lat="49.74434" lon="1.02147">
        <ele>107.09937286377</ele>
        <time>2016-08-11T12:12:12Z</time>
      </trkpt>
      <trkpt lat="49.74444" lon="1.02137">
        <ele>107.50807189941</ele>
        <time>2016-08-11T12:12:22Z</time>
      </trkpt>
      <trkpt lat="49.74448" lon="1.02136">
        <ele>107.50807189941</ele>
        <time>2016-08-11T12:12:27Z</time>
      </trkpt>
      <trkpt lat="49.74456" lon="1.02129">
        <ele>108.05345916748</ele>
        <time>2016-08-11T12:12:37Z</time>
      </trkpt>
      <trkpt lat="49.74459" lon="1.02128">
        <ele>108.05345916748</ele>
        <time>2016-08-11T12:12:43Z</time>
      </trkpt>
      <trkpt lat="49.74471" lon="1.02122">
        <ele>108.13272094727</ele>
        <time>2016-08-11T12:12:53Z</time>
      </trkpt>
      <trkpt lat="49.74475" lon="1.0212">
        <ele>108.13272094727</ele>
        <time>2016-08-11T12:12:57Z</time>
      </trkpt>
      <trkpt lat="49.74488" lon="1.02113">
        <ele>108.87467956543</ele>
        <time>2016-08-11T12:13:08Z</time>
      </trkpt>
      <trkpt lat="49.74492" lon="1.02111">
        <ele>108.87467956543</ele>
        <time>2016-08-11T12:13:13Z</time>
      </trkpt>
      <trkpt lat="49.74497" lon="1.0211">
        <ele>109.62277984619</ele>
        <time>2016-08-11T12:13:17Z</time>
      </trkpt>
      <trkpt lat="49.74508" lon="1.02104">
        <ele>110.30184173584</ele>
        <time>2016-08-11T12:13:29Z</time>
      </trkpt>
      <trkpt lat="49.74524" lon="1.02093">
        <ele>111.01529693604</ele>
        <time>2016-08-11T12:13:42Z</time>
      </trkpt>
      <trkpt lat="49.74542" lon="1.0209">
        <ele>111.98854064941</ele>
        <time>2016-08-11T12:13:58Z</time>
      </trkpt>
      <trkpt lat="49.74546" lon="1.02089">
        <ele>111.98854064941</ele>
        <time>2016-08-11T12:14:02Z</time>
      </trkpt>
      <trkpt lat="49.74562" lon="1.02085">
        <ele>113.06938171387</ele>
        <time>2016-08-11T12:14:14Z</time>
      </trkpt>
      <trkpt lat="49.74565" lon="1.02085">
        <ele>113.06938171387</ele>
        <time>2016-08-11T12:14:17Z</time>
      </trkpt>
      <trkpt lat="49.74576" lon="1.02081">
        <ele>114.17414855957</ele>
        <time>2016-08-11T12:14:28Z</time>
      </trkpt>
      <trkpt lat="49.74581" lon="1.02082">
        <ele>114.17414855957</ele>
        <time>2016-08-11T12:14:34Z</time>
      </trkpt>
      <trkpt lat="49.74591" lon="1.02081">
        <ele>115.21083831787</ele>
        <time>2016-08-11T12:14:42Z</time>
      </trkpt>
      <trkpt lat="49.74596" lon="1.0208">
        <ele>115.21083831787</ele>
        <time>2016-08-11T12:14:47Z</time>
      </trkpt>
      <trkpt lat="49.74614" lon="1.0208">
        <ele>116.00794219971</ele>
        <time>2016-08-11T12:15:03Z</time>
      </trkpt>
      <trkpt lat="49.74626" lon="1.02078">
        <ele>116.43605041504</ele>
        <time>2016-08-11T12:15:14Z</time>
      </trkpt>
      <trkpt lat="49.74633" lon="1.02078">
        <ele>116.43605041504</ele>
        <time>2016-08-11T12:15:19Z</time>
      </trkpt>
      <trkpt lat="49.7465" lon="1.02073">
        <ele>117.0680770874</ele>
        <time>2016-08-11T12:15:32Z</time>
      </trkpt>
      <trkpt lat="49.74666" lon="1.02068">
        <ele>117.69934082031</ele>
        <time>2016-08-11T12:15:47Z</time>
      </trkpt>
      <trkpt lat="49.74671" lon="1.02065">
        <ele>117.69934082031</ele>
        <time>2016-08-11T12:15:52Z</time>
      </trkpt>
      <trkpt lat="49.74681" lon="1.02057">
        <ele>118.26993560791</ele>
        <time>2016-08-11T12:16:02Z</time>
      </trkpt>
      <trkpt lat="49.74689" lon="1.02053">
        <ele>118.26993560791</ele>
        <time>2016-08-11T12:16:07Z</time>
      </trkpt>
      <trkpt lat="49.747" lon="1.02045">
        <ele>118.92630004883</ele>
        <time>2016-08-11T12:16:19Z</time>
      </trkpt>
      <trkpt lat="49.74704" lon="1.02042">
        <ele>118.92630004883</ele>
        <time>2016-08-11T12:16:23Z</time>
      </trkpt>
      <trkpt lat="49.74714" lon="1.02038">
        <ele>119.80396270752</ele>
        <time>2016-08-11T12:16:32Z</time>
      </trkpt>
      <trkpt lat="49.7472" lon="1.02034">
        <ele>119.80396270752</ele>
        <time>2016-08-11T12:16:38Z</time>
      </trkpt>
      <trkpt lat="49.74731" lon="1.02026">
        <ele>120.35057067871</ele>
        <time>2016-08-11T12:16:48Z</time>
      </trkpt>
      <trkpt lat="49.74735" lon="1.02023">
        <ele>120.35057067871</ele>
        <time>2016-08-11T12:16:52Z</time>
      </trkpt>
      <trkpt lat="49.74748" lon="1.02017">
        <ele>120.81912231445</ele>
        <time>2016-08-11T12:17:03Z</time>
      </trkpt>
      <trkpt lat="49.74754" lon="1.02011">
        <ele>120.81912231445</ele>
        <time>2016-08-11T12:17:08Z</time>
      </trkpt>
      <trkpt lat="49.74766" lon="1.02004">
        <ele>121.22814178467</ele>
        <time>2016-08-11T12:17:19Z</time>
      </trkpt>
      <trkpt lat="49.74768" lon="1.02004">
        <ele>121.22814178467</ele>
        <time>2016-08-11T12:17:22Z</time>
      </trkpt>
      <trkpt lat="49.74784" lon="1.01992">
        <ele>121.71030426025</ele>
        <time>2016-08-11T12:17:38Z</time>
      </trkpt>
      <trkpt lat="49.74799" lon="1.01989">
        <ele>121.79753112793</ele>
        <time>2016-08-11T12:17:53Z</time>
      </trkpt>
      <trkpt lat="49.74804" lon="1.01987">
        <ele>121.79753112793</ele>
        <time>2016-08-11T12:17:57Z</time>
      </trkpt>
      <trkpt lat="49.7481" lon="1.01985">
        <ele>121.92195129395</ele>
        <time>2016-08-11T12:18:02Z</time>
      </trkpt>
      <trkpt lat="49.74815" lon="1.01983">
        <ele>121.92195129395</ele>
        <time>2016-08-11T12:18:07Z</time>
      </trkpt>
      <trkpt lat="49.74821" lon="1.01981">
        <ele>121.84983062744</ele>
        <time>2016-08-11T12:18:12Z</time>
      </trkpt>
      <trkpt lat="49.74827" lon="1.01979">
        <ele>121.84983062744</ele>
        <time>2016-08-11T12:18:17Z</time>
      </trkpt>
      <trkpt lat="49.74839" lon="1.01974">
        <ele>122.0569229126</ele>
        <time>2016-08-11T12:18:28Z</time>
      </trkpt>
      <trkpt lat="49.74844" lon="1.01973">
        <ele>122.0569229126</ele>
        <time>2016-08-11T12:18:32Z</time>
      </trkpt>
      <trkpt lat="49.74853" lon="1.01968">
        <ele>122.00333404541</ele>
        <time>2016-08-11T12:18:42Z</time>
      </trkpt>
      <trkpt lat="49.74859" lon="1.01966">
        <ele>122.00333404541</ele>
        <time>2016-08-11T12:18:47Z</time>
      </trkpt>
      <trkpt lat="49.7488" lon="1.01961">
        <ele>122.2416305542</ele>
        <time>2016-08-11T12:19:02Z</time>
      </trkpt>
      <trkpt lat="49.7489" lon="1.01956">
        <ele>122.50480651855</ele>
        <time>2016-08-11T12:19:13Z</time>
      </trkpt>
      <trkpt lat="49.74898" lon="1.01954">
        <ele>122.50480651855</ele>
        <time>2016-08-11T12:19:17Z</time>
      </trkpt>
      <trkpt lat="49.74903" lon="1.01951">
        <ele>122.60308837891</ele>
        <time>2016-08-11T12:19:22Z</time>
      </trkpt>
      <trkpt lat="49.74914" lon="1.0195">
        <ele>122.64936065674</ele>
        <time>2016-08-11T12:19:32Z</time>
      </trkpt>
      <trkpt lat="49.74921" lon="1.01948">
        <ele>122.64936065674</ele>
        <time>2016-08-11T12:19:37Z</time>
      </trkpt>
      <trkpt lat="49.74929" lon="1.01945">
        <ele>122.40252685547</ele>
        <time>2016-08-11T12:19:48Z</time>
      </trkpt>
      <trkpt lat="49.74935" lon="1.01942">
        <ele>122.40252685547</ele>
        <time>2016-08-11T12:19:53Z</time>
      </trkpt>
      <trkpt lat="49.74945" lon="1.01939">
        <ele>122.14443969727</ele>
        <time>2016-08-11T12:20:02Z</time>
      </trkpt>
      <trkpt lat="49.74949" lon="1.01937">
        <ele>122.14443969727</ele>
        <time>2016-08-11T12:20:08Z</time>
      </trkpt>
      <trkpt lat="49.7496" lon="1.01925">
        <ele>121.96339416504</ele>
        <time>2016-08-11T12:20:18Z</time>
      </trkpt>
      <trkpt lat="49.74967" lon="1.01927">
        <ele>121.96339416504</ele>
        <time>2016-08-11T12:20:22Z</time>
      </trkpt>
      <trkpt lat="49.74979" lon="1.0192">
        <ele>121.59510803223</ele>
        <time>2016-08-11T12:20:32Z</time>
      </trkpt>
      <trkpt lat="49.74985" lon="1.01917">
        <ele>121.59510803223</ele>
        <time>2016-08-11T12:20:38Z</time>
      </trkpt>
      <trkpt lat="49.7499" lon="1.01916">
        <ele>121.42936706543</ele>
        <time>2016-08-11T12:20:42Z</time>
      </trkpt>
      <trkpt lat="49.75005" lon="1.01912">
        <ele>121.74029541016</ele>
        <time>2016-08-11T12:20:52Z</time>
      </trkpt>
      <trkpt lat="49.75022" lon="1.01906">
        <ele>121.97353363037</ele>
        <time>2016-08-11T12:21:07Z</time>
      </trkpt>
      <trkpt lat="49.75039" lon="1.01902">
        <ele>121.8030166626</ele>
        <time>2016-08-11T12:21:23Z</time>
      </trkpt>
      <trkpt lat="49.75044" lon="1.01901">
        <ele>121.8030166626</ele>
        <time>2016-08-11T12:21:27Z</time>
      </trkpt>
      <trkpt lat="49.75058" lon="1.01896">
        <ele>121.64833068848</ele>
        <time>2016-08-11T12:21:38Z</time>
      </trkpt>
      <trkpt lat="49.75063" lon="1.01896">
        <ele>121.64833068848</ele>
        <time>2016-08-11T12:21:43Z</time>
      </trkpt>
      <trkpt lat="49.75076" lon="1.01896">
        <ele>121.3073425293</ele>
        <time>2016-08-11T12:21:52Z</time>
      </trkpt>
      <trkpt lat="49.75081" lon="1.01895">
        <ele>121.3073425293</ele>
        <time>2016-08-11T12:21:57Z</time>
      </trkpt>
      <trkpt lat="49.75087" lon="1.01894">
        <ele>120.67975616455</ele>
        <time>2016-08-11T12:22:02Z</time>
      </trkpt>
      <trkpt lat="49.75092" lon="1.01895">
        <ele>120.67975616455</ele>
        <time>2016-08-11T12:22:07Z</time>
      </trkpt>
      <trkpt lat="49.75097" lon="1.01895">
        <ele>119.93286132812</ele>
        <time>2016-08-11T12:22:12Z</time>
      </trkpt>
      <trkpt lat="49.75105" lon="1.01892">
        <ele>119.93286132812</ele>
        <time>2016-08-11T12:22:23Z</time>
      </trkpt>
      <trkpt lat="49.75105" lon="1.01892">
        <ele>119.93286132812</ele>
        <time>2016-08-11T12:22:27Z</time>
      </trkpt>
      <trkpt lat="49.75106" lon="1.01894">
        <ele>119.06344604492</ele>
        <time>2016-08-11T12:22:37Z</time>
      </trkpt>
      <trkpt lat="49.75107" lon="1.01893">
        <ele>119.06344604492</ele>
        <time>2016-08-11T12:22:42Z</time>
      </trkpt>
      <trkpt lat="49.75109" lon="1.01893">
        <ele>119.06344604492</ele>
        <time>2016-08-11T12:22:52Z</time>
      </trkpt>
      <trkpt lat="49.75109" lon="1.01894">
        <ele>119.06344604492</ele>
        <time>2016-08-11T12:22:58Z</time>
      </trkpt>
      <trkpt lat="49.75109" lon="1.01894">
        <ele>119.06344604492</ele>
        <time>2016-08-11T12:23:07Z</time>
      </trkpt>
      <trkpt lat="49.75109" lon="1.01894">
        <ele>119.06344604492</ele>
        <time>2016-08-11T12:23:12Z</time>
      </trkpt>
      <trkpt lat="49.7511" lon="1.01891">
        <ele>119.06344604492</ele>
        <time>2016-08-11T12:23:22Z</time>
      </trkpt>
      <trkpt lat="49.75109" lon="1.01891">
        <ele>119.06344604492</ele>
        <time>2016-08-11T12:23:28Z</time>
      </trkpt>
      <trkpt lat="49.75108" lon="1.0189">
        <ele>119.06344604492</ele>
        <time>2016-08-11T12:23:32Z</time>
      </trkpt>
      <trkpt lat="49.75108" lon="1.01891">
        <ele>119.06344604492</ele>
        <time>2016-08-11T12:23:42Z</time>
      </trkpt>
      <trkpt lat="49.75107" lon="1.01891">
        <ele>119.06344604492</ele>
        <time>2016-08-11T12:23:47Z</time>
      </trkpt>
      <trkpt lat="49.75108" lon="1.01891">
        <ele>119.06344604492</ele>
        <time>2016-08-11T12:23:57Z</time>
      </trkpt>
      <trkpt lat="49.75108" lon="1.01891">
        <ele>119.06344604492</ele>
        <time>2016-08-11T12:24:03Z</time>
      </trkpt>
      <trkpt lat="49.75108" lon="1.01891">
        <ele>119.06344604492</ele>
        <time>2016-08-11T12:24:12Z</time>
      </trkpt>
      <trkpt lat="49.75108" lon="1.01891">
        <ele>119.06344604492</ele>
        <time>2016-08-11T12:24:18Z</time>
      </trkpt>
      <trkpt lat="49.75108" lon="1.01891">
        <ele>119.06344604492</ele>
        <time>2016-08-11T12:24:27Z</time>
      </trkpt>
      <trkpt lat="49.75108" lon="1.01891">
        <ele>119.06344604492</ele>
        <time>2016-08-11T12:24:32Z</time>
      </trkpt>
      <trkpt lat="49.75108" lon="1.01891">
        <ele>118.1841583252</ele>
        <time>2016-08-11T12:24:42Z</time>
      </trkpt>
      <trkpt lat="49.75108" lon="1.0189">
        <ele>118.1841583252</ele>
        <time>2016-08-11T12:24:47Z</time>
      </trkpt>
      <trkpt lat="49.75108" lon="1.01891">
        <ele>118.1841583252</ele>
        <time>2016-08-11T12:24:58Z</time>
      </trkpt>
      <trkpt lat="49.75108" lon="1.01891">
        <ele>118.1841583252</ele>
        <time>2016-08-11T12:25:03Z</time>
      </trkpt>
      <trkpt lat="49.75108" lon="1.01891">
        <ele>118.1841583252</ele>
        <time>2016-08-11T12:25:17Z</time>
      </trkpt>
      <trkpt lat="49.75108" lon="1.01891">
        <ele>118.1841583252</ele>
        <time>2016-08-11T12:25:22Z</time>
      </trkpt>
      <trkpt lat="49.75108" lon="1.01891">
        <ele>118.1841583252</ele>
        <time>2016-08-11T12:25:32Z</time>
      </trkpt>
      <trkpt lat="49.75108" lon="1.01891">
        <ele>118.1841583252</ele>
        <time>2016-08-11T12:25:37Z</time>
      </trkpt>
      <trkpt lat="49.75108" lon="1.01891">
        <ele>118.1841583252</ele>
        <time>2016-08-11T12:25:48Z</time>
      </trkpt>
      <trkpt lat="49.75108" lon="1.01891">
        <ele>118.1841583252</ele>
        <time>2016-08-11T12:25:52Z</time>
      </trkpt>
      <trkpt lat="49.75108" lon="1.01891">
        <ele>118.1841583252</ele>
        <time>2016-08-11T12:26:03Z</time>
      </trkpt>
      <trkpt lat="49.75107" lon="1.01891">
        <ele>118.1841583252</ele>
        <time>2016-08-11T12:26:07Z</time>
      </trkpt>
      <trkpt lat="49.75108" lon="1.01891">
        <ele>118.1841583252</ele>
        <time>2016-08-11T12:26:17Z</time>
      </trkpt>
      <trkpt lat="49.75108" lon="1.01888">
        <ele>118.1841583252</ele>
        <time>2016-08-11T12:26:23Z</time>
      </trkpt>
      <trkpt lat="49.75108" lon="1.01888">
        <ele>118.1841583252</ele>
        <time>2016-08-11T12:26:33Z</time>
      </trkpt>
      <trkpt lat="49.75108" lon="1.01888">
        <ele>118.1841583252</ele>
        <time>2016-08-11T12:26:37Z</time>
      </trkpt>
      <trkpt lat="49.75108" lon="1.01888">
        <ele>118.1841583252</ele>
        <time>2016-08-11T12:26:47Z</time>
      </trkpt>
      <trkpt lat="49.75108" lon="1.01889">
        <ele>118.1841583252</ele>
        <time>2016-08-11T12:26:53Z</time>
      </trkpt>
      <trkpt lat="49.75108" lon="1.01889">
        <ele>118.1841583252</ele>
        <time>2016-08-11T12:27:02Z</time>
      </trkpt>
      <trkpt lat="49.75108" lon="1.01889">
        <ele>118.1841583252</ele>
        <time>2016-08-11T12:27:08Z</time>
      </trkpt>
      <trkpt lat="49.75108" lon="1.01889">
        <ele>118.1841583252</ele>
        <time>2016-08-11T12:27:18Z</time>
      </trkpt>
      <trkpt lat="49.75108" lon="1.01889">
        <ele>118.1841583252</ele>
        <time>2016-08-11T12:27:22Z</time>
      </trkpt>
      <trkpt lat="49.75108" lon="1.01889">
        <ele>118.1841583252</ele>
        <time>2016-08-11T12:27:32Z</time>
      </trkpt>
      <trkpt lat="49.75108" lon="1.01889">
        <ele>118.1841583252</ele>
        <time>2016-08-11T12:27:38Z</time>
      </trkpt>
      <trkpt lat="49.75108" lon="1.01889">
        <ele>118.1841583252</ele>
        <time>2016-08-11T12:27:53Z</time>
      </trkpt>
      <trkpt lat="49.75108" lon="1.01889">
        <ele>118.1841583252</ele>
        <time>2016-08-11T12:28:02Z</time>
      </trkpt>
      <trkpt lat="49.75108" lon="1.01889">
        <ele>118.1841583252</ele>
        <time>2016-08-11T12:28:08Z</time>
      </trkpt>
      <trkpt lat="49.75108" lon="1.01889">
        <ele>118.1841583252</ele>
        <time>2016-08-11T12:28:12Z</time>
      </trkpt>
      <trkpt lat="49.75107" lon="1.0189">
        <ele>118.1841583252</ele>
        <time>2016-08-11T12:28:22Z</time>
      </trkpt>
      <trkpt lat="49.75108" lon="1.01891">
        <ele>118.1841583252</ele>
        <time>2016-08-11T12:28:27Z</time>
      </trkpt>
      <trkpt lat="49.75109" lon="1.01891">
        <ele>118.1841583252</ele>
        <time>2016-08-11T12:28:37Z</time>
      </trkpt>
      <trkpt lat="49.75109" lon="1.01891">
        <ele>118.1841583252</ele>
        <time>2016-08-11T12:28:52Z</time>
      </trkpt>
      <trkpt lat="49.75109" lon="1.01891">
        <ele>118.1841583252</ele>
        <time>2016-08-11T12:28:57Z</time>
      </trkpt>
      <trkpt lat="49.75109" lon="1.01891">
        <ele>118.1841583252</ele>
        <time>2016-08-11T12:29:07Z</time>
      </trkpt>
      <trkpt lat="49.75109" lon="1.01891">
        <ele>118.1841583252</ele>
        <time>2016-08-11T12:29:13Z</time>
      </trkpt>
      <trkpt lat="49.75109" lon="1.01891">
        <ele>118.1841583252</ele>
        <time>2016-08-11T12:29:22Z</time>
      </trkpt>
      <trkpt lat="49.75109" lon="1.01891">
        <ele>118.1841583252</ele>
        <time>2016-08-11T12:29:28Z</time>
      </trkpt>
      <trkpt lat="49.75109" lon="1.01891">
        <ele>118.1841583252</ele>
        <time>2016-08-11T12:29:37Z</time>
      </trkpt>
      <trkpt lat="49.75109" lon="1.01891">
        <ele>118.1841583252</ele>
        <time>2016-08-11T12:29:43Z</time>
      </trkpt>
      <trkpt lat="49.75109" lon="1.01891">
        <ele>118.1841583252</ele>
        <time>2016-08-11T12:29:53Z</time>
      </trkpt>
      <trkpt lat="49.75109" lon="1.0189">
        <ele>117.60113525391</ele>
        <time>2016-08-11T12:29:57Z</time>
      </trkpt>
      <trkpt lat="49.7511" lon="1.0189">
        <ele>117.60113525391</ele>
        <time>2016-08-11T12:30:07Z</time>
      </trkpt>
      <trkpt lat="49.7511" lon="1.0189">
        <ele>117.60113525391</ele>
        <time>2016-08-11T12:30:12Z</time>
      </trkpt>
      <trkpt lat="49.75122" lon="1.01882">
        <ele>116.8910369873</ele>
        <time>2016-08-11T12:30:23Z</time>
      </trkpt>
      <trkpt lat="49.75128" lon="1.01878">
        <ele>116.8910369873</ele>
        <time>2016-08-11T12:30:28Z</time>
      </trkpt>
      <trkpt lat="49.75144" lon="1.01875">
        <ele>115.04224395752</ele>
        <time>2016-08-11T12:30:42Z</time>
      </trkpt>
      <trkpt lat="49.75153" lon="1.01869">
        <ele>113.90196228027</ele>
        <time>2016-08-11T12:30:52Z</time>
      </trkpt>
      <trkpt lat="49.75158" lon="1.01865">
        <ele>113.90196228027</ele>
        <time>2016-08-11T12:30:57Z</time>
      </trkpt>
      <trkpt lat="49.75175" lon="1.01849">
        <ele>113.07563781738</ele>
        <time>2016-08-11T12:31:07Z</time>
      </trkpt>
      <trkpt lat="49.7518" lon="1.01841">
        <ele>113.07563781738</ele>
        <time>2016-08-11T12:31:13Z</time>
      </trkpt>
      <trkpt lat="49.75189" lon="1.01829">
        <ele>112.03826141357</ele>
        <time>2016-08-11T12:31:23Z</time>
      </trkpt>
      <trkpt lat="49.75191" lon="1.01828">
        <ele>112.03826141357</ele>
        <time>2016-08-11T12:31:27Z</time>
      </trkpt>
      <trkpt lat="49.75194" lon="1.01827">
        <ele>112.03826141357</ele>
        <time>2016-08-11T12:31:32Z</time>
      </trkpt>
      <trkpt lat="49.75205" lon="1.01814">
        <ele>111.21181488037</ele>
        <time>2016-08-11T12:31:43Z</time>
      </trkpt>
      <trkpt lat="49.75212" lon="1.0181">
        <ele>111.21181488037</ele>
        <time>2016-08-11T12:31:47Z</time>
      </trkpt>
      <trkpt lat="49.7522" lon="1.01799">
        <ele>110.07871246338</ele>
        <time>2016-08-11T12:31:57Z</time>
      </trkpt>
      <trkpt lat="49.75227" lon="1.01795">
        <ele>110.07871246338</ele>
        <time>2016-08-11T12:32:02Z</time>
      </trkpt>
      <trkpt lat="49.75239" lon="1.01787">
        <ele>109.16898345947</ele>
        <time>2016-08-11T12:32:12Z</time>
      </trkpt>
      <trkpt lat="49.75246" lon="1.01784">
        <ele>109.16898345947</ele>
        <time>2016-08-11T12:32:17Z</time>
      </trkpt>
      <trkpt lat="49.75256" lon="1.0178">
        <ele>108.43980407715</ele>
        <time>2016-08-11T12:32:28Z</time>
      </trkpt>
      <trkpt lat="49.75262" lon="1.01774">
        <ele>108.43980407715</ele>
        <time>2016-08-11T12:32:33Z</time>
      </trkpt>
      <trkpt lat="49.75273" lon="1.01768">
        <ele>108.0238571167</ele>
        <time>2016-08-11T12:32:43Z</time>
      </trkpt>
      <trkpt lat="49.75277" lon="1.01768">
        <ele>108.0238571167</ele>
        <time>2016-08-11T12:32:48Z</time>
      </trkpt>
      <trkpt lat="49.75284" lon="1.01763">
        <ele>107.1208114624</ele>
        <time>2016-08-11T12:32:57Z</time>
      </trkpt>
      <trkpt lat="49.7529" lon="1.01761">
        <ele>107.1208114624</ele>
        <time>2016-08-11T12:33:03Z</time>
      </trkpt>
      <trkpt lat="49.75302" lon="1.01751">
        <ele>106.05685424805</ele>
        <time>2016-08-11T12:33:12Z</time>
      </trkpt>
      <trkpt lat="49.75307" lon="1.01748">
        <ele>106.05685424805</ele>
        <time>2016-08-11T12:33:17Z</time>
      </trkpt>
      <trkpt lat="49.75326" lon="1.0174">
        <ele>105.68221282959</ele>
        <time>2016-08-11T12:33:34Z</time>
      </trkpt>
      <trkpt lat="49.75343" lon="1.01733">
        <ele>105.08213043213</ele>
        <time>2016-08-11T12:33:49Z</time>
      </trkpt>
      <trkpt lat="49.75345" lon="1.01734">
        <ele>105.08213043213</ele>
        <time>2016-08-11T12:33:53Z</time>
      </trkpt>
      <trkpt lat="49.75355" lon="1.01732">
        <ele>104.02930450439</ele>
        <time>2016-08-11T12:34:02Z</time>
      </trkpt>
      <trkpt lat="49.75373" lon="1.01729">
        <ele>103.25104522705</ele>
        <time>2016-08-11T12:34:18Z</time>
      </trkpt>
      <trkpt lat="49.75377" lon="1.01729">
        <ele>103.25104522705</ele>
        <time>2016-08-11T12:34:22Z</time>
      </trkpt>
      <trkpt lat="49.75396" lon="1.01724">
        <ele>103.23304748535</ele>
        <time>2016-08-11T12:34:34Z</time>
      </trkpt>
      <trkpt lat="49.754" lon="1.01725">
        <ele>103.23304748535</ele>
        <time>2016-08-11T12:34:38Z</time>
      </trkpt>
      <trkpt lat="49.75409" lon="1.01722">
        <ele>103.42877197266</ele>
        <time>2016-08-11T12:34:47Z</time>
      </trkpt>
      <trkpt lat="49.75416" lon="1.0172">
        <ele>103.42877197266</ele>
        <time>2016-08-11T12:34:52Z</time>
      </trkpt>
      <trkpt lat="49.75429" lon="1.01716">
        <ele>103.73468780518</ele>
        <time>2016-08-11T12:35:03Z</time>
      </trkpt>
      <trkpt lat="49.75432" lon="1.01713">
        <ele>103.73468780518</ele>
        <time>2016-08-11T12:35:07Z</time>
      </trkpt>
      <trkpt lat="49.75447" lon="1.01708">
        <ele>103.75186157227</ele>
        <time>2016-08-11T12:35:18Z</time>
      </trkpt>
      <trkpt lat="49.75451" lon="1.01706">
        <ele>103.75186157227</ele>
        <time>2016-08-11T12:35:22Z</time>
      </trkpt>
      <trkpt lat="49.75456" lon="1.01705">
        <ele>103.47170257568</ele>
        <time>2016-08-11T12:35:27Z</time>
      </trkpt>
      <trkpt lat="49.75462" lon="1.01704">
        <ele>103.47170257568</ele>
        <time>2016-08-11T12:35:34Z</time>
      </trkpt>
      <trkpt lat="49.75467" lon="1.01703">
        <ele>103.69409942627</ele>
        <time>2016-08-11T12:35:38Z</time>
      </trkpt>
      <trkpt lat="49.75472" lon="1.017">
        <ele>103.69409942627</ele>
        <time>2016-08-11T12:35:42Z</time>
      </trkpt>
      <trkpt lat="49.75485" lon="1.01694">
        <ele>104.04904937744</ele>
        <time>2016-08-11T12:35:54Z</time>
      </trkpt>
      <trkpt lat="49.75488" lon="1.01692">
        <ele>104.04904937744</ele>
        <time>2016-08-11T12:35:57Z</time>
      </trkpt>
      <trkpt lat="49.75494" lon="1.01686">
        <ele>104.03482818604</ele>
        <time>2016-08-11T12:36:03Z</time>
      </trkpt>
      <trkpt lat="49.75497" lon="1.01685">
        <ele>104.03482818604</ele>
        <time>2016-08-11T12:36:07Z</time>
      </trkpt>
      <trkpt lat="49.75504" lon="1.01681">
        <ele>104.45576477051</ele>
        <time>2016-08-11T12:36:23Z</time>
      </trkpt>
      <trkpt lat="49.7551" lon="1.01676">
        <ele>104.45576477051</ele>
        <time>2016-08-11T12:36:27Z</time>
      </trkpt>
      <trkpt lat="49.75537" lon="1.01672">
        <ele>104.32653045654</ele>
        <time>2016-08-11T12:36:39Z</time>
      </trkpt>
      <trkpt lat="49.75541" lon="1.01668">
        <ele>104.32653045654</ele>
        <time>2016-08-11T12:36:44Z</time>
      </trkpt>
      <trkpt lat="49.75553" lon="1.01665">
        <ele>104.30652618408</ele>
        <time>2016-08-11T12:36:52Z</time>
      </trkpt>
      <trkpt lat="49.7556" lon="1.01665">
        <ele>104.30652618408</ele>
        <time>2016-08-11T12:36:58Z</time>
      </trkpt>
      <trkpt lat="49.75585" lon="1.01653">
        <ele>104.97757720947</ele>
        <time>2016-08-11T12:37:12Z</time>
      </trkpt>
      <trkpt lat="49.75587" lon="1.01654">
        <ele>104.97757720947</ele>
        <time>2016-08-11T12:37:17Z</time>
      </trkpt>
      <trkpt lat="49.75593" lon="1.01657">
        <ele>104.97757720947</ele>
        <time>2016-08-11T12:37:22Z</time>
      </trkpt>
      <trkpt lat="49.75597" lon="1.01653">
        <ele>105.88247680664</ele>
        <time>2016-08-11T12:37:29Z</time>
      </trkpt>
      <trkpt lat="49.75609" lon="1.0165">
        <ele>106.66900634766</ele>
        <time>2016-08-11T12:37:37Z</time>
      </trkpt>
      <trkpt lat="49.7561" lon="1.0165">
        <ele>106.66900634766</ele>
        <time>2016-08-11T12:37:42Z</time>
      </trkpt>
      <trkpt lat="49.75611" lon="1.01649">
        <ele>106.66900634766</ele>
        <time>2016-08-11T12:37:52Z</time>
      </trkpt>
      <trkpt lat="49.75609" lon="1.01648">
        <ele>106.66900634766</ele>
        <time>2016-08-11T12:37:58Z</time>
      </trkpt>
      <trkpt lat="49.75611" lon="1.01647">
        <ele>106.66900634766</ele>
        <time>2016-08-11T12:38:08Z</time>
      </trkpt>
      <trkpt lat="49.75612" lon="1.01647">
        <ele>106.66900634766</ele>
        <time>2016-08-11T12:38:12Z</time>
      </trkpt>
      <trkpt lat="49.75615" lon="1.01648">
        <ele>108.65404510498</ele>
        <time>2016-08-11T12:38:22Z</time>
      </trkpt>
      <trkpt lat="49.75612" lon="1.01649">
        <ele>108.65404510498</ele>
        <time>2016-08-11T12:38:27Z</time>
      </trkpt>
      <trkpt lat="49.75605" lon="1.01651">
        <ele>109.01928710938</ele>
        <time>2016-08-11T12:38:42Z</time>
      </trkpt>
      <trkpt lat="49.75618" lon="1.01647">
        <ele>109.7984161377</ele>
        <time>2016-08-11T12:38:54Z</time>
      </trkpt>
      <trkpt lat="49.75623" lon="1.01644">
        <ele>109.7984161377</ele>
        <time>2016-08-11T12:38:57Z</time>
      </trkpt>
      <trkpt lat="49.75623" lon="1.01646">
        <ele>109.7984161377</ele>
        <time>2016-08-11T12:39:02Z</time>
      </trkpt>
      <trkpt lat="49.75628" lon="1.01645">
        <ele>110.15092468262</ele>
        <time>2016-08-11T12:39:12Z</time>
      </trkpt>
      <trkpt lat="49.75631" lon="1.01643">
        <ele>110.15092468262</ele>
        <time>2016-08-11T12:39:17Z</time>
      </trkpt>
      <trkpt lat="49.75642" lon="1.01634">
        <ele>109.50102233887</ele>
        <time>2016-08-11T12:39:27Z</time>
      </trkpt>
      <trkpt lat="49.7565" lon="1.01632">
        <ele>109.50102233887</ele>
        <time>2016-08-11T12:39:32Z</time>
      </trkpt>
      <trkpt lat="49.75659" lon="1.01627">
        <ele>108.81686401367</ele>
        <time>2016-08-11T12:39:42Z</time>
      </trkpt>
      <trkpt lat="49.75664" lon="1.01627">
        <ele>108.81686401367</ele>
        <time>2016-08-11T12:39:47Z</time>
      </trkpt>
      <trkpt lat="49.75674" lon="1.01623">
        <ele>108.28946685791</ele>
        <time>2016-08-11T12:39:58Z</time>
      </trkpt>
      <trkpt lat="49.75682" lon="1.01621">
        <ele>108.28946685791</ele>
        <time>2016-08-11T12:40:02Z</time>
      </trkpt>
      <trkpt lat="49.75696" lon="1.01618">
        <ele>108.0521774292</ele>
        <time>2016-08-11T12:40:14Z</time>
      </trkpt>
      <trkpt lat="49.75699" lon="1.01618">
        <ele>108.0521774292</ele>
        <time>2016-08-11T12:40:17Z</time>
      </trkpt>
      <trkpt lat="49.75705" lon="1.01616">
        <ele>107.46399688721</ele>
        <time>2016-08-11T12:40:22Z</time>
      </trkpt>
      <trkpt lat="49.75713" lon="1.01615">
        <ele>107.46399688721</ele>
        <time>2016-08-11T12:40:27Z</time>
      </trkpt>
      <trkpt lat="49.7572" lon="1.01613">
        <ele>107.17137908936</ele>
        <time>2016-08-11T12:40:33Z</time>
      </trkpt>
      <trkpt lat="49.75727" lon="1.01611">
        <ele>107.17137908936</ele>
        <time>2016-08-11T12:40:37Z</time>
      </trkpt>
      <trkpt lat="49.75735" lon="1.0161">
        <ele>106.70606231689</ele>
        <time>2016-08-11T12:40:47Z</time>
      </trkpt>
      <trkpt lat="49.75736" lon="1.0161">
        <ele>106.70606231689</ele>
        <time>2016-08-11T12:40:52Z</time>
      </trkpt>
      <trkpt lat="49.75739" lon="1.0161">
        <ele>106.70606231689</ele>
        <time>2016-08-11T12:41:02Z</time>
      </trkpt>
      <trkpt lat="49.75748" lon="1.01611">
        <ele>106.0958480835</ele>
        <time>2016-08-11T12:41:07Z</time>
      </trkpt>
      <trkpt lat="49.75759" lon="1.01611">
        <ele>105.29487609863</ele>
        <time>2016-08-11T12:41:17Z</time>
      </trkpt>
      <trkpt lat="49.75764" lon="1.01608">
        <ele>105.29487609863</ele>
        <time>2016-08-11T12:41:22Z</time>
      </trkpt>
      <trkpt lat="49.75777" lon="1.01607">
        <ele>104.31884002686</ele>
        <time>2016-08-11T12:41:32Z</time>
      </trkpt>
      <trkpt lat="49.75784" lon="1.0161">
        <ele>104.31884002686</ele>
        <time>2016-08-11T12:41:38Z</time>
      </trkpt>
      <trkpt lat="49.75803" lon="1.01609">
        <ele>103.5142288208</ele>
        <time>2016-08-11T12:41:52Z</time>
      </trkpt>
      <trkpt lat="49.75808" lon="1.01609">
        <ele>103.5142288208</ele>
        <time>2016-08-11T12:41:57Z</time>
      </trkpt>
      <trkpt lat="49.75814" lon="1.0161">
        <ele>102.52429199219</ele>
        <time>2016-08-11T12:42:02Z</time>
      </trkpt>
      <trkpt lat="49.75819" lon="1.01609">
        <ele>102.52429199219</ele>
        <time>2016-08-11T12:42:07Z</time>
      </trkpt>
      <trkpt lat="49.75826" lon="1.01607">
        <ele>101.46574401855</ele>
        <time>2016-08-11T12:42:12Z</time>
      </trkpt>
      <trkpt lat="49.75832" lon="1.01607">
        <ele>101.46574401855</ele>
        <time>2016-08-11T12:42:17Z</time>
      </trkpt>
      <trkpt lat="49.75837" lon="1.01608">
        <ele>100.12985229492</ele>
        <time>2016-08-11T12:42:22Z</time>
      </trkpt>
      <trkpt lat="49.75842" lon="1.01608">
        <ele>100.12985229492</ele>
        <time>2016-08-11T12:42:28Z</time>
      </trkpt>
      <trkpt lat="49.75848" lon="1.01609">
        <ele>99.131004333496</ele>
        <time>2016-08-11T12:42:32Z</time>
      </trkpt>
      <trkpt lat="49.75859" lon="1.01614">
        <ele>97.942260742188</ele>
        <time>2016-08-11T12:42:42Z</time>
      </trkpt>
      <trkpt lat="49.75867" lon="1.01615">
        <ele>97.942260742188</ele>
        <time>2016-08-11T12:42:48Z</time>
      </trkpt>
      <trkpt lat="49.75879" lon="1.01618">
        <ele>96.392906188965</ele>
        <time>2016-08-11T12:42:57Z</time>
      </trkpt>
      <trkpt lat="49.75883" lon="1.0162">
        <ele>96.392906188965</ele>
        <time>2016-08-11T12:43:02Z</time>
      </trkpt>
      <trkpt lat="49.75896" lon="1.01624">
        <ele>94.613983154297</ele>
        <time>2016-08-11T12:43:13Z</time>
      </trkpt>
      <trkpt lat="49.75899" lon="1.01624">
        <ele>94.613983154297</ele>
        <time>2016-08-11T12:43:17Z</time>
      </trkpt>
      <trkpt lat="49.7591" lon="1.01624">
        <ele>92.62663269043</ele>
        <time>2016-08-11T12:43:29Z</time>
      </trkpt>
      <trkpt lat="49.75915" lon="1.01623">
        <ele>92.62663269043</ele>
        <time>2016-08-11T12:43:32Z</time>
      </trkpt>
      <trkpt lat="49.75927" lon="1.01619">
        <ele>90.436538696289</ele>
        <time>2016-08-11T12:43:42Z</time>
      </trkpt>
      <trkpt lat="49.75935" lon="1.01616">
        <ele>90.436538696289</ele>
        <time>2016-08-11T12:43:47Z</time>
      </trkpt>
      <trkpt lat="49.75942" lon="1.01607">
        <ele>88.35213470459</ele>
        <time>2016-08-11T12:43:57Z</time>
      </trkpt>
      <trkpt lat="49.75946" lon="1.01606">
        <ele>88.35213470459</ele>
        <time>2016-08-11T12:44:03Z</time>
      </trkpt>
      <trkpt lat="49.75949" lon="1.01606">
        <ele>88.35213470459</ele>
        <time>2016-08-11T12:44:12Z</time>
      </trkpt>
      <trkpt lat="49.75949" lon="1.016">
        <ele>85.967063903809</ele>
        <time>2016-08-11T12:44:17Z</time>
      </trkpt>
      <trkpt lat="49.75949" lon="1.01586">
        <ele>83.482048034668</ele>
        <time>2016-08-11T12:44:27Z</time>
      </trkpt>
      <trkpt lat="49.75948" lon="1.01584">
        <ele>83.482048034668</ele>
        <time>2016-08-11T12:44:32Z</time>
      </trkpt>
      <trkpt lat="49.75948" lon="1.01584">
        <ele>83.482048034668</ele>
        <time>2016-08-11T12:44:42Z</time>
      </trkpt>
      <trkpt lat="49.75948" lon="1.01584">
        <ele>83.482048034668</ele>
        <time>2016-08-11T12:44:47Z</time>
      </trkpt>
      <trkpt lat="49.75948" lon="1.01584">
        <ele>83.482048034668</ele>
        <time>2016-08-11T12:44:52Z</time>
      </trkpt>
      <trkpt lat="49.75948" lon="1.01584">
        <ele>83.482048034668</ele>
        <time>2016-08-11T12:44:58Z</time>
      </trkpt>
      <trkpt lat="49.75948" lon="1.01585">
        <ele>83.482048034668</ele>
        <time>2016-08-11T12:45:02Z</time>
      </trkpt>
      <trkpt lat="49.7596" lon="1.0158">
        <ele>81.760559082031</ele>
        <time>2016-08-11T12:45:18Z</time>
      </trkpt>
      <trkpt lat="49.75961" lon="1.0158">
        <ele>81.760559082031</ele>
        <time>2016-08-11T12:45:22Z</time>
      </trkpt>
      <trkpt lat="49.75969" lon="1.01579">
        <ele>80.087226867676</ele>
        <time>2016-08-11T12:45:33Z</time>
      </trkpt>
      <trkpt lat="49.75971" lon="1.01579">
        <ele>80.087226867676</ele>
        <time>2016-08-11T12:45:38Z</time>
      </trkpt>
      <trkpt lat="49.75978" lon="1.0158">
        <ele>78.663665771484</ele>
        <time>2016-08-11T12:45:47Z</time>
      </trkpt>
      <trkpt lat="49.75983" lon="1.01582">
        <ele>78.663665771484</ele>
        <time>2016-08-11T12:45:52Z</time>
      </trkpt>
      <trkpt lat="49.75988" lon="1.01584">
        <ele>76.99853515625</ele>
        <time>2016-08-11T12:45:57Z</time>
      </trkpt>
      <trkpt lat="49.75992" lon="1.01584">
        <ele>76.99853515625</ele>
        <time>2016-08-11T12:46:02Z</time>
      </trkpt>
      <trkpt lat="49.75997" lon="1.01585">
        <ele>76.99853515625</ele>
        <time>2016-08-11T12:46:07Z</time>
      </trkpt>
      <trkpt lat="49.76012" lon="1.01583">
        <ele>75.487434387207</ele>
        <time>2016-08-11T12:46:22Z</time>
      </trkpt>
      <trkpt lat="49.76026" lon="1.01575">
        <ele>74.208106994629</ele>
        <time>2016-08-11T12:46:37Z</time>
      </trkpt>
      <trkpt lat="49.76029" lon="1.01576">
        <ele>74.208106994629</ele>
        <time>2016-08-11T12:46:42Z</time>
      </trkpt>
      <trkpt lat="49.76042" lon="1.0157">
        <ele>73.649772644043</ele>
        <time>2016-08-11T12:46:54Z</time>
      </trkpt>
      <trkpt lat="49.76045" lon="1.01569">
        <ele>73.649772644043</ele>
        <time>2016-08-11T12:46:57Z</time>
      </trkpt>
      <trkpt lat="49.76054" lon="1.0156">
        <ele>73.456550598145</ele>
        <time>2016-08-11T12:47:08Z</time>
      </trkpt>
      <trkpt lat="49.76057" lon="1.01552">
        <ele>73.456550598145</ele>
        <time>2016-08-11T12:47:12Z</time>
      </trkpt>
      <trkpt lat="49.76055" lon="1.01547">
        <ele>73.629058837891</ele>
        <time>2016-08-11T12:47:22Z</time>
      </trkpt>
      <trkpt lat="49.76055" lon="1.01547">
        <ele>73.629058837891</ele>
        <time>2016-08-11T12:47:27Z</time>
      </trkpt>
      <trkpt lat="49.76051" lon="1.01553">
        <ele>73.629058837891</ele>
        <time>2016-08-11T12:47:37Z</time>
      </trkpt>
      <trkpt lat="49.76048" lon="1.01556">
        <ele>72.812088012695</ele>
        <time>2016-08-11T12:47:42Z</time>
      </trkpt>
      <trkpt lat="49.76046" lon="1.01557">
        <ele>72.812088012695</ele>
        <time>2016-08-11T12:47:53Z</time>
      </trkpt>
      <trkpt lat="49.76046" lon="1.01557">
        <ele>72.812088012695</ele>
        <time>2016-08-11T12:47:58Z</time>
      </trkpt>
      <trkpt lat="49.76048" lon="1.01558">
        <ele>72.812088012695</ele>
        <time>2016-08-11T12:48:08Z</time>
      </trkpt>
      <trkpt lat="49.76048" lon="1.01558">
        <ele>72.812088012695</ele>
        <time>2016-08-11T12:48:12Z</time>
      </trkpt>
      <trkpt lat="49.76048" lon="1.01558">
        <ele>72.812088012695</ele>
        <time>2016-08-11T12:48:17Z</time>
      </trkpt>
      <trkpt lat="49.76048" lon="1.01558">
        <ele>72.812088012695</ele>
        <time>2016-08-11T12:48:22Z</time>
      </trkpt>
      <trkpt lat="49.76048" lon="1.01558">
        <ele>72.812088012695</ele>
        <time>2016-08-11T12:48:32Z</time>
      </trkpt>
      <trkpt lat="49.76048" lon="1.01558">
        <ele>72.812088012695</ele>
        <time>2016-08-11T12:48:37Z</time>
      </trkpt>
      <trkpt lat="49.76048" lon="1.01558">
        <ele>72.812088012695</ele>
        <time>2016-08-11T12:48:42Z</time>
      </trkpt>
      <trkpt lat="49.76048" lon="1.01558">
        <ele>72.812088012695</ele>
        <time>2016-08-11T12:48:47Z</time>
      </trkpt>
      <trkpt lat="49.76048" lon="1.01558">
        <ele>72.812088012695</ele>
        <time>2016-08-11T12:48:52Z</time>
      </trkpt>
      <trkpt lat="49.76049" lon="1.01558">
        <ele>72.812088012695</ele>
        <time>2016-08-11T12:48:57Z</time>
      </trkpt>
      <trkpt lat="49.7605" lon="1.0156">
        <ele>72.812088012695</ele>
        <time>2016-08-11T12:49:12Z</time>
      </trkpt>
      <trkpt lat="49.7605" lon="1.0156">
        <ele>72.812088012695</ele>
        <time>2016-08-11T12:49:17Z</time>
      </trkpt>
      <trkpt lat="49.7605" lon="1.0156">
        <ele>72.812088012695</ele>
        <time>2016-08-11T12:49:22Z</time>
      </trkpt>
      <trkpt lat="49.7605" lon="1.0156">
        <ele>72.812088012695</ele>
        <time>2016-08-11T12:49:27Z</time>
      </trkpt>
      <trkpt lat="49.7605" lon="1.0156">
        <ele>72.812088012695</ele>
        <time>2016-08-11T12:49:32Z</time>
      </trkpt>
      <trkpt lat="49.7605" lon="1.0156">
        <ele>72.812088012695</ele>
        <time>2016-08-11T12:49:43Z</time>
      </trkpt>
      <trkpt lat="49.7605" lon="1.0156">
        <ele>72.812088012695</ele>
        <time>2016-08-11T12:49:47Z</time>
      </trkpt>
      <trkpt lat="49.7605" lon="1.0156">
        <ele>72.812088012695</ele>
        <time>2016-08-11T12:49:57Z</time>
      </trkpt>
      <trkpt lat="49.7605" lon="1.0156">
        <ele>72.812088012695</ele>
        <time>2016-08-11T12:50:03Z</time>
      </trkpt>
      <trkpt lat="49.7605" lon="1.0156">
        <ele>72.812088012695</ele>
        <time>2016-08-11T12:50:12Z</time>
      </trkpt>
      <trkpt lat="49.7605" lon="1.0156">
        <ele>72.812088012695</ele>
        <time>2016-08-11T12:50:18Z</time>
      </trkpt>
      <trkpt lat="49.7605" lon="1.0156">
        <ele>72.812088012695</ele>
        <time>2016-08-11T12:50:22Z</time>
      </trkpt>
      <trkpt lat="49.7605" lon="1.0156">
        <ele>72.812088012695</ele>
        <time>2016-08-11T12:50:29Z</time>
      </trkpt>
      <trkpt lat="49.7605" lon="1.0156">
        <ele>72.812088012695</ele>
        <time>2016-08-11T12:50:32Z</time>
      </trkpt>
      <trkpt lat="49.7605" lon="1.0156">
        <ele>72.812088012695</ele>
        <time>2016-08-11T12:50:48Z</time>
      </trkpt>
      <trkpt lat="49.7605" lon="1.0156">
        <ele>72.812088012695</ele>
        <time>2016-08-11T12:50:52Z</time>
      </trkpt>
      <trkpt lat="49.7605" lon="1.0156">
        <ele>72.812088012695</ele>
        <time>2016-08-11T12:51:03Z</time>
      </trkpt>
      <trkpt lat="49.7605" lon="1.0156">
        <ele>72.812088012695</ele>
        <time>2016-08-11T12:51:08Z</time>
      </trkpt>
      <trkpt lat="49.7605" lon="1.0156">
        <ele>72.812088012695</ele>
        <time>2016-08-11T12:51:17Z</time>
      </trkpt>
      <trkpt lat="49.7605" lon="1.0156">
        <ele>72.812088012695</ele>
        <time>2016-08-11T12:51:22Z</time>
      </trkpt>
      <trkpt lat="49.7605" lon="1.0156">
        <ele>72.812088012695</ele>
        <time>2016-08-11T12:51:33Z</time>
      </trkpt>
      <trkpt lat="49.7605" lon="1.0156">
        <ele>72.812088012695</ele>
        <time>2016-08-11T12:51:37Z</time>
      </trkpt>
      <trkpt lat="49.7605" lon="1.0156">
        <ele>72.812088012695</ele>
        <time>2016-08-11T12:51:48Z</time>
      </trkpt>
      <trkpt lat="49.7605" lon="1.0156">
        <ele>72.812088012695</ele>
        <time>2016-08-11T12:51:54Z</time>
      </trkpt>
      <trkpt lat="49.7605" lon="1.0156">
        <ele>72.812088012695</ele>
        <time>2016-08-11T12:52:02Z</time>
      </trkpt>
      <trkpt lat="49.7605" lon="1.0156">
        <ele>72.812088012695</ele>
        <time>2016-08-11T12:52:09Z</time>
      </trkpt>
      <trkpt lat="49.7605" lon="1.0156">
        <ele>72.812088012695</ele>
        <time>2016-08-11T12:52:17Z</time>
      </trkpt>
      <trkpt lat="49.7605" lon="1.0156">
        <ele>72.812088012695</ele>
        <time>2016-08-11T12:52:22Z</time>
      </trkpt>
      <trkpt lat="49.7605" lon="1.0156">
        <ele>72.812088012695</ele>
        <time>2016-08-11T12:52:34Z</time>
      </trkpt>
      <trkpt lat="49.7605" lon="1.0156">
        <ele>72.812088012695</ele>
        <time>2016-08-11T12:52:37Z</time>
      </trkpt>
      <trkpt lat="49.76051" lon="1.0156">
        <ele>72.812088012695</ele>
        <time>2016-08-11T12:52:42Z</time>
      </trkpt>
      <trkpt lat="49.76051" lon="1.0156">
        <ele>72.812088012695</ele>
        <time>2016-08-11T12:52:53Z</time>
      </trkpt>
      <trkpt lat="49.76051" lon="1.0156">
        <ele>72.812088012695</ele>
        <time>2016-08-11T12:52:58Z</time>
      </trkpt>
      <trkpt lat="49.76051" lon="1.0156">
        <ele>72.812088012695</ele>
        <time>2016-08-11T12:53:07Z</time>
      </trkpt>
      <trkpt lat="49.76051" lon="1.0156">
        <ele>72.812088012695</ele>
        <time>2016-08-11T12:53:13Z</time>
      </trkpt>
      <trkpt lat="49.76051" lon="1.0156">
        <ele>72.812088012695</ele>
        <time>2016-08-11T12:53:23Z</time>
      </trkpt>
      <trkpt lat="49.76051" lon="1.0156">
        <ele>72.812088012695</ele>
        <time>2016-08-11T12:53:27Z</time>
      </trkpt>
      <trkpt lat="49.76051" lon="1.0156">
        <ele>72.812088012695</ele>
        <time>2016-08-11T12:53:37Z</time>
      </trkpt>
      <trkpt lat="49.76051" lon="1.01561">
        <ele>72.812088012695</ele>
        <time>2016-08-11T12:53:44Z</time>
      </trkpt>
      <trkpt lat="49.76051" lon="1.01561">
        <ele>72.812088012695</ele>
        <time>2016-08-11T12:53:52Z</time>
      </trkpt>
      <trkpt lat="49.76051" lon="1.01561">
        <ele>72.812088012695</ele>
        <time>2016-08-11T12:53:59Z</time>
      </trkpt>
      <trkpt lat="49.76051" lon="1.01561">
        <ele>72.812088012695</ele>
        <time>2016-08-11T12:54:07Z</time>
      </trkpt>
      <trkpt lat="49.76051" lon="1.01561">
        <ele>72.812088012695</ele>
        <time>2016-08-11T12:54:12Z</time>
      </trkpt>
      <trkpt lat="49.76051" lon="1.01561">
        <ele>72.812088012695</ele>
        <time>2016-08-11T12:54:24Z</time>
      </trkpt>
      <trkpt lat="49.76051" lon="1.01561">
        <ele>72.812088012695</ele>
        <time>2016-08-11T12:54:27Z</time>
      </trkpt>
      <trkpt lat="49.76051" lon="1.01561">
        <ele>72.812088012695</ele>
        <time>2016-08-11T12:54:38Z</time>
      </trkpt>
      <trkpt lat="49.76051" lon="1.01561">
        <ele>72.812088012695</ele>
        <time>2016-08-11T12:54:43Z</time>
      </trkpt>
      <trkpt lat="49.76051" lon="1.01561">
        <ele>72.812088012695</ele>
        <time>2016-08-11T12:54:57Z</time>
      </trkpt>
      <trkpt lat="49.76051" lon="1.01561">
        <ele>72.812088012695</ele>
        <time>2016-08-11T12:55:09Z</time>
      </trkpt>
      <trkpt lat="49.76051" lon="1.01561">
        <ele>72.812088012695</ele>
        <time>2016-08-11T12:55:12Z</time>
      </trkpt>
      <trkpt lat="49.76051" lon="1.01561">
        <ele>72.812088012695</ele>
        <time>2016-08-11T12:55:17Z</time>
      </trkpt>
      <trkpt lat="49.76051" lon="1.01561">
        <ele>72.812088012695</ele>
        <time>2016-08-11T12:55:28Z</time>
      </trkpt>
      <trkpt lat="49.76051" lon="1.01561">
        <ele>72.812088012695</ele>
        <time>2016-08-11T12:55:33Z</time>
      </trkpt>
      <trkpt lat="49.76051" lon="1.01561">
        <ele>72.812088012695</ele>
        <time>2016-08-11T12:55:43Z</time>
      </trkpt>
      <trkpt lat="49.76051" lon="1.01561">
        <ele>72.812088012695</ele>
        <time>2016-08-11T12:55:48Z</time>
      </trkpt>
      <trkpt lat="49.76051" lon="1.01561">
        <ele>72.812088012695</ele>
        <time>2016-08-11T12:55:57Z</time>
      </trkpt>
      <trkpt lat="49.76051" lon="1.01561">
        <ele>72.812088012695</ele>
        <time>2016-08-11T12:56:02Z</time>
      </trkpt>
      <trkpt lat="49.76051" lon="1.01561">
        <ele>72.812088012695</ele>
        <time>2016-08-11T12:56:13Z</time>
      </trkpt>
      <trkpt lat="49.76051" lon="1.01561">
        <ele>72.812088012695</ele>
        <time>2016-08-11T12:56:17Z</time>
      </trkpt>
      <trkpt lat="49.76051" lon="1.01561">
        <ele>72.812088012695</ele>
        <time>2016-08-11T12:56:28Z</time>
      </trkpt>
      <trkpt lat="49.76051" lon="1.01561">
        <ele>72.812088012695</ele>
        <time>2016-08-11T12:56:33Z</time>
      </trkpt>
      <trkpt lat="49.76051" lon="1.01561">
        <ele>72.812088012695</ele>
        <time>2016-08-11T12:56:37Z</time>
      </trkpt>
      <trkpt lat="49.76051" lon="1.01561">
        <ele>72.812088012695</ele>
        <time>2016-08-11T12:56:47Z</time>
      </trkpt>
      <trkpt lat="49.76051" lon="1.01561">
        <ele>72.812088012695</ele>
        <time>2016-08-11T12:57:02Z</time>
      </trkpt>
      <trkpt lat="49.76051" lon="1.01561">
        <ele>72.812088012695</ele>
        <time>2016-08-11T12:57:08Z</time>
      </trkpt>
      <trkpt lat="49.76051" lon="1.01561">
        <ele>72.812088012695</ele>
        <time>2016-08-11T12:57:18Z</time>
      </trkpt>
      <trkpt lat="49.76051" lon="1.01561">
        <ele>72.812088012695</ele>
        <time>2016-08-11T12:57:22Z</time>
      </trkpt>
      <trkpt lat="49.76051" lon="1.01561">
        <ele>72.812088012695</ele>
        <time>2016-08-11T12:57:33Z</time>
      </trkpt>
      <trkpt lat="49.76051" lon="1.01561">
        <ele>72.812088012695</ele>
        <time>2016-08-11T12:57:38Z</time>
      </trkpt>
      <trkpt lat="49.76051" lon="1.01561">
        <ele>72.812088012695</ele>
        <time>2016-08-11T12:57:47Z</time>
      </trkpt>
      <trkpt lat="49.76051" lon="1.01561">
        <ele>72.812088012695</ele>
        <time>2016-08-11T12:57:53Z</time>
      </trkpt>
      <trkpt lat="49.76051" lon="1.01561">
        <ele>72.812088012695</ele>
        <time>2016-08-11T12:58:03Z</time>
      </trkpt>
      <trkpt lat="49.76051" lon="1.01561">
        <ele>72.812088012695</ele>
        <time>2016-08-11T12:58:07Z</time>
      </trkpt>
      <trkpt lat="49.76051" lon="1.01561">
        <ele>72.812088012695</ele>
        <time>2016-08-11T12:58:17Z</time>
      </trkpt>
      <trkpt lat="49.76051" lon="1.01561">
        <ele>72.812088012695</ele>
        <time>2016-08-11T12:58:23Z</time>
      </trkpt>
      <trkpt lat="49.76051" lon="1.01561">
        <ele>72.812088012695</ele>
        <time>2016-08-11T12:58:33Z</time>
      </trkpt>
      <trkpt lat="49.76051" lon="1.01561">
        <ele>72.812088012695</ele>
        <time>2016-08-11T12:58:37Z</time>
      </trkpt>
      <trkpt lat="49.76051" lon="1.01561">
        <ele>72.812088012695</ele>
        <time>2016-08-11T12:58:47Z</time>
      </trkpt>
      <trkpt lat="49.76051" lon="1.01561">
        <ele>72.812088012695</ele>
        <time>2016-08-11T12:58:52Z</time>
      </trkpt>
      <trkpt lat="49.76051" lon="1.01561">
        <ele>72.812088012695</ele>
        <time>2016-08-11T12:59:03Z</time>
      </trkpt>
      <trkpt lat="49.76051" lon="1.01561">
        <ele>72.812088012695</ele>
        <time>2016-08-11T12:59:07Z</time>
      </trkpt>
      <trkpt lat="49.76051" lon="1.01561">
        <ele>72.812088012695</ele>
        <time>2016-08-11T12:59:12Z</time>
      </trkpt>
      <trkpt lat="49.76051" lon="1.01561">
        <ele>72.812088012695</ele>
        <time>2016-08-11T12:59:23Z</time>
      </trkpt>
      <trkpt lat="49.76051" lon="1.01561">
        <ele>72.812088012695</ele>
        <time>2016-08-11T12:59:38Z</time>
      </trkpt>
      <trkpt lat="49.76051" lon="1.01561">
        <ele>72.812088012695</ele>
        <time>2016-08-11T12:59:48Z</time>
      </trkpt>
      <trkpt lat="49.76051" lon="1.01561">
        <ele>72.812088012695</ele>
        <time>2016-08-11T12:59:52Z</time>
      </trkpt>
      <trkpt lat="49.76051" lon="1.01561">
        <ele>72.812088012695</ele>
        <time>2016-08-11T12:59:57Z</time>
      </trkpt>
      <trkpt lat="49.76051" lon="1.01561">
        <ele>72.812088012695</ele>
        <time>2016-08-11T13:00:08Z</time>
      </trkpt>
      <trkpt lat="49.76051" lon="1.01561">
        <ele>72.812088012695</ele>
        <time>2016-08-11T13:00:24Z</time>
      </trkpt>
      <trkpt lat="49.76051" lon="1.01561">
        <ele>72.812088012695</ele>
        <time>2016-08-11T13:00:28Z</time>
      </trkpt>
      <trkpt lat="49.76051" lon="1.01561">
        <ele>72.812088012695</ele>
        <time>2016-08-11T13:00:37Z</time>
      </trkpt>
      <trkpt lat="49.76051" lon="1.01561">
        <ele>72.812088012695</ele>
        <time>2016-08-11T13:00:43Z</time>
      </trkpt>
      <trkpt lat="49.76051" lon="1.01561">
        <ele>72.812088012695</ele>
        <time>2016-08-11T13:00:53Z</time>
      </trkpt>
      <trkpt lat="49.76051" lon="1.01561">
        <ele>72.812088012695</ele>
        <time>2016-08-11T13:00:57Z</time>
      </trkpt>
      <trkpt lat="49.76051" lon="1.01561">
        <ele>72.812088012695</ele>
        <time>2016-08-11T13:01:08Z</time>
      </trkpt>
      <trkpt lat="49.76051" lon="1.01561">
        <ele>72.812088012695</ele>
        <time>2016-08-11T13:01:12Z</time>
      </trkpt>
      <trkpt lat="49.76051" lon="1.01561">
        <ele>72.812088012695</ele>
        <time>2016-08-11T13:01:28Z</time>
      </trkpt>
      <trkpt lat="49.76051" lon="1.01561">
        <ele>72.812088012695</ele>
        <time>2016-08-11T13:01:37Z</time>
      </trkpt>
      <trkpt lat="49.76051" lon="1.01561">
        <ele>72.812088012695</ele>
        <time>2016-08-11T13:01:42Z</time>
      </trkpt>
      <trkpt lat="49.76051" lon="1.01561">
        <ele>72.812088012695</ele>
        <time>2016-08-11T13:01:58Z</time>
      </trkpt>
      <trkpt lat="49.76051" lon="1.01561">
        <ele>72.812088012695</ele>
        <time>2016-08-11T13:02:02Z</time>
      </trkpt>
      <trkpt lat="49.76051" lon="1.01561">
        <ele>72.812088012695</ele>
        <time>2016-08-11T13:02:13Z</time>
      </trkpt>
      <trkpt lat="49.76051" lon="1.01561">
        <ele>72.812088012695</ele>
        <time>2016-08-11T13:02:17Z</time>
      </trkpt>
      <trkpt lat="49.76051" lon="1.01561">
        <ele>72.812088012695</ele>
        <time>2016-08-11T13:02:27Z</time>
      </trkpt>
      <trkpt lat="49.76051" lon="1.01561">
        <ele>72.812088012695</ele>
        <time>2016-08-11T13:02:32Z</time>
      </trkpt>
      <trkpt lat="49.76051" lon="1.01561">
        <ele>72.812088012695</ele>
        <time>2016-08-11T13:02:43Z</time>
      </trkpt>
      <trkpt lat="49.76051" lon="1.01561">
        <ele>72.812088012695</ele>
        <time>2016-08-11T13:02:47Z</time>
      </trkpt>
      <trkpt lat="49.76051" lon="1.01561">
        <ele>72.812088012695</ele>
        <time>2016-08-11T13:02:57Z</time>
      </trkpt>
      <trkpt lat="49.76051" lon="1.01561">
        <ele>72.812088012695</ele>
        <time>2016-08-11T13:03:04Z</time>
      </trkpt>
      <trkpt lat="49.76051" lon="1.01561">
        <ele>72.812088012695</ele>
        <time>2016-08-11T13:03:12Z</time>
      </trkpt>
      <trkpt lat="49.76051" lon="1.01561">
        <ele>72.812088012695</ele>
        <time>2016-08-11T13:03:17Z</time>
      </trkpt>
      <trkpt lat="49.76051" lon="1.01561">
        <ele>72.812088012695</ele>
        <time>2016-08-11T13:03:27Z</time>
      </trkpt>
      <trkpt lat="49.76051" lon="1.01561">
        <ele>72.812088012695</ele>
        <time>2016-08-11T13:03:33Z</time>
      </trkpt>
      <trkpt lat="49.76051" lon="1.01561">
        <ele>72.812088012695</ele>
        <time>2016-08-11T13:03:43Z</time>
      </trkpt>
      <trkpt lat="49.76051" lon="1.01561">
        <ele>72.812088012695</ele>
        <time>2016-08-11T13:03:47Z</time>
      </trkpt>
      <trkpt lat="49.76051" lon="1.01561">
        <ele>72.812088012695</ele>
        <time>2016-08-11T13:03:52Z</time>
      </trkpt>
      <trkpt lat="49.76051" lon="1.01561">
        <ele>72.812088012695</ele>
        <time>2016-08-11T13:04:03Z</time>
      </trkpt>
      <trkpt lat="49.76051" lon="1.01561">
        <ele>72.812088012695</ele>
        <time>2016-08-11T13:04:07Z</time>
      </trkpt>
      <trkpt lat="49.76051" lon="1.01561">
        <ele>72.812088012695</ele>
        <time>2016-08-11T13:04:17Z</time>
      </trkpt>
      <trkpt lat="49.76051" lon="1.01561">
        <ele>72.812088012695</ele>
        <time>2016-08-11T13:04:23Z</time>
      </trkpt>
      <trkpt lat="49.76051" lon="1.01561">
        <ele>72.812088012695</ele>
        <time>2016-08-11T13:04:32Z</time>
      </trkpt>
      <trkpt lat="49.76051" lon="1.01561">
        <ele>72.812088012695</ele>
        <time>2016-08-11T13:04:38Z</time>
      </trkpt>
      <trkpt lat="49.76051" lon="1.01561">
        <ele>72.812088012695</ele>
        <time>2016-08-11T13:04:49Z</time>
      </trkpt>
      <trkpt lat="49.76051" lon="1.01561">
        <ele>72.812088012695</ele>
        <time>2016-08-11T13:04:52Z</time>
      </trkpt>
      <trkpt lat="49.76051" lon="1.01561">
        <ele>72.812088012695</ele>
        <time>2016-08-11T13:05:03Z</time>
      </trkpt>
      <trkpt lat="49.76051" lon="1.01561">
        <ele>72.812088012695</ele>
        <time>2016-08-11T13:05:07Z</time>
      </trkpt>
      <trkpt lat="49.76051" lon="1.01561">
        <ele>72.812088012695</ele>
        <time>2016-08-11T13:05:17Z</time>
      </trkpt>
      <trkpt lat="49.76051" lon="1.01561">
        <ele>72.812088012695</ele>
        <time>2016-08-11T13:05:23Z</time>
      </trkpt>
      <trkpt lat="49.76051" lon="1.01561">
        <ele>72.812088012695</ele>
        <time>2016-08-11T13:05:33Z</time>
      </trkpt>
      <trkpt lat="49.76051" lon="1.01561">
        <ele>72.812088012695</ele>
        <time>2016-08-11T13:05:37Z</time>
      </trkpt>
      <trkpt lat="49.76051" lon="1.01561">
        <ele>72.812088012695</ele>
        <time>2016-08-11T13:05:55Z</time>
      </trkpt>
      <trkpt lat="49.76051" lon="1.01561">
        <ele>72.812088012695</ele>
        <time>2016-08-11T13:05:57Z</time>
      </trkpt>
      <trkpt lat="49.76051" lon="1.01561">
        <ele>72.812088012695</ele>
        <time>2016-08-11T13:06:08Z</time>
      </trkpt>
      <trkpt lat="49.76051" lon="1.01561">
        <ele>72.812088012695</ele>
        <time>2016-08-11T13:06:12Z</time>
      </trkpt>
      <trkpt lat="49.76051" lon="1.01561">
        <ele>72.812088012695</ele>
        <time>2016-08-11T13:06:22Z</time>
      </trkpt>
      <trkpt lat="49.76051" lon="1.01561">
        <ele>72.812088012695</ele>
        <time>2016-08-11T13:06:29Z</time>
      </trkpt>
      <trkpt lat="49.76051" lon="1.01561">
        <ele>72.812088012695</ele>
        <time>2016-08-11T13:06:38Z</time>
      </trkpt>
      <trkpt lat="49.76051" lon="1.01561">
        <ele>72.812088012695</ele>
        <time>2016-08-11T13:06:42Z</time>
      </trkpt>
      <trkpt lat="49.76051" lon="1.01561">
        <ele>72.812088012695</ele>
        <time>2016-08-11T13:06:55Z</time>
      </trkpt>
      <trkpt lat="49.76051" lon="1.01561">
        <ele>72.812088012695</ele>
        <time>2016-08-11T13:06:57Z</time>
      </trkpt>
      <trkpt lat="49.76051" lon="1.01561">
        <ele>72.812088012695</ele>
        <time>2016-08-11T13:07:08Z</time>
      </trkpt>
      <trkpt lat="49.76051" lon="1.01561">
        <ele>72.812088012695</ele>
        <time>2016-08-11T13:07:12Z</time>
      </trkpt>
      <trkpt lat="49.76051" lon="1.01561">
        <ele>72.812088012695</ele>
        <time>2016-08-11T13:07:29Z</time>
      </trkpt>
      <trkpt lat="49.76051" lon="1.01561">
        <ele>72.812088012695</ele>
        <time>2016-08-11T13:07:44Z</time>
      </trkpt>
      <trkpt lat="49.76051" lon="1.01561">
        <ele>72.812088012695</ele>
        <time>2016-08-11T13:07:57Z</time>
      </trkpt>
      <trkpt lat="49.76051" lon="1.01561">
        <ele>72.812088012695</ele>
        <time>2016-08-11T13:08:02Z</time>
      </trkpt>
      <trkpt lat="49.76051" lon="1.01561">
        <ele>72.812088012695</ele>
        <time>2016-08-11T13:08:13Z</time>
      </trkpt>
      <trkpt lat="49.76051" lon="1.01561">
        <ele>72.812088012695</ele>
        <time>2016-08-11T13:08:17Z</time>
      </trkpt>
      <trkpt lat="49.76051" lon="1.01561">
        <ele>72.812088012695</ele>
        <time>2016-08-11T13:08:27Z</time>
      </trkpt>
      <trkpt lat="49.76051" lon="1.01561">
        <ele>72.812088012695</ele>
        <time>2016-08-11T13:08:33Z</time>
      </trkpt>
      <trkpt lat="49.76051" lon="1.01561">
        <ele>72.812088012695</ele>
        <time>2016-08-11T13:08:43Z</time>
      </trkpt>
      <trkpt lat="49.76051" lon="1.01561">
        <ele>72.812088012695</ele>
        <time>2016-08-11T13:08:47Z</time>
      </trkpt>
      <trkpt lat="49.76051" lon="1.01561">
        <ele>72.812088012695</ele>
        <time>2016-08-11T13:08:59Z</time>
      </trkpt>
      <trkpt lat="49.76051" lon="1.01561">
        <ele>72.812088012695</ele>
        <time>2016-08-11T13:09:02Z</time>
      </trkpt>
      <trkpt lat="49.76051" lon="1.01561">
        <ele>72.812088012695</ele>
        <time>2016-08-11T13:09:07Z</time>
      </trkpt>
      <trkpt lat="49.76051" lon="1.01561">
        <ele>72.812088012695</ele>
        <time>2016-08-11T13:09:18Z</time>
      </trkpt>
      <trkpt lat="49.76051" lon="1.01561">
        <ele>72.812088012695</ele>
        <time>2016-08-11T13:09:32Z</time>
      </trkpt>
      <trkpt lat="49.76051" lon="1.01561">
        <ele>72.812088012695</ele>
        <time>2016-08-11T13:09:47Z</time>
      </trkpt>
      <trkpt lat="49.76051" lon="1.01561">
        <ele>72.812088012695</ele>
        <time>2016-08-11T13:09:52Z</time>
      </trkpt>
      <trkpt lat="49.76051" lon="1.01561">
        <ele>72.812088012695</ele>
        <time>2016-08-11T13:10:02Z</time>
      </trkpt>
      <trkpt lat="49.76051" lon="1.01561">
        <ele>72.812088012695</ele>
        <time>2016-08-11T13:10:08Z</time>
      </trkpt>
      <trkpt lat="49.76051" lon="1.01561">
        <ele>72.812088012695</ele>
        <time>2016-08-11T13:10:18Z</time>
      </trkpt>
      <trkpt lat="49.76051" lon="1.01561">
        <ele>72.812088012695</ele>
        <time>2016-08-11T13:10:22Z</time>
      </trkpt>
      <trkpt lat="49.76051" lon="1.01561">
        <ele>72.812088012695</ele>
        <time>2016-08-11T13:10:33Z</time>
      </trkpt>
      <trkpt lat="49.76051" lon="1.01561">
        <ele>72.812088012695</ele>
        <time>2016-08-11T13:10:37Z</time>
      </trkpt>
      <trkpt lat="49.76051" lon="1.01561">
        <ele>72.812088012695</ele>
        <time>2016-08-11T13:10:47Z</time>
      </trkpt>
      <trkpt lat="49.76051" lon="1.01561">
        <ele>72.812088012695</ele>
        <time>2016-08-11T13:10:54Z</time>
      </trkpt>
      <trkpt lat="49.76051" lon="1.01561">
        <ele>72.812088012695</ele>
        <time>2016-08-11T13:11:02Z</time>
      </trkpt>
      <trkpt lat="49.76051" lon="1.01561">
        <ele>72.812088012695</ele>
        <time>2016-08-11T13:11:07Z</time>
      </trkpt>
      <trkpt lat="49.76051" lon="1.01561">
        <ele>72.812088012695</ele>
        <time>2016-08-11T13:11:18Z</time>
      </trkpt>
      <trkpt lat="49.76051" lon="1.01561">
        <ele>72.812088012695</ele>
        <time>2016-08-11T13:11:22Z</time>
      </trkpt>
      <trkpt lat="49.76051" lon="1.01561">
        <ele>72.812088012695</ele>
        <time>2016-08-11T13:11:27Z</time>
      </trkpt>
      <trkpt lat="49.76051" lon="1.01561">
        <ele>72.812088012695</ele>
        <time>2016-08-11T13:11:38Z</time>
      </trkpt>
      <trkpt lat="49.76051" lon="1.01561">
        <ele>72.812088012695</ele>
        <time>2016-08-11T13:11:52Z</time>
      </trkpt>
      <trkpt lat="49.76051" lon="1.01561">
        <ele>72.812088012695</ele>
        <time>2016-08-11T13:11:57Z</time>
      </trkpt>
      <trkpt lat="49.76051" lon="1.01561">
        <ele>72.812088012695</ele>
        <time>2016-08-11T13:12:07Z</time>
      </trkpt>
      <trkpt lat="49.76051" lon="1.01561">
        <ele>72.812088012695</ele>
        <time>2016-08-11T13:12:12Z</time>
      </trkpt>
      <trkpt lat="49.76051" lon="1.01561">
        <ele>72.812088012695</ele>
        <time>2016-08-11T13:12:19Z</time>
      </trkpt>
      <trkpt lat="49.76051" lon="1.01561">
        <ele>72.812088012695</ele>
        <time>2016-08-11T13:12:23Z</time>
      </trkpt>
      <trkpt lat="49.76051" lon="1.01561">
        <ele>72.812088012695</ele>
        <time>2016-08-11T13:12:28Z</time>
      </trkpt>
      <trkpt lat="49.76051" lon="1.01561">
        <ele>72.812088012695</ele>
        <time>2016-08-11T13:12:37Z</time>
      </trkpt>
      <trkpt lat="49.76051" lon="1.01561">
        <ele>72.812088012695</ele>
        <time>2016-08-11T13:12:43Z</time>
      </trkpt>
      <trkpt lat="49.76051" lon="1.01561">
        <ele>72.812088012695</ele>
        <time>2016-08-11T13:12:52Z</time>
      </trkpt>
      <trkpt lat="49.76051" lon="1.01561">
        <ele>72.812088012695</ele>
        <time>2016-08-11T13:12:57Z</time>
      </trkpt>
      <trkpt lat="49.76051" lon="1.01561">
        <ele>72.812088012695</ele>
        <time>2016-08-11T13:13:07Z</time>
      </trkpt>
      <trkpt lat="49.76051" lon="1.01561">
        <ele>72.812088012695</ele>
        <time>2016-08-11T13:13:12Z</time>
      </trkpt>
      <trkpt lat="49.76051" lon="1.01561">
        <ele>72.812088012695</ele>
        <time>2016-08-11T13:13:23Z</time>
      </trkpt>
      <trkpt lat="49.76051" lon="1.01561">
        <ele>72.812088012695</ele>
        <time>2016-08-11T13:13:27Z</time>
      </trkpt>
      <trkpt lat="49.76051" lon="1.01561">
        <ele>72.812088012695</ele>
        <time>2016-08-11T13:13:43Z</time>
      </trkpt>
      <trkpt lat="49.76051" lon="1.01561">
        <ele>72.812088012695</ele>
        <time>2016-08-11T13:13:47Z</time>
      </trkpt>
      <trkpt lat="49.76051" lon="1.01561">
        <ele>72.812088012695</ele>
        <time>2016-08-11T13:13:57Z</time>
      </trkpt>
      <trkpt lat="49.76051" lon="1.01561">
        <ele>72.812088012695</ele>
        <time>2016-08-11T13:14:03Z</time>
      </trkpt>
      <trkpt lat="49.76051" lon="1.01561">
        <ele>72.812088012695</ele>
        <time>2016-08-11T13:14:14Z</time>
      </trkpt>
      <trkpt lat="49.76051" lon="1.01561">
        <ele>72.812088012695</ele>
        <time>2016-08-11T13:14:17Z</time>
      </trkpt>
      <trkpt lat="49.76051" lon="1.01561">
        <ele>72.812088012695</ele>
        <time>2016-08-11T13:14:27Z</time>
      </trkpt>
      <trkpt lat="49.76051" lon="1.01561">
        <ele>72.812088012695</ele>
        <time>2016-08-11T13:14:32Z</time>
      </trkpt>
      <trkpt lat="49.76051" lon="1.01561">
        <ele>72.812088012695</ele>
        <time>2016-08-11T13:14:48Z</time>
      </trkpt>
      <trkpt lat="49.76051" lon="1.01561">
        <ele>72.812088012695</ele>
        <time>2016-08-11T13:15:02Z</time>
      </trkpt>
      <trkpt lat="49.76051" lon="1.01561">
        <ele>72.812088012695</ele>
        <time>2016-08-11T13:15:07Z</time>
      </trkpt>
      <trkpt lat="49.76051" lon="1.01561">
        <ele>72.812088012695</ele>
        <time>2016-08-11T13:15:18Z</time>
      </trkpt>
      <trkpt lat="49.76051" lon="1.01561">
        <ele>72.812088012695</ele>
        <time>2016-08-11T13:15:22Z</time>
      </trkpt>
      <trkpt lat="49.76051" lon="1.01561">
        <ele>72.812088012695</ele>
        <time>2016-08-11T13:15:33Z</time>
      </trkpt>
      <trkpt lat="49.76051" lon="1.01561">
        <ele>72.812088012695</ele>
        <time>2016-08-11T13:15:38Z</time>
      </trkpt>
      <trkpt lat="49.76051" lon="1.01561">
        <ele>72.812088012695</ele>
        <time>2016-08-11T13:15:48Z</time>
      </trkpt>
      <trkpt lat="49.76051" lon="1.01561">
        <ele>72.812088012695</ele>
        <time>2016-08-11T13:15:52Z</time>
      </trkpt>
      <trkpt lat="49.76051" lon="1.01561">
        <ele>72.812088012695</ele>
        <time>2016-08-11T13:16:03Z</time>
      </trkpt>
      <trkpt lat="49.76051" lon="1.01561">
        <ele>72.812088012695</ele>
        <time>2016-08-11T13:16:08Z</time>
      </trkpt>
      <trkpt lat="49.76051" lon="1.01561">
        <ele>72.812088012695</ele>
        <time>2016-08-11T13:16:24Z</time>
      </trkpt>
      <trkpt lat="49.76051" lon="1.01561">
        <ele>72.812088012695</ele>
        <time>2016-08-11T13:16:33Z</time>
      </trkpt>
      <trkpt lat="49.76051" lon="1.01561">
        <ele>72.812088012695</ele>
        <time>2016-08-11T13:16:38Z</time>
      </trkpt>
      <trkpt lat="49.76051" lon="1.01561">
        <ele>72.812088012695</ele>
        <time>2016-08-11T13:16:42Z</time>
      </trkpt>
      <trkpt lat="49.76051" lon="1.01561">
        <ele>72.812088012695</ele>
        <time>2016-08-11T13:16:53Z</time>
      </trkpt>
      <trkpt lat="49.76051" lon="1.01561">
        <ele>72.812088012695</ele>
        <time>2016-08-11T13:16:57Z</time>
      </trkpt>
      <trkpt lat="49.76051" lon="1.01562">
        <ele>72.812088012695</ele>
        <time>2016-08-11T13:17:08Z</time>
      </trkpt>
      <trkpt lat="49.76051" lon="1.01562">
        <ele>72.812088012695</ele>
        <time>2016-08-11T13:17:13Z</time>
      </trkpt>
      <trkpt lat="49.76051" lon="1.01562">
        <ele>72.812088012695</ele>
        <time>2016-08-11T13:17:22Z</time>
      </trkpt>
      <trkpt lat="49.76051" lon="1.01562">
        <ele>72.812088012695</ele>
        <time>2016-08-11T13:17:28Z</time>
      </trkpt>
      <trkpt lat="49.76051" lon="1.01562">
        <ele>72.812088012695</ele>
        <time>2016-08-11T13:17:37Z</time>
      </trkpt>
      <trkpt lat="49.76051" lon="1.01562">
        <ele>72.812088012695</ele>
        <time>2016-08-11T13:17:42Z</time>
      </trkpt>
      <trkpt lat="49.76051" lon="1.01562">
        <ele>72.812088012695</ele>
        <time>2016-08-11T13:17:52Z</time>
      </trkpt>
      <trkpt lat="49.76051" lon="1.01562">
        <ele>72.812088012695</ele>
        <time>2016-08-11T13:17:57Z</time>
      </trkpt>
      <trkpt lat="49.76051" lon="1.01562">
        <ele>72.812088012695</ele>
        <time>2016-08-11T13:18:13Z</time>
      </trkpt>
      <trkpt lat="49.76051" lon="1.01562">
        <ele>72.812088012695</ele>
        <time>2016-08-11T13:18:17Z</time>
      </trkpt>
      <trkpt lat="49.76051" lon="1.01562">
        <ele>72.812088012695</ele>
        <time>2016-08-11T13:18:28Z</time>
      </trkpt>
      <trkpt lat="49.76051" lon="1.01562">
        <ele>72.812088012695</ele>
        <time>2016-08-11T13:18:33Z</time>
      </trkpt>
      <trkpt lat="49.76051" lon="1.01562">
        <ele>72.812088012695</ele>
        <time>2016-08-11T13:18:43Z</time>
      </trkpt>
      <trkpt lat="49.76051" lon="1.01562">
        <ele>72.812088012695</ele>
        <time>2016-08-11T13:18:47Z</time>
      </trkpt>
      <trkpt lat="49.76051" lon="1.01562">
        <ele>72.812088012695</ele>
        <time>2016-08-11T13:18:57Z</time>
      </trkpt>
      <trkpt lat="49.76051" lon="1.01562">
        <ele>72.812088012695</ele>
        <time>2016-08-11T13:19:03Z</time>
      </trkpt>
      <trkpt lat="49.76051" lon="1.01562">
        <ele>72.812088012695</ele>
        <time>2016-08-11T13:19:14Z</time>
      </trkpt>
      <trkpt lat="49.76051" lon="1.01562">
        <ele>72.812088012695</ele>
        <time>2016-08-11T13:19:17Z</time>
      </trkpt>
      <trkpt lat="49.76051" lon="1.01562">
        <ele>72.812088012695</ele>
        <time>2016-08-11T13:19:27Z</time>
      </trkpt>
      <trkpt lat="49.76051" lon="1.01562">
        <ele>72.812088012695</ele>
        <time>2016-08-11T13:19:33Z</time>
      </trkpt>
      <trkpt lat="49.76051" lon="1.01562">
        <ele>72.812088012695</ele>
        <time>2016-08-11T13:19:43Z</time>
      </trkpt>
      <trkpt lat="49.76051" lon="1.01562">
        <ele>72.812088012695</ele>
        <time>2016-08-11T13:19:47Z</time>
      </trkpt>
      <trkpt lat="49.76051" lon="1.01562">
        <ele>72.812088012695</ele>
        <time>2016-08-11T13:19:57Z</time>
      </trkpt>
      <trkpt lat="49.76051" lon="1.01562">
        <ele>72.812088012695</ele>
        <time>2016-08-11T13:20:04Z</time>
      </trkpt>
      <trkpt lat="49.76051" lon="1.01562">
        <ele>72.812088012695</ele>
        <time>2016-08-11T13:20:17Z</time>
      </trkpt>
      <trkpt lat="49.76051" lon="1.01562">
        <ele>72.812088012695</ele>
        <time>2016-08-11T13:20:32Z</time>
      </trkpt>
      <trkpt lat="49.76051" lon="1.01562">
        <ele>72.812088012695</ele>
        <time>2016-08-11T13:20:37Z</time>
      </trkpt>
      <trkpt lat="49.76051" lon="1.01562">
        <ele>72.812088012695</ele>
        <time>2016-08-11T13:20:48Z</time>
      </trkpt>
      <trkpt lat="49.76051" lon="1.01562">
        <ele>72.812088012695</ele>
        <time>2016-08-11T13:20:52Z</time>
      </trkpt>
      <trkpt lat="49.76051" lon="1.01562">
        <ele>72.812088012695</ele>
        <time>2016-08-11T13:21:02Z</time>
      </trkpt>
      <trkpt lat="49.76051" lon="1.01562">
        <ele>72.812088012695</ele>
        <time>2016-08-11T13:21:08Z</time>
      </trkpt>
      <trkpt lat="49.76051" lon="1.01562">
        <ele>72.812088012695</ele>
        <time>2016-08-11T13:21:17Z</time>
      </trkpt>
      <trkpt lat="49.76051" lon="1.01562">
        <ele>72.812088012695</ele>
        <time>2016-08-11T13:21:23Z</time>
      </trkpt>
      <trkpt lat="49.76051" lon="1.01562">
        <ele>72.812088012695</ele>
        <time>2016-08-11T13:21:32Z</time>
      </trkpt>
      <trkpt lat="49.76051" lon="1.01562">
        <ele>72.812088012695</ele>
        <time>2016-08-11T13:21:37Z</time>
      </trkpt>
      <trkpt lat="49.76051" lon="1.01562">
        <ele>72.812088012695</ele>
        <time>2016-08-11T13:21:48Z</time>
      </trkpt>
      <trkpt lat="49.76051" lon="1.01562">
        <ele>72.812088012695</ele>
        <time>2016-08-11T13:21:53Z</time>
      </trkpt>
      <trkpt lat="49.76051" lon="1.01562">
        <ele>72.812088012695</ele>
        <time>2016-08-11T13:22:02Z</time>
      </trkpt>
      <trkpt lat="49.76051" lon="1.01562">
        <ele>72.812088012695</ele>
        <time>2016-08-11T13:22:07Z</time>
      </trkpt>
      <trkpt lat="49.76051" lon="1.01562">
        <ele>72.812088012695</ele>
        <time>2016-08-11T13:22:17Z</time>
      </trkpt>
      <trkpt lat="49.76051" lon="1.01562">
        <ele>72.812088012695</ele>
        <time>2016-08-11T13:22:22Z</time>
      </trkpt>
      <trkpt lat="49.76051" lon="1.01562">
        <ele>72.812088012695</ele>
        <time>2016-08-11T13:22:38Z</time>
      </trkpt>
      <trkpt lat="49.76051" lon="1.01562">
        <ele>72.812088012695</ele>
        <time>2016-08-11T13:22:42Z</time>
      </trkpt>
      <trkpt lat="49.76051" lon="1.01562">
        <ele>72.812088012695</ele>
        <time>2016-08-11T13:22:48Z</time>
      </trkpt>
      <trkpt lat="49.76051" lon="1.01562">
        <ele>72.812088012695</ele>
        <time>2016-08-11T13:22:52Z</time>
      </trkpt>
      <trkpt lat="49.76051" lon="1.01562">
        <ele>72.812088012695</ele>
        <time>2016-08-11T13:23:09Z</time>
      </trkpt>
      <trkpt lat="49.76051" lon="1.01562">
        <ele>72.812088012695</ele>
        <time>2016-08-11T13:23:12Z</time>
      </trkpt>
      <trkpt lat="49.76051" lon="1.01562">
        <ele>72.812088012695</ele>
        <time>2016-08-11T13:23:22Z</time>
      </trkpt>
      <trkpt lat="49.76051" lon="1.01562">
        <ele>72.812088012695</ele>
        <time>2016-08-11T13:23:27Z</time>
      </trkpt>
      <trkpt lat="49.76051" lon="1.01562">
        <ele>72.812088012695</ele>
        <time>2016-08-11T13:23:39Z</time>
      </trkpt>
      <trkpt lat="49.76051" lon="1.01562">
        <ele>72.812088012695</ele>
        <time>2016-08-11T13:23:43Z</time>
      </trkpt>
      <trkpt lat="49.76051" lon="1.01562">
        <ele>72.812088012695</ele>
        <time>2016-08-11T13:23:53Z</time>
      </trkpt>
      <trkpt lat="49.76051" lon="1.01562">
        <ele>72.812088012695</ele>
        <time>2016-08-11T13:23:58Z</time>
      </trkpt>
      <trkpt lat="49.76051" lon="1.01562">
        <ele>72.812088012695</ele>
        <time>2016-08-11T13:24:08Z</time>
      </trkpt>
      <trkpt lat="49.76051" lon="1.01562">
        <ele>72.812088012695</ele>
        <time>2016-08-11T13:24:12Z</time>
      </trkpt>
      <trkpt lat="49.76051" lon="1.01562">
        <ele>72.812088012695</ele>
        <time>2016-08-11T13:24:23Z</time>
      </trkpt>
      <trkpt lat="49.76051" lon="1.01562">
        <ele>72.812088012695</ele>
        <time>2016-08-11T13:24:27Z</time>
      </trkpt>
      <trkpt lat="49.76051" lon="1.01562">
        <ele>72.812088012695</ele>
        <time>2016-08-11T13:24:39Z</time>
      </trkpt>
      <trkpt lat="49.76051" lon="1.01562">
        <ele>72.812088012695</ele>
        <time>2016-08-11T13:24:42Z</time>
      </trkpt>
      <trkpt lat="49.76051" lon="1.01562">
        <ele>72.812088012695</ele>
        <time>2016-08-11T13:24:52Z</time>
      </trkpt>
      <trkpt lat="49.76051" lon="1.01562">
        <ele>72.812088012695</ele>
        <time>2016-08-11T13:24:58Z</time>
      </trkpt>
      <trkpt lat="49.76051" lon="1.01562">
        <ele>72.812088012695</ele>
        <time>2016-08-11T13:25:08Z</time>
      </trkpt>
      <trkpt lat="49.76051" lon="1.01562">
        <ele>72.812088012695</ele>
        <time>2016-08-11T13:25:12Z</time>
      </trkpt>
      <trkpt lat="49.76051" lon="1.01562">
        <ele>72.812088012695</ele>
        <time>2016-08-11T13:25:23Z</time>
      </trkpt>
      <trkpt lat="49.76051" lon="1.01562">
        <ele>72.812088012695</ele>
        <time>2016-08-11T13:25:27Z</time>
      </trkpt>
      <trkpt lat="49.76051" lon="1.01562">
        <ele>72.812088012695</ele>
        <time>2016-08-11T13:25:32Z</time>
      </trkpt>
      <trkpt lat="49.76051" lon="1.01562">
        <ele>72.812088012695</ele>
        <time>2016-08-11T13:25:43Z</time>
      </trkpt>
      <trkpt lat="49.76051" lon="1.01562">
        <ele>72.812088012695</ele>
        <time>2016-08-11T13:25:48Z</time>
      </trkpt>
      <trkpt lat="49.76051" lon="1.01562">
        <ele>72.812088012695</ele>
        <time>2016-08-11T13:25:58Z</time>
      </trkpt>
      <trkpt lat="49.76051" lon="1.01562">
        <ele>72.812088012695</ele>
        <time>2016-08-11T13:26:03Z</time>
      </trkpt>
      <trkpt lat="49.76051" lon="1.01562">
        <ele>72.812088012695</ele>
        <time>2016-08-11T13:26:12Z</time>
      </trkpt>
      <trkpt lat="49.76051" lon="1.01562">
        <ele>72.812088012695</ele>
        <time>2016-08-11T13:26:17Z</time>
      </trkpt>
      <trkpt lat="49.76051" lon="1.01562">
        <ele>72.812088012695</ele>
        <time>2016-08-11T13:26:27Z</time>
      </trkpt>
      <trkpt lat="49.76051" lon="1.01562">
        <ele>72.812088012695</ele>
        <time>2016-08-11T13:26:32Z</time>
      </trkpt>
      <trkpt lat="49.76051" lon="1.01562">
        <ele>72.812088012695</ele>
        <time>2016-08-11T13:26:43Z</time>
      </trkpt>
      <trkpt lat="49.76051" lon="1.01562">
        <ele>72.812088012695</ele>
        <time>2016-08-11T13:26:48Z</time>
      </trkpt>
      <trkpt lat="49.76051" lon="1.01562">
        <ele>72.812088012695</ele>
        <time>2016-08-11T13:26:57Z</time>
      </trkpt>
      <trkpt lat="49.76051" lon="1.01562">
        <ele>72.812088012695</ele>
        <time>2016-08-11T13:27:04Z</time>
      </trkpt>
      <trkpt lat="49.76051" lon="1.01562">
        <ele>72.812088012695</ele>
        <time>2016-08-11T13:27:13Z</time>
      </trkpt>
      <trkpt lat="49.76051" lon="1.01562">
        <ele>72.812088012695</ele>
        <time>2016-08-11T13:27:17Z</time>
      </trkpt>
      <trkpt lat="49.76052" lon="1.01562">
        <ele>72.812088012695</ele>
        <time>2016-08-11T13:27:27Z</time>
      </trkpt>
      <trkpt lat="49.76052" lon="1.01562">
        <ele>72.812088012695</ele>
        <time>2016-08-11T13:27:32Z</time>
      </trkpt>
      <trkpt lat="49.76052" lon="1.01562">
        <ele>72.812088012695</ele>
        <time>2016-08-11T13:27:49Z</time>
      </trkpt>
      <trkpt lat="49.76052" lon="1.01562">
        <ele>72.812088012695</ele>
        <time>2016-08-11T13:27:52Z</time>
      </trkpt>
      <trkpt lat="49.76052" lon="1.01562">
        <ele>72.812088012695</ele>
        <time>2016-08-11T13:28:02Z</time>
      </trkpt>
      <trkpt lat="49.76052" lon="1.01562">
        <ele>72.812088012695</ele>
        <time>2016-08-11T13:28:08Z</time>
      </trkpt>
      <trkpt lat="49.76052" lon="1.01562">
        <ele>72.812088012695</ele>
        <time>2016-08-11T13:28:19Z</time>
      </trkpt>
      <trkpt lat="49.76052" lon="1.01562">
        <ele>72.812088012695</ele>
        <time>2016-08-11T13:28:23Z</time>
      </trkpt>
      <trkpt lat="49.76052" lon="1.01562">
        <ele>72.812088012695</ele>
        <time>2016-08-11T13:28:33Z</time>
      </trkpt>
      <trkpt lat="49.76052" lon="1.01562">
        <ele>72.812088012695</ele>
        <time>2016-08-11T13:28:38Z</time>
      </trkpt>
      <trkpt lat="49.76052" lon="1.01562">
        <ele>72.812088012695</ele>
        <time>2016-08-11T13:28:47Z</time>
      </trkpt>
      <trkpt lat="49.76052" lon="1.01562">
        <ele>72.812088012695</ele>
        <time>2016-08-11T13:28:57Z</time>
      </trkpt>
      <trkpt lat="49.76052" lon="1.01562">
        <ele>72.812088012695</ele>
        <time>2016-08-11T13:29:07Z</time>
      </trkpt>
      <trkpt lat="49.76052" lon="1.01562">
        <ele>72.812088012695</ele>
        <time>2016-08-11T13:29:12Z</time>
      </trkpt>
      <trkpt lat="49.76052" lon="1.01562">
        <ele>72.812088012695</ele>
        <time>2016-08-11T13:29:18Z</time>
      </trkpt>
      <trkpt lat="49.76052" lon="1.01562">
        <ele>72.812088012695</ele>
        <time>2016-08-11T13:29:22Z</time>
      </trkpt>
      <trkpt lat="49.76052" lon="1.01562">
        <ele>72.812088012695</ele>
        <time>2016-08-11T13:29:27Z</time>
      </trkpt>
      <trkpt lat="49.76052" lon="1.01562">
        <ele>72.812088012695</ele>
        <time>2016-08-11T13:29:38Z</time>
      </trkpt>
      <trkpt lat="49.76052" lon="1.01562">
        <ele>72.812088012695</ele>
        <time>2016-08-11T13:29:43Z</time>
      </trkpt>
      <trkpt lat="49.76052" lon="1.01562">
        <ele>72.812088012695</ele>
        <time>2016-08-11T13:29:52Z</time>
      </trkpt>
      <trkpt lat="49.76052" lon="1.01562">
        <ele>72.812088012695</ele>
        <time>2016-08-11T13:30:08Z</time>
      </trkpt>
      <trkpt lat="49.76052" lon="1.01562">
        <ele>72.812088012695</ele>
        <time>2016-08-11T13:30:12Z</time>
      </trkpt>
      <trkpt lat="49.76052" lon="1.01562">
        <ele>72.812088012695</ele>
        <time>2016-08-11T13:30:24Z</time>
      </trkpt>
      <trkpt lat="49.76052" lon="1.01562">
        <ele>72.812088012695</ele>
        <time>2016-08-11T13:30:37Z</time>
      </trkpt>
      <trkpt lat="49.76052" lon="1.01562">
        <ele>72.812088012695</ele>
        <time>2016-08-11T13:30:43Z</time>
      </trkpt>
      <trkpt lat="49.76052" lon="1.01562">
        <ele>72.812088012695</ele>
        <time>2016-08-11T13:30:54Z</time>
      </trkpt>
      <trkpt lat="49.76052" lon="1.01562">
        <ele>72.812088012695</ele>
        <time>2016-08-11T13:30:57Z</time>
      </trkpt>
      <trkpt lat="49.76056" lon="1.01556">
        <ele>73.096069335938</ele>
        <time>2016-08-11T13:31:14Z</time>
      </trkpt>
      <trkpt lat="49.76059" lon="1.01558">
        <ele>73.096069335938</ele>
        <time>2016-08-11T13:31:17Z</time>
      </trkpt>
      <trkpt lat="49.76061" lon="1.01557">
        <ele>73.096069335938</ele>
        <time>2016-08-11T13:31:27Z</time>
      </trkpt>
      <trkpt lat="49.76061" lon="1.01557">
        <ele>73.096069335938</ele>
        <time>2016-08-11T13:31:33Z</time>
      </trkpt>
      <trkpt lat="49.76061" lon="1.01557">
        <ele>73.096069335938</ele>
        <time>2016-08-11T13:31:43Z</time>
      </trkpt>
      <trkpt lat="49.76061" lon="1.01557">
        <ele>73.096069335938</ele>
        <time>2016-08-11T13:31:47Z</time>
      </trkpt>
      <trkpt lat="49.76061" lon="1.01557">
        <ele>73.096069335938</ele>
        <time>2016-08-11T13:31:58Z</time>
      </trkpt>
      <trkpt lat="49.76061" lon="1.01558">
        <ele>73.096069335938</ele>
        <time>2016-08-11T13:32:02Z</time>
      </trkpt>
      <trkpt lat="49.76062" lon="1.01553">
        <ele>72.711074829102</ele>
        <time>2016-08-11T13:32:12Z</time>
      </trkpt>
      <trkpt lat="49.76062" lon="1.01554">
        <ele>72.711074829102</ele>
        <time>2016-08-11T13:32:17Z</time>
      </trkpt>
      <trkpt lat="49.76061" lon="1.01555">
        <ele>72.711074829102</ele>
        <time>2016-08-11T13:32:27Z</time>
      </trkpt>
      <trkpt lat="49.76061" lon="1.01556">
        <ele>72.711074829102</ele>
        <time>2016-08-11T13:32:32Z</time>
      </trkpt>
      <trkpt lat="49.7606" lon="1.01556">
        <ele>72.711074829102</ele>
        <time>2016-08-11T13:32:37Z</time>
      </trkpt>
      <trkpt lat="49.7606" lon="1.01556">
        <ele>72.711074829102</ele>
        <time>2016-08-11T13:32:42Z</time>
      </trkpt>
      <trkpt lat="49.7606" lon="1.01556">
        <ele>72.711074829102</ele>
        <time>2016-08-11T13:32:47Z</time>
      </trkpt>
      <trkpt lat="49.7606" lon="1.01556">
        <ele>72.711074829102</ele>
        <time>2016-08-11T13:32:53Z</time>
      </trkpt>
      <trkpt lat="49.76066" lon="1.01559">
        <ele>72.711074829102</ele>
        <time>2016-08-11T13:33:02Z</time>
      </trkpt>
      <trkpt lat="49.7607" lon="1.0156">
        <ele>72.324783325195</ele>
        <time>2016-08-11T13:33:07Z</time>
      </trkpt>
      <trkpt lat="49.76088" lon="1.01556">
        <ele>71.964912414551</ele>
        <time>2016-08-11T13:33:22Z</time>
      </trkpt>
      <trkpt lat="49.76092" lon="1.01551">
        <ele>71.964912414551</ele>
        <time>2016-08-11T13:33:37Z</time>
      </trkpt>
      <trkpt lat="49.76093" lon="1.01552">
        <ele>71.964912414551</ele>
        <time>2016-08-11T13:33:42Z</time>
      </trkpt>
      <trkpt lat="49.76106" lon="1.01548">
        <ele>71.570587158203</ele>
        <time>2016-08-11T13:33:52Z</time>
      </trkpt>
      <trkpt lat="49.76106" lon="1.01545">
        <ele>71.570587158203</ele>
        <time>2016-08-11T13:33:57Z</time>
      </trkpt>
      <trkpt lat="49.7611" lon="1.01544">
        <ele>71.570587158203</ele>
        <time>2016-08-11T13:34:08Z</time>
      </trkpt>
      <trkpt lat="49.76116" lon="1.01542">
        <ele>71.22957611084</ele>
        <time>2016-08-11T13:34:13Z</time>
      </trkpt>
      <trkpt lat="49.76118" lon="1.01541">
        <ele>71.22957611084</ele>
        <time>2016-08-11T13:34:22Z</time>
      </trkpt>
      <trkpt lat="49.76122" lon="1.01532">
        <ele>71.22957611084</ele>
        <time>2016-08-11T13:34:28Z</time>
      </trkpt>
      <trkpt lat="49.76133" lon="1.01525">
        <ele>71.599456787109</ele>
        <time>2016-08-11T13:34:37Z</time>
      </trkpt>
      <trkpt lat="49.76132" lon="1.01523">
        <ele>71.599456787109</ele>
        <time>2016-08-11T13:34:43Z</time>
      </trkpt>
      <trkpt lat="49.76131" lon="1.0152">
        <ele>71.599456787109</ele>
        <time>2016-08-11T13:34:52Z</time>
      </trkpt>
      <trkpt lat="49.76132" lon="1.01521">
        <ele>71.599456787109</ele>
        <time>2016-08-11T13:34:58Z</time>
      </trkpt>
      <trkpt lat="49.7614" lon="1.01516">
        <ele>71.932861328125</ele>
        <time>2016-08-11T13:35:08Z</time>
      </trkpt>
      <trkpt lat="49.76144" lon="1.01512">
        <ele>71.932861328125</ele>
        <time>2016-08-11T13:35:13Z</time>
      </trkpt>
      <trkpt lat="49.76153" lon="1.01506">
        <ele>72.430892944336</ele>
        <time>2016-08-11T13:35:22Z</time>
      </trkpt>
      <trkpt lat="49.76155" lon="1.01503">
        <ele>72.430892944336</ele>
        <time>2016-08-11T13:35:27Z</time>
      </trkpt>
      <trkpt lat="49.76171" lon="1.01484">
        <ele>73.98558807373</ele>
        <time>2016-08-11T13:35:43Z</time>
      </trkpt>
      <trkpt lat="49.7618" lon="1.01473">
        <ele>75.820854187012</ele>
        <time>2016-08-11T13:35:52Z</time>
      </trkpt>
      <trkpt lat="49.76183" lon="1.01465">
        <ele>75.820854187012</ele>
        <time>2016-08-11T13:35:57Z</time>
      </trkpt>
      <trkpt lat="49.76194" lon="1.01445">
        <ele>78.758865356445</ele>
        <time>2016-08-11T13:36:13Z</time>
      </trkpt>
      <trkpt lat="49.762" lon="1.01444">
        <ele>78.758865356445</ele>
        <time>2016-08-11T13:36:17Z</time>
      </trkpt>
      <trkpt lat="49.76204" lon="1.01426">
        <ele>81.540802001953</ele>
        <time>2016-08-11T13:36:28Z</time>
      </trkpt>
      <trkpt lat="49.76204" lon="1.01417">
        <ele>81.540802001953</ele>
        <time>2016-08-11T13:36:32Z</time>
      </trkpt>
      <trkpt lat="49.76208" lon="1.01417">
        <ele>81.540802001953</ele>
        <time>2016-08-11T13:36:42Z</time>
      </trkpt>
      <trkpt lat="49.76209" lon="1.01419">
        <ele>83.534049987793</ele>
        <time>2016-08-11T13:36:48Z</time>
      </trkpt>
      <trkpt lat="49.76213" lon="1.01417">
        <ele>83.534049987793</ele>
        <time>2016-08-11T13:36:57Z</time>
      </trkpt>
      <trkpt lat="49.76216" lon="1.01413">
        <ele>83.534049987793</ele>
        <time>2016-08-11T13:37:02Z</time>
      </trkpt>
      <trkpt lat="49.76225" lon="1.01398">
        <ele>85.783226013184</ele>
        <time>2016-08-11T13:37:12Z</time>
      </trkpt>
      <trkpt lat="49.7623" lon="1.0139">
        <ele>85.783226013184</ele>
        <time>2016-08-11T13:37:17Z</time>
      </trkpt>
      <trkpt lat="49.76237" lon="1.01372">
        <ele>88.290077209473</ele>
        <time>2016-08-11T13:37:28Z</time>
      </trkpt>
      <trkpt lat="49.76243" lon="1.01372">
        <ele>88.290077209473</ele>
        <time>2016-08-11T13:37:32Z</time>
      </trkpt>
      <trkpt lat="49.76253" lon="1.01364">
        <ele>89.528045654297</ele>
        <time>2016-08-11T13:37:42Z</time>
      </trkpt>
      <trkpt lat="49.7626" lon="1.01359">
        <ele>89.528045654297</ele>
        <time>2016-08-11T13:37:49Z</time>
      </trkpt>
      <trkpt lat="49.7627" lon="1.01342">
        <ele>91.256866455078</ele>
        <time>2016-08-11T13:37:58Z</time>
      </trkpt>
      <trkpt lat="49.76279" lon="1.01347">
        <ele>92.555038452148</ele>
        <time>2016-08-11T13:38:03Z</time>
      </trkpt>
      <trkpt lat="49.76284" lon="1.01347">
        <ele>92.555038452148</ele>
        <time>2016-08-11T13:38:07Z</time>
      </trkpt>
      <trkpt lat="49.76299" lon="1.01344">
        <ele>94.097671508789</ele>
        <time>2016-08-11T13:38:18Z</time>
      </trkpt>
      <trkpt lat="49.76309" lon="1.01335">
        <ele>95.717170715332</ele>
        <time>2016-08-11T13:38:32Z</time>
      </trkpt>
      <trkpt lat="49.76313" lon="1.01335">
        <ele>95.717170715332</ele>
        <time>2016-08-11T13:38:37Z</time>
      </trkpt>
      <trkpt lat="49.76317" lon="1.01329">
        <ele>96.638526916504</ele>
        <time>2016-08-11T13:38:42Z</time>
      </trkpt>
      <trkpt lat="49.7632" lon="1.01327">
        <ele>96.638526916504</ele>
        <time>2016-08-11T13:38:47Z</time>
      </trkpt>
      <trkpt lat="49.76321" lon="1.01325">
        <ele>96.638526916504</ele>
        <time>2016-08-11T13:38:57Z</time>
      </trkpt>
      <trkpt lat="49.76326" lon="1.01321">
        <ele>97.154571533203</ele>
        <time>2016-08-11T13:39:03Z</time>
      </trkpt>
      <trkpt lat="49.76333" lon="1.01315">
        <ele>97.154571533203</ele>
        <time>2016-08-11T13:39:12Z</time>
      </trkpt>
      <trkpt lat="49.76341" lon="1.0131">
        <ele>97.292922973633</ele>
        <time>2016-08-11T13:39:18Z</time>
      </trkpt>
      <trkpt lat="49.76347" lon="1.01299">
        <ele>96.921905517578</ele>
        <time>2016-08-11T13:39:28Z</time>
      </trkpt>
      <trkpt lat="49.76349" lon="1.01295">
        <ele>96.921905517578</ele>
        <time>2016-08-11T13:39:32Z</time>
      </trkpt>
      <trkpt lat="49.76359" lon="1.01283">
        <ele>97.131591796875</ele>
        <time>2016-08-11T13:39:43Z</time>
      </trkpt>
      <trkpt lat="49.76366" lon="1.01276">
        <ele>97.131591796875</ele>
        <time>2016-08-11T13:39:48Z</time>
      </trkpt>
      <trkpt lat="49.76375" lon="1.01264">
        <ele>97.100311279297</ele>
        <time>2016-08-11T13:39:57Z</time>
      </trkpt>
      <trkpt lat="49.7638" lon="1.01259">
        <ele>97.100311279297</ele>
        <time>2016-08-11T13:40:02Z</time>
      </trkpt>
      <trkpt lat="49.76391" lon="1.01248">
        <ele>96.788108825684</ele>
        <time>2016-08-11T13:40:13Z</time>
      </trkpt>
      <trkpt lat="49.76394" lon="1.01242">
        <ele>96.788108825684</ele>
        <time>2016-08-11T13:40:17Z</time>
      </trkpt>
      <trkpt lat="49.76407" lon="1.01238">
        <ele>95.697708129883</ele>
        <time>2016-08-11T13:40:28Z</time>
      </trkpt>
      <trkpt lat="49.76411" lon="1.01229">
        <ele>95.697708129883</ele>
        <time>2016-08-11T13:40:33Z</time>
      </trkpt>
      <trkpt lat="49.7642" lon="1.01209">
        <ele>94.220916748047</ele>
        <time>2016-08-11T13:40:48Z</time>
      </trkpt>
      <trkpt lat="49.76429" lon="1.01187">
        <ele>92.376075744629</ele>
        <time>2016-08-11T13:41:02Z</time>
      </trkpt>
      <trkpt lat="49.76443" lon="1.01168">
        <ele>91.16121673584</ele>
        <time>2016-08-11T13:41:17Z</time>
      </trkpt>
      <trkpt lat="49.76443" lon="1.01161">
        <ele>91.16121673584</ele>
        <time>2016-08-11T13:41:22Z</time>
      </trkpt>
      <trkpt lat="49.76456" lon="1.01156">
        <ele>90.101486206055</ele>
        <time>2016-08-11T13:41:33Z</time>
      </trkpt>
      <trkpt lat="49.76457" lon="1.01154">
        <ele>90.101486206055</ele>
        <time>2016-08-11T13:41:37Z</time>
      </trkpt>
      <trkpt lat="49.76464" lon="1.01149">
        <ele>89.131202697754</ele>
        <time>2016-08-11T13:41:47Z</time>
      </trkpt>
      <trkpt lat="49.76465" lon="1.01148">
        <ele>89.131202697754</ele>
        <time>2016-08-11T13:41:53Z</time>
      </trkpt>
      <trkpt lat="49.76466" lon="1.01148">
        <ele>89.131202697754</ele>
        <time>2016-08-11T13:42:02Z</time>
      </trkpt>
      <trkpt lat="49.76469" lon="1.01139">
        <ele>89.131202697754</ele>
        <time>2016-08-11T13:42:07Z</time>
      </trkpt>
      <trkpt lat="49.76479" lon="1.01117">
        <ele>89.486267089844</ele>
        <time>2016-08-11T13:42:18Z</time>
      </trkpt>
      <trkpt lat="49.76487" lon="1.0111">
        <ele>89.627639770508</ele>
        <time>2016-08-11T13:42:22Z</time>
      </trkpt>
      <trkpt lat="49.765" lon="1.01114">
        <ele>89.455772399902</ele>
        <time>2016-08-11T13:42:33Z</time>
      </trkpt>
      <trkpt lat="49.76509" lon="1.01114">
        <ele>89.455772399902</ele>
        <time>2016-08-11T13:42:37Z</time>
      </trkpt>
      <trkpt lat="49.76535" lon="1.0111">
        <ele>87.957000732422</ele>
        <time>2016-08-11T13:42:54Z</time>
      </trkpt>
      <trkpt lat="49.7654" lon="1.01109">
        <ele>87.957000732422</ele>
        <time>2016-08-11T13:42:57Z</time>
      </trkpt>
      <trkpt lat="49.76553" lon="1.01112">
        <ele>85.766654968262</ele>
        <time>2016-08-11T13:43:07Z</time>
      </trkpt>
      <trkpt lat="49.76557" lon="1.01109">
        <ele>85.766654968262</ele>
        <time>2016-08-11T13:43:12Z</time>
      </trkpt>
      <trkpt lat="49.76567" lon="1.01105">
        <ele>84.974082946777</ele>
        <time>2016-08-11T13:43:23Z</time>
      </trkpt>
      <trkpt lat="49.76571" lon="1.01103">
        <ele>84.974082946777</ele>
        <time>2016-08-11T13:43:27Z</time>
      </trkpt>
      <trkpt lat="49.76588" lon="1.01091">
        <ele>85.075736999512</ele>
        <time>2016-08-11T13:43:38Z</time>
      </trkpt>
      <trkpt lat="49.76598" lon="1.0109">
        <ele>84.247863769531</ele>
        <time>2016-08-11T13:43:44Z</time>
      </trkpt>
      <trkpt lat="49.76608" lon="1.01088">
        <ele>83.397277832031</ele>
        <time>2016-08-11T13:43:52Z</time>
      </trkpt>
      <trkpt lat="49.76618" lon="1.01085">
        <ele>82.830978393555</ele>
        <time>2016-08-11T13:43:58Z</time>
      </trkpt>
      <trkpt lat="49.76631" lon="1.01066">
        <ele>82.313789367676</ele>
        <time>2016-08-11T13:44:08Z</time>
      </trkpt>
      <trkpt lat="49.76637" lon="1.01061">
        <ele>82.313789367676</ele>
        <time>2016-08-11T13:44:12Z</time>
      </trkpt>
      <trkpt lat="49.76646" lon="1.01047">
        <ele>82.621971130371</ele>
        <time>2016-08-11T13:44:23Z</time>
      </trkpt>
      <trkpt lat="49.7665" lon="1.01032">
        <ele>83.233085632324</ele>
        <time>2016-08-11T13:44:28Z</time>
      </trkpt>
      <trkpt lat="49.76653" lon="1.01014">
        <ele>84.757400512695</ele>
        <time>2016-08-11T13:44:37Z</time>
      </trkpt>
      <trkpt lat="49.76659" lon="1.01019">
        <ele>84.757400512695</ele>
        <time>2016-08-11T13:44:43Z</time>
      </trkpt>
      <trkpt lat="49.76668" lon="1.01005">
        <ele>84.88996887207</ele>
        <time>2016-08-11T13:44:52Z</time>
      </trkpt>
      <trkpt lat="49.7667" lon="1.00999">
        <ele>84.88996887207</ele>
        <time>2016-08-11T13:44:57Z</time>
      </trkpt>
      <trkpt lat="49.76682" lon="1.00989">
        <ele>84.25154876709</ele>
        <time>2016-08-11T13:45:08Z</time>
      </trkpt>
      <trkpt lat="49.76688" lon="1.00984">
        <ele>84.25154876709</ele>
        <time>2016-08-11T13:45:14Z</time>
      </trkpt>
      <trkpt lat="49.76691" lon="1.00979">
        <ele>83.34740447998</ele>
        <time>2016-08-11T13:45:17Z</time>
      </trkpt>
      <trkpt lat="49.76705" lon="1.00966">
        <ele>82.069938659668</ele>
        <time>2016-08-11T13:45:29Z</time>
      </trkpt>
      <trkpt lat="49.76707" lon="1.00962">
        <ele>82.069938659668</ele>
        <time>2016-08-11T13:45:32Z</time>
      </trkpt>
      <trkpt lat="49.76712" lon="1.00954">
        <ele>80.940170288086</ele>
        <time>2016-08-11T13:45:37Z</time>
      </trkpt>
      <trkpt lat="49.76716" lon="1.00949">
        <ele>80.940170288086</ele>
        <time>2016-08-11T13:45:42Z</time>
      </trkpt>
      <trkpt lat="49.7672" lon="1.00942">
        <ele>79.431617736816</ele>
        <time>2016-08-11T13:45:47Z</time>
      </trkpt>
      <trkpt lat="49.76725" lon="1.00934">
        <ele>79.431617736816</ele>
        <time>2016-08-11T13:46:02Z</time>
      </trkpt>
      <trkpt lat="49.76725" lon="1.00934">
        <ele>79.431617736816</ele>
        <time>2016-08-11T13:46:07Z</time>
      </trkpt>
      <trkpt lat="49.76724" lon="1.00933">
        <ele>79.431617736816</ele>
        <time>2016-08-11T13:46:12Z</time>
      </trkpt>
      <trkpt lat="49.76723" lon="1.00933">
        <ele>78.18155670166</ele>
        <time>2016-08-11T13:46:17Z</time>
      </trkpt>
      <trkpt lat="49.76725" lon="1.0093">
        <ele>78.18155670166</ele>
        <time>2016-08-11T13:46:22Z</time>
      </trkpt>
      <trkpt lat="49.76723" lon="1.00925">
        <ele>78.18155670166</ele>
        <time>2016-08-11T13:46:28Z</time>
      </trkpt>
      <trkpt lat="49.76729" lon="1.00926">
        <ele>76.915008544922</ele>
        <time>2016-08-11T13:46:37Z</time>
      </trkpt>
      <trkpt lat="49.76734" lon="1.00934">
        <ele>76.915008544922</ele>
        <time>2016-08-11T13:46:42Z</time>
      </trkpt>
      <trkpt lat="49.76743" lon="1.00937">
        <ele>75.953628540039</ele>
        <time>2016-08-11T13:46:52Z</time>
      </trkpt>
      <trkpt lat="49.76748" lon="1.00936">
        <ele>75.953628540039</ele>
        <time>2016-08-11T13:46:58Z</time>
      </trkpt>
      <trkpt lat="49.76759" lon="1.00931">
        <ele>75.263061523438</ele>
        <time>2016-08-11T13:47:07Z</time>
      </trkpt>
      <trkpt lat="49.76763" lon="1.00928">
        <ele>75.263061523438</ele>
        <time>2016-08-11T13:47:12Z</time>
      </trkpt>
      <trkpt lat="49.76773" lon="1.00923">
        <ele>74.508033752441</ele>
        <time>2016-08-11T13:47:23Z</time>
      </trkpt>
      <trkpt lat="49.76776" lon="1.00921">
        <ele>74.508033752441</ele>
        <time>2016-08-11T13:47:27Z</time>
      </trkpt>
      <trkpt lat="49.76781" lon="1.00919">
        <ele>74.508033752441</ele>
        <time>2016-08-11T13:47:32Z</time>
      </trkpt>
      <trkpt lat="49.76789" lon="1.00916">
        <ele>74.185035705566</ele>
        <time>2016-08-11T13:47:43Z</time>
      </trkpt>
      <trkpt lat="49.76794" lon="1.00914">
        <ele>74.185035705566</ele>
        <time>2016-08-11T13:47:47Z</time>
      </trkpt>
      <trkpt lat="49.768" lon="1.00909">
        <ele>74.392517089844</ele>
        <time>2016-08-11T13:47:57Z</time>
      </trkpt>
      <trkpt lat="49.76813" lon="1.00891">
        <ele>74.153739929199</ele>
        <time>2016-08-11T13:48:12Z</time>
      </trkpt>
      <trkpt lat="49.76817" lon="1.00887">
        <ele>74.153739929199</ele>
        <time>2016-08-11T13:48:18Z</time>
      </trkpt>
      <trkpt lat="49.7683" lon="1.00881">
        <ele>73.544853210449</ele>
        <time>2016-08-11T13:48:28Z</time>
      </trkpt>
      <trkpt lat="49.76833" lon="1.0088">
        <ele>73.544853210449</ele>
        <time>2016-08-11T13:48:32Z</time>
      </trkpt>
      <trkpt lat="49.76841" lon="1.00866">
        <ele>73.026519775391</ele>
        <time>2016-08-11T13:48:43Z</time>
      </trkpt>
      <trkpt lat="49.76845" lon="1.00862">
        <ele>73.026519775391</ele>
        <time>2016-08-11T13:48:49Z</time>
      </trkpt>
      <trkpt lat="49.76852" lon="1.00851">
        <ele>72.751426696777</ele>
        <time>2016-08-11T13:48:57Z</time>
      </trkpt>
      <trkpt lat="49.76855" lon="1.00845">
        <ele>72.751426696777</ele>
        <time>2016-08-11T13:49:04Z</time>
      </trkpt>
      <trkpt lat="49.76861" lon="1.00829">
        <ele>73.177360534668</ele>
        <time>2016-08-11T13:49:13Z</time>
      </trkpt>
      <trkpt lat="49.76867" lon="1.00827">
        <ele>73.177360534668</ele>
        <time>2016-08-11T13:49:17Z</time>
      </trkpt>
      <trkpt lat="49.76872" lon="1.00811">
        <ele>74.164451599121</ele>
        <time>2016-08-11T13:49:28Z</time>
      </trkpt>
      <trkpt lat="49.76877" lon="1.00806">
        <ele>74.164451599121</ele>
        <time>2016-08-11T13:49:32Z</time>
      </trkpt>
      <trkpt lat="49.76884" lon="1.008">
        <ele>75.495010375977</ele>
        <time>2016-08-11T13:49:37Z</time>
      </trkpt>
      <trkpt lat="49.76886" lon="1.00794">
        <ele>75.495010375977</ele>
        <time>2016-08-11T13:49:42Z</time>
      </trkpt>
      <trkpt lat="49.76892" lon="1.00782">
        <ele>76.562866210938</ele>
        <time>2016-08-11T13:49:48Z</time>
      </trkpt>
      <trkpt lat="49.76902" lon="1.0076">
        <ele>77.181777954102</ele>
        <time>2016-08-11T13:50:02Z</time>
      </trkpt>
      <trkpt lat="49.7691" lon="1.00757">
        <ele>77.181777954102</ele>
        <time>2016-08-11T13:50:07Z</time>
      </trkpt>
      <trkpt lat="49.76916" lon="1.00747">
        <ele>77.48307800293</ele>
        <time>2016-08-11T13:50:17Z</time>
      </trkpt>
      <trkpt lat="49.76918" lon="1.00731">
        <ele>78.46842956543</ele>
        <time>2016-08-11T13:50:22Z</time>
      </trkpt>
      <trkpt lat="49.76925" lon="1.00714">
        <ele>79.680564880371</ele>
        <time>2016-08-11T13:50:32Z</time>
      </trkpt>
      <trkpt lat="49.7693" lon="1.00707">
        <ele>79.680564880371</ele>
        <time>2016-08-11T13:50:37Z</time>
      </trkpt>
      <trkpt lat="49.76937" lon="1.00689">
        <ele>80.824882507324</ele>
        <time>2016-08-11T13:50:48Z</time>
      </trkpt>
      <trkpt lat="49.76941" lon="1.00684">
        <ele>80.824882507324</ele>
        <time>2016-08-11T13:50:53Z</time>
      </trkpt>
      <trkpt lat="49.76949" lon="1.00671">
        <ele>81.383651733398</ele>
        <time>2016-08-11T13:51:02Z</time>
      </trkpt>
      <trkpt lat="49.76952" lon="1.00663">
        <ele>81.383651733398</ele>
        <time>2016-08-11T13:51:08Z</time>
      </trkpt>
      <trkpt lat="49.76957" lon="1.00643">
        <ele>81.988525390625</ele>
        <time>2016-08-11T13:51:19Z</time>
      </trkpt>
      <trkpt lat="49.76959" lon="1.0064">
        <ele>81.988525390625</ele>
        <time>2016-08-11T13:51:22Z</time>
      </trkpt>
      <trkpt lat="49.76969" lon="1.00628">
        <ele>83.152610778809</ele>
        <time>2016-08-11T13:51:33Z</time>
      </trkpt>
      <trkpt lat="49.7697" lon="1.00623">
        <ele>83.152610778809</ele>
        <time>2016-08-11T13:51:37Z</time>
      </trkpt>
      <trkpt lat="49.76986" lon="1.00603">
        <ele>84.312217712402</ele>
        <time>2016-08-11T13:51:53Z</time>
      </trkpt>
      <trkpt lat="49.76996" lon="1.00578">
        <ele>84.671318054199</ele>
        <time>2016-08-11T13:52:07Z</time>
      </trkpt>
      <trkpt lat="49.77" lon="1.00572">
        <ele>84.671318054199</ele>
        <time>2016-08-11T13:52:13Z</time>
      </trkpt>
      <trkpt lat="49.77007" lon="1.00559">
        <ele>84.445793151855</ele>
        <time>2016-08-11T13:52:23Z</time>
      </trkpt>
      <trkpt lat="49.77008" lon="1.00553">
        <ele>84.445793151855</ele>
        <time>2016-08-11T13:52:27Z</time>
      </trkpt>
      <trkpt lat="49.77019" lon="1.00541">
        <ele>83.794136047363</ele>
        <time>2016-08-11T13:52:37Z</time>
      </trkpt>
      <trkpt lat="49.7702" lon="1.00534">
        <ele>83.794136047363</ele>
        <time>2016-08-11T13:52:43Z</time>
      </trkpt>
      <trkpt lat="49.77023" lon="1.00519">
        <ele>83.916481018066</ele>
        <time>2016-08-11T13:52:52Z</time>
      </trkpt>
      <trkpt lat="49.77027" lon="1.00513">
        <ele>83.916481018066</ele>
        <time>2016-08-11T13:52:58Z</time>
      </trkpt>
      <trkpt lat="49.77038" lon="1.005">
        <ele>83.60245513916</ele>
        <time>2016-08-11T13:53:08Z</time>
      </trkpt>
      <trkpt lat="49.77045" lon="1.00493">
        <ele>83.00008392334</ele>
        <time>2016-08-11T13:53:12Z</time>
      </trkpt>
      <trkpt lat="49.77049" lon="1.00475">
        <ele>82.867034912109</ele>
        <time>2016-08-11T13:53:22Z</time>
      </trkpt>
      <trkpt lat="49.77052" lon="1.00465">
        <ele>82.867034912109</ele>
        <time>2016-08-11T13:53:28Z</time>
      </trkpt>
      <trkpt lat="49.77061" lon="1.00454">
        <ele>82.41968536377</ele>
        <time>2016-08-11T13:53:38Z</time>
      </trkpt>
      <trkpt lat="49.77068" lon="1.00453">
        <ele>82.41968536377</ele>
        <time>2016-08-11T13:53:43Z</time>
      </trkpt>
      <trkpt lat="49.77074" lon="1.00443">
        <ele>81.999313354492</ele>
        <time>2016-08-11T13:53:53Z</time>
      </trkpt>
      <trkpt lat="49.77076" lon="1.00438">
        <ele>81.999313354492</ele>
        <time>2016-08-11T13:53:58Z</time>
      </trkpt>
      <trkpt lat="49.77085" lon="1.00427">
        <ele>81.44652557373</ele>
        <time>2016-08-11T13:54:09Z</time>
      </trkpt>
      <trkpt lat="49.77092" lon="1.00424">
        <ele>81.44652557373</ele>
        <time>2016-08-11T13:54:12Z</time>
      </trkpt>
      <trkpt lat="49.77097" lon="1.0042">
        <ele>80.455490112305</ele>
        <time>2016-08-11T13:54:17Z</time>
      </trkpt>
      <trkpt lat="49.77106" lon="1.00423">
        <ele>78.585556030273</ele>
        <time>2016-08-11T13:54:24Z</time>
      </trkpt>
      <trkpt lat="49.77115" lon="1.00423">
        <ele>78.585556030273</ele>
        <time>2016-08-11T13:54:28Z</time>
      </trkpt>
      <trkpt lat="49.77116" lon="1.00422">
        <ele>76.43970489502</ele>
        <time>2016-08-11T13:54:33Z</time>
      </trkpt>
      <trkpt lat="49.77129" lon="1.0041">
        <ele>74.390029907227</ele>
        <time>2016-08-11T13:54:44Z</time>
      </trkpt>
      <trkpt lat="49.77133" lon="1.00406">
        <ele>74.390029907227</ele>
        <time>2016-08-11T13:54:47Z</time>
      </trkpt>
      <trkpt lat="49.77147" lon="1.00398">
        <ele>72.507171630859</ele>
        <time>2016-08-11T13:54:57Z</time>
      </trkpt>
      <trkpt lat="49.77152" lon="1.0039">
        <ele>72.507171630859</ele>
        <time>2016-08-11T13:55:02Z</time>
      </trkpt>
      <trkpt lat="49.7716" lon="1.0039">
        <ele>70.683151245117</ele>
        <time>2016-08-11T13:55:07Z</time>
      </trkpt>
      <trkpt lat="49.77163" lon="1.00385">
        <ele>70.683151245117</ele>
        <time>2016-08-11T13:55:13Z</time>
      </trkpt>
      <trkpt lat="49.77172" lon="1.00376">
        <ele>69.091522216797</ele>
        <time>2016-08-11T13:55:22Z</time>
      </trkpt>
      <trkpt lat="49.77171" lon="1.00373">
        <ele>69.091522216797</ele>
        <time>2016-08-11T13:55:28Z</time>
      </trkpt>
      <trkpt lat="49.77173" lon="1.00373">
        <ele>69.091522216797</ele>
        <time>2016-08-11T13:55:37Z</time>
      </trkpt>
      <trkpt lat="49.77173" lon="1.00373">
        <ele>69.091522216797</ele>
        <time>2016-08-11T13:55:42Z</time>
      </trkpt>
      <trkpt lat="49.77174" lon="1.00372">
        <ele>69.091522216797</ele>
        <time>2016-08-11T13:55:54Z</time>
      </trkpt>
      <trkpt lat="49.77172" lon="1.00367">
        <ele>67.935577392578</ele>
        <time>2016-08-11T13:55:57Z</time>
      </trkpt>
      <trkpt lat="49.77174" lon="1.00366">
        <ele>67.935577392578</ele>
        <time>2016-08-11T13:56:12Z</time>
      </trkpt>
      <trkpt lat="49.77176" lon="1.00363">
        <ele>67.935577392578</ele>
        <time>2016-08-11T13:56:17Z</time>
      </trkpt>
      <trkpt lat="49.77174" lon="1.00366">
        <ele>67.935577392578</ele>
        <time>2016-08-11T13:56:28Z</time>
      </trkpt>
      <trkpt lat="49.77173" lon="1.00368">
        <ele>67.935577392578</ele>
        <time>2016-08-11T13:56:32Z</time>
      </trkpt>
      <trkpt lat="49.77171" lon="1.00363">
        <ele>68.007690429688</ele>
        <time>2016-08-11T13:56:43Z</time>
      </trkpt>
      <trkpt lat="49.77171" lon="1.00363">
        <ele>68.007690429688</ele>
        <time>2016-08-11T13:56:48Z</time>
      </trkpt>
      <trkpt lat="49.7717" lon="1.00361">
        <ele>68.007690429688</ele>
        <time>2016-08-11T13:56:57Z</time>
      </trkpt>
      <trkpt lat="49.7717" lon="1.00357">
        <ele>68.007690429688</ele>
        <time>2016-08-11T13:57:02Z</time>
      </trkpt>
      <trkpt lat="49.77171" lon="1.00356">
        <ele>68.007690429688</ele>
        <time>2016-08-11T13:57:12Z</time>
      </trkpt>
      <trkpt lat="49.7717" lon="1.00355">
        <ele>68.007690429688</ele>
        <time>2016-08-11T13:57:17Z</time>
      </trkpt>
      <trkpt lat="49.77166" lon="1.0034">
        <ele>66.767150878906</ele>
        <time>2016-08-11T13:57:27Z</time>
      </trkpt>
      <trkpt lat="49.77163" lon="1.00332">
        <ele>66.767150878906</ele>
        <time>2016-08-11T13:57:32Z</time>
      </trkpt>
      <trkpt lat="49.77155" lon="1.00317">
        <ele>65.624809265137</ele>
        <time>2016-08-11T13:57:43Z</time>
      </trkpt>
      <trkpt lat="49.77154" lon="1.0031">
        <ele>65.624809265137</ele>
        <time>2016-08-11T13:57:48Z</time>
      </trkpt>
      <trkpt lat="49.77149" lon="1.00297">
        <ele>64.158210754395</ele>
        <time>2016-08-11T13:57:57Z</time>
      </trkpt>
      <trkpt lat="49.77147" lon="1.00293">
        <ele>64.158210754395</ele>
        <time>2016-08-11T13:58:02Z</time>
      </trkpt>
      <trkpt lat="49.77142" lon="1.00277">
        <ele>62.437889099121</ele>
        <time>2016-08-11T13:58:13Z</time>
      </trkpt>
      <trkpt lat="49.77139" lon="1.00266">
        <ele>62.437889099121</ele>
        <time>2016-08-11T13:58:17Z</time>
      </trkpt>
      <trkpt lat="49.77136" lon="1.00249">
        <ele>61.09188079834</ele>
        <time>2016-08-11T13:58:27Z</time>
      </trkpt>
      <trkpt lat="49.77133" lon="1.0024">
        <ele>61.09188079834</ele>
        <time>2016-08-11T13:58:32Z</time>
      </trkpt>
      <trkpt lat="49.77127" lon="1.00224">
        <ele>60.138916015625</ele>
        <time>2016-08-11T13:58:43Z</time>
      </trkpt>
      <trkpt lat="49.77124" lon="1.00217">
        <ele>60.138916015625</ele>
        <time>2016-08-11T13:58:47Z</time>
      </trkpt>
      <trkpt lat="49.7712" lon="1.00209">
        <ele>60.041904449463</ele>
        <time>2016-08-11T13:58:52Z</time>
      </trkpt>
      <trkpt lat="49.77112" lon="1.00194">
        <ele>60.391422271729</ele>
        <time>2016-08-11T13:59:03Z</time>
      </trkpt>
      <trkpt lat="49.7711" lon="1.00186">
        <ele>60.391422271729</ele>
        <time>2016-08-11T13:59:07Z</time>
      </trkpt>
      <trkpt lat="49.77102" lon="1.00174">
        <ele>61.037364959717</ele>
        <time>2016-08-11T13:59:18Z</time>
      </trkpt>
      <trkpt lat="49.77098" lon="1.00171">
        <ele>61.037364959717</ele>
        <time>2016-08-11T13:59:23Z</time>
      </trkpt>
      <trkpt lat="49.77094" lon="1.0017">
        <ele>61.037364959717</ele>
        <time>2016-08-11T13:59:32Z</time>
      </trkpt>
      <trkpt lat="49.77095" lon="1.00171">
        <ele>61.037364959717</ele>
        <time>2016-08-11T13:59:37Z</time>
      </trkpt>
      <trkpt lat="49.77092" lon="1.00173">
        <ele>61.39302444458</ele>
        <time>2016-08-11T13:59:48Z</time>
      </trkpt>
      <trkpt lat="49.77092" lon="1.00169">
        <ele>61.39302444458</ele>
        <time>2016-08-11T13:59:52Z</time>
      </trkpt>
      <trkpt lat="49.77093" lon="1.00165">
        <ele>61.39302444458</ele>
        <time>2016-08-11T14:00:03Z</time>
      </trkpt>
      <trkpt lat="49.77093" lon="1.00164">
        <ele>61.39302444458</ele>
        <time>2016-08-11T14:00:07Z</time>
      </trkpt>
      <trkpt lat="49.77092" lon="1.00165">
        <ele>61.39302444458</ele>
        <time>2016-08-11T14:00:17Z</time>
      </trkpt>
      <trkpt lat="49.77092" lon="1.00165">
        <ele>61.39302444458</ele>
        <time>2016-08-11T14:00:23Z</time>
      </trkpt>
      <trkpt lat="49.77092" lon="1.00165">
        <ele>61.39302444458</ele>
        <time>2016-08-11T14:00:32Z</time>
      </trkpt>
      <trkpt lat="49.77092" lon="1.00165">
        <ele>61.39302444458</ele>
        <time>2016-08-11T14:00:38Z</time>
      </trkpt>
      <trkpt lat="49.77095" lon="1.0015">
        <ele>61.13171005249</ele>
        <time>2016-08-11T14:00:52Z</time>
      </trkpt>
      <trkpt lat="49.77087" lon="1.00129">
        <ele>61.004421234131</ele>
        <time>2016-08-11T14:01:07Z</time>
      </trkpt>
      <trkpt lat="49.77082" lon="1.00121">
        <ele>61.004421234131</ele>
        <time>2016-08-11T14:01:12Z</time>
      </trkpt>
      <trkpt lat="49.77082" lon="1.00112">
        <ele>60.683395385742</ele>
        <time>2016-08-11T14:01:17Z</time>
      </trkpt>
      <trkpt lat="49.77081" lon="1.00107">
        <ele>60.683395385742</ele>
        <time>2016-08-11T14:01:22Z</time>
      </trkpt>
      <trkpt lat="49.77076" lon="1.00098">
        <ele>60.499538421631</ele>
        <time>2016-08-11T14:01:27Z</time>
      </trkpt>
      <trkpt lat="49.77065" lon="1.00076">
        <ele>61.119316101074</ele>
        <time>2016-08-11T14:01:42Z</time>
      </trkpt>
      <trkpt lat="49.77066" lon="1.0007">
        <ele>61.119316101074</ele>
        <time>2016-08-11T14:01:47Z</time>
      </trkpt>
      <trkpt lat="49.77051" lon="1.00049">
        <ele>62.552700042725</ele>
        <time>2016-08-11T14:01:58Z</time>
      </trkpt>
      <trkpt lat="49.77047" lon="1.0004">
        <ele>62.552700042725</ele>
        <time>2016-08-11T14:02:02Z</time>
      </trkpt>
      <trkpt lat="49.77046" lon="1.00029">
        <ele>63.610507965088</ele>
        <time>2016-08-11T14:02:12Z</time>
      </trkpt>
      <trkpt lat="49.77046" lon="1.00021">
        <ele>63.610507965088</ele>
        <time>2016-08-11T14:02:17Z</time>
      </trkpt>
      <trkpt lat="49.77041" lon="1.00018">
        <ele>63.811653137207</ele>
        <time>2016-08-11T14:02:22Z</time>
      </trkpt>
      <trkpt lat="49.7704" lon="1.00023">
        <ele>63.811653137207</ele>
        <time>2016-08-11T14:02:27Z</time>
      </trkpt>
      <trkpt lat="49.77038" lon="1.00023">
        <ele>63.811653137207</ele>
        <time>2016-08-11T14:02:32Z</time>
      </trkpt>
      <trkpt lat="49.77039" lon="1.00022">
        <ele>63.811653137207</ele>
        <time>2016-08-11T14:02:37Z</time>
      </trkpt>
      <trkpt lat="49.77037" lon="1.00021">
        <ele>64.341255187988</ele>
        <time>2016-08-11T14:02:42Z</time>
      </trkpt>
      <trkpt lat="49.77037" lon="1.0002">
        <ele>64.341255187988</ele>
        <time>2016-08-11T14:02:47Z</time>
      </trkpt>
      <trkpt lat="49.77032" lon="1.00018">
        <ele>64.341255187988</ele>
        <time>2016-08-11T14:02:57Z</time>
      </trkpt>
      <trkpt lat="49.77024" lon="1.00018">
        <ele>65.359756469727</ele>
        <time>2016-08-11T14:03:02Z</time>
      </trkpt>
      <trkpt lat="49.7701" lon="1.00017">
        <ele>66.19303894043</ele>
        <time>2016-08-11T14:03:13Z</time>
      </trkpt>
      <trkpt lat="49.77002" lon="1.00018">
        <ele>66.19303894043</ele>
        <time>2016-08-11T14:03:18Z</time>
      </trkpt>
      <trkpt lat="49.76989" lon="1.00017">
        <ele>67.413177490234</ele>
        <time>2016-08-11T14:03:27Z</time>
      </trkpt>
      <trkpt lat="49.76985" lon="1.00017">
        <ele>67.413177490234</ele>
        <time>2016-08-11T14:03:32Z</time>
      </trkpt>
      <trkpt lat="49.76964" lon="1.00017">
        <ele>68.857467651367</ele>
        <time>2016-08-11T14:03:48Z</time>
      </trkpt>
      <trkpt lat="49.76947" lon="1.00018">
        <ele>69.942237854004</ele>
        <time>2016-08-11T14:04:02Z</time>
      </trkpt>
      <trkpt lat="49.76943" lon="1.00019">
        <ele>69.942237854004</ele>
        <time>2016-08-11T14:04:08Z</time>
      </trkpt>
      <trkpt lat="49.76931" lon="1.00018">
        <ele>70.617744445801</ele>
        <time>2016-08-11T14:04:17Z</time>
      </trkpt>
      <trkpt lat="49.76927" lon="1.00018">
        <ele>70.617744445801</ele>
        <time>2016-08-11T14:04:22Z</time>
      </trkpt>
      <trkpt lat="49.76915" lon="1.00006">
        <ele>70.392379760742</ele>
        <time>2016-08-11T14:04:32Z</time>
      </trkpt>
      <trkpt lat="49.76908" lon="1.00004">
        <ele>70.392379760742</ele>
        <time>2016-08-11T14:04:37Z</time>
      </trkpt>
      <trkpt lat="49.769" lon="0.99995">
        <ele>69.922904968262</ele>
        <time>2016-08-11T14:04:47Z</time>
      </trkpt>
      <trkpt lat="49.76893" lon="0.99991">
        <ele>69.922904968262</ele>
        <time>2016-08-11T14:04:52Z</time>
      </trkpt>
      <trkpt lat="49.76882" lon="0.99984">
        <ele>70.712066650391</ele>
        <time>2016-08-11T14:05:03Z</time>
      </trkpt>
      <trkpt lat="49.76877" lon="0.99982">
        <ele>70.712066650391</ele>
        <time>2016-08-11T14:05:07Z</time>
      </trkpt>
      <trkpt lat="49.76863" lon="0.99975">
        <ele>71.900657653809</ele>
        <time>2016-08-11T14:05:17Z</time>
      </trkpt>
      <trkpt lat="49.76855" lon="0.99964">
        <ele>72.043006896973</ele>
        <time>2016-08-11T14:05:23Z</time>
      </trkpt>
      <trkpt lat="49.76846" lon="0.99957">
        <ele>72.555183410645</ele>
        <time>2016-08-11T14:05:32Z</time>
      </trkpt>
      <trkpt lat="49.76843" lon="0.99949">
        <ele>72.555183410645</ele>
        <time>2016-08-11T14:05:37Z</time>
      </trkpt>
      <trkpt lat="49.76825" lon="0.99933">
        <ele>72.961311340332</ele>
        <time>2016-08-11T14:05:53Z</time>
      </trkpt>
      <trkpt lat="49.76823" lon="0.99932">
        <ele>72.961311340332</ele>
        <time>2016-08-11T14:05:57Z</time>
      </trkpt>
      <trkpt lat="49.76814" lon="0.99928">
        <ele>73.411666870117</ele>
        <time>2016-08-11T14:06:09Z</time>
      </trkpt>
      <trkpt lat="49.76809" lon="0.99925">
        <ele>73.411666870117</ele>
        <time>2016-08-11T14:06:13Z</time>
      </trkpt>
      <trkpt lat="49.76796" lon="0.99926">
        <ele>74.117515563965</ele>
        <time>2016-08-11T14:06:23Z</time>
      </trkpt>
      <trkpt lat="49.76789" lon="0.99925">
        <ele>74.117515563965</ele>
        <time>2016-08-11T14:06:28Z</time>
      </trkpt>
      <trkpt lat="49.76776" lon="0.99929">
        <ele>74.524574279785</ele>
        <time>2016-08-11T14:06:37Z</time>
      </trkpt>
      <trkpt lat="49.76771" lon="0.99929">
        <ele>74.524574279785</ele>
        <time>2016-08-11T14:06:42Z</time>
      </trkpt>
      <trkpt lat="49.76755" lon="0.99933">
        <ele>75.921569824219</ele>
        <time>2016-08-11T14:06:57Z</time>
      </trkpt>
      <trkpt lat="49.76751" lon="0.99931">
        <ele>75.921569824219</ele>
        <time>2016-08-11T14:07:02Z</time>
      </trkpt>
      <trkpt lat="49.76741" lon="0.99926">
        <ele>77.107643127441</ele>
        <time>2016-08-11T14:07:12Z</time>
      </trkpt>
      <trkpt lat="49.76735" lon="0.99918">
        <ele>77.107643127441</ele>
        <time>2016-08-11T14:07:18Z</time>
      </trkpt>
      <trkpt lat="49.76727" lon="0.999">
        <ele>78.296607971191</ele>
        <time>2016-08-11T14:07:27Z</time>
      </trkpt>
      <trkpt lat="49.76721" lon="0.99893">
        <ele>78.296607971191</ele>
        <time>2016-08-11T14:07:33Z</time>
      </trkpt>
      <trkpt lat="49.76716" lon="0.99881">
        <ele>79.71549987793</ele>
        <time>2016-08-11T14:07:42Z</time>
      </trkpt>
      <trkpt lat="49.76711" lon="0.99871">
        <ele>79.71549987793</ele>
        <time>2016-08-11T14:07:47Z</time>
      </trkpt>
      <trkpt lat="49.76707" lon="0.99859">
        <ele>80.550903320312</ele>
        <time>2016-08-11T14:07:58Z</time>
      </trkpt>
      <trkpt lat="49.76705" lon="0.99853">
        <ele>80.550903320312</ele>
        <time>2016-08-11T14:08:02Z</time>
      </trkpt>
      <trkpt lat="49.76697" lon="0.99839">
        <ele>81.405548095703</ele>
        <time>2016-08-11T14:08:12Z</time>
      </trkpt>
      <trkpt lat="49.76695" lon="0.99838">
        <ele>81.405548095703</ele>
        <time>2016-08-11T14:08:17Z</time>
      </trkpt>
      <trkpt lat="49.76696" lon="0.99836">
        <ele>81.405548095703</ele>
        <time>2016-08-11T14:08:22Z</time>
      </trkpt>
      <trkpt lat="49.76686" lon="0.99834">
        <ele>83.212608337402</ele>
        <time>2016-08-11T14:08:32Z</time>
      </trkpt>
      <trkpt lat="49.76689" lon="0.9984">
        <ele>83.212608337402</ele>
        <time>2016-08-11T14:08:37Z</time>
      </trkpt>
      <trkpt lat="49.7669" lon="0.99833">
        <ele>84.557174682617</ele>
        <time>2016-08-11T14:08:42Z</time>
      </trkpt>
      <trkpt lat="49.7668" lon="0.99821">
        <ele>85.931053161621</ele>
        <time>2016-08-11T14:08:47Z</time>
      </trkpt>
      <trkpt lat="49.76676" lon="0.99811">
        <ele>85.931053161621</ele>
        <time>2016-08-11T14:08:53Z</time>
      </trkpt>
      <trkpt lat="49.76667" lon="0.99798">
        <ele>85.887687683105</ele>
        <time>2016-08-11T14:09:03Z</time>
      </trkpt>
      <trkpt lat="49.76669" lon="0.99793">
        <ele>85.887687683105</ele>
        <time>2016-08-11T14:09:07Z</time>
      </trkpt>
      <trkpt lat="49.76661" lon="0.9978">
        <ele>86.535110473633</ele>
        <time>2016-08-11T14:09:18Z</time>
      </trkpt>
      <trkpt lat="49.76657" lon="0.99774">
        <ele>86.535110473633</ele>
        <time>2016-08-11T14:09:22Z</time>
      </trkpt>
      <trkpt lat="49.76651" lon="0.99766">
        <ele>87.115348815918</ele>
        <time>2016-08-11T14:09:27Z</time>
      </trkpt>
      <trkpt lat="49.76643" lon="0.99755">
        <ele>87.31551361084</ele>
        <time>2016-08-11T14:09:39Z</time>
      </trkpt>
      <trkpt lat="49.76625" lon="0.99737">
        <ele>88.316764831543</ele>
        <time>2016-08-11T14:09:52Z</time>
      </trkpt>
      <trkpt lat="49.7661" lon="0.99718">
        <ele>89.121726989746</ele>
        <time>2016-08-11T14:10:08Z</time>
      </trkpt>
      <trkpt lat="49.76607" lon="0.99715">
        <ele>89.121726989746</ele>
        <time>2016-08-11T14:10:12Z</time>
      </trkpt>
      <trkpt lat="49.76599" lon="0.99703">
        <ele>89.368957519531</ele>
        <time>2016-08-11T14:10:22Z</time>
      </trkpt>
      <trkpt lat="49.76593" lon="0.99698">
        <ele>89.368957519531</ele>
        <time>2016-08-11T14:10:28Z</time>
      </trkpt>
      <trkpt lat="49.76583" lon="0.99688">
        <ele>89.532211303711</ele>
        <time>2016-08-11T14:10:38Z</time>
      </trkpt>
      <trkpt lat="49.76578" lon="0.99682">
        <ele>89.532211303711</ele>
        <time>2016-08-11T14:10:43Z</time>
      </trkpt>
      <trkpt lat="49.76568" lon="0.9967">
        <ele>89.575180053711</ele>
        <time>2016-08-11T14:10:52Z</time>
      </trkpt>
      <trkpt lat="49.76563" lon="0.99664">
        <ele>89.575180053711</ele>
        <time>2016-08-11T14:10:57Z</time>
      </trkpt>
      <trkpt lat="49.76562" lon="0.99655">
        <ele>89.896965026855</ele>
        <time>2016-08-11T14:11:07Z</time>
      </trkpt>
      <trkpt lat="49.76562" lon="0.99656">
        <ele>89.896965026855</ele>
        <time>2016-08-11T14:11:13Z</time>
      </trkpt>
      <trkpt lat="49.76558" lon="0.99654">
        <ele>89.896965026855</ele>
        <time>2016-08-11T14:11:23Z</time>
      </trkpt>
      <trkpt lat="49.76553" lon="0.9965">
        <ele>89.829002380371</ele>
        <time>2016-08-11T14:11:28Z</time>
      </trkpt>
      <trkpt lat="49.76551" lon="0.99647">
        <ele>89.829002380371</ele>
        <time>2016-08-11T14:11:37Z</time>
      </trkpt>
      <trkpt lat="49.76548" lon="0.99643">
        <ele>89.829002380371</ele>
        <time>2016-08-11T14:11:42Z</time>
      </trkpt>
      <trkpt lat="49.76534" lon="0.99632">
        <ele>89.401489257812</ele>
        <time>2016-08-11T14:11:57Z</time>
      </trkpt>
      <trkpt lat="49.76531" lon="0.99627">
        <ele>89.401489257812</ele>
        <time>2016-08-11T14:12:02Z</time>
      </trkpt>
      <trkpt lat="49.76521" lon="0.99614">
        <ele>89.03254699707</ele>
        <time>2016-08-11T14:12:13Z</time>
      </trkpt>
      <trkpt lat="49.76518" lon="0.99611">
        <ele>89.03254699707</ele>
        <time>2016-08-11T14:12:17Z</time>
      </trkpt>
      <trkpt lat="49.76509" lon="0.99599">
        <ele>88.44654083252</ele>
        <time>2016-08-11T14:12:27Z</time>
      </trkpt>
      <trkpt lat="49.76505" lon="0.99594">
        <ele>88.44654083252</ele>
        <time>2016-08-11T14:12:33Z</time>
      </trkpt>
      <trkpt lat="49.76498" lon="0.99582">
        <ele>87.921913146973</ele>
        <time>2016-08-11T14:12:42Z</time>
      </trkpt>
      <trkpt lat="49.76495" lon="0.99577">
        <ele>87.921913146973</ele>
        <time>2016-08-11T14:12:49Z</time>
      </trkpt>
      <trkpt lat="49.76491" lon="0.99568">
        <ele>87.615615844727</ele>
        <time>2016-08-11T14:12:57Z</time>
      </trkpt>
      <trkpt lat="49.76485" lon="0.99559">
        <ele>87.615615844727</ele>
        <time>2016-08-11T14:13:02Z</time>
      </trkpt>
      <trkpt lat="49.76475" lon="0.99546">
        <ele>86.951904296875</ele>
        <time>2016-08-11T14:13:14Z</time>
      </trkpt>
      <trkpt lat="49.76468" lon="0.99539">
        <ele>86.951904296875</ele>
        <time>2016-08-11T14:13:18Z</time>
      </trkpt>
      <trkpt lat="49.76459" lon="0.99516">
        <ele>86.162094116211</ele>
        <time>2016-08-11T14:13:34Z</time>
      </trkpt>
      <trkpt lat="49.76458" lon="0.99513">
        <ele>86.162094116211</ele>
        <time>2016-08-11T14:13:38Z</time>
      </trkpt>
      <trkpt lat="49.76452" lon="0.99505">
        <ele>85.922019958496</ele>
        <time>2016-08-11T14:13:48Z</time>
      </trkpt>
      <trkpt lat="49.76447" lon="0.99493">
        <ele>85.922019958496</ele>
        <time>2016-08-11T14:13:53Z</time>
      </trkpt>
      <trkpt lat="49.76442" lon="0.99481">
        <ele>85.660163879395</ele>
        <time>2016-08-11T14:14:03Z</time>
      </trkpt>
      <trkpt lat="49.76439" lon="0.99476">
        <ele>85.660163879395</ele>
        <time>2016-08-11T14:14:07Z</time>
      </trkpt>
      <trkpt lat="49.76431" lon="0.9946">
        <ele>86.374618530273</ele>
        <time>2016-08-11T14:14:19Z</time>
      </trkpt>
      <trkpt lat="49.76427" lon="0.99455">
        <ele>86.374618530273</ele>
        <time>2016-08-11T14:14:23Z</time>
      </trkpt>
      <trkpt lat="49.76419" lon="0.99444">
        <ele>86.796875</ele>
        <time>2016-08-11T14:14:34Z</time>
      </trkpt>
      <trkpt lat="49.76417" lon="0.99438">
        <ele>86.796875</ele>
        <time>2016-08-11T14:14:37Z</time>
      </trkpt>
      <trkpt lat="49.76408" lon="0.99426">
        <ele>87.481750488281</ele>
        <time>2016-08-11T14:14:47Z</time>
      </trkpt>
      <trkpt lat="49.76403" lon="0.99419">
        <ele>87.481750488281</ele>
        <time>2016-08-11T14:14:52Z</time>
      </trkpt>
      <trkpt lat="49.76397" lon="0.99404">
        <ele>89.043403625488</ele>
        <time>2016-08-11T14:15:04Z</time>
      </trkpt>
      <trkpt lat="49.76395" lon="0.994">
        <ele>89.043403625488</ele>
        <time>2016-08-11T14:15:07Z</time>
      </trkpt>
      <trkpt lat="49.76386" lon="0.99386">
        <ele>90.809059143066</ele>
        <time>2016-08-11T14:15:18Z</time>
      </trkpt>
      <trkpt lat="49.76385" lon="0.9938">
        <ele>90.809059143066</ele>
        <time>2016-08-11T14:15:23Z</time>
      </trkpt>
      <trkpt lat="49.76377" lon="0.99365">
        <ele>92.587097167969</ele>
        <time>2016-08-11T14:15:32Z</time>
      </trkpt>
      <trkpt lat="49.76377" lon="0.9937">
        <ele>92.587097167969</ele>
        <time>2016-08-11T14:15:37Z</time>
      </trkpt>
      <trkpt lat="49.76368" lon="0.99361">
        <ele>93.825248718262</ele>
        <time>2016-08-11T14:15:48Z</time>
      </trkpt>
      <trkpt lat="49.76364" lon="0.99359">
        <ele>93.825248718262</ele>
        <time>2016-08-11T14:15:52Z</time>
      </trkpt>
      <trkpt lat="49.76347" lon="0.99344">
        <ele>95.238288879395</ele>
        <time>2016-08-11T14:16:07Z</time>
      </trkpt>
      <trkpt lat="49.76343" lon="0.9934">
        <ele>95.238288879395</ele>
        <time>2016-08-11T14:16:12Z</time>
      </trkpt>
      <trkpt lat="49.76332" lon="0.9933">
        <ele>96.277465820312</ele>
        <time>2016-08-11T14:16:22Z</time>
      </trkpt>
      <trkpt lat="49.76329" lon="0.99326">
        <ele>96.277465820312</ele>
        <time>2016-08-11T14:16:27Z</time>
      </trkpt>
      <trkpt lat="49.76322" lon="0.99319">
        <ele>97.314498901367</ele>
        <time>2016-08-11T14:16:37Z</time>
      </trkpt>
      <trkpt lat="49.76322" lon="0.99319">
        <ele>97.314498901367</ele>
        <time>2016-08-11T14:16:42Z</time>
      </trkpt>
      <trkpt lat="49.76318" lon="0.99317">
        <ele>97.314498901367</ele>
        <time>2016-08-11T14:16:52Z</time>
      </trkpt>
      <trkpt lat="49.76318" lon="0.99316">
        <ele>97.314498901367</ele>
        <time>2016-08-11T14:16:58Z</time>
      </trkpt>
      <trkpt lat="49.76319" lon="0.99316">
        <ele>97.314498901367</ele>
        <time>2016-08-11T14:17:07Z</time>
      </trkpt>
      <trkpt lat="49.76316" lon="0.99313">
        <ele>98.232666015625</ele>
        <time>2016-08-11T14:17:12Z</time>
      </trkpt>
      <trkpt lat="49.76305" lon="0.99303">
        <ele>98.981826782227</ele>
        <time>2016-08-11T14:17:22Z</time>
      </trkpt>
      <trkpt lat="49.763" lon="0.99299">
        <ele>98.981826782227</ele>
        <time>2016-08-11T14:17:27Z</time>
      </trkpt>
      <trkpt lat="49.76289" lon="0.99287">
        <ele>99.732200622559</ele>
        <time>2016-08-11T14:17:39Z</time>
      </trkpt>
      <trkpt lat="49.76285" lon="0.99283">
        <ele>99.732200622559</ele>
        <time>2016-08-11T14:17:42Z</time>
      </trkpt>
      <trkpt lat="49.76271" lon="0.99269">
        <ele>100.19477081299</ele>
        <time>2016-08-11T14:17:58Z</time>
      </trkpt>
      <trkpt lat="49.76255" lon="0.99252">
        <ele>100.63581848145</ele>
        <time>2016-08-11T14:18:12Z</time>
      </trkpt>
      <trkpt lat="49.76251" lon="0.99246">
        <ele>100.63581848145</ele>
        <time>2016-08-11T14:18:17Z</time>
      </trkpt>
      <trkpt lat="49.76243" lon="0.99232">
        <ele>101.28771209717</ele>
        <time>2016-08-11T14:18:28Z</time>
      </trkpt>
      <trkpt lat="49.7624" lon="0.99228">
        <ele>101.28771209717</ele>
        <time>2016-08-11T14:18:33Z</time>
      </trkpt>
      <trkpt lat="49.76229" lon="0.99216">
        <ele>101.73113250732</ele>
        <time>2016-08-11T14:18:43Z</time>
      </trkpt>
      <trkpt lat="49.76226" lon="0.9921">
        <ele>101.73113250732</ele>
        <time>2016-08-11T14:18:48Z</time>
      </trkpt>
      <trkpt lat="49.76217" lon="0.99197">
        <ele>102.1545791626</ele>
        <time>2016-08-11T14:18:57Z</time>
      </trkpt>
      <trkpt lat="49.76213" lon="0.99189">
        <ele>102.1545791626</ele>
        <time>2016-08-11T14:19:03Z</time>
      </trkpt>
      <trkpt lat="49.76206" lon="0.99174">
        <ele>102.41575622559</ele>
        <time>2016-08-11T14:19:14Z</time>
      </trkpt>
      <trkpt lat="49.76204" lon="0.99169">
        <ele>102.41575622559</ele>
        <time>2016-08-11T14:19:17Z</time>
      </trkpt>
      <trkpt lat="49.76196" lon="0.9915">
        <ele>102.77239227295</ele>
        <time>2016-08-11T14:19:29Z</time>
      </trkpt>
      <trkpt lat="49.76194" lon="0.99144">
        <ele>102.77239227295</ele>
        <time>2016-08-11T14:19:33Z</time>
      </trkpt>
      <trkpt lat="49.76187" lon="0.99128">
        <ele>102.8865814209</ele>
        <time>2016-08-11T14:19:42Z</time>
      </trkpt>
      <trkpt lat="49.76185" lon="0.99122">
        <ele>102.8865814209</ele>
        <time>2016-08-11T14:19:47Z</time>
      </trkpt>
      <trkpt lat="49.76178" lon="0.99104">
        <ele>103.00796508789</ele>
        <time>2016-08-11T14:19:58Z</time>
      </trkpt>
      <trkpt lat="49.76176" lon="0.99099">
        <ele>103.00796508789</ele>
        <time>2016-08-11T14:20:02Z</time>
      </trkpt>
      <trkpt lat="49.76174" lon="0.99092">
        <ele>103.16607666016</ele>
        <time>2016-08-11T14:20:07Z</time>
      </trkpt>
      <trkpt lat="49.76166" lon="0.99075">
        <ele>103.25849151611</ele>
        <time>2016-08-11T14:20:18Z</time>
      </trkpt>
      <trkpt lat="49.76164" lon="0.99069">
        <ele>103.25849151611</ele>
        <time>2016-08-11T14:20:22Z</time>
      </trkpt>
      <trkpt lat="49.76158" lon="0.99054">
        <ele>103.52193450928</ele>
        <time>2016-08-11T14:20:33Z</time>
      </trkpt>
      <trkpt lat="49.76155" lon="0.99046">
        <ele>103.52193450928</ele>
        <time>2016-08-11T14:20:38Z</time>
      </trkpt>
      <trkpt lat="49.76152" lon="0.99034">
        <ele>103.77174377441</ele>
        <time>2016-08-11T14:20:47Z</time>
      </trkpt>
      <trkpt lat="49.76148" lon="0.99025">
        <ele>103.77174377441</ele>
        <time>2016-08-11T14:20:53Z</time>
      </trkpt>
      <trkpt lat="49.76144" lon="0.99013">
        <ele>103.82244873047</ele>
        <time>2016-08-11T14:21:02Z</time>
      </trkpt>
      <trkpt lat="49.76141" lon="0.99005">
        <ele>103.82244873047</ele>
        <time>2016-08-11T14:21:07Z</time>
      </trkpt>
      <trkpt lat="49.76136" lon="0.98992">
        <ele>103.84862518311</ele>
        <time>2016-08-11T14:21:18Z</time>
      </trkpt>
      <trkpt lat="49.76133" lon="0.98985">
        <ele>103.84862518311</ele>
        <time>2016-08-11T14:21:23Z</time>
      </trkpt>
      <trkpt lat="49.76132" lon="0.98979">
        <ele>104.0841293335</ele>
        <time>2016-08-11T14:21:33Z</time>
      </trkpt>
      <trkpt lat="49.76132" lon="0.98978">
        <ele>104.0841293335</ele>
        <time>2016-08-11T14:21:37Z</time>
      </trkpt>
      <trkpt lat="49.76121" lon="0.98955">
        <ele>103.88037109375</ele>
        <time>2016-08-11T14:21:53Z</time>
      </trkpt>
      <trkpt lat="49.76118" lon="0.98946">
        <ele>103.88037109375</ele>
        <time>2016-08-11T14:21:58Z</time>
      </trkpt>
      <trkpt lat="49.76112" lon="0.98931">
        <ele>103.73284912109</ele>
        <time>2016-08-11T14:22:07Z</time>
      </trkpt>
      <trkpt lat="49.76109" lon="0.98924">
        <ele>103.73284912109</ele>
        <time>2016-08-11T14:22:12Z</time>
      </trkpt>
      <trkpt lat="49.76103" lon="0.9891">
        <ele>103.74022674561</ele>
        <time>2016-08-11T14:22:22Z</time>
      </trkpt>
      <trkpt lat="49.76102" lon="0.98903">
        <ele>103.74022674561</ele>
        <time>2016-08-11T14:22:27Z</time>
      </trkpt>
      <trkpt lat="49.76096" lon="0.9889">
        <ele>103.7484588623</ele>
        <time>2016-08-11T14:22:38Z</time>
      </trkpt>
      <trkpt lat="49.76093" lon="0.98884">
        <ele>103.7484588623</ele>
        <time>2016-08-11T14:22:42Z</time>
      </trkpt>
      <trkpt lat="49.76087" lon="0.98871">
        <ele>104.00388336182</ele>
        <time>2016-08-11T14:22:52Z</time>
      </trkpt>
      <trkpt lat="49.76084" lon="0.98865">
        <ele>104.00388336182</ele>
        <time>2016-08-11T14:22:57Z</time>
      </trkpt>
      <trkpt lat="49.76077" lon="0.98851">
        <ele>104.229637146</ele>
        <time>2016-08-11T14:23:08Z</time>
      </trkpt>
      <trkpt lat="49.76073" lon="0.98843">
        <ele>104.229637146</ele>
        <time>2016-08-11T14:23:12Z</time>
      </trkpt>
      <trkpt lat="49.76068" lon="0.9883">
        <ele>104.52952575684</ele>
        <time>2016-08-11T14:23:23Z</time>
      </trkpt>
      <trkpt lat="49.76066" lon="0.98824">
        <ele>104.52952575684</ele>
        <time>2016-08-11T14:23:27Z</time>
      </trkpt>
      <trkpt lat="49.76059" lon="0.98809">
        <ele>104.74008178711</ele>
        <time>2016-08-11T14:23:37Z</time>
      </trkpt>
      <trkpt lat="49.76057" lon="0.98804">
        <ele>104.74008178711</ele>
        <time>2016-08-11T14:23:43Z</time>
      </trkpt>
      <trkpt lat="49.76049" lon="0.98788">
        <ele>104.73889923096</ele>
        <time>2016-08-11T14:23:57Z</time>
      </trkpt>
      <trkpt lat="49.76039" lon="0.98768">
        <ele>104.68692779541</ele>
        <time>2016-08-11T14:24:13Z</time>
      </trkpt>
      <trkpt lat="49.76036" lon="0.98761">
        <ele>104.68692779541</ele>
        <time>2016-08-11T14:24:17Z</time>
      </trkpt>
      <trkpt lat="49.76029" lon="0.98746">
        <ele>104.83428955078</ele>
        <time>2016-08-11T14:24:29Z</time>
      </trkpt>
      <trkpt lat="49.76027" lon="0.98743">
        <ele>104.83428955078</ele>
        <time>2016-08-11T14:24:33Z</time>
      </trkpt>
      <trkpt lat="49.76022" lon="0.98733">
        <ele>105.06628417969</ele>
        <time>2016-08-11T14:24:42Z</time>
      </trkpt>
      <trkpt lat="49.76022" lon="0.98734">
        <ele>105.06628417969</ele>
        <time>2016-08-11T14:24:48Z</time>
      </trkpt>
      <trkpt lat="49.7602" lon="0.9873">
        <ele>105.06628417969</ele>
        <time>2016-08-11T14:24:57Z</time>
      </trkpt>
      <trkpt lat="49.76019" lon="0.98725">
        <ele>105.06628417969</ele>
        <time>2016-08-11T14:25:02Z</time>
      </trkpt>
      <trkpt lat="49.76013" lon="0.98714">
        <ele>105.16104888916</ele>
        <time>2016-08-11T14:25:13Z</time>
      </trkpt>
      <trkpt lat="49.76009" lon="0.9871">
        <ele>105.16104888916</ele>
        <time>2016-08-11T14:25:18Z</time>
      </trkpt>
      <trkpt lat="49.76001" lon="0.98695">
        <ele>105.17279815674</ele>
        <time>2016-08-11T14:25:29Z</time>
      </trkpt>
      <trkpt lat="49.75999" lon="0.98692">
        <ele>105.17279815674</ele>
        <time>2016-08-11T14:25:32Z</time>
      </trkpt>
      <trkpt lat="49.75988" lon="0.98671">
        <ele>104.95020294189</ele>
        <time>2016-08-11T14:25:47Z</time>
      </trkpt>
      <trkpt lat="49.75977" lon="0.98652">
        <ele>104.98774719238</ele>
        <time>2016-08-11T14:26:02Z</time>
      </trkpt>
      <trkpt lat="49.75974" lon="0.98648">
        <ele>104.98774719238</ele>
        <time>2016-08-11T14:26:07Z</time>
      </trkpt>
      <trkpt lat="49.75966" lon="0.98635">
        <ele>104.77730560303</ele>
        <time>2016-08-11T14:26:17Z</time>
      </trkpt>
      <trkpt lat="49.75963" lon="0.98629">
        <ele>104.77730560303</ele>
        <time>2016-08-11T14:26:22Z</time>
      </trkpt>
      <trkpt lat="49.75956" lon="0.98618">
        <ele>104.67014312744</ele>
        <time>2016-08-11T14:26:33Z</time>
      </trkpt>
      <trkpt lat="49.75953" lon="0.98612">
        <ele>104.67014312744</ele>
        <time>2016-08-11T14:26:38Z</time>
      </trkpt>
      <trkpt lat="49.75946" lon="0.98599">
        <ele>104.78966522217</ele>
        <time>2016-08-11T14:26:47Z</time>
      </trkpt>
      <trkpt lat="49.75945" lon="0.98595">
        <ele>104.78966522217</ele>
        <time>2016-08-11T14:26:53Z</time>
      </trkpt>
      <trkpt lat="49.75937" lon="0.9858">
        <ele>105.04776763916</ele>
        <time>2016-08-11T14:27:03Z</time>
      </trkpt>
      <trkpt lat="49.75936" lon="0.98576">
        <ele>105.04776763916</ele>
        <time>2016-08-11T14:27:07Z</time>
      </trkpt>
      <trkpt lat="49.7593" lon="0.9856">
        <ele>105.34798431396</ele>
        <time>2016-08-11T14:27:18Z</time>
      </trkpt>
      <trkpt lat="49.75926" lon="0.98554">
        <ele>105.34798431396</ele>
        <time>2016-08-11T14:27:23Z</time>
      </trkpt>
      <trkpt lat="49.75922" lon="0.98547">
        <ele>105.4854888916</ele>
        <time>2016-08-11T14:27:27Z</time>
      </trkpt>
      <trkpt lat="49.75914" lon="0.98536">
        <ele>105.61680603027</ele>
        <time>2016-08-11T14:27:37Z</time>
      </trkpt>
      <trkpt lat="49.75911" lon="0.98528">
        <ele>105.61680603027</ele>
        <time>2016-08-11T14:27:42Z</time>
      </trkpt>
      <trkpt lat="49.75903" lon="0.98516">
        <ele>106.04544830322</ele>
        <time>2016-08-11T14:27:52Z</time>
      </trkpt>
      <trkpt lat="49.75893" lon="0.98497">
        <ele>106.48975372314</ele>
        <time>2016-08-11T14:28:07Z</time>
      </trkpt>
      <trkpt lat="49.75889" lon="0.9849">
        <ele>106.48975372314</ele>
        <time>2016-08-11T14:28:12Z</time>
      </trkpt>
      <trkpt lat="49.75886" lon="0.98484">
        <ele>107.16423034668</ele>
        <time>2016-08-11T14:28:22Z</time>
      </trkpt>
      <trkpt lat="49.75881" lon="0.98478">
        <ele>107.16423034668</ele>
        <time>2016-08-11T14:28:27Z</time>
      </trkpt>
      <trkpt lat="49.75873" lon="0.98465">
        <ele>107.61848449707</ele>
        <time>2016-08-11T14:28:38Z</time>
      </trkpt>
      <trkpt lat="49.7587" lon="0.9846">
        <ele>107.61848449707</ele>
        <time>2016-08-11T14:28:43Z</time>
      </trkpt>
      <trkpt lat="49.75863" lon="0.98447">
        <ele>108.11310577393</ele>
        <time>2016-08-11T14:28:52Z</time>
      </trkpt>
      <trkpt lat="49.75859" lon="0.98442">
        <ele>108.11310577393</ele>
        <time>2016-08-11T14:28:57Z</time>
      </trkpt>
      <trkpt lat="49.75852" lon="0.98429">
        <ele>108.55796051025</ele>
        <time>2016-08-11T14:29:07Z</time>
      </trkpt>
      <trkpt lat="49.75849" lon="0.98425">
        <ele>108.55796051025</ele>
        <time>2016-08-11T14:29:12Z</time>
      </trkpt>
      <trkpt lat="49.75845" lon="0.98419">
        <ele>109.17231750488</ele>
        <time>2016-08-11T14:29:23Z</time>
      </trkpt>
      <trkpt lat="49.75845" lon="0.98419">
        <ele>109.17231750488</ele>
        <time>2016-08-11T14:29:28Z</time>
      </trkpt>
      <trkpt lat="49.7584" lon="0.9841">
        <ele>109.17231750488</ele>
        <time>2016-08-11T14:29:43Z</time>
      </trkpt>
      <trkpt lat="49.75837" lon="0.98404">
        <ele>109.84177398682</ele>
        <time>2016-08-11T14:29:47Z</time>
      </trkpt>
      <trkpt lat="49.75829" lon="0.98391">
        <ele>110.21521759033</ele>
        <time>2016-08-11T14:29:57Z</time>
      </trkpt>
      <trkpt lat="49.75823" lon="0.98384">
        <ele>110.21521759033</ele>
        <time>2016-08-11T14:30:03Z</time>
      </trkpt>
      <trkpt lat="49.75815" lon="0.98369">
        <ele>110.65986633301</ele>
        <time>2016-08-11T14:30:14Z</time>
      </trkpt>
      <trkpt lat="49.75814" lon="0.98368">
        <ele>110.65986633301</ele>
        <time>2016-08-11T14:30:17Z</time>
      </trkpt>
      <trkpt lat="49.7581" lon="0.98361">
        <ele>110.65986633301</ele>
        <time>2016-08-11T14:30:27Z</time>
      </trkpt>
      <trkpt lat="49.75807" lon="0.98356">
        <ele>111.2707901001</ele>
        <time>2016-08-11T14:30:32Z</time>
      </trkpt>
      <trkpt lat="49.75799" lon="0.98342">
        <ele>111.94825744629</ele>
        <time>2016-08-11T14:30:42Z</time>
      </trkpt>
      <trkpt lat="49.75795" lon="0.98337">
        <ele>111.94825744629</ele>
        <time>2016-08-11T14:30:47Z</time>
      </trkpt>
      <trkpt lat="49.75787" lon="0.98322">
        <ele>112.41233062744</ele>
        <time>2016-08-11T14:30:59Z</time>
      </trkpt>
      <trkpt lat="49.75784" lon="0.98319">
        <ele>112.41233062744</ele>
        <time>2016-08-11T14:31:02Z</time>
      </trkpt>
      <trkpt lat="49.75772" lon="0.98299">
        <ele>112.7068862915</ele>
        <time>2016-08-11T14:31:18Z</time>
      </trkpt>
      <trkpt lat="49.75767" lon="0.98292">
        <ele>112.7068862915</ele>
        <time>2016-08-11T14:31:22Z</time>
      </trkpt>
      <trkpt lat="49.7576" lon="0.98281">
        <ele>112.88746643066</ele>
        <time>2016-08-11T14:31:32Z</time>
      </trkpt>
      <trkpt lat="49.75755" lon="0.98274">
        <ele>112.88746643066</ele>
        <time>2016-08-11T14:31:38Z</time>
      </trkpt>
      <trkpt lat="49.75747" lon="0.98262">
        <ele>112.96263885498</ele>
        <time>2016-08-11T14:31:47Z</time>
      </trkpt>
      <trkpt lat="49.75744" lon="0.98256">
        <ele>112.96263885498</ele>
        <time>2016-08-11T14:31:52Z</time>
      </trkpt>
      <trkpt lat="49.75736" lon="0.98243">
        <ele>112.98386383057</ele>
        <time>2016-08-11T14:32:02Z</time>
      </trkpt>
      <trkpt lat="49.75732" lon="0.98237">
        <ele>112.98386383057</ele>
        <time>2016-08-11T14:32:07Z</time>
      </trkpt>
      <trkpt lat="49.75723" lon="0.98224">
        <ele>112.85486602783</ele>
        <time>2016-08-11T14:32:19Z</time>
      </trkpt>
      <trkpt lat="49.7572" lon="0.98218">
        <ele>112.85486602783</ele>
        <time>2016-08-11T14:32:23Z</time>
      </trkpt>
      <trkpt lat="49.75716" lon="0.98212">
        <ele>113.0200958252</ele>
        <time>2016-08-11T14:32:32Z</time>
      </trkpt>
      <trkpt lat="49.7571" lon="0.98206">
        <ele>113.0200958252</ele>
        <time>2016-08-11T14:32:38Z</time>
      </trkpt>
      <trkpt lat="49.75701" lon="0.98187">
        <ele>113.05467224121</ele>
        <time>2016-08-11T14:32:52Z</time>
      </trkpt>
      <trkpt lat="49.75689" lon="0.98176">
        <ele>113.18496704102</ele>
        <time>2016-08-11T14:33:07Z</time>
      </trkpt>
      <trkpt lat="49.75684" lon="0.9817">
        <ele>113.18496704102</ele>
        <time>2016-08-11T14:33:12Z</time>
      </trkpt>
      <trkpt lat="49.75675" lon="0.98158">
        <ele>113.34664916992</ele>
        <time>2016-08-11T14:33:24Z</time>
      </trkpt>
      <trkpt lat="49.75671" lon="0.98151">
        <ele>113.34664916992</ele>
        <time>2016-08-11T14:33:28Z</time>
      </trkpt>
      <trkpt lat="49.75663" lon="0.9814">
        <ele>113.43678283691</ele>
        <time>2016-08-11T14:33:38Z</time>
      </trkpt>
      <trkpt lat="49.75658" lon="0.98134">
        <ele>113.43678283691</ele>
        <time>2016-08-11T14:33:42Z</time>
      </trkpt>
      <trkpt lat="49.75649" lon="0.98125">
        <ele>113.37460327148</ele>
        <time>2016-08-11T14:33:52Z</time>
      </trkpt>
      <trkpt lat="49.75644" lon="0.98122">
        <ele>113.37460327148</ele>
        <time>2016-08-11T14:33:58Z</time>
      </trkpt>
      <trkpt lat="49.75636" lon="0.98113">
        <ele>113.24423217773</ele>
        <time>2016-08-11T14:34:08Z</time>
      </trkpt>
      <trkpt lat="49.75635" lon="0.98113">
        <ele>113.24423217773</ele>
        <time>2016-08-11T14:34:12Z</time>
      </trkpt>
      <trkpt lat="49.75633" lon="0.9811">
        <ele>113.24423217773</ele>
        <time>2016-08-11T14:34:17Z</time>
      </trkpt>
      <trkpt lat="49.75623" lon="0.98099">
        <ele>113.25347137451</ele>
        <time>2016-08-11T14:34:29Z</time>
      </trkpt>
      <trkpt lat="49.75622" lon="0.98098">
        <ele>113.25347137451</ele>
        <time>2016-08-11T14:34:32Z</time>
      </trkpt>
      <trkpt lat="49.75613" lon="0.9809">
        <ele>113.3927230835</ele>
        <time>2016-08-11T14:34:37Z</time>
      </trkpt>
      <trkpt lat="49.7561" lon="0.98088">
        <ele>113.3927230835</ele>
        <time>2016-08-11T14:34:42Z</time>
      </trkpt>
      <trkpt lat="49.75604" lon="0.9808">
        <ele>113.40772247314</ele>
        <time>2016-08-11T14:34:49Z</time>
      </trkpt>
      <trkpt lat="49.75595" lon="0.98071">
        <ele>113.58202362061</ele>
        <time>2016-08-11T14:34:57Z</time>
      </trkpt>
      <trkpt lat="49.7559" lon="0.98068">
        <ele>113.58202362061</ele>
        <time>2016-08-11T14:35:02Z</time>
      </trkpt>
      <trkpt lat="49.75579" lon="0.98057">
        <ele>113.83202362061</ele>
        <time>2016-08-11T14:35:13Z</time>
      </trkpt>
      <trkpt lat="49.75574" lon="0.98053">
        <ele>113.83202362061</ele>
        <time>2016-08-11T14:35:17Z</time>
      </trkpt>
      <trkpt lat="49.75568" lon="0.98046">
        <ele>114.06562042236</ele>
        <time>2016-08-11T14:35:22Z</time>
      </trkpt>
      <trkpt lat="49.75558" lon="0.98037">
        <ele>114.22635650635</ele>
        <time>2016-08-11T14:35:33Z</time>
      </trkpt>
      <trkpt lat="49.75553" lon="0.98031">
        <ele>114.22635650635</ele>
        <time>2016-08-11T14:35:37Z</time>
      </trkpt>
      <trkpt lat="49.75545" lon="0.98019">
        <ele>114.36296081543</ele>
        <time>2016-08-11T14:35:48Z</time>
      </trkpt>
      <trkpt lat="49.75543" lon="0.98012">
        <ele>114.36296081543</ele>
        <time>2016-08-11T14:35:53Z</time>
      </trkpt>
      <trkpt lat="49.75541" lon="0.98005">
        <ele>114.70801544189</ele>
        <time>2016-08-11T14:36:02Z</time>
      </trkpt>
      <trkpt lat="49.7554" lon="0.98004">
        <ele>114.70801544189</ele>
        <time>2016-08-11T14:36:07Z</time>
      </trkpt>
      <trkpt lat="49.7554" lon="0.98004">
        <ele>114.70801544189</ele>
        <time>2016-08-11T14:36:12Z</time>
      </trkpt>
      <trkpt lat="49.7554" lon="0.98004">
        <ele>114.70801544189</ele>
        <time>2016-08-11T14:36:17Z</time>
      </trkpt>
      <trkpt lat="49.7554" lon="0.98004">
        <ele>114.70801544189</ele>
        <time>2016-08-11T14:36:22Z</time>
      </trkpt>
      <trkpt lat="49.7554" lon="0.98004">
        <ele>114.70801544189</ele>
        <time>2016-08-11T14:36:27Z</time>
      </trkpt>
      <trkpt lat="49.7554" lon="0.98005">
        <ele>114.70801544189</ele>
        <time>2016-08-11T14:36:32Z</time>
      </trkpt>
      <trkpt lat="49.75539" lon="0.98006">
        <ele>114.70801544189</ele>
        <time>2016-08-11T14:36:42Z</time>
      </trkpt>
      <trkpt lat="49.75538" lon="0.98006">
        <ele>114.70801544189</ele>
        <time>2016-08-11T14:36:47Z</time>
      </trkpt>
      <trkpt lat="49.75538" lon="0.98005">
        <ele>114.70801544189</ele>
        <time>2016-08-11T14:37:02Z</time>
      </trkpt>
      <trkpt lat="49.75538" lon="0.98004">
        <ele>114.70801544189</ele>
        <time>2016-08-11T14:37:07Z</time>
      </trkpt>
      <trkpt lat="49.75537" lon="0.98005">
        <ele>114.70801544189</ele>
        <time>2016-08-11T14:37:18Z</time>
      </trkpt>
      <trkpt lat="49.75537" lon="0.98004">
        <ele>114.70801544189</ele>
        <time>2016-08-11T14:37:22Z</time>
      </trkpt>
      <trkpt lat="49.75537" lon="0.98003">
        <ele>114.70801544189</ele>
        <time>2016-08-11T14:37:32Z</time>
      </trkpt>
      <trkpt lat="49.75537" lon="0.98003">
        <ele>114.70801544189</ele>
        <time>2016-08-11T14:37:38Z</time>
      </trkpt>
      <trkpt lat="49.75536" lon="0.98002">
        <ele>114.70801544189</ele>
        <time>2016-08-11T14:37:47Z</time>
      </trkpt>
      <trkpt lat="49.75536" lon="0.98001">
        <ele>114.70801544189</ele>
        <time>2016-08-11T14:37:52Z</time>
      </trkpt>
      <trkpt lat="49.75535" lon="0.97999">
        <ele>115.21701049805</ele>
        <time>2016-08-11T14:38:04Z</time>
      </trkpt>
      <trkpt lat="49.75532" lon="0.97994">
        <ele>115.21701049805</ele>
        <time>2016-08-11T14:38:08Z</time>
      </trkpt>
      <trkpt lat="49.7553" lon="0.9799">
        <ele>115.21701049805</ele>
        <time>2016-08-11T14:38:17Z</time>
      </trkpt>
      <trkpt lat="49.7553" lon="0.9799">
        <ele>115.21701049805</ele>
        <time>2016-08-11T14:38:22Z</time>
      </trkpt>
      <trkpt lat="49.75527" lon="0.97987">
        <ele>115.67530059814</ele>
        <time>2016-08-11T14:38:37Z</time>
      </trkpt>
      <trkpt lat="49.75523" lon="0.97963">
        <ele>115.94180297852</ele>
        <time>2016-08-11T14:38:53Z</time>
      </trkpt>
      <trkpt lat="49.75521" lon="0.97959">
        <ele>115.94180297852</ele>
        <time>2016-08-11T14:38:57Z</time>
      </trkpt>
      <trkpt lat="49.7552" lon="0.97945">
        <ele>116.17455291748</ele>
        <time>2016-08-11T14:39:07Z</time>
      </trkpt>
      <trkpt lat="49.75517" lon="0.97938">
        <ele>116.17455291748</ele>
        <time>2016-08-11T14:39:13Z</time>
      </trkpt>
      <trkpt lat="49.75516" lon="0.97937">
        <ele>116.17455291748</ele>
        <time>2016-08-11T14:39:22Z</time>
      </trkpt>
      <trkpt lat="49.75513" lon="0.9793">
        <ele>116.47682952881</ele>
        <time>2016-08-11T14:39:27Z</time>
      </trkpt>
      <trkpt lat="49.75508" lon="0.97914">
        <ele>116.56944274902</ele>
        <time>2016-08-11T14:39:37Z</time>
      </trkpt>
      <trkpt lat="49.75506" lon="0.97908">
        <ele>116.56944274902</ele>
        <time>2016-08-11T14:39:42Z</time>
      </trkpt>
      <trkpt lat="49.75501" lon="0.97891">
        <ele>116.90045166016</ele>
        <time>2016-08-11T14:39:53Z</time>
      </trkpt>
      <trkpt lat="49.75499" lon="0.97881">
        <ele>116.90045166016</ele>
        <time>2016-08-11T14:39:58Z</time>
      </trkpt>
      <trkpt lat="49.75494" lon="0.97865">
        <ele>117.42315673828</ele>
        <time>2016-08-11T14:40:08Z</time>
      </trkpt>
      <trkpt lat="49.75491" lon="0.97852">
        <ele>117.42315673828</ele>
        <time>2016-08-11T14:40:14Z</time>
      </trkpt>
      <trkpt lat="49.75489" lon="0.97846">
        <ele>117.89202880859</ele>
        <time>2016-08-11T14:40:17Z</time>
      </trkpt>
      <trkpt lat="49.75485" lon="0.9783">
        <ele>118.1661605835</ele>
        <time>2016-08-11T14:40:28Z</time>
      </trkpt>
      <trkpt lat="49.75483" lon="0.97821">
        <ele>118.1661605835</ele>
        <time>2016-08-11T14:40:33Z</time>
      </trkpt>
      <trkpt lat="49.75479" lon="0.97805">
        <ele>118.25968170166</ele>
        <time>2016-08-11T14:40:42Z</time>
      </trkpt>
      <trkpt lat="49.75477" lon="0.97796">
        <ele>118.25968170166</ele>
        <time>2016-08-11T14:40:47Z</time>
      </trkpt>
      <trkpt lat="49.75474" lon="0.97776">
        <ele>118.56086730957</ele>
        <time>2016-08-11T14:40:59Z</time>
      </trkpt>
      <trkpt lat="49.75472" lon="0.97769">
        <ele>118.56086730957</ele>
        <time>2016-08-11T14:41:03Z</time>
      </trkpt>
      <trkpt lat="49.75469" lon="0.9775">
        <ele>118.73717498779</ele>
        <time>2016-08-11T14:41:13Z</time>
      </trkpt>
      <trkpt lat="49.75468" lon="0.97744">
        <ele>118.73717498779</ele>
        <time>2016-08-11T14:41:17Z</time>
      </trkpt>
      <trkpt lat="49.75465" lon="0.97726">
        <ele>118.98522186279</ele>
        <time>2016-08-11T14:41:27Z</time>
      </trkpt>
      <trkpt lat="49.75464" lon="0.97718">
        <ele>118.98522186279</ele>
        <time>2016-08-11T14:41:32Z</time>
      </trkpt>
      <trkpt lat="49.7546" lon="0.97695">
        <ele>119.31404876709</ele>
        <time>2016-08-11T14:41:43Z</time>
      </trkpt>
      <trkpt lat="49.75459" lon="0.9769">
        <ele>119.31404876709</ele>
        <time>2016-08-11T14:41:47Z</time>
      </trkpt>
      <trkpt lat="49.75456" lon="0.97672">
        <ele>119.68858337402</ele>
        <time>2016-08-11T14:41:58Z</time>
      </trkpt>
      <trkpt lat="49.75455" lon="0.97665">
        <ele>119.68858337402</ele>
        <time>2016-08-11T14:42:02Z</time>
      </trkpt>
      <trkpt lat="49.75453" lon="0.97644">
        <ele>120.17709350586</ele>
        <time>2016-08-11T14:42:12Z</time>
      </trkpt>
      <trkpt lat="49.75451" lon="0.97634">
        <ele>120.17709350586</ele>
        <time>2016-08-11T14:42:18Z</time>
      </trkpt>
      <trkpt lat="49.75449" lon="0.97614">
        <ele>120.45338439941</ele>
        <time>2016-08-11T14:42:27Z</time>
      </trkpt>
      <trkpt lat="49.75447" lon="0.97606">
        <ele>120.45338439941</ele>
        <time>2016-08-11T14:42:32Z</time>
      </trkpt>
      <trkpt lat="49.75447" lon="0.97598">
        <ele>120.82113647461</ele>
        <time>2016-08-11T14:42:37Z</time>
      </trkpt>
      <trkpt lat="49.75443" lon="0.97577">
        <ele>121.43173217773</ele>
        <time>2016-08-11T14:42:47Z</time>
      </trkpt>
      <trkpt lat="49.75441" lon="0.97568">
        <ele>121.43173217773</ele>
        <time>2016-08-11T14:42:53Z</time>
      </trkpt>
      <trkpt lat="49.75439" lon="0.9755">
        <ele>121.86275482178</ele>
        <time>2016-08-11T14:43:02Z</time>
      </trkpt>
      <trkpt lat="49.75437" lon="0.97525">
        <ele>122.3141784668</ele>
        <time>2016-08-11T14:43:17Z</time>
      </trkpt>
      <trkpt lat="49.75437" lon="0.97515">
        <ele>122.3141784668</ele>
        <time>2016-08-11T14:43:22Z</time>
      </trkpt>
      <trkpt lat="49.75432" lon="0.97492">
        <ele>122.78388977051</ele>
        <time>2016-08-11T14:43:34Z</time>
      </trkpt>
      <trkpt lat="49.75432" lon="0.97485">
        <ele>122.78388977051</ele>
        <time>2016-08-11T14:43:37Z</time>
      </trkpt>
      <trkpt lat="49.75428" lon="0.97466">
        <ele>123.1402053833</ele>
        <time>2016-08-11T14:43:47Z</time>
      </trkpt>
      <trkpt lat="49.75427" lon="0.97458">
        <ele>123.1402053833</ele>
        <time>2016-08-11T14:43:53Z</time>
      </trkpt>
      <trkpt lat="49.75425" lon="0.97442">
        <ele>123.63612365723</ele>
        <time>2016-08-11T14:44:03Z</time>
      </trkpt>
      <trkpt lat="49.75424" lon="0.97431">
        <ele>123.63612365723</ele>
        <time>2016-08-11T14:44:07Z</time>
      </trkpt>
      <trkpt lat="49.75421" lon="0.97412">
        <ele>124.11658477783</ele>
        <time>2016-08-11T14:44:19Z</time>
      </trkpt>
      <trkpt lat="49.7542" lon="0.97406">
        <ele>124.11658477783</ele>
        <time>2016-08-11T14:44:23Z</time>
      </trkpt>
      <trkpt lat="49.75416" lon="0.97389">
        <ele>124.45238494873</ele>
        <time>2016-08-11T14:44:32Z</time>
      </trkpt>
      <trkpt lat="49.75415" lon="0.97382">
        <ele>124.45238494873</ele>
        <time>2016-08-11T14:44:38Z</time>
      </trkpt>
      <trkpt lat="49.75413" lon="0.97363">
        <ele>124.8268737793</ele>
        <time>2016-08-11T14:44:47Z</time>
      </trkpt>
      <trkpt lat="49.75412" lon="0.97354">
        <ele>124.8268737793</ele>
        <time>2016-08-11T14:44:52Z</time>
      </trkpt>
      <trkpt lat="49.75407" lon="0.97326">
        <ele>125.17924499512</ele>
        <time>2016-08-11T14:45:07Z</time>
      </trkpt>
      <trkpt lat="49.75404" lon="0.97306">
        <ele>125.46766662598</ele>
        <time>2016-08-11T14:45:18Z</time>
      </trkpt>
      <trkpt lat="49.75403" lon="0.973">
        <ele>125.46766662598</ele>
        <time>2016-08-11T14:45:22Z</time>
      </trkpt>
      <trkpt lat="49.75402" lon="0.97292">
        <ele>125.65355682373</ele>
        <time>2016-08-11T14:45:27Z</time>
      </trkpt>
      <trkpt lat="49.75399" lon="0.97277">
        <ele>125.84558105469</ele>
        <time>2016-08-11T14:45:34Z</time>
      </trkpt>
      <trkpt lat="49.75399" lon="0.97273">
        <ele>125.84558105469</ele>
        <time>2016-08-11T14:45:37Z</time>
      </trkpt>
      <trkpt lat="49.75397" lon="0.97262">
        <ele>125.92826080322</ele>
        <time>2016-08-11T14:45:42Z</time>
      </trkpt>
      <trkpt lat="49.75393" lon="0.97242">
        <ele>126.01107025146</ele>
        <time>2016-08-11T14:45:52Z</time>
      </trkpt>
      <trkpt lat="49.7539" lon="0.97231">
        <ele>126.01107025146</ele>
        <time>2016-08-11T14:45:57Z</time>
      </trkpt>
      <trkpt lat="49.75386" lon="0.97213">
        <ele>126.16662597656</ele>
        <time>2016-08-11T14:46:08Z</time>
      </trkpt>
      <trkpt lat="49.75386" lon="0.97205">
        <ele>126.16662597656</ele>
        <time>2016-08-11T14:46:12Z</time>
      </trkpt>
      <trkpt lat="49.75384" lon="0.97187">
        <ele>126.28910064697</ele>
        <time>2016-08-11T14:46:23Z</time>
      </trkpt>
      <trkpt lat="49.75383" lon="0.97179">
        <ele>126.28910064697</ele>
        <time>2016-08-11T14:46:28Z</time>
      </trkpt>
      <trkpt lat="49.75381" lon="0.97162">
        <ele>126.29491424561</ele>
        <time>2016-08-11T14:46:37Z</time>
      </trkpt>
      <trkpt lat="49.75378" lon="0.97153">
        <ele>126.29491424561</ele>
        <time>2016-08-11T14:46:42Z</time>
      </trkpt>
      <trkpt lat="49.75375" lon="0.97128">
        <ele>126.3087310791</ele>
        <time>2016-08-11T14:46:53Z</time>
      </trkpt>
      <trkpt lat="49.75373" lon="0.97122">
        <ele>126.3087310791</ele>
        <time>2016-08-11T14:46:57Z</time>
      </trkpt>
      <trkpt lat="49.7537" lon="0.97101">
        <ele>126.30192565918</ele>
        <time>2016-08-11T14:47:08Z</time>
      </trkpt>
      <trkpt lat="49.75369" lon="0.97097">
        <ele>126.30192565918</ele>
        <time>2016-08-11T14:47:12Z</time>
      </trkpt>
      <trkpt lat="49.75365" lon="0.97073">
        <ele>126.21920013428</ele>
        <time>2016-08-11T14:47:23Z</time>
      </trkpt>
      <trkpt lat="49.75363" lon="0.97064">
        <ele>126.21920013428</ele>
        <time>2016-08-11T14:47:27Z</time>
      </trkpt>
      <trkpt lat="49.75358" lon="0.97035">
        <ele>126.32656860352</ele>
        <time>2016-08-11T14:47:42Z</time>
      </trkpt>
      <trkpt lat="49.75357" lon="0.97025">
        <ele>126.32656860352</ele>
        <time>2016-08-11T14:47:47Z</time>
      </trkpt>
      <trkpt lat="49.75353" lon="0.97007">
        <ele>126.52410888672</ele>
        <time>2016-08-11T14:47:57Z</time>
      </trkpt>
      <trkpt lat="49.75348" lon="0.96991">
        <ele>126.54602050781</ele>
        <time>2016-08-11T14:48:08Z</time>
      </trkpt>
      <trkpt lat="49.75346" lon="0.96983">
        <ele>126.54602050781</ele>
        <time>2016-08-11T14:48:12Z</time>
      </trkpt>
      <trkpt lat="49.75344" lon="0.96976">
        <ele>126.49240875244</ele>
        <time>2016-08-11T14:48:17Z</time>
      </trkpt>
      <trkpt lat="49.7534" lon="0.96964">
        <ele>126.49240875244</ele>
        <time>2016-08-11T14:48:24Z</time>
      </trkpt>
      <trkpt lat="49.75338" lon="0.96957">
        <ele>126.57149505615</ele>
        <time>2016-08-11T14:48:28Z</time>
      </trkpt>
      <trkpt lat="49.75335" lon="0.96948">
        <ele>126.57149505615</ele>
        <time>2016-08-11T14:48:32Z</time>
      </trkpt>
      <trkpt lat="49.75329" lon="0.96934">
        <ele>126.73083496094</ele>
        <time>2016-08-11T14:48:43Z</time>
      </trkpt>
      <trkpt lat="49.75321" lon="0.96911">
        <ele>126.87837219238</ele>
        <time>2016-08-11T14:48:57Z</time>
      </trkpt>
      <trkpt lat="49.75319" lon="0.96904">
        <ele>126.87837219238</ele>
        <time>2016-08-11T14:49:03Z</time>
      </trkpt>
      <trkpt lat="49.75314" lon="0.96888">
        <ele>126.92882537842</ele>
        <time>2016-08-11T14:49:12Z</time>
      </trkpt>
      <trkpt lat="49.75312" lon="0.96878">
        <ele>126.92882537842</ele>
        <time>2016-08-11T14:49:18Z</time>
      </trkpt>
      <trkpt lat="49.75308" lon="0.96862">
        <ele>126.87549591064</ele>
        <time>2016-08-11T14:49:27Z</time>
      </trkpt>
      <trkpt lat="49.75306" lon="0.96851">
        <ele>126.87549591064</ele>
        <time>2016-08-11T14:49:32Z</time>
      </trkpt>
      <trkpt lat="49.75304" lon="0.96843">
        <ele>126.6259765625</ele>
        <time>2016-08-11T14:49:37Z</time>
      </trkpt>
      <trkpt lat="49.75301" lon="0.96817">
        <ele>126.48430633545</ele>
        <time>2016-08-11T14:49:53Z</time>
      </trkpt>
      <trkpt lat="49.75299" lon="0.96807">
        <ele>126.48430633545</ele>
        <time>2016-08-11T14:49:58Z</time>
      </trkpt>
      <trkpt lat="49.75298" lon="0.96793">
        <ele>126.37156677246</ele>
        <time>2016-08-11T14:50:07Z</time>
      </trkpt>
      <trkpt lat="49.75297" lon="0.96792">
        <ele>126.37156677246</ele>
        <time>2016-08-11T14:50:12Z</time>
      </trkpt>
      <trkpt lat="49.75297" lon="0.9679">
        <ele>126.37156677246</ele>
        <time>2016-08-11T14:50:22Z</time>
      </trkpt>
      <trkpt lat="49.75296" lon="0.9679">
        <ele>126.37156677246</ele>
        <time>2016-08-11T14:50:27Z</time>
      </trkpt>
      <trkpt lat="49.75296" lon="0.9679">
        <ele>126.37156677246</ele>
        <time>2016-08-11T14:50:32Z</time>
      </trkpt>
      <trkpt lat="49.75296" lon="0.9679">
        <ele>126.37156677246</ele>
        <time>2016-08-11T14:50:37Z</time>
      </trkpt>
      <trkpt lat="49.75296" lon="0.9679">
        <ele>126.37156677246</ele>
        <time>2016-08-11T14:50:42Z</time>
      </trkpt>
      <trkpt lat="49.75296" lon="0.9679">
        <ele>126.37156677246</ele>
        <time>2016-08-11T14:50:47Z</time>
      </trkpt>
      <trkpt lat="49.75296" lon="0.9679">
        <ele>126.37156677246</ele>
        <time>2016-08-11T14:50:52Z</time>
      </trkpt>
      <trkpt lat="49.75296" lon="0.9679">
        <ele>126.37156677246</ele>
        <time>2016-08-11T14:50:57Z</time>
      </trkpt>
      <trkpt lat="49.75296" lon="0.9679">
        <ele>126.37156677246</ele>
        <time>2016-08-11T14:51:02Z</time>
      </trkpt>
      <trkpt lat="49.75296" lon="0.9679">
        <ele>126.37156677246</ele>
        <time>2016-08-11T14:51:07Z</time>
      </trkpt>
      <trkpt lat="49.75296" lon="0.9679">
        <ele>126.37156677246</ele>
        <time>2016-08-11T14:51:14Z</time>
      </trkpt>
      <trkpt lat="49.75296" lon="0.9679">
        <ele>126.37156677246</ele>
        <time>2016-08-11T14:51:22Z</time>
      </trkpt>
      <trkpt lat="49.75296" lon="0.9679">
        <ele>126.37156677246</ele>
        <time>2016-08-11T14:51:27Z</time>
      </trkpt>
      <trkpt lat="49.75296" lon="0.9679">
        <ele>126.37156677246</ele>
        <time>2016-08-11T14:51:32Z</time>
      </trkpt>
      <trkpt lat="49.75296" lon="0.9679">
        <ele>126.37156677246</ele>
        <time>2016-08-11T14:51:37Z</time>
      </trkpt>
      <trkpt lat="49.75294" lon="0.96788">
        <ele>126.37156677246</ele>
        <time>2016-08-11T14:51:42Z</time>
      </trkpt>
      <trkpt lat="49.75294" lon="0.96788">
        <ele>126.37156677246</ele>
        <time>2016-08-11T14:51:47Z</time>
      </trkpt>
      <trkpt lat="49.75293" lon="0.96786">
        <ele>126.37156677246</ele>
        <time>2016-08-11T14:51:59Z</time>
      </trkpt>
      <trkpt lat="49.75293" lon="0.96785">
        <ele>126.37156677246</ele>
        <time>2016-08-11T14:52:02Z</time>
      </trkpt>
      <trkpt lat="49.75292" lon="0.96769">
        <ele>126.71894073486</ele>
        <time>2016-08-11T14:52:12Z</time>
      </trkpt>
      <trkpt lat="49.75291" lon="0.9676">
        <ele>126.71894073486</ele>
        <time>2016-08-11T14:52:17Z</time>
      </trkpt>
      <trkpt lat="49.75291" lon="0.96748">
        <ele>126.973487854</ele>
        <time>2016-08-11T14:52:27Z</time>
      </trkpt>
      <trkpt lat="49.75294" lon="0.96744">
        <ele>126.973487854</ele>
        <time>2016-08-11T14:52:32Z</time>
      </trkpt>
      <trkpt lat="49.75285" lon="0.96713">
        <ele>126.73841094971</ele>
        <time>2016-08-11T14:52:47Z</time>
      </trkpt>
      <trkpt lat="49.75294" lon="0.96708">
        <ele>126.6706161499</ele>
        <time>2016-08-11T14:52:52Z</time>
      </trkpt>
      <trkpt lat="49.75289" lon="0.9668">
        <ele>126.91709136963</ele>
        <time>2016-08-11T14:53:03Z</time>
      </trkpt>
      <trkpt lat="49.75289" lon="0.96675">
        <ele>126.91709136963</ele>
        <time>2016-08-11T14:53:07Z</time>
      </trkpt>
      <trkpt lat="49.75286" lon="0.96653">
        <ele>127.5122756958</ele>
        <time>2016-08-11T14:53:18Z</time>
      </trkpt>
      <trkpt lat="49.75288" lon="0.96633">
        <ele>127.82415008545</ele>
        <time>2016-08-11T14:53:32Z</time>
      </trkpt>
      <trkpt lat="49.75287" lon="0.96622">
        <ele>127.82415008545</ele>
        <time>2016-08-11T14:53:38Z</time>
      </trkpt>
      <trkpt lat="49.75286" lon="0.96599">
        <ele>128.33433532715</ele>
        <time>2016-08-11T14:53:49Z</time>
      </trkpt>
      <trkpt lat="49.75287" lon="0.96595">
        <ele>128.33433532715</ele>
        <time>2016-08-11T14:53:52Z</time>
      </trkpt>
      <trkpt lat="49.75288" lon="0.96592">
        <ele>128.33433532715</ele>
        <time>2016-08-11T14:54:02Z</time>
      </trkpt>
      <trkpt lat="49.75288" lon="0.96591">
        <ele>128.33433532715</ele>
        <time>2016-08-11T14:54:09Z</time>
      </trkpt>
      <trkpt lat="49.75286" lon="0.96578">
        <ele>128.75352478027</ele>
        <time>2016-08-11T14:54:18Z</time>
      </trkpt>
      <trkpt lat="49.75286" lon="0.96566">
        <ele>128.75352478027</ele>
        <time>2016-08-11T14:54:23Z</time>
      </trkpt>
      <trkpt lat="49.75287" lon="0.96561">
        <ele>128.88600158691</ele>
        <time>2016-08-11T14:54:37Z</time>
      </trkpt>
      <trkpt lat="49.75287" lon="0.96548">
        <ele>128.88600158691</ele>
        <time>2016-08-11T14:54:42Z</time>
      </trkpt>
      <trkpt lat="49.75289" lon="0.96528">
        <ele>129.14202880859</ele>
        <time>2016-08-11T14:54:52Z</time>
      </trkpt>
      <trkpt lat="49.7529" lon="0.96521">
        <ele>129.14202880859</ele>
        <time>2016-08-11T14:54:57Z</time>
      </trkpt>
      <trkpt lat="49.75292" lon="0.96501">
        <ele>128.83499145508</ele>
        <time>2016-08-11T14:55:09Z</time>
      </trkpt>
      <trkpt lat="49.75291" lon="0.96488">
        <ele>128.83499145508</ele>
        <time>2016-08-11T14:55:13Z</time>
      </trkpt>
      <trkpt lat="49.75292" lon="0.96481">
        <ele>128.59846496582</ele>
        <time>2016-08-11T14:55:17Z</time>
      </trkpt>
      <trkpt lat="49.75291" lon="0.96472">
        <ele>128.59846496582</ele>
        <time>2016-08-11T14:55:22Z</time>
      </trkpt>
      <trkpt lat="49.75293" lon="0.96468">
        <ele>128.52928161621</ele>
        <time>2016-08-11T14:55:27Z</time>
      </trkpt>
      <trkpt lat="49.75294" lon="0.96461">
        <ele>128.52928161621</ele>
        <time>2016-08-11T14:55:32Z</time>
      </trkpt>
      <trkpt lat="49.75292" lon="0.96449">
        <ele>128.32760620117</ele>
        <time>2016-08-11T14:55:37Z</time>
      </trkpt>
      <trkpt lat="49.75291" lon="0.96412">
        <ele>128.63824462891</ele>
        <time>2016-08-11T14:55:54Z</time>
      </trkpt>
      <trkpt lat="49.75292" lon="0.96409">
        <ele>128.63824462891</ele>
        <time>2016-08-11T14:55:57Z</time>
      </trkpt>
      <trkpt lat="49.75286" lon="0.9639">
        <ele>129.23582458496</ele>
        <time>2016-08-11T14:56:07Z</time>
      </trkpt>
      <trkpt lat="49.75289" lon="0.96373">
        <ele>129.89627075195</ele>
        <time>2016-08-11T14:56:22Z</time>
      </trkpt>
      <trkpt lat="49.75288" lon="0.96372">
        <ele>129.89627075195</ele>
        <time>2016-08-11T14:56:37Z</time>
      </trkpt>
      <trkpt lat="49.75288" lon="0.96367">
        <ele>129.89627075195</ele>
        <time>2016-08-11T14:56:42Z</time>
      </trkpt>
      <trkpt lat="49.75285" lon="0.96354">
        <ele>129.77767944336</ele>
        <time>2016-08-11T14:56:58Z</time>
      </trkpt>
      <trkpt lat="49.75282" lon="0.96349">
        <ele>129.77767944336</ele>
        <time>2016-08-11T14:57:02Z</time>
      </trkpt>
      <trkpt lat="49.75274" lon="0.9633">
        <ele>129.54331970215</ele>
        <time>2016-08-11T14:57:14Z</time>
      </trkpt>
      <trkpt lat="49.75274" lon="0.96326">
        <ele>129.54331970215</ele>
        <time>2016-08-11T14:57:18Z</time>
      </trkpt>
      <trkpt lat="49.75261" lon="0.96303">
        <ele>129.79359436035</ele>
        <time>2016-08-11T14:57:34Z</time>
      </trkpt>
      <trkpt lat="49.75261" lon="0.96298">
        <ele>129.79359436035</ele>
        <time>2016-08-11T14:57:38Z</time>
      </trkpt>
      <trkpt lat="49.75255" lon="0.96289">
        <ele>130.0891418457</ele>
        <time>2016-08-11T14:57:47Z</time>
      </trkpt>
      <trkpt lat="49.75251" lon="0.96276">
        <ele>130.45500183105</ele>
        <time>2016-08-11T14:57:53Z</time>
      </trkpt>
      <trkpt lat="49.75246" lon="0.96261">
        <ele>130.8565826416</ele>
        <time>2016-08-11T14:58:03Z</time>
      </trkpt>
      <trkpt lat="49.75243" lon="0.96252">
        <ele>130.8565826416</ele>
        <time>2016-08-11T14:58:07Z</time>
      </trkpt>
      <trkpt lat="49.75235" lon="0.9624">
        <ele>131.56434631348</ele>
        <time>2016-08-11T14:58:18Z</time>
      </trkpt>
      <trkpt lat="49.75229" lon="0.96234">
        <ele>131.56434631348</ele>
        <time>2016-08-11T14:58:23Z</time>
      </trkpt>
      <trkpt lat="49.75217" lon="0.96227">
        <ele>132.28039550781</ele>
        <time>2016-08-11T14:58:32Z</time>
      </trkpt>
      <trkpt lat="49.75212" lon="0.96227">
        <ele>132.28039550781</ele>
        <time>2016-08-11T14:58:37Z</time>
      </trkpt>
      <trkpt lat="49.75204" lon="0.9623">
        <ele>133.11782836914</ele>
        <time>2016-08-11T14:58:42Z</time>
      </trkpt>
      <trkpt lat="49.75198" lon="0.96231">
        <ele>133.11782836914</ele>
        <time>2016-08-11T14:58:47Z</time>
      </trkpt>
      <trkpt lat="49.75194" lon="0.96231">
        <ele>133.63345336914</ele>
        <time>2016-08-11T14:58:52Z</time>
      </trkpt>
      <trkpt lat="49.75188" lon="0.96234">
        <ele>133.63345336914</ele>
        <time>2016-08-11T14:58:57Z</time>
      </trkpt>
      <trkpt lat="49.75175" lon="0.9623">
        <ele>133.54725646973</ele>
        <time>2016-08-11T14:59:08Z</time>
      </trkpt>
      <trkpt lat="49.75168" lon="0.96228">
        <ele>133.54725646973</ele>
        <time>2016-08-11T14:59:12Z</time>
      </trkpt>
      <trkpt lat="49.75164" lon="0.96224">
        <ele>133.52381896973</ele>
        <time>2016-08-11T14:59:17Z</time>
      </trkpt>
      <trkpt lat="49.75159" lon="0.96215">
        <ele>133.52381896973</ele>
        <time>2016-08-11T14:59:23Z</time>
      </trkpt>
      <trkpt lat="49.75153" lon="0.96209">
        <ele>133.60229492188</ele>
        <time>2016-08-11T14:59:28Z</time>
      </trkpt>
      <trkpt lat="49.75145" lon="0.96202">
        <ele>133.60229492188</ele>
        <time>2016-08-11T14:59:32Z</time>
      </trkpt>
      <trkpt lat="49.75133" lon="0.96197">
        <ele>133.50160217285</ele>
        <time>2016-08-11T14:59:44Z</time>
      </trkpt>
      <trkpt lat="49.75129" lon="0.96197">
        <ele>133.50160217285</ele>
        <time>2016-08-11T14:59:47Z</time>
      </trkpt>
      <trkpt lat="49.75118" lon="0.96201">
        <ele>133.81214904785</ele>
        <time>2016-08-11T14:59:57Z</time>
      </trkpt>
      <trkpt lat="49.75109" lon="0.96204">
        <ele>133.81214904785</ele>
        <time>2016-08-11T15:00:02Z</time>
      </trkpt>
      <trkpt lat="49.75103" lon="0.96205">
        <ele>134.05656433105</ele>
        <time>2016-08-11T15:00:07Z</time>
      </trkpt>
      <trkpt lat="49.75099" lon="0.96208">
        <ele>134.05656433105</ele>
        <time>2016-08-11T15:00:12Z</time>
      </trkpt>
      <trkpt lat="49.75094" lon="0.96208">
        <ele>134.16748046875</ele>
        <time>2016-08-11T15:00:17Z</time>
      </trkpt>
      <trkpt lat="49.75088" lon="0.96213">
        <ele>134.16748046875</ele>
        <time>2016-08-11T15:00:22Z</time>
      </trkpt>
      <trkpt lat="49.75081" lon="0.96214">
        <ele>134.02516174316</ele>
        <time>2016-08-11T15:00:27Z</time>
      </trkpt>
      <trkpt lat="49.75076" lon="0.96218">
        <ele>134.02516174316</ele>
        <time>2016-08-11T15:00:33Z</time>
      </trkpt>
      <trkpt lat="49.7507" lon="0.9622">
        <ele>134.18235778809</ele>
        <time>2016-08-11T15:00:37Z</time>
      </trkpt>
      <trkpt lat="49.75055" lon="0.96223">
        <ele>134.19918823242</ele>
        <time>2016-08-11T15:00:49Z</time>
      </trkpt>
      <trkpt lat="49.75049" lon="0.96225">
        <ele>134.19918823242</ele>
        <time>2016-08-11T15:00:53Z</time>
      </trkpt>
      <trkpt lat="49.75043" lon="0.96224">
        <ele>133.79820251465</ele>
        <time>2016-08-11T15:00:57Z</time>
      </trkpt>
      <trkpt lat="49.75039" lon="0.96222">
        <ele>133.79820251465</ele>
        <time>2016-08-11T15:01:02Z</time>
      </trkpt>
      <trkpt lat="49.75034" lon="0.96217">
        <ele>133.32878112793</ele>
        <time>2016-08-11T15:01:07Z</time>
      </trkpt>
      <trkpt lat="49.75031" lon="0.9621">
        <ele>133.32878112793</ele>
        <time>2016-08-11T15:01:13Z</time>
      </trkpt>
      <trkpt lat="49.75024" lon="0.96192">
        <ele>133.15803527832</ele>
        <time>2016-08-11T15:01:22Z</time>
      </trkpt>
      <trkpt lat="49.75024" lon="0.96186">
        <ele>133.15803527832</ele>
        <time>2016-08-11T15:01:27Z</time>
      </trkpt>
      <trkpt lat="49.75022" lon="0.96168">
        <ele>133.1929473877</ele>
        <time>2016-08-11T15:01:37Z</time>
      </trkpt>
      <trkpt lat="49.75019" lon="0.96161">
        <ele>133.1929473877</ele>
        <time>2016-08-11T15:01:42Z</time>
      </trkpt>
      <trkpt lat="49.7501" lon="0.9614">
        <ele>132.79911804199</ele>
        <time>2016-08-11T15:01:52Z</time>
      </trkpt>
      <trkpt lat="49.75005" lon="0.96136">
        <ele>132.79911804199</ele>
        <time>2016-08-11T15:01:58Z</time>
      </trkpt>
      <trkpt lat="49.74991" lon="0.96138">
        <ele>132.68695068359</ele>
        <time>2016-08-11T15:02:07Z</time>
      </trkpt>
      <trkpt lat="49.74985" lon="0.96138">
        <ele>132.68695068359</ele>
        <time>2016-08-11T15:02:12Z</time>
      </trkpt>
      <trkpt lat="49.74981" lon="0.96142">
        <ele>131.95742797852</ele>
        <time>2016-08-11T15:02:17Z</time>
      </trkpt>
      <trkpt lat="49.74972" lon="0.9615">
        <ele>132.17155456543</ele>
        <time>2016-08-11T15:02:32Z</time>
      </trkpt>
      <trkpt lat="49.74972" lon="0.96151">
        <ele>132.17155456543</ele>
        <time>2016-08-11T15:02:37Z</time>
      </trkpt>
      <trkpt lat="49.74972" lon="0.96151">
        <ele>132.17155456543</ele>
        <time>2016-08-11T15:02:47Z</time>
      </trkpt>
      <trkpt lat="49.74973" lon="0.96152">
        <ele>132.17155456543</ele>
        <time>2016-08-11T15:02:52Z</time>
      </trkpt>
      <trkpt lat="49.74975" lon="0.96147">
        <ele>132.17155456543</ele>
        <time>2016-08-11T15:03:03Z</time>
      </trkpt>
      <trkpt lat="49.74976" lon="0.96149">
        <ele>132.17155456543</ele>
        <time>2016-08-11T15:03:07Z</time>
      </trkpt>
      <trkpt lat="49.74975" lon="0.9615">
        <ele>132.17155456543</ele>
        <time>2016-08-11T15:03:17Z</time>
      </trkpt>
      <trkpt lat="49.74974" lon="0.96151">
        <ele>132.81307983398</ele>
        <time>2016-08-11T15:03:22Z</time>
      </trkpt>
      <trkpt lat="49.74967" lon="0.96154">
        <ele>132.81307983398</ele>
        <time>2016-08-11T15:03:33Z</time>
      </trkpt>
      <trkpt lat="49.74967" lon="0.96156">
        <ele>132.81307983398</ele>
        <time>2016-08-11T15:03:37Z</time>
      </trkpt>
      <trkpt lat="49.74967" lon="0.96155">
        <ele>132.81307983398</ele>
        <time>2016-08-11T15:03:48Z</time>
      </trkpt>
      <trkpt lat="49.74966" lon="0.96155">
        <ele>132.81307983398</ele>
        <time>2016-08-11T15:03:52Z</time>
      </trkpt>
      <trkpt lat="49.74964" lon="0.96155">
        <ele>133.37365722656</ele>
        <time>2016-08-11T15:04:02Z</time>
      </trkpt>
      <trkpt lat="49.74958" lon="0.96161">
        <ele>133.37365722656</ele>
        <time>2016-08-11T15:04:07Z</time>
      </trkpt>
      <trkpt lat="49.74948" lon="0.96164">
        <ele>133.23835754395</ele>
        <time>2016-08-11T15:04:18Z</time>
      </trkpt>
      <trkpt lat="49.74942" lon="0.96171">
        <ele>133.23835754395</ele>
        <time>2016-08-11T15:04:24Z</time>
      </trkpt>
      <trkpt lat="49.74925" lon="0.9619">
        <ele>133.25166320801</ele>
        <time>2016-08-11T15:04:39Z</time>
      </trkpt>
      <trkpt lat="49.74911" lon="0.96208">
        <ele>133.35974121094</ele>
        <time>2016-08-11T15:04:52Z</time>
      </trkpt>
      <trkpt lat="49.74906" lon="0.96214">
        <ele>133.35974121094</ele>
        <time>2016-08-11T15:04:58Z</time>
      </trkpt>
      <trkpt lat="49.74895" lon="0.96225">
        <ele>134.03123474121</ele>
        <time>2016-08-11T15:05:08Z</time>
      </trkpt>
      <trkpt lat="49.74891" lon="0.9623">
        <ele>134.03123474121</ele>
        <time>2016-08-11T15:05:12Z</time>
      </trkpt>
      <trkpt lat="49.7488" lon="0.96243">
        <ele>134.60354614258</ele>
        <time>2016-08-11T15:05:23Z</time>
      </trkpt>
      <trkpt lat="49.74875" lon="0.96247">
        <ele>134.60354614258</ele>
        <time>2016-08-11T15:05:27Z</time>
      </trkpt>
      <trkpt lat="49.74866" lon="0.96254">
        <ele>134.9962310791</ele>
        <time>2016-08-11T15:05:37Z</time>
      </trkpt>
      <trkpt lat="49.7486" lon="0.96256">
        <ele>134.9962310791</ele>
        <time>2016-08-11T15:05:42Z</time>
      </trkpt>
      <trkpt lat="49.7485" lon="0.96267">
        <ele>134.74612426758</ele>
        <time>2016-08-11T15:05:53Z</time>
      </trkpt>
      <trkpt lat="49.74846" lon="0.9627">
        <ele>134.74612426758</ele>
        <time>2016-08-11T15:05:57Z</time>
      </trkpt>
      <trkpt lat="49.74834" lon="0.96281">
        <ele>134.2473449707</ele>
        <time>2016-08-11T15:06:08Z</time>
      </trkpt>
      <trkpt lat="49.74828" lon="0.96285">
        <ele>134.2473449707</ele>
        <time>2016-08-11T15:06:13Z</time>
      </trkpt>
      <trkpt lat="49.74819" lon="0.96291">
        <ele>133.73606872559</ele>
        <time>2016-08-11T15:06:23Z</time>
      </trkpt>
      <trkpt lat="49.74812" lon="0.96296">
        <ele>133.73606872559</ele>
        <time>2016-08-11T15:06:29Z</time>
      </trkpt>
      <trkpt lat="49.74795" lon="0.96313">
        <ele>133.71932983398</ele>
        <time>2016-08-11T15:06:43Z</time>
      </trkpt>
      <trkpt lat="49.74778" lon="0.96321">
        <ele>133.5703125</ele>
        <time>2016-08-11T15:06:57Z</time>
      </trkpt>
      <trkpt lat="49.74775" lon="0.96325">
        <ele>133.5703125</ele>
        <time>2016-08-11T15:07:02Z</time>
      </trkpt>
      <trkpt lat="49.74761" lon="0.96335">
        <ele>132.73742675781</ele>
        <time>2016-08-11T15:07:14Z</time>
      </trkpt>
      <trkpt lat="49.74756" lon="0.96339">
        <ele>132.73742675781</ele>
        <time>2016-08-11T15:07:18Z</time>
      </trkpt>
      <trkpt lat="49.74747" lon="0.96344">
        <ele>131.8355255127</ele>
        <time>2016-08-11T15:07:27Z</time>
      </trkpt>
      <trkpt lat="49.74742" lon="0.96343">
        <ele>131.8355255127</ele>
        <time>2016-08-11T15:07:33Z</time>
      </trkpt>
      <trkpt lat="49.74737" lon="0.96349">
        <ele>131.52099609375</ele>
        <time>2016-08-11T15:07:42Z</time>
      </trkpt>
      <trkpt lat="49.74731" lon="0.96354">
        <ele>131.52099609375</ele>
        <time>2016-08-11T15:07:48Z</time>
      </trkpt>
      <trkpt lat="49.74718" lon="0.96363">
        <ele>131.44914245605</ele>
        <time>2016-08-11T15:07:58Z</time>
      </trkpt>
      <trkpt lat="49.74713" lon="0.96365">
        <ele>131.44914245605</ele>
        <time>2016-08-11T15:08:02Z</time>
      </trkpt>
      <trkpt lat="49.74701" lon="0.96373">
        <ele>131.01171875</ele>
        <time>2016-08-11T15:08:14Z</time>
      </trkpt>
      <trkpt lat="49.74695" lon="0.96377">
        <ele>131.01171875</ele>
        <time>2016-08-11T15:08:18Z</time>
      </trkpt>
      <trkpt lat="49.74687" lon="0.96385">
        <ele>130.95753479004</ele>
        <time>2016-08-11T15:08:34Z</time>
      </trkpt>
      <trkpt lat="49.74684" lon="0.9639">
        <ele>130.95753479004</ele>
        <time>2016-08-11T15:08:47Z</time>
      </trkpt>
      <trkpt lat="49.74679" lon="0.96389">
        <ele>130.95753479004</ele>
        <time>2016-08-11T15:08:52Z</time>
      </trkpt>
      <trkpt lat="49.74668" lon="0.96397">
        <ele>131.5181427002</ele>
        <time>2016-08-11T15:09:02Z</time>
      </trkpt>
      <trkpt lat="49.74662" lon="0.96401">
        <ele>131.5181427002</ele>
        <time>2016-08-11T15:09:07Z</time>
      </trkpt>
      <trkpt lat="49.74653" lon="0.96412">
        <ele>132.02725219727</ele>
        <time>2016-08-11T15:09:18Z</time>
      </trkpt>
      <trkpt lat="49.74648" lon="0.96418">
        <ele>132.02725219727</ele>
        <time>2016-08-11T15:09:22Z</time>
      </trkpt>
      <trkpt lat="49.74633" lon="0.96428">
        <ele>131.44972229004</ele>
        <time>2016-08-11T15:09:39Z</time>
      </trkpt>
      <trkpt lat="49.74623" lon="0.96417">
        <ele>131.33702087402</ele>
        <time>2016-08-11T15:09:52Z</time>
      </trkpt>
      <trkpt lat="49.74615" lon="0.96388">
        <ele>131.30949401855</ele>
        <time>2016-08-11T15:10:07Z</time>
      </trkpt>
      <trkpt lat="49.74614" lon="0.96382">
        <ele>131.30949401855</ele>
        <time>2016-08-11T15:10:12Z</time>
      </trkpt>
      <trkpt lat="49.74612" lon="0.96366">
        <ele>131.72131347656</ele>
        <time>2016-08-11T15:10:22Z</time>
      </trkpt>
      <trkpt lat="49.74609" lon="0.96354">
        <ele>131.72131347656</ele>
        <time>2016-08-11T15:10:28Z</time>
      </trkpt>
      <trkpt lat="49.74604" lon="0.96337">
        <ele>131.6743927002</ele>
        <time>2016-08-11T15:10:37Z</time>
      </trkpt>
      <trkpt lat="49.74603" lon="0.96332">
        <ele>131.6743927002</ele>
        <time>2016-08-11T15:10:42Z</time>
      </trkpt>
      <trkpt lat="49.74597" lon="0.96311">
        <ele>131.83666992188</ele>
        <time>2016-08-11T15:10:52Z</time>
      </trkpt>
      <trkpt lat="49.74594" lon="0.96303">
        <ele>131.83666992188</ele>
        <time>2016-08-11T15:10:57Z</time>
      </trkpt>
      <trkpt lat="49.74589" lon="0.96281">
        <ele>132.17793273926</ele>
        <time>2016-08-11T15:11:13Z</time>
      </trkpt>
      <trkpt lat="49.74585" lon="0.96274">
        <ele>132.17793273926</ele>
        <time>2016-08-11T15:11:17Z</time>
      </trkpt>
      <trkpt lat="49.74579" lon="0.96256">
        <ele>132.92901611328</ele>
        <time>2016-08-11T15:11:29Z</time>
      </trkpt>
      <trkpt lat="49.74576" lon="0.96251">
        <ele>132.92901611328</ele>
        <time>2016-08-11T15:11:32Z</time>
      </trkpt>
      <trkpt lat="49.7457" lon="0.96236">
        <ele>133.66864013672</ele>
        <time>2016-08-11T15:11:42Z</time>
      </trkpt>
      <trkpt lat="49.74568" lon="0.96229">
        <ele>133.66864013672</ele>
        <time>2016-08-11T15:11:48Z</time>
      </trkpt>
      <trkpt lat="49.74562" lon="0.96213">
        <ele>134.66934204102</ele>
        <time>2016-08-11T15:11:57Z</time>
      </trkpt>
      <trkpt lat="49.74558" lon="0.96205">
        <ele>134.66934204102</ele>
        <time>2016-08-11T15:12:02Z</time>
      </trkpt>
      <trkpt lat="49.74551" lon="0.9619">
        <ele>135.50561523438</ele>
        <time>2016-08-11T15:12:13Z</time>
      </trkpt>
      <trkpt lat="49.74549" lon="0.96181">
        <ele>135.50561523438</ele>
        <time>2016-08-11T15:12:18Z</time>
      </trkpt>
      <trkpt lat="49.74542" lon="0.96165">
        <ele>136.43222045898</ele>
        <time>2016-08-11T15:12:27Z</time>
      </trkpt>
      <trkpt lat="49.74538" lon="0.96156">
        <ele>136.43222045898</ele>
        <time>2016-08-11T15:12:33Z</time>
      </trkpt>
      <trkpt lat="49.7453" lon="0.9614">
        <ele>137.35345458984</ele>
        <time>2016-08-11T15:12:44Z</time>
      </trkpt>
      <trkpt lat="49.74527" lon="0.96133">
        <ele>137.35345458984</ele>
        <time>2016-08-11T15:12:47Z</time>
      </trkpt>
      <trkpt lat="49.74519" lon="0.96115">
        <ele>138.19514465332</ele>
        <time>2016-08-11T15:12:59Z</time>
      </trkpt>
      <trkpt lat="49.74516" lon="0.96108">
        <ele>138.19514465332</ele>
        <time>2016-08-11T15:13:03Z</time>
      </trkpt>
      <trkpt lat="49.74513" lon="0.961">
        <ele>139.04731750488</ele>
        <time>2016-08-11T15:13:07Z</time>
      </trkpt>
      <trkpt lat="49.74507" lon="0.96084">
        <ele>139.93576049805</ele>
        <time>2016-08-11T15:13:18Z</time>
      </trkpt>
      <trkpt lat="49.74505" lon="0.96076">
        <ele>139.93576049805</ele>
        <time>2016-08-11T15:13:22Z</time>
      </trkpt>
      <trkpt lat="49.74499" lon="0.96061">
        <ele>140.78341674805</ele>
        <time>2016-08-11T15:13:32Z</time>
      </trkpt>
      <trkpt lat="49.74488" lon="0.96035">
        <ele>141.50466918945</ele>
        <time>2016-08-11T15:13:48Z</time>
      </trkpt>
      <trkpt lat="49.74485" lon="0.96026">
        <ele>141.50466918945</ele>
        <time>2016-08-11T15:13:52Z</time>
      </trkpt>
      <trkpt lat="49.74478" lon="0.96008">
        <ele>142.36640930176</ele>
        <time>2016-08-11T15:14:03Z</time>
      </trkpt>
      <trkpt lat="49.74477" lon="0.96002">
        <ele>142.36640930176</ele>
        <time>2016-08-11T15:14:07Z</time>
      </trkpt>
      <trkpt lat="49.74469" lon="0.95982">
        <ele>143.01034545898</ele>
        <time>2016-08-11T15:14:17Z</time>
      </trkpt>
      <trkpt lat="49.74465" lon="0.95969">
        <ele>143.60954284668</ele>
        <time>2016-08-11T15:14:23Z</time>
      </trkpt>
      <trkpt lat="49.74461" lon="0.95953">
        <ele>144.0651550293</ele>
        <time>2016-08-11T15:14:33Z</time>
      </trkpt>
      <trkpt lat="49.74459" lon="0.95944">
        <ele>144.0651550293</ele>
        <time>2016-08-11T15:14:37Z</time>
      </trkpt>
      <trkpt lat="49.74454" lon="0.95924">
        <ele>144.19953918457</ele>
        <time>2016-08-11T15:14:48Z</time>
      </trkpt>
      <trkpt lat="49.74454" lon="0.9592">
        <ele>144.19953918457</ele>
        <time>2016-08-11T15:14:52Z</time>
      </trkpt>
      <trkpt lat="49.74448" lon="0.95897">
        <ele>144.16613769531</ele>
        <time>2016-08-11T15:15:02Z</time>
      </trkpt>
      <trkpt lat="49.74446" lon="0.95887">
        <ele>144.16613769531</ele>
        <time>2016-08-11T15:15:08Z</time>
      </trkpt>
      <trkpt lat="49.74442" lon="0.95868">
        <ele>144.10762023926</ele>
        <time>2016-08-11T15:15:17Z</time>
      </trkpt>
      <trkpt lat="49.7444" lon="0.9586">
        <ele>144.10762023926</ele>
        <time>2016-08-11T15:15:22Z</time>
      </trkpt>
      <trkpt lat="49.74434" lon="0.9583">
        <ele>144.22833251953</ele>
        <time>2016-08-11T15:15:37Z</time>
      </trkpt>
      <trkpt lat="49.74433" lon="0.95822">
        <ele>144.22833251953</ele>
        <time>2016-08-11T15:15:42Z</time>
      </trkpt>
      <trkpt lat="49.74429" lon="0.958">
        <ele>144.21278381348</ele>
        <time>2016-08-11T15:15:53Z</time>
      </trkpt>
      <trkpt lat="49.74427" lon="0.95793">
        <ele>144.21278381348</ele>
        <time>2016-08-11T15:15:57Z</time>
      </trkpt>
      <trkpt lat="49.74424" lon="0.95778">
        <ele>144.08609008789</ele>
        <time>2016-08-11T15:16:07Z</time>
      </trkpt>
      <trkpt lat="49.74425" lon="0.9578">
        <ele>144.08609008789</ele>
        <time>2016-08-11T15:16:13Z</time>
      </trkpt>
      <trkpt lat="49.74425" lon="0.9578">
        <ele>144.08609008789</ele>
        <time>2016-08-11T15:16:18Z</time>
      </trkpt>
      <trkpt lat="49.74425" lon="0.9578">
        <ele>144.08609008789</ele>
        <time>2016-08-11T15:16:22Z</time>
      </trkpt>
      <trkpt lat="49.74425" lon="0.9578">
        <ele>144.08609008789</ele>
        <time>2016-08-11T15:16:27Z</time>
      </trkpt>
      <trkpt lat="49.74425" lon="0.9578">
        <ele>144.08609008789</ele>
        <time>2016-08-11T15:16:32Z</time>
      </trkpt>
      <trkpt lat="49.74425" lon="0.9578">
        <ele>144.08609008789</ele>
        <time>2016-08-11T15:16:37Z</time>
      </trkpt>
      <trkpt lat="49.74425" lon="0.9578">
        <ele>144.08609008789</ele>
        <time>2016-08-11T15:16:47Z</time>
      </trkpt>
      <trkpt lat="49.74425" lon="0.95779">
        <ele>144.08609008789</ele>
        <time>2016-08-11T15:16:53Z</time>
      </trkpt>
      <trkpt lat="49.74427" lon="0.9578">
        <ele>144.08609008789</ele>
        <time>2016-08-11T15:17:07Z</time>
      </trkpt>
      <trkpt lat="49.74427" lon="0.95783">
        <ele>144.08609008789</ele>
        <time>2016-08-11T15:17:18Z</time>
      </trkpt>
      <trkpt lat="49.74426" lon="0.95782">
        <ele>144.08609008789</ele>
        <time>2016-08-11T15:17:22Z</time>
      </trkpt>
      <trkpt lat="49.74427" lon="0.95781">
        <ele>144.08609008789</ele>
        <time>2016-08-11T15:17:27Z</time>
      </trkpt>
      <trkpt lat="49.74426" lon="0.95781">
        <ele>144.08609008789</ele>
        <time>2016-08-11T15:17:38Z</time>
      </trkpt>
      <trkpt lat="49.74425" lon="0.95782">
        <ele>144.08609008789</ele>
        <time>2016-08-11T15:17:42Z</time>
      </trkpt>
      <trkpt lat="49.74423" lon="0.95772">
        <ele>144.10246276855</ele>
        <time>2016-08-11T15:17:52Z</time>
      </trkpt>
      <trkpt lat="49.7442" lon="0.95763">
        <ele>144.10246276855</ele>
        <time>2016-08-11T15:17:57Z</time>
      </trkpt>
      <trkpt lat="49.74417" lon="0.95746">
        <ele>144.41055297852</ele>
        <time>2016-08-11T15:18:07Z</time>
      </trkpt>
      <trkpt lat="49.74415" lon="0.95738">
        <ele>144.41055297852</ele>
        <time>2016-08-11T15:18:12Z</time>
      </trkpt>
      <trkpt lat="49.74411" lon="0.95718">
        <ele>144.83030700684</ele>
        <time>2016-08-11T15:18:23Z</time>
      </trkpt>
      <trkpt lat="49.7441" lon="0.9571">
        <ele>144.83030700684</ele>
        <time>2016-08-11T15:18:28Z</time>
      </trkpt>
      <trkpt lat="49.74404" lon="0.95686">
        <ele>144.99279785156</ele>
        <time>2016-08-11T15:18:44Z</time>
      </trkpt>
      <trkpt lat="49.74403" lon="0.95681">
        <ele>144.99279785156</ele>
        <time>2016-08-11T15:18:47Z</time>
      </trkpt>
      <trkpt lat="49.744" lon="0.95666">
        <ele>145.17665100098</ele>
        <time>2016-08-11T15:18:53Z</time>
      </trkpt>
      <trkpt lat="49.744" lon="0.95663">
        <ele>145.17665100098</ele>
        <time>2016-08-11T15:18:57Z</time>
      </trkpt>
      <trkpt lat="49.74396" lon="0.95653">
        <ele>144.61676025391</ele>
        <time>2016-08-11T15:19:12Z</time>
      </trkpt>
      <trkpt lat="49.74395" lon="0.95649">
        <ele>144.61676025391</ele>
        <time>2016-08-11T15:19:17Z</time>
      </trkpt>
      <trkpt lat="49.74393" lon="0.9562">
        <ele>144.56623840332</ele>
        <time>2016-08-11T15:19:29Z</time>
      </trkpt>
      <trkpt lat="49.74392" lon="0.95612">
        <ele>144.56623840332</ele>
        <time>2016-08-11T15:19:32Z</time>
      </trkpt>
      <trkpt lat="49.74387" lon="0.9559">
        <ele>145.46420288086</ele>
        <time>2016-08-11T15:19:42Z</time>
      </trkpt>
      <trkpt lat="49.74381" lon="0.95574">
        <ele>145.76930236816</ele>
        <time>2016-08-11T15:19:48Z</time>
      </trkpt>
      <trkpt lat="49.74372" lon="0.95553">
        <ele>146.04385375977</ele>
        <time>2016-08-11T15:19:57Z</time>
      </trkpt>
      <trkpt lat="49.74367" lon="0.95543">
        <ele>146.04385375977</ele>
        <time>2016-08-11T15:20:02Z</time>
      </trkpt>
      <trkpt lat="49.74359" lon="0.95517">
        <ele>145.87223815918</ele>
        <time>2016-08-11T15:20:13Z</time>
      </trkpt>
      <trkpt lat="49.74359" lon="0.95512">
        <ele>145.87223815918</ele>
        <time>2016-08-11T15:20:17Z</time>
      </trkpt>
      <trkpt lat="49.74352" lon="0.95489">
        <ele>145.82173156738</ele>
        <time>2016-08-11T15:20:29Z</time>
      </trkpt>
      <trkpt lat="49.74351" lon="0.95483">
        <ele>145.82173156738</ele>
        <time>2016-08-11T15:20:32Z</time>
      </trkpt>
      <trkpt lat="49.74346" lon="0.95466">
        <ele>145.84115600586</ele>
        <time>2016-08-11T15:20:48Z</time>
      </trkpt>
      <trkpt lat="49.74344" lon="0.95451">
        <ele>145.10473632812</ele>
        <time>2016-08-11T15:20:53Z</time>
      </trkpt>
      <trkpt lat="49.74341" lon="0.95436">
        <ele>143.94465637207</ele>
        <time>2016-08-11T15:21:02Z</time>
      </trkpt>
      <trkpt lat="49.74338" lon="0.95426">
        <ele>143.94465637207</ele>
        <time>2016-08-11T15:21:07Z</time>
      </trkpt>
      <trkpt lat="49.74335" lon="0.95418">
        <ele>142.75636291504</ele>
        <time>2016-08-11T15:21:12Z</time>
      </trkpt>
      <trkpt lat="49.74332" lon="0.95406">
        <ele>142.75636291504</ele>
        <time>2016-08-11T15:21:17Z</time>
      </trkpt>
      <trkpt lat="49.7433" lon="0.95401">
        <ele>141.76223754883</ele>
        <time>2016-08-11T15:21:23Z</time>
      </trkpt>
      <trkpt lat="49.7432" lon="0.95368">
        <ele>141.15325927734</ele>
        <time>2016-08-11T15:21:38Z</time>
      </trkpt>
      <trkpt lat="49.74313" lon="0.95341">
        <ele>140.26950073242</ele>
        <time>2016-08-11T15:21:52Z</time>
      </trkpt>
      <trkpt lat="49.7431" lon="0.95331">
        <ele>140.26950073242</ele>
        <time>2016-08-11T15:21:57Z</time>
      </trkpt>
      <trkpt lat="49.74306" lon="0.95312">
        <ele>139.78273010254</ele>
        <time>2016-08-11T15:22:07Z</time>
      </trkpt>
      <trkpt lat="49.74303" lon="0.95302">
        <ele>139.78273010254</ele>
        <time>2016-08-11T15:22:12Z</time>
      </trkpt>
      <trkpt lat="49.743" lon="0.95284">
        <ele>139.43522644043</ele>
        <time>2016-08-11T15:22:23Z</time>
      </trkpt>
      <trkpt lat="49.74297" lon="0.95275">
        <ele>139.43522644043</ele>
        <time>2016-08-11T15:22:28Z</time>
      </trkpt>
      <trkpt lat="49.74292" lon="0.9526">
        <ele>139.0020904541</ele>
        <time>2016-08-11T15:22:38Z</time>
      </trkpt>
      <trkpt lat="49.74288" lon="0.95248">
        <ele>139.0020904541</ele>
        <time>2016-08-11T15:22:43Z</time>
      </trkpt>
      <trkpt lat="49.74282" lon="0.95234">
        <ele>138.26075744629</ele>
        <time>2016-08-11T15:22:52Z</time>
      </trkpt>
      <trkpt lat="49.74281" lon="0.95227">
        <ele>138.26075744629</ele>
        <time>2016-08-11T15:22:57Z</time>
      </trkpt>
      <trkpt lat="49.74269" lon="0.95206">
        <ele>137.97134399414</ele>
        <time>2016-08-11T15:23:12Z</time>
      </trkpt>
      <trkpt lat="49.74267" lon="0.95203">
        <ele>137.97134399414</ele>
        <time>2016-08-11T15:23:17Z</time>
      </trkpt>
      <trkpt lat="49.74259" lon="0.95191">
        <ele>137.2804107666</ele>
        <time>2016-08-11T15:23:27Z</time>
      </trkpt>
      <trkpt lat="49.74255" lon="0.95184">
        <ele>137.2804107666</ele>
        <time>2016-08-11T15:23:33Z</time>
      </trkpt>
      <trkpt lat="49.74252" lon="0.95177">
        <ele>136.92588806152</ele>
        <time>2016-08-11T15:23:42Z</time>
      </trkpt>
      <trkpt lat="49.74243" lon="0.95167">
        <ele>136.7113494873</ele>
        <time>2016-08-11T15:23:47Z</time>
      </trkpt>
      <trkpt lat="49.74235" lon="0.95154">
        <ele>136.98762512207</ele>
        <time>2016-08-11T15:23:57Z</time>
      </trkpt>
      <trkpt lat="49.74235" lon="0.95156">
        <ele>136.98762512207</ele>
        <time>2016-08-11T15:24:02Z</time>
      </trkpt>
      <trkpt lat="49.74229" lon="0.95152">
        <ele>136.98762512207</ele>
        <time>2016-08-11T15:24:12Z</time>
      </trkpt>
      <trkpt lat="49.74227" lon="0.95144">
        <ele>137.18481445312</ele>
        <time>2016-08-11T15:24:17Z</time>
      </trkpt>
      <trkpt lat="49.74227" lon="0.95144">
        <ele>137.18481445312</ele>
        <time>2016-08-11T15:24:29Z</time>
      </trkpt>
      <trkpt lat="49.74227" lon="0.95143">
        <ele>137.18481445312</ele>
        <time>2016-08-11T15:24:32Z</time>
      </trkpt>
      <trkpt lat="49.74227" lon="0.95143">
        <ele>137.18481445312</ele>
        <time>2016-08-11T15:24:37Z</time>
      </trkpt>
      <trkpt lat="49.74229" lon="0.95145">
        <ele>137.18481445312</ele>
        <time>2016-08-11T15:24:47Z</time>
      </trkpt>
      <trkpt lat="49.7423" lon="0.95146">
        <ele>137.18481445312</ele>
        <time>2016-08-11T15:24:52Z</time>
      </trkpt>
      <trkpt lat="49.7423" lon="0.95147">
        <ele>137.18481445312</ele>
        <time>2016-08-11T15:25:03Z</time>
      </trkpt>
      <trkpt lat="49.7423" lon="0.95145">
        <ele>137.18481445312</ele>
        <time>2016-08-11T15:25:08Z</time>
      </trkpt>
      <trkpt lat="49.74226" lon="0.95136">
        <ele>137.20739746094</ele>
        <time>2016-08-11T15:25:17Z</time>
      </trkpt>
      <trkpt lat="49.74225" lon="0.95129">
        <ele>137.20739746094</ele>
        <time>2016-08-11T15:25:22Z</time>
      </trkpt>
      <trkpt lat="49.7422" lon="0.95112">
        <ele>137.38523864746</ele>
        <time>2016-08-11T15:25:33Z</time>
      </trkpt>
      <trkpt lat="49.74218" lon="0.95105">
        <ele>137.38523864746</ele>
        <time>2016-08-11T15:25:37Z</time>
      </trkpt>
      <trkpt lat="49.74212" lon="0.95081">
        <ele>137.07234191895</ele>
        <time>2016-08-11T15:25:53Z</time>
      </trkpt>
      <trkpt lat="49.7421" lon="0.95072">
        <ele>137.07234191895</ele>
        <time>2016-08-11T15:25:57Z</time>
      </trkpt>
      <trkpt lat="49.74205" lon="0.95054">
        <ele>136.56500244141</ele>
        <time>2016-08-11T15:26:08Z</time>
      </trkpt>
      <trkpt lat="49.74197" lon="0.95026">
        <ele>135.61947631836</ele>
        <time>2016-08-11T15:26:23Z</time>
      </trkpt>
      <trkpt lat="49.74193" lon="0.95018">
        <ele>135.61947631836</ele>
        <time>2016-08-11T15:26:27Z</time>
      </trkpt>
      <trkpt lat="49.74189" lon="0.95002">
        <ele>134.58752441406</ele>
        <time>2016-08-11T15:26:37Z</time>
      </trkpt>
      <trkpt lat="49.74186" lon="0.94993">
        <ele>134.58752441406</ele>
        <time>2016-08-11T15:26:42Z</time>
      </trkpt>
      <trkpt lat="49.74181" lon="0.94974">
        <ele>133.76644897461</ele>
        <time>2016-08-11T15:26:53Z</time>
      </trkpt>
      <trkpt lat="49.74178" lon="0.94965">
        <ele>133.76644897461</ele>
        <time>2016-08-11T15:26:58Z</time>
      </trkpt>
      <trkpt lat="49.74173" lon="0.94948">
        <ele>133.05641174316</ele>
        <time>2016-08-11T15:27:07Z</time>
      </trkpt>
      <trkpt lat="49.7417" lon="0.9494">
        <ele>133.05641174316</ele>
        <time>2016-08-11T15:27:12Z</time>
      </trkpt>
      <trkpt lat="49.74165" lon="0.94924">
        <ele>132.32127380371</ele>
        <time>2016-08-11T15:27:22Z</time>
      </trkpt>
      <trkpt lat="49.74161" lon="0.94916">
        <ele>132.32127380371</ele>
        <time>2016-08-11T15:27:27Z</time>
      </trkpt>
      <trkpt lat="49.74152" lon="0.94905">
        <ele>131.33407592773</ele>
        <time>2016-08-11T15:27:39Z</time>
      </trkpt>
      <trkpt lat="49.74149" lon="0.94899">
        <ele>131.33407592773</ele>
        <time>2016-08-11T15:27:42Z</time>
      </trkpt>
      <trkpt lat="49.74137" lon="0.94878">
        <ele>129.82749938965</ele>
        <time>2016-08-11T15:27:57Z</time>
      </trkpt>
      <trkpt lat="49.74133" lon="0.94871">
        <ele>129.82749938965</ele>
        <time>2016-08-11T15:28:02Z</time>
      </trkpt>
      <trkpt lat="49.74128" lon="0.94863">
        <ele>128.17498779297</ele>
        <time>2016-08-11T15:28:08Z</time>
      </trkpt>
      <trkpt lat="49.74126" lon="0.94857">
        <ele>128.17498779297</ele>
        <time>2016-08-11T15:28:14Z</time>
      </trkpt>
      <trkpt lat="49.74124" lon="0.94852">
        <ele>128.17498779297</ele>
        <time>2016-08-11T15:28:17Z</time>
      </trkpt>
      <trkpt lat="49.74116" lon="0.94839">
        <ele>127.02547454834</ele>
        <time>2016-08-11T15:28:28Z</time>
      </trkpt>
      <trkpt lat="49.74113" lon="0.94833">
        <ele>127.02547454834</ele>
        <time>2016-08-11T15:28:33Z</time>
      </trkpt>
      <trkpt lat="49.74113" lon="0.94818">
        <ele>125.42237854004</ele>
        <time>2016-08-11T15:28:42Z</time>
      </trkpt>
      <trkpt lat="49.74113" lon="0.94811">
        <ele>125.42237854004</ele>
        <time>2016-08-11T15:28:48Z</time>
      </trkpt>
      <trkpt lat="49.74109" lon="0.94804">
        <ele>124.36843109131</ele>
        <time>2016-08-11T15:28:57Z</time>
      </trkpt>
      <trkpt lat="49.74108" lon="0.94801">
        <ele>124.36843109131</ele>
        <time>2016-08-11T15:29:02Z</time>
      </trkpt>
      <trkpt lat="49.74106" lon="0.948">
        <ele>124.36843109131</ele>
        <time>2016-08-11T15:29:13Z</time>
      </trkpt>
      <trkpt lat="49.74106" lon="0.94799">
        <ele>124.36843109131</ele>
        <time>2016-08-11T15:29:17Z</time>
      </trkpt>
      <trkpt lat="49.74106" lon="0.94798">
        <ele>124.36843109131</ele>
        <time>2016-08-11T15:29:27Z</time>
      </trkpt>
      <trkpt lat="49.74109" lon="0.94788">
        <ele>123.40761566162</ele>
        <time>2016-08-11T15:29:33Z</time>
      </trkpt>
      <trkpt lat="49.74108" lon="0.94748">
        <ele>121.49739837646</ele>
        <time>2016-08-11T15:29:47Z</time>
      </trkpt>
      <trkpt lat="49.74109" lon="0.94739">
        <ele>121.49739837646</ele>
        <time>2016-08-11T15:29:52Z</time>
      </trkpt>
      <trkpt lat="49.74107" lon="0.9471">
        <ele>120.09548187256</ele>
        <time>2016-08-11T15:30:02Z</time>
      </trkpt>
      <trkpt lat="49.7411" lon="0.94696">
        <ele>118.11547088623</ele>
        <time>2016-08-11T15:30:07Z</time>
      </trkpt>
      <trkpt lat="49.74112" lon="0.94672">
        <ele>118.28482055664</ele>
        <time>2016-08-11T15:30:18Z</time>
      </trkpt>
      <trkpt lat="49.74117" lon="0.9467">
        <ele>118.28482055664</ele>
        <time>2016-08-11T15:30:23Z</time>
      </trkpt>
      <trkpt lat="49.74116" lon="0.94661">
        <ele>117.64826202393</ele>
        <time>2016-08-11T15:30:32Z</time>
      </trkpt>
      <trkpt lat="49.74124" lon="0.94653">
        <ele>117.64826202393</ele>
        <time>2016-08-11T15:30:39Z</time>
      </trkpt>
      <trkpt lat="49.74129" lon="0.94648">
        <ele>116.64025115967</ele>
        <time>2016-08-11T15:30:48Z</time>
      </trkpt>
      <trkpt lat="49.74133" lon="0.94644">
        <ele>116.64025115967</ele>
        <time>2016-08-11T15:30:52Z</time>
      </trkpt>
      <trkpt lat="49.74136" lon="0.94631">
        <ele>115.54898834229</ele>
        <time>2016-08-11T15:31:04Z</time>
      </trkpt>
      <trkpt lat="49.74138" lon="0.94624">
        <ele>115.54898834229</ele>
        <time>2016-08-11T15:31:08Z</time>
      </trkpt>
      <trkpt lat="49.74145" lon="0.94616">
        <ele>114.15169525146</ele>
        <time>2016-08-11T15:31:17Z</time>
      </trkpt>
      <trkpt lat="49.74146" lon="0.94607">
        <ele>114.15169525146</ele>
        <time>2016-08-11T15:31:22Z</time>
      </trkpt>
      <trkpt lat="49.74158" lon="0.94593">
        <ele>112.09860229492</ele>
        <time>2016-08-11T15:31:38Z</time>
      </trkpt>
      <trkpt lat="49.74163" lon="0.94587">
        <ele>112.09860229492</ele>
        <time>2016-08-11T15:31:42Z</time>
      </trkpt>
      <trkpt lat="49.74171" lon="0.94575">
        <ele>110.32118225098</ele>
        <time>2016-08-11T15:31:52Z</time>
      </trkpt>
      <trkpt lat="49.74176" lon="0.94571">
        <ele>110.32118225098</ele>
        <time>2016-08-11T15:31:58Z</time>
      </trkpt>
      <trkpt lat="49.74183" lon="0.94567">
        <ele>107.54876708984</ele>
        <time>2016-08-11T15:32:08Z</time>
      </trkpt>
      <trkpt lat="49.74189" lon="0.94562">
        <ele>107.54876708984</ele>
        <time>2016-08-11T15:32:13Z</time>
      </trkpt>
      <trkpt lat="49.74195" lon="0.94552">
        <ele>105.01337432861</ele>
        <time>2016-08-11T15:32:22Z</time>
      </trkpt>
      <trkpt lat="49.74202" lon="0.94548">
        <ele>105.01337432861</ele>
        <time>2016-08-11T15:32:27Z</time>
      </trkpt>
      <trkpt lat="49.74216" lon="0.94534">
        <ele>103.56755828857</ele>
        <time>2016-08-11T15:32:39Z</time>
      </trkpt>
      <trkpt lat="49.74222" lon="0.94531">
        <ele>103.56755828857</ele>
        <time>2016-08-11T15:32:42Z</time>
      </trkpt>
      <trkpt lat="49.74237" lon="0.94526">
        <ele>102.09578704834</ele>
        <time>2016-08-11T15:32:54Z</time>
      </trkpt>
      <trkpt lat="49.7424" lon="0.94518">
        <ele>102.09578704834</ele>
        <time>2016-08-11T15:32:59Z</time>
      </trkpt>
      <trkpt lat="49.74249" lon="0.94511">
        <ele>101.12088012695</ele>
        <time>2016-08-11T15:33:07Z</time>
      </trkpt>
      <trkpt lat="49.74254" lon="0.94507">
        <ele>101.12088012695</ele>
        <time>2016-08-11T15:33:13Z</time>
      </trkpt>
      <trkpt lat="49.7427" lon="0.94494">
        <ele>99.742248535156</ele>
        <time>2016-08-11T15:33:27Z</time>
      </trkpt>
      <trkpt lat="49.74283" lon="0.94476">
        <ele>98.783798217773</ele>
        <time>2016-08-11T15:33:44Z</time>
      </trkpt>
      <trkpt lat="49.74284" lon="0.94472">
        <ele>98.783798217773</ele>
        <time>2016-08-11T15:33:48Z</time>
      </trkpt>
      <trkpt lat="49.74292" lon="0.94464">
        <ele>97.970024108887</ele>
        <time>2016-08-11T15:33:57Z</time>
      </trkpt>
      <trkpt lat="49.74298" lon="0.9446">
        <ele>97.970024108887</ele>
        <time>2016-08-11T15:34:03Z</time>
      </trkpt>
      <trkpt lat="49.74309" lon="0.94448">
        <ele>97.434265136719</ele>
        <time>2016-08-11T15:34:14Z</time>
      </trkpt>
      <trkpt lat="49.74313" lon="0.94448">
        <ele>97.434265136719</ele>
        <time>2016-08-11T15:34:17Z</time>
      </trkpt>
      <trkpt lat="49.74315" lon="0.94439">
        <ele>96.593070983887</ele>
        <time>2016-08-11T15:34:28Z</time>
      </trkpt>
      <trkpt lat="49.74316" lon="0.94434">
        <ele>96.593070983887</ele>
        <time>2016-08-11T15:34:32Z</time>
      </trkpt>
      <trkpt lat="49.74314" lon="0.94431">
        <ele>96.593070983887</ele>
        <time>2016-08-11T15:34:43Z</time>
      </trkpt>
      <trkpt lat="49.74315" lon="0.94433">
        <ele>96.593070983887</ele>
        <time>2016-08-11T15:34:48Z</time>
      </trkpt>
      <trkpt lat="49.74315" lon="0.94434">
        <ele>96.203628540039</ele>
        <time>2016-08-11T15:34:57Z</time>
      </trkpt>
      <trkpt lat="49.74315" lon="0.94434">
        <ele>96.203628540039</ele>
        <time>2016-08-11T15:35:02Z</time>
      </trkpt>
      <trkpt lat="49.74315" lon="0.94434">
        <ele>96.203628540039</ele>
        <time>2016-08-11T15:35:12Z</time>
      </trkpt>
      <trkpt lat="49.74315" lon="0.94434">
        <ele>96.203628540039</ele>
        <time>2016-08-11T15:35:17Z</time>
      </trkpt>
      <trkpt lat="49.74307" lon="0.94436">
        <ele>96.203628540039</ele>
        <time>2016-08-11T15:35:28Z</time>
      </trkpt>
      <trkpt lat="49.74301" lon="0.9443">
        <ele>95.06388092041</ele>
        <time>2016-08-11T15:35:33Z</time>
      </trkpt>
      <trkpt lat="49.74287" lon="0.94438">
        <ele>93.618545532227</ele>
        <time>2016-08-11T15:35:44Z</time>
      </trkpt>
      <trkpt lat="49.74277" lon="0.94444">
        <ele>91.603141784668</ele>
        <time>2016-08-11T15:35:49Z</time>
      </trkpt>
      <trkpt lat="49.7426" lon="0.94441">
        <ele>90.114372253418</ele>
        <time>2016-08-11T15:36:02Z</time>
      </trkpt>
      <trkpt lat="49.74249" lon="0.94436">
        <ele>89.388679504395</ele>
        <time>2016-08-11T15:36:13Z</time>
      </trkpt>
      <trkpt lat="49.74244" lon="0.94429">
        <ele>89.388679504395</ele>
        <time>2016-08-11T15:36:17Z</time>
      </trkpt>
      <trkpt lat="49.74229" lon="0.94429">
        <ele>88.461196899414</ele>
        <time>2016-08-11T15:36:33Z</time>
      </trkpt>
      <trkpt lat="49.74222" lon="0.94427">
        <ele>88.461196899414</ele>
        <time>2016-08-11T15:36:37Z</time>
      </trkpt>
      <trkpt lat="49.74211" lon="0.9443">
        <ele>87.086967468262</ele>
        <time>2016-08-11T15:36:48Z</time>
      </trkpt>
      <trkpt lat="49.74206" lon="0.94427">
        <ele>87.086967468262</ele>
        <time>2016-08-11T15:36:52Z</time>
      </trkpt>
      <trkpt lat="49.74198" lon="0.94424">
        <ele>84.564674377441</ele>
        <time>2016-08-11T15:37:02Z</time>
      </trkpt>
      <trkpt lat="49.74192" lon="0.94429">
        <ele>84.564674377441</ele>
        <time>2016-08-11T15:37:08Z</time>
      </trkpt>
      <trkpt lat="49.74178" lon="0.9442">
        <ele>82.394920349121</ele>
        <time>2016-08-11T15:37:18Z</time>
      </trkpt>
      <trkpt lat="49.74174" lon="0.94418">
        <ele>82.394920349121</ele>
        <time>2016-08-11T15:37:22Z</time>
      </trkpt>
      <trkpt lat="49.74173" lon="0.94412">
        <ele>82.394920349121</ele>
        <time>2016-08-11T15:37:27Z</time>
      </trkpt>
      <trkpt lat="49.74166" lon="0.94409">
        <ele>79.690093994141</ele>
        <time>2016-08-11T15:37:38Z</time>
      </trkpt>
      <trkpt lat="49.74157" lon="0.94404">
        <ele>76.882987976074</ele>
        <time>2016-08-11T15:37:42Z</time>
      </trkpt>
      <trkpt lat="49.74147" lon="0.94402">
        <ele>73.510162353516</ele>
        <time>2016-08-11T15:37:53Z</time>
      </trkpt>
      <trkpt lat="49.74145" lon="0.94405">
        <ele>73.510162353516</ele>
        <time>2016-08-11T15:37:58Z</time>
      </trkpt>
      <trkpt lat="49.74133" lon="0.94405">
        <ele>70.527191162109</ele>
        <time>2016-08-11T15:38:07Z</time>
      </trkpt>
      <trkpt lat="49.74131" lon="0.94405">
        <ele>70.527191162109</ele>
        <time>2016-08-11T15:38:14Z</time>
      </trkpt>
      <trkpt lat="49.74124" lon="0.94398">
        <ele>67.31950378418</ele>
        <time>2016-08-11T15:38:23Z</time>
      </trkpt>
      <trkpt lat="49.74122" lon="0.94401">
        <ele>67.31950378418</ele>
        <time>2016-08-11T15:38:27Z</time>
      </trkpt>
      <trkpt lat="49.74106" lon="0.94401">
        <ele>63.894676208496</ele>
        <time>2016-08-11T15:38:38Z</time>
      </trkpt>
      <trkpt lat="49.74101" lon="0.94406">
        <ele>63.894676208496</ele>
        <time>2016-08-11T15:38:43Z</time>
      </trkpt>
      <trkpt lat="49.74092" lon="0.94411">
        <ele>60.937538146973</ele>
        <time>2016-08-11T15:38:54Z</time>
      </trkpt>
      <trkpt lat="49.74089" lon="0.94414">
        <ele>60.937538146973</ele>
        <time>2016-08-11T15:38:57Z</time>
      </trkpt>
      <trkpt lat="49.74078" lon="0.94419">
        <ele>58.908260345459</ele>
        <time>2016-08-11T15:39:07Z</time>
      </trkpt>
      <trkpt lat="49.74073" lon="0.94422">
        <ele>58.908260345459</ele>
        <time>2016-08-11T15:39:12Z</time>
      </trkpt>
      <trkpt lat="49.74064" lon="0.94427">
        <ele>57.495525360107</ele>
        <time>2016-08-11T15:39:23Z</time>
      </trkpt>
      <trkpt lat="49.74059" lon="0.9443">
        <ele>57.495525360107</ele>
        <time>2016-08-11T15:39:28Z</time>
      </trkpt>
      <trkpt lat="49.74048" lon="0.94438">
        <ele>56.668441772461</ele>
        <time>2016-08-11T15:39:39Z</time>
      </trkpt>
      <trkpt lat="49.74045" lon="0.9444">
        <ele>56.668441772461</ele>
        <time>2016-08-11T15:39:42Z</time>
      </trkpt>
      <trkpt lat="49.74031" lon="0.94449">
        <ele>56.497520446777</ele>
        <time>2016-08-11T15:39:58Z</time>
      </trkpt>
      <trkpt lat="49.74022" lon="0.94453">
        <ele>56.497520446777</ele>
        <time>2016-08-11T15:40:09Z</time>
      </trkpt>
      <trkpt lat="49.74022" lon="0.94451">
        <ele>56.484119415283</ele>
        <time>2016-08-11T15:40:12Z</time>
      </trkpt>
      <trkpt lat="49.74022" lon="0.94451">
        <ele>56.484119415283</ele>
        <time>2016-08-11T15:40:17Z</time>
      </trkpt>
      <trkpt lat="49.74019" lon="0.94452">
        <ele>56.484119415283</ele>
        <time>2016-08-11T15:40:28Z</time>
      </trkpt>
      <trkpt lat="49.74019" lon="0.94451">
        <ele>56.484119415283</ele>
        <time>2016-08-11T15:40:32Z</time>
      </trkpt>
      <trkpt lat="49.7402" lon="0.94453">
        <ele>56.484119415283</ele>
        <time>2016-08-11T15:40:42Z</time>
      </trkpt>
      <trkpt lat="49.74019" lon="0.94452">
        <ele>56.484119415283</ele>
        <time>2016-08-11T15:40:47Z</time>
      </trkpt>
      <trkpt lat="49.74014" lon="0.94457">
        <ele>56.915100097656</ele>
        <time>2016-08-11T15:40:57Z</time>
      </trkpt>
      <trkpt lat="49.74007" lon="0.94463">
        <ele>56.915100097656</ele>
        <time>2016-08-11T15:41:04Z</time>
      </trkpt>
      <trkpt lat="49.73999" lon="0.9447">
        <ele>57.363208770752</ele>
        <time>2016-08-11T15:41:12Z</time>
      </trkpt>
      <trkpt lat="49.73995" lon="0.94474">
        <ele>57.363208770752</ele>
        <time>2016-08-11T15:41:17Z</time>
      </trkpt>
      <trkpt lat="49.73988" lon="0.9448">
        <ele>57.792770385742</ele>
        <time>2016-08-11T15:41:28Z</time>
      </trkpt>
      <trkpt lat="49.73988" lon="0.94481">
        <ele>57.792770385742</ele>
        <time>2016-08-11T15:41:32Z</time>
      </trkpt>
      <trkpt lat="49.73978" lon="0.94497">
        <ele>58.819263458252</ele>
        <time>2016-08-11T15:41:48Z</time>
      </trkpt>
      <trkpt lat="49.73957" lon="0.9453">
        <ele>60.088973999023</ele>
        <time>2016-08-11T15:42:02Z</time>
      </trkpt>
      <trkpt lat="49.73957" lon="0.94533">
        <ele>60.088973999023</ele>
        <time>2016-08-11T15:42:07Z</time>
      </trkpt>
      <trkpt lat="49.73949" lon="0.94547">
        <ele>61.619380950928</ele>
        <time>2016-08-11T15:42:18Z</time>
      </trkpt>
      <trkpt lat="49.73946" lon="0.94551">
        <ele>61.619380950928</ele>
        <time>2016-08-11T15:42:22Z</time>
      </trkpt>
      <trkpt lat="49.73938" lon="0.94558">
        <ele>63.67098236084</ele>
        <time>2016-08-11T15:42:33Z</time>
      </trkpt>
      <trkpt lat="49.73934" lon="0.9456">
        <ele>63.67098236084</ele>
        <time>2016-08-11T15:42:39Z</time>
      </trkpt>
      <trkpt lat="49.73931" lon="0.94572">
        <ele>65.878479003906</ele>
        <time>2016-08-11T15:42:47Z</time>
      </trkpt>
      <trkpt lat="49.73931" lon="0.94574">
        <ele>65.878479003906</ele>
        <time>2016-08-11T15:42:52Z</time>
      </trkpt>
      <trkpt lat="49.73929" lon="0.94577">
        <ele>65.878479003906</ele>
        <time>2016-08-11T15:43:02Z</time>
      </trkpt>
      <trkpt lat="49.73929" lon="0.94576">
        <ele>65.878479003906</ele>
        <time>2016-08-11T15:43:07Z</time>
      </trkpt>
      <trkpt lat="49.73929" lon="0.94575">
        <ele>65.878479003906</ele>
        <time>2016-08-11T15:43:18Z</time>
      </trkpt>
      <trkpt lat="49.73929" lon="0.94575">
        <ele>65.878479003906</ele>
        <time>2016-08-11T15:43:23Z</time>
      </trkpt>
      <trkpt lat="49.73929" lon="0.94575">
        <ele>65.878479003906</ele>
        <time>2016-08-11T15:43:27Z</time>
      </trkpt>
      <trkpt lat="49.73929" lon="0.94575">
        <ele>65.878479003906</ele>
        <time>2016-08-11T15:43:32Z</time>
      </trkpt>
      <trkpt lat="49.73929" lon="0.94575">
        <ele>65.878479003906</ele>
        <time>2016-08-11T15:43:38Z</time>
      </trkpt>
      <trkpt lat="49.73909" lon="0.94601">
        <ele>66.908699035645</ele>
        <time>2016-08-11T15:43:52Z</time>
      </trkpt>
      <trkpt lat="49.73903" lon="0.94617">
        <ele>67.648246765137</ele>
        <time>2016-08-11T15:43:57Z</time>
      </trkpt>
      <trkpt lat="49.73894" lon="0.94635">
        <ele>68.040451049805</ele>
        <time>2016-08-11T15:44:07Z</time>
      </trkpt>
      <trkpt lat="49.73887" lon="0.94648">
        <ele>68.307731628418</ele>
        <time>2016-08-11T15:44:13Z</time>
      </trkpt>
      <trkpt lat="49.73885" lon="0.94657">
        <ele>68.307731628418</ele>
        <time>2016-08-11T15:44:18Z</time>
      </trkpt>
      <trkpt lat="49.73884" lon="0.94661">
        <ele>68.307731628418</ele>
        <time>2016-08-11T15:44:24Z</time>
      </trkpt>
      <trkpt lat="49.73886" lon="0.94666">
        <ele>68.339622497559</ele>
        <time>2016-08-11T15:44:27Z</time>
      </trkpt>
      <trkpt lat="49.73881" lon="0.94687">
        <ele>67.933685302734</ele>
        <time>2016-08-11T15:44:39Z</time>
      </trkpt>
      <trkpt lat="49.73875" lon="0.94694">
        <ele>67.933685302734</ele>
        <time>2016-08-11T15:44:42Z</time>
      </trkpt>
      <trkpt lat="49.73875" lon="0.94691">
        <ele>67.220756530762</ele>
        <time>2016-08-11T15:44:52Z</time>
      </trkpt>
      <trkpt lat="49.73875" lon="0.9469">
        <ele>67.220756530762</ele>
        <time>2016-08-11T15:44:57Z</time>
      </trkpt>
      <trkpt lat="49.73873" lon="0.94693">
        <ele>67.220756530762</ele>
        <time>2016-08-11T15:45:09Z</time>
      </trkpt>
      <trkpt lat="49.73873" lon="0.94693">
        <ele>67.220756530762</ele>
        <time>2016-08-11T15:45:12Z</time>
      </trkpt>
      <trkpt lat="49.73867" lon="0.94702">
        <ele>66.913940429688</ele>
        <time>2016-08-11T15:45:17Z</time>
      </trkpt>
      <trkpt lat="49.73849" lon="0.94721">
        <ele>66.361526489258</ele>
        <time>2016-08-11T15:45:27Z</time>
      </trkpt>
      <trkpt lat="49.73849" lon="0.94728">
        <ele>66.361526489258</ele>
        <time>2016-08-11T15:45:32Z</time>
      </trkpt>
      <trkpt lat="49.73843" lon="0.94746">
        <ele>63.721130371094</ele>
        <time>2016-08-11T15:45:49Z</time>
      </trkpt>
      <trkpt lat="49.7384" lon="0.94753">
        <ele>63.721130371094</ele>
        <time>2016-08-11T15:45:52Z</time>
      </trkpt>
      <trkpt lat="49.73836" lon="0.94755">
        <ele>62.292350769043</ele>
        <time>2016-08-11T15:45:57Z</time>
      </trkpt>
      <trkpt lat="49.7383" lon="0.94772">
        <ele>61.19486618042</ele>
        <time>2016-08-11T15:46:08Z</time>
      </trkpt>
      <trkpt lat="49.7383" lon="0.94773">
        <ele>61.19486618042</ele>
        <time>2016-08-11T15:46:12Z</time>
      </trkpt>
      <trkpt lat="49.73828" lon="0.94775">
        <ele>61.19486618042</ele>
        <time>2016-08-11T15:46:22Z</time>
      </trkpt>
      <trkpt lat="49.73828" lon="0.94776">
        <ele>61.19486618042</ele>
        <time>2016-08-11T15:46:27Z</time>
      </trkpt>
      <trkpt lat="49.73826" lon="0.94781">
        <ele>61.19486618042</ele>
        <time>2016-08-11T15:46:32Z</time>
      </trkpt>
      <trkpt lat="49.73817" lon="0.948">
        <ele>60.246265411377</ele>
        <time>2016-08-11T15:46:42Z</time>
      </trkpt>
      <trkpt lat="49.73812" lon="0.94813">
        <ele>59.810424804688</ele>
        <time>2016-08-11T15:46:48Z</time>
      </trkpt>
      <trkpt lat="49.73807" lon="0.94829">
        <ele>59.906085968018</ele>
        <time>2016-08-11T15:46:57Z</time>
      </trkpt>
      <trkpt lat="49.73808" lon="0.94838">
        <ele>59.906085968018</ele>
        <time>2016-08-11T15:47:02Z</time>
      </trkpt>
      <trkpt lat="49.73805" lon="0.9485">
        <ele>60.63565826416</ele>
        <time>2016-08-11T15:47:13Z</time>
      </trkpt>
      <trkpt lat="49.73807" lon="0.9485">
        <ele>60.63565826416</ele>
        <time>2016-08-11T15:47:17Z</time>
      </trkpt>
      <trkpt lat="49.73795" lon="0.94872">
        <ele>61.083545684814</ele>
        <time>2016-08-11T15:47:32Z</time>
      </trkpt>
      <trkpt lat="49.73787" lon="0.94887">
        <ele>61.28137588501</ele>
        <time>2016-08-11T15:47:48Z</time>
      </trkpt>
      <trkpt lat="49.73782" lon="0.94895">
        <ele>61.28137588501</ele>
        <time>2016-08-11T15:47:52Z</time>
      </trkpt>
      <trkpt lat="49.73774" lon="0.94908">
        <ele>62.397705078125</ele>
        <time>2016-08-11T15:48:03Z</time>
      </trkpt>
      <trkpt lat="49.73771" lon="0.94916">
        <ele>62.397705078125</ele>
        <time>2016-08-11T15:48:08Z</time>
      </trkpt>
      <trkpt lat="49.73771" lon="0.94927">
        <ele>63.149341583252</ele>
        <time>2016-08-11T15:48:17Z</time>
      </trkpt>
      <trkpt lat="49.73768" lon="0.9493">
        <ele>63.149341583252</ele>
        <time>2016-08-11T15:48:22Z</time>
      </trkpt>
      <trkpt lat="49.73758" lon="0.94949">
        <ele>63.68871307373</ele>
        <time>2016-08-11T15:48:34Z</time>
      </trkpt>
      <trkpt lat="49.73755" lon="0.94952">
        <ele>63.68871307373</ele>
        <time>2016-08-11T15:48:37Z</time>
      </trkpt>
      <trkpt lat="49.73741" lon="0.94969">
        <ele>65.080055236816</ele>
        <time>2016-08-11T15:48:49Z</time>
      </trkpt>
      <trkpt lat="49.73735" lon="0.9497">
        <ele>65.080055236816</ele>
        <time>2016-08-11T15:48:53Z</time>
      </trkpt>
      <trkpt lat="49.73738" lon="0.9498">
        <ele>66.765151977539</ele>
        <time>2016-08-11T15:49:02Z</time>
      </trkpt>
      <trkpt lat="49.73732" lon="0.94982">
        <ele>66.765151977539</ele>
        <time>2016-08-11T15:49:08Z</time>
      </trkpt>
      <trkpt lat="49.73718" lon="0.95001">
        <ele>67.102012634277</ele>
        <time>2016-08-11T15:49:22Z</time>
      </trkpt>
      <trkpt lat="49.73716" lon="0.95004">
        <ele>67.102012634277</ele>
        <time>2016-08-11T15:49:27Z</time>
      </trkpt>
      <trkpt lat="49.73703" lon="0.95009">
        <ele>66.893371582031</ele>
        <time>2016-08-11T15:49:38Z</time>
      </trkpt>
      <trkpt lat="49.73698" lon="0.95023">
        <ele>67.288131713867</ele>
        <time>2016-08-11T15:49:42Z</time>
      </trkpt>
      <trkpt lat="49.73686" lon="0.95028">
        <ele>68.542213439941</ele>
        <time>2016-08-11T15:49:52Z</time>
      </trkpt>
      <trkpt lat="49.73684" lon="0.9503">
        <ele>68.542213439941</ele>
        <time>2016-08-11T15:49:57Z</time>
      </trkpt>
      <trkpt lat="49.73675" lon="0.95042">
        <ele>68.988174438477</ele>
        <time>2016-08-11T15:50:08Z</time>
      </trkpt>
      <trkpt lat="49.73673" lon="0.95052">
        <ele>68.988174438477</ele>
        <time>2016-08-11T15:50:12Z</time>
      </trkpt>
      <trkpt lat="49.73664" lon="0.95069">
        <ele>68.438095092773</ele>
        <time>2016-08-11T15:50:23Z</time>
      </trkpt>
      <trkpt lat="49.73659" lon="0.95067">
        <ele>68.438095092773</ele>
        <time>2016-08-11T15:50:28Z</time>
      </trkpt>
      <trkpt lat="49.73656" lon="0.95077">
        <ele>68.651847839355</ele>
        <time>2016-08-11T15:50:37Z</time>
      </trkpt>
      <trkpt lat="49.7365" lon="0.95085">
        <ele>68.651847839355</ele>
        <time>2016-08-11T15:50:44Z</time>
      </trkpt>
      <trkpt lat="49.73644" lon="0.95095">
        <ele>68.952209472656</ele>
        <time>2016-08-11T15:50:53Z</time>
      </trkpt>
      <trkpt lat="49.73639" lon="0.95097">
        <ele>68.952209472656</ele>
        <time>2016-08-11T15:50:57Z</time>
      </trkpt>
      <trkpt lat="49.73624" lon="0.95128">
        <ele>69.215965270996</ele>
        <time>2016-08-11T15:51:14Z</time>
      </trkpt>
      <trkpt lat="49.73619" lon="0.95137">
        <ele>69.215965270996</ele>
        <time>2016-08-11T15:51:17Z</time>
      </trkpt>
      <trkpt lat="49.73606" lon="0.95145">
        <ele>70.280288696289</ele>
        <time>2016-08-11T15:51:28Z</time>
      </trkpt>
      <trkpt lat="49.73602" lon="0.95149">
        <ele>70.280288696289</ele>
        <time>2016-08-11T15:51:34Z</time>
      </trkpt>
      <trkpt lat="49.73596" lon="0.95156">
        <ele>71.419937133789</ele>
        <time>2016-08-11T15:51:42Z</time>
      </trkpt>
      <trkpt lat="49.73588" lon="0.9516">
        <ele>71.419937133789</ele>
        <time>2016-08-11T15:51:49Z</time>
      </trkpt>
      <trkpt lat="49.73582" lon="0.95173">
        <ele>72.380783081055</ele>
        <time>2016-08-11T15:51:57Z</time>
      </trkpt>
      <trkpt lat="49.73577" lon="0.95173">
        <ele>72.380783081055</ele>
        <time>2016-08-11T15:52:02Z</time>
      </trkpt>
      <trkpt lat="49.73569" lon="0.95177">
        <ele>73.807022094727</ele>
        <time>2016-08-11T15:52:13Z</time>
      </trkpt>
      <trkpt lat="49.73564" lon="0.9518">
        <ele>73.807022094727</ele>
        <time>2016-08-11T15:52:17Z</time>
      </trkpt>
      <trkpt lat="49.73554" lon="0.95184">
        <ele>75.213500976562</ele>
        <time>2016-08-11T15:52:27Z</time>
      </trkpt>
      <trkpt lat="49.73549" lon="0.95193">
        <ele>75.213500976562</ele>
        <time>2016-08-11T15:52:34Z</time>
      </trkpt>
      <trkpt lat="49.73533" lon="0.95203">
        <ele>75.934707641602</ele>
        <time>2016-08-11T15:52:47Z</time>
      </trkpt>
      <trkpt lat="49.73514" lon="0.95212">
        <ele>76.062202453613</ele>
        <time>2016-08-11T15:53:03Z</time>
      </trkpt>
      <trkpt lat="49.7351" lon="0.95217">
        <ele>76.062202453613</ele>
        <time>2016-08-11T15:53:07Z</time>
      </trkpt>
      <trkpt lat="49.73498" lon="0.95228">
        <ele>76.734573364258</ele>
        <time>2016-08-11T15:53:18Z</time>
      </trkpt>
      <trkpt lat="49.73495" lon="0.95232">
        <ele>76.734573364258</ele>
        <time>2016-08-11T15:53:22Z</time>
      </trkpt>
      <trkpt lat="49.73486" lon="0.95238">
        <ele>76.382553100586</ele>
        <time>2016-08-11T15:53:32Z</time>
      </trkpt>
      <trkpt lat="49.73483" lon="0.95234">
        <ele>76.382553100586</ele>
        <time>2016-08-11T15:53:38Z</time>
      </trkpt>
      <trkpt lat="49.73468" lon="0.95239">
        <ele>75.687942504883</ele>
        <time>2016-08-11T15:53:47Z</time>
      </trkpt>
      <trkpt lat="49.73466" lon="0.9524">
        <ele>75.687942504883</ele>
        <time>2016-08-11T15:53:52Z</time>
      </trkpt>
      <trkpt lat="49.73452" lon="0.95249">
        <ele>74.145042419434</ele>
        <time>2016-08-11T15:54:02Z</time>
      </trkpt>
      <trkpt lat="49.73448" lon="0.9525">
        <ele>74.145042419434</ele>
        <time>2016-08-11T15:54:07Z</time>
      </trkpt>
      <trkpt lat="49.73437" lon="0.95252">
        <ele>72.642379760742</ele>
        <time>2016-08-11T15:54:18Z</time>
      </trkpt>
      <trkpt lat="49.73432" lon="0.95255">
        <ele>72.642379760742</ele>
        <time>2016-08-11T15:54:23Z</time>
      </trkpt>
      <trkpt lat="49.73423" lon="0.9526">
        <ele>72.334617614746</ele>
        <time>2016-08-11T15:54:32Z</time>
      </trkpt>
      <trkpt lat="49.73417" lon="0.95264">
        <ele>72.334617614746</ele>
        <time>2016-08-11T15:54:39Z</time>
      </trkpt>
      <trkpt lat="49.73409" lon="0.95267">
        <ele>71.982521057129</ele>
        <time>2016-08-11T15:54:48Z</time>
      </trkpt>
      <trkpt lat="49.73406" lon="0.95269">
        <ele>71.982521057129</ele>
        <time>2016-08-11T15:54:52Z</time>
      </trkpt>
      <trkpt lat="49.73389" lon="0.95275">
        <ele>71.691795349121</ele>
        <time>2016-08-11T15:55:09Z</time>
      </trkpt>
      <trkpt lat="49.73387" lon="0.95276">
        <ele>71.691795349121</ele>
        <time>2016-08-11T15:55:12Z</time>
      </trkpt>
      <trkpt lat="49.73382" lon="0.95277">
        <ele>71.691795349121</ele>
        <time>2016-08-11T15:55:18Z</time>
      </trkpt>
      <trkpt lat="49.73377" lon="0.95279">
        <ele>71.070259094238</ele>
        <time>2016-08-11T15:55:24Z</time>
      </trkpt>
      <trkpt lat="49.73372" lon="0.95282">
        <ele>71.070259094238</ele>
        <time>2016-08-11T15:55:27Z</time>
      </trkpt>
      <trkpt lat="49.73365" lon="0.95288">
        <ele>70.346336364746</ele>
        <time>2016-08-11T15:55:33Z</time>
      </trkpt>
      <trkpt lat="49.73362" lon="0.95292">
        <ele>70.346336364746</ele>
        <time>2016-08-11T15:55:37Z</time>
      </trkpt>
      <trkpt lat="49.73344" lon="0.95305">
        <ele>69.933715820312</ele>
        <time>2016-08-11T15:55:53Z</time>
      </trkpt>
      <trkpt lat="49.7334" lon="0.9531">
        <ele>69.933715820312</ele>
        <time>2016-08-11T15:55:57Z</time>
      </trkpt>
      <trkpt lat="49.73329" lon="0.95318">
        <ele>69.638397216797</ele>
        <time>2016-08-11T15:56:09Z</time>
      </trkpt>
      <trkpt lat="49.73326" lon="0.95322">
        <ele>69.638397216797</ele>
        <time>2016-08-11T15:56:12Z</time>
      </trkpt>
      <trkpt lat="49.73315" lon="0.95328">
        <ele>69.337921142578</ele>
        <time>2016-08-11T15:56:22Z</time>
      </trkpt>
      <trkpt lat="49.73313" lon="0.95331">
        <ele>69.337921142578</ele>
        <time>2016-08-11T15:56:27Z</time>
      </trkpt>
      <trkpt lat="49.73299" lon="0.95339">
        <ele>68.933258056641</ele>
        <time>2016-08-11T15:56:37Z</time>
      </trkpt>
      <trkpt lat="49.73295" lon="0.9534">
        <ele>68.933258056641</ele>
        <time>2016-08-11T15:56:42Z</time>
      </trkpt>
      <trkpt lat="49.73282" lon="0.95349">
        <ele>68.981414794922</ele>
        <time>2016-08-11T15:56:52Z</time>
      </trkpt>
      <trkpt lat="49.73276" lon="0.95352">
        <ele>68.981414794922</ele>
        <time>2016-08-11T15:56:57Z</time>
      </trkpt>
      <trkpt lat="49.73262" lon="0.95356">
        <ele>69.031661987305</ele>
        <time>2016-08-11T15:57:07Z</time>
      </trkpt>
      <trkpt lat="49.73258" lon="0.95356">
        <ele>69.031661987305</ele>
        <time>2016-08-11T15:57:13Z</time>
      </trkpt>
      <trkpt lat="49.73241" lon="0.95363">
        <ele>68.81046295166</ele>
        <time>2016-08-11T15:57:27Z</time>
      </trkpt>
      <trkpt lat="49.73228" lon="0.95371">
        <ele>69.174774169922</ele>
        <time>2016-08-11T15:57:39Z</time>
      </trkpt>
      <trkpt lat="49.73222" lon="0.95376">
        <ele>69.174774169922</ele>
        <time>2016-08-11T15:57:42Z</time>
      </trkpt>
      <trkpt lat="49.73217" lon="0.95381">
        <ele>69.533470153809</ele>
        <time>2016-08-11T15:57:47Z</time>
      </trkpt>
      <trkpt lat="49.73208" lon="0.95391">
        <ele>69.972946166992</ele>
        <time>2016-08-11T15:57:58Z</time>
      </trkpt>
      <trkpt lat="49.73201" lon="0.95395">
        <ele>69.972946166992</ele>
        <time>2016-08-11T15:58:02Z</time>
      </trkpt>
      <trkpt lat="49.73192" lon="0.95401">
        <ele>70.371238708496</ele>
        <time>2016-08-11T15:58:13Z</time>
      </trkpt>
      <trkpt lat="49.73187" lon="0.95403">
        <ele>70.371238708496</ele>
        <time>2016-08-11T15:58:18Z</time>
      </trkpt>
      <trkpt lat="49.73177" lon="0.95411">
        <ele>71.278381347656</ele>
        <time>2016-08-11T15:58:27Z</time>
      </trkpt>
      <trkpt lat="49.73171" lon="0.95417">
        <ele>71.278381347656</ele>
        <time>2016-08-11T15:58:32Z</time>
      </trkpt>
      <trkpt lat="49.73163" lon="0.95421">
        <ele>72.438758850098</ele>
        <time>2016-08-11T15:58:42Z</time>
      </trkpt>
      <trkpt lat="49.73162" lon="0.95421">
        <ele>72.438758850098</ele>
        <time>2016-08-11T15:58:47Z</time>
      </trkpt>
      <trkpt lat="49.7316" lon="0.95424">
        <ele>72.438758850098</ele>
        <time>2016-08-11T15:58:57Z</time>
      </trkpt>
      <trkpt lat="49.7316" lon="0.95426">
        <ele>72.438758850098</ele>
        <time>2016-08-11T15:59:02Z</time>
      </trkpt>
      <trkpt lat="49.7316" lon="0.95425">
        <ele>72.438758850098</ele>
        <time>2016-08-11T15:59:07Z</time>
      </trkpt>
      <trkpt lat="49.7316" lon="0.95425">
        <ele>72.438758850098</ele>
        <time>2016-08-11T15:59:12Z</time>
      </trkpt>
      <trkpt lat="49.7316" lon="0.95425">
        <ele>72.438758850098</ele>
        <time>2016-08-11T15:59:17Z</time>
      </trkpt>
      <trkpt lat="49.73159" lon="0.95426">
        <ele>72.438758850098</ele>
        <time>2016-08-11T15:59:23Z</time>
      </trkpt>
      <trkpt lat="49.73159" lon="0.95426">
        <ele>72.438758850098</ele>
        <time>2016-08-11T15:59:32Z</time>
      </trkpt>
      <trkpt lat="49.73159" lon="0.95426">
        <ele>72.438758850098</ele>
        <time>2016-08-11T15:59:37Z</time>
      </trkpt>
      <trkpt lat="49.73159" lon="0.95426">
        <ele>72.438758850098</ele>
        <time>2016-08-11T15:59:42Z</time>
      </trkpt>
      <trkpt lat="49.73154" lon="0.95427">
        <ele>73.326622009277</ele>
        <time>2016-08-11T15:59:47Z</time>
      </trkpt>
      <trkpt lat="49.73154" lon="0.95429">
        <ele>73.326622009277</ele>
        <time>2016-08-11T15:59:52Z</time>
      </trkpt>
      <trkpt lat="49.73155" lon="0.95435">
        <ele>73.326622009277</ele>
        <time>2016-08-11T15:59:57Z</time>
      </trkpt>
      <trkpt lat="49.73157" lon="0.95442">
        <ele>74.27702331543</ele>
        <time>2016-08-11T16:00:02Z</time>
      </trkpt>
      <trkpt lat="49.73155" lon="0.95456">
        <ele>75.196739196777</ele>
        <time>2016-08-11T16:00:12Z</time>
      </trkpt>
      <trkpt lat="49.73154" lon="0.95463">
        <ele>75.196739196777</ele>
        <time>2016-08-11T16:00:17Z</time>
      </trkpt>
      <trkpt lat="49.73152" lon="0.95472">
        <ele>75.869812011719</ele>
        <time>2016-08-11T16:00:23Z</time>
      </trkpt>
      <trkpt lat="49.73147" lon="0.95486">
        <ele>76.125648498535</ele>
        <time>2016-08-11T16:00:32Z</time>
      </trkpt>
      <trkpt lat="49.73143" lon="0.95492">
        <ele>76.125648498535</ele>
        <time>2016-08-11T16:00:37Z</time>
      </trkpt>
      <trkpt lat="49.73141" lon="0.95498">
        <ele>76.340621948242</ele>
        <time>2016-08-11T16:00:42Z</time>
      </trkpt>
      <trkpt lat="49.73136" lon="0.95508">
        <ele>76.340621948242</ele>
        <time>2016-08-11T16:00:47Z</time>
      </trkpt>
      <trkpt lat="49.73129" lon="0.95517">
        <ele>77.209449768066</ele>
        <time>2016-08-11T16:00:53Z</time>
      </trkpt>
      <trkpt lat="49.73124" lon="0.95522">
        <ele>77.209449768066</ele>
        <time>2016-08-11T16:01:03Z</time>
      </trkpt>
      <trkpt lat="49.73121" lon="0.95525">
        <ele>77.558212280273</ele>
        <time>2016-08-11T16:01:07Z</time>
      </trkpt>
      <trkpt lat="49.73117" lon="0.95528">
        <ele>77.558212280273</ele>
        <time>2016-08-11T16:01:18Z</time>
      </trkpt>
      <trkpt lat="49.73109" lon="0.95537">
        <ele>76.920379638672</ele>
        <time>2016-08-11T16:01:22Z</time>
      </trkpt>
      <trkpt lat="49.73106" lon="0.95541">
        <ele>76.920379638672</ele>
        <time>2016-08-11T16:01:27Z</time>
      </trkpt>
      <trkpt lat="49.73102" lon="0.95546">
        <ele>76.920379638672</ele>
        <time>2016-08-11T16:01:32Z</time>
      </trkpt>
      <trkpt lat="49.73098" lon="0.95548">
        <ele>76.552581787109</ele>
        <time>2016-08-11T16:01:37Z</time>
      </trkpt>
      <trkpt lat="49.73093" lon="0.95551">
        <ele>76.552581787109</ele>
        <time>2016-08-11T16:01:42Z</time>
      </trkpt>
      <trkpt lat="49.73084" lon="0.95553">
        <ele>75.817001342773</ele>
        <time>2016-08-11T16:01:47Z</time>
      </trkpt>
      <trkpt lat="49.73079" lon="0.95554">
        <ele>75.817001342773</ele>
        <time>2016-08-11T16:01:52Z</time>
      </trkpt>
      <trkpt lat="49.73071" lon="0.95566">
        <ele>75.406311035156</ele>
        <time>2016-08-11T16:01:57Z</time>
      </trkpt>
      <trkpt lat="49.73059" lon="0.95581">
        <ele>75.759635925293</ele>
        <time>2016-08-11T16:02:08Z</time>
      </trkpt>
      <trkpt lat="49.73057" lon="0.9558">
        <ele>75.759635925293</ele>
        <time>2016-08-11T16:02:12Z</time>
      </trkpt>
      <trkpt lat="49.73042" lon="0.95579">
        <ele>76.618789672852</ele>
        <time>2016-08-11T16:02:22Z</time>
      </trkpt>
      <trkpt lat="49.73033" lon="0.95594">
        <ele>77.238731384277</ele>
        <time>2016-08-11T16:02:27Z</time>
      </trkpt>
      <trkpt lat="49.73027" lon="0.95587">
        <ele>77.238731384277</ele>
        <time>2016-08-11T16:02:37Z</time>
      </trkpt>
      <trkpt lat="49.73025" lon="0.95586">
        <ele>77.238731384277</ele>
        <time>2016-08-11T16:02:42Z</time>
      </trkpt>
      <trkpt lat="49.73022" lon="0.956">
        <ele>77.261299133301</ele>
        <time>2016-08-11T16:02:52Z</time>
      </trkpt>
      <trkpt lat="49.73011" lon="0.95612">
        <ele>77.249786376953</ele>
        <time>2016-08-11T16:02:57Z</time>
      </trkpt>
      <trkpt lat="49.72997" lon="0.95624">
        <ele>77.077713012695</ele>
        <time>2016-08-11T16:03:07Z</time>
      </trkpt>
      <trkpt lat="49.72993" lon="0.95615">
        <ele>77.077713012695</ele>
        <time>2016-08-11T16:03:12Z</time>
      </trkpt>
      <trkpt lat="49.72988" lon="0.95615">
        <ele>76.484222412109</ele>
        <time>2016-08-11T16:03:23Z</time>
      </trkpt>
      <trkpt lat="49.7298" lon="0.95618">
        <ele>76.484222412109</ele>
        <time>2016-08-11T16:03:28Z</time>
      </trkpt>
      <trkpt lat="49.72971" lon="0.95624">
        <ele>75.257637023926</ele>
        <time>2016-08-11T16:03:37Z</time>
      </trkpt>
      <trkpt lat="49.72963" lon="0.95622">
        <ele>75.257637023926</ele>
        <time>2016-08-11T16:03:42Z</time>
      </trkpt>
      <trkpt lat="49.72944" lon="0.95628">
        <ele>74.932899475098</ele>
        <time>2016-08-11T16:03:54Z</time>
      </trkpt>
      <trkpt lat="49.72938" lon="0.95625">
        <ele>74.932899475098</ele>
        <time>2016-08-11T16:03:57Z</time>
      </trkpt>
      <trkpt lat="49.72933" lon="0.95623">
        <ele>74.724769592285</ele>
        <time>2016-08-11T16:04:02Z</time>
      </trkpt>
      <trkpt lat="49.72923" lon="0.95623">
        <ele>73.905334472656</ele>
        <time>2016-08-11T16:04:13Z</time>
      </trkpt>
      <trkpt lat="49.72918" lon="0.9562">
        <ele>73.905334472656</ele>
        <time>2016-08-11T16:04:17Z</time>
      </trkpt>
      <trkpt lat="49.72902" lon="0.95618">
        <ele>73.487922668457</ele>
        <time>2016-08-11T16:04:29Z</time>
      </trkpt>
      <trkpt lat="49.72884" lon="0.95617">
        <ele>73.343864440918</ele>
        <time>2016-08-11T16:04:42Z</time>
      </trkpt>
      <trkpt lat="49.72879" lon="0.95618">
        <ele>73.343864440918</ele>
        <time>2016-08-11T16:04:47Z</time>
      </trkpt>
      <trkpt lat="49.72866" lon="0.95619">
        <ele>73.036094665527</ele>
        <time>2016-08-11T16:04:58Z</time>
      </trkpt>
      <trkpt lat="49.72861" lon="0.95616">
        <ele>73.036094665527</ele>
        <time>2016-08-11T16:05:02Z</time>
      </trkpt>
      <trkpt lat="49.72854" lon="0.95617">
        <ele>72.419464111328</ele>
        <time>2016-08-11T16:05:12Z</time>
      </trkpt>
      <trkpt lat="49.72844" lon="0.95619">
        <ele>71.979995727539</ele>
        <time>2016-08-11T16:05:19Z</time>
      </trkpt>
      <trkpt lat="49.72836" lon="0.95621">
        <ele>71.979995727539</ele>
        <time>2016-08-11T16:05:27Z</time>
      </trkpt>
      <trkpt lat="49.7283" lon="0.95625">
        <ele>71.61986541748</ele>
        <time>2016-08-11T16:05:32Z</time>
      </trkpt>
      <trkpt lat="49.72818" lon="0.95628">
        <ele>71.190498352051</ele>
        <time>2016-08-11T16:05:42Z</time>
      </trkpt>
      <trkpt lat="49.72813" lon="0.95632">
        <ele>71.190498352051</ele>
        <time>2016-08-11T16:05:47Z</time>
      </trkpt>
      <trkpt lat="49.72794" lon="0.95643">
        <ele>70.929092407227</ele>
        <time>2016-08-11T16:06:04Z</time>
      </trkpt>
      <trkpt lat="49.72791" lon="0.95643">
        <ele>70.929092407227</ele>
        <time>2016-08-11T16:06:07Z</time>
      </trkpt>
      <trkpt lat="49.72779" lon="0.95642">
        <ele>70.651390075684</ele>
        <time>2016-08-11T16:06:19Z</time>
      </trkpt>
      <trkpt lat="49.72778" lon="0.95634">
        <ele>70.651390075684</ele>
        <time>2016-08-11T16:06:32Z</time>
      </trkpt>
      <trkpt lat="49.72778" lon="0.95633">
        <ele>70.651390075684</ele>
        <time>2016-08-11T16:06:37Z</time>
      </trkpt>
      <trkpt lat="49.72779" lon="0.95633">
        <ele>70.651390075684</ele>
        <time>2016-08-11T16:06:47Z</time>
      </trkpt>
      <trkpt lat="49.72779" lon="0.95633">
        <ele>70.651390075684</ele>
        <time>2016-08-11T16:06:52Z</time>
      </trkpt>
      <trkpt lat="49.72779" lon="0.95633">
        <ele>70.651390075684</ele>
        <time>2016-08-11T16:07:03Z</time>
      </trkpt>
      <trkpt lat="49.72778" lon="0.95634">
        <ele>70.20108795166</ele>
        <time>2016-08-11T16:07:07Z</time>
      </trkpt>
      <trkpt lat="49.72776" lon="0.95639">
        <ele>70.20108795166</ele>
        <time>2016-08-11T16:07:18Z</time>
      </trkpt>
      <trkpt lat="49.72775" lon="0.9564">
        <ele>70.20108795166</ele>
        <time>2016-08-11T16:07:22Z</time>
      </trkpt>
      <trkpt lat="49.7277" lon="0.95652">
        <ele>69.822883605957</ele>
        <time>2016-08-11T16:07:32Z</time>
      </trkpt>
      <trkpt lat="49.72765" lon="0.95653">
        <ele>69.822883605957</ele>
        <time>2016-08-11T16:07:37Z</time>
      </trkpt>
      <trkpt lat="49.72755" lon="0.95665">
        <ele>69.743270874023</ele>
        <time>2016-08-11T16:07:48Z</time>
      </trkpt>
      <trkpt lat="49.72751" lon="0.95671">
        <ele>69.743270874023</ele>
        <time>2016-08-11T16:07:53Z</time>
      </trkpt>
      <trkpt lat="49.72745" lon="0.95684">
        <ele>70.272102355957</ele>
        <time>2016-08-11T16:08:02Z</time>
      </trkpt>
      <trkpt lat="49.72742" lon="0.95695">
        <ele>70.272102355957</ele>
        <time>2016-08-11T16:08:08Z</time>
      </trkpt>
      <trkpt lat="49.72738" lon="0.95707">
        <ele>70.311241149902</ele>
        <time>2016-08-11T16:08:17Z</time>
      </trkpt>
      <trkpt lat="49.72735" lon="0.95715">
        <ele>70.311241149902</ele>
        <time>2016-08-11T16:08:23Z</time>
      </trkpt>
      <trkpt lat="49.72731" lon="0.95731">
        <ele>71.006233215332</ele>
        <time>2016-08-11T16:08:34Z</time>
      </trkpt>
      <trkpt lat="49.72728" lon="0.95739">
        <ele>71.006233215332</ele>
        <time>2016-08-11T16:08:37Z</time>
      </trkpt>
      <trkpt lat="49.72721" lon="0.95761">
        <ele>72.335762023926</ele>
        <time>2016-08-11T16:08:49Z</time>
      </trkpt>
      <trkpt lat="49.7272" lon="0.95766">
        <ele>72.335762023926</ele>
        <time>2016-08-11T16:08:53Z</time>
      </trkpt>
      <trkpt lat="49.72718" lon="0.95772">
        <ele>72.335762023926</ele>
        <time>2016-08-11T16:08:57Z</time>
      </trkpt>
      <trkpt lat="49.72711" lon="0.95788">
        <ele>73.111000061035</ele>
        <time>2016-08-11T16:09:08Z</time>
      </trkpt>
      <trkpt lat="49.72707" lon="0.95795">
        <ele>73.111000061035</ele>
        <time>2016-08-11T16:09:13Z</time>
      </trkpt>
      <trkpt lat="49.72702" lon="0.958">
        <ele>74.364799499512</ele>
        <time>2016-08-11T16:09:22Z</time>
      </trkpt>
      <trkpt lat="49.72702" lon="0.95799">
        <ele>74.364799499512</ele>
        <time>2016-08-11T16:09:27Z</time>
      </trkpt>
      <trkpt lat="49.72698" lon="0.95809">
        <ele>74.364799499512</ele>
        <time>2016-08-11T16:09:37Z</time>
      </trkpt>
      <trkpt lat="49.72693" lon="0.95816">
        <ele>75.208198547363</ele>
        <time>2016-08-11T16:09:42Z</time>
      </trkpt>
      <trkpt lat="49.72682" lon="0.95834">
        <ele>76.793014526367</ele>
        <time>2016-08-11T16:09:53Z</time>
      </trkpt>
      <trkpt lat="49.72677" lon="0.95841">
        <ele>76.793014526367</ele>
        <time>2016-08-11T16:09:58Z</time>
      </trkpt>
      <trkpt lat="49.72669" lon="0.95856">
        <ele>78.152412414551</ele>
        <time>2016-08-11T16:10:12Z</time>
      </trkpt>
      <trkpt lat="49.72651" lon="0.95878">
        <ele>79.64501953125</ele>
        <time>2016-08-11T16:10:27Z</time>
      </trkpt>
      <trkpt lat="49.72649" lon="0.95878">
        <ele>79.64501953125</ele>
        <time>2016-08-11T16:10:32Z</time>
      </trkpt>
      <trkpt lat="49.72643" lon="0.95883">
        <ele>79.64501953125</ele>
        <time>2016-08-11T16:10:39Z</time>
      </trkpt>
      <trkpt lat="49.72639" lon="0.95892">
        <ele>81.09838104248</ele>
        <time>2016-08-11T16:10:42Z</time>
      </trkpt>
      <trkpt lat="49.72634" lon="0.95899">
        <ele>81.09838104248</ele>
        <time>2016-08-11T16:10:47Z</time>
      </trkpt>
      <trkpt lat="49.72624" lon="0.9591">
        <ele>82.208763122559</ele>
        <time>2016-08-11T16:10:58Z</time>
      </trkpt>
      <trkpt lat="49.72621" lon="0.95913">
        <ele>82.208763122559</ele>
        <time>2016-08-11T16:11:02Z</time>
      </trkpt>
      <trkpt lat="49.72613" lon="0.95921">
        <ele>82.782218933105</ele>
        <time>2016-08-11T16:11:14Z</time>
      </trkpt>
      <trkpt lat="49.7261" lon="0.95924">
        <ele>82.782218933105</ele>
        <time>2016-08-11T16:11:17Z</time>
      </trkpt>
      <trkpt lat="49.72596" lon="0.95941">
        <ele>83.865547180176</ele>
        <time>2016-08-11T16:11:27Z</time>
      </trkpt>
      <trkpt lat="49.72594" lon="0.95952">
        <ele>83.865547180176</ele>
        <time>2016-08-11T16:11:33Z</time>
      </trkpt>
      <trkpt lat="49.72584" lon="0.95963">
        <ele>84.611503601074</ele>
        <time>2016-08-11T16:11:44Z</time>
      </trkpt>
      <trkpt lat="49.72582" lon="0.95968">
        <ele>84.611503601074</ele>
        <time>2016-08-11T16:11:47Z</time>
      </trkpt>
      <trkpt lat="49.72573" lon="0.95983">
        <ele>85.388954162598</ele>
        <time>2016-08-11T16:11:57Z</time>
      </trkpt>
      <trkpt lat="49.72566" lon="0.95994">
        <ele>86.13614654541</ele>
        <time>2016-08-11T16:12:03Z</time>
      </trkpt>
      <trkpt lat="49.72569" lon="0.95994">
        <ele>86.13614654541</ele>
        <time>2016-08-11T16:12:12Z</time>
      </trkpt>
      <trkpt lat="49.72569" lon="0.95993">
        <ele>86.13614654541</ele>
        <time>2016-08-11T16:12:17Z</time>
      </trkpt>
      <trkpt lat="49.72566" lon="0.95996">
        <ele>86.13614654541</ele>
        <time>2016-08-11T16:12:27Z</time>
      </trkpt>
      <trkpt lat="49.72562" lon="0.96001">
        <ele>87.156288146973</ele>
        <time>2016-08-11T16:12:32Z</time>
      </trkpt>
      <trkpt lat="49.7256" lon="0.96004">
        <ele>87.156288146973</ele>
        <time>2016-08-11T16:12:37Z</time>
      </trkpt>
      <trkpt lat="49.72557" lon="0.96014">
        <ele>87.994636535645</ele>
        <time>2016-08-11T16:12:42Z</time>
      </trkpt>
      <trkpt lat="49.72555" lon="0.96022">
        <ele>87.994636535645</ele>
        <time>2016-08-11T16:12:47Z</time>
      </trkpt>
      <trkpt lat="49.7255" lon="0.96034">
        <ele>87.971054077148</ele>
        <time>2016-08-11T16:12:57Z</time>
      </trkpt>
      <trkpt lat="49.72545" lon="0.96042">
        <ele>87.971054077148</ele>
        <time>2016-08-11T16:13:02Z</time>
      </trkpt>
      <trkpt lat="49.72543" lon="0.96044">
        <ele>88.187156677246</ele>
        <time>2016-08-11T16:13:07Z</time>
      </trkpt>
      <trkpt lat="49.72542" lon="0.96046">
        <ele>88.187156677246</ele>
        <time>2016-08-11T16:13:12Z</time>
      </trkpt>
      <trkpt lat="49.72536" lon="0.96051">
        <ele>88.187156677246</ele>
        <time>2016-08-11T16:13:17Z</time>
      </trkpt>
      <trkpt lat="49.72527" lon="0.96077">
        <ele>88.92805480957</ele>
        <time>2016-08-11T16:13:27Z</time>
      </trkpt>
      <trkpt lat="49.72523" lon="0.9608">
        <ele>88.92805480957</ele>
        <time>2016-08-11T16:13:32Z</time>
      </trkpt>
      <trkpt lat="49.72517" lon="0.96097">
        <ele>89.534210205078</ele>
        <time>2016-08-11T16:13:42Z</time>
      </trkpt>
      <trkpt lat="49.72512" lon="0.96105">
        <ele>89.534210205078</ele>
        <time>2016-08-11T16:13:47Z</time>
      </trkpt>
      <trkpt lat="49.72505" lon="0.9612">
        <ele>89.625526428223</ele>
        <time>2016-08-11T16:13:57Z</time>
      </trkpt>
      <trkpt lat="49.72504" lon="0.96126">
        <ele>89.625526428223</ele>
        <time>2016-08-11T16:14:02Z</time>
      </trkpt>
      <trkpt lat="49.72495" lon="0.96143">
        <ele>90.36449432373</ele>
        <time>2016-08-11T16:14:12Z</time>
      </trkpt>
      <trkpt lat="49.72489" lon="0.96151">
        <ele>90.36449432373</ele>
        <time>2016-08-11T16:14:17Z</time>
      </trkpt>
      <trkpt lat="49.72482" lon="0.96168">
        <ele>91.904136657715</ele>
        <time>2016-08-11T16:14:27Z</time>
      </trkpt>
      <trkpt lat="49.72479" lon="0.96176">
        <ele>91.904136657715</ele>
        <time>2016-08-11T16:14:32Z</time>
      </trkpt>
      <trkpt lat="49.72474" lon="0.96192">
        <ele>93.17350769043</ele>
        <time>2016-08-11T16:14:42Z</time>
      </trkpt>
      <trkpt lat="49.72471" lon="0.96201">
        <ele>93.17350769043</ele>
        <time>2016-08-11T16:14:47Z</time>
      </trkpt>
      <trkpt lat="49.72461" lon="0.96226">
        <ele>94.449317932129</ele>
        <time>2016-08-11T16:15:02Z</time>
      </trkpt>
      <trkpt lat="49.72458" lon="0.96235">
        <ele>94.449317932129</ele>
        <time>2016-08-11T16:15:07Z</time>
      </trkpt>
      <trkpt lat="49.72451" lon="0.9625">
        <ele>95.253021240234</ele>
        <time>2016-08-11T16:15:17Z</time>
      </trkpt>
      <trkpt lat="49.72449" lon="0.96258">
        <ele>95.253021240234</ele>
        <time>2016-08-11T16:15:22Z</time>
      </trkpt>
      <trkpt lat="49.72445" lon="0.96275">
        <ele>95.502883911133</ele>
        <time>2016-08-11T16:15:32Z</time>
      </trkpt>
      <trkpt lat="49.72439" lon="0.9628">
        <ele>95.502883911133</ele>
        <time>2016-08-11T16:15:37Z</time>
      </trkpt>
      <trkpt lat="49.72434" lon="0.96298">
        <ele>95.456237792969</ele>
        <time>2016-08-11T16:15:47Z</time>
      </trkpt>
      <trkpt lat="49.72432" lon="0.96306">
        <ele>95.456237792969</ele>
        <time>2016-08-11T16:15:52Z</time>
      </trkpt>
      <trkpt lat="49.72422" lon="0.96319">
        <ele>95.020957946777</ele>
        <time>2016-08-11T16:16:02Z</time>
      </trkpt>
      <trkpt lat="49.7242" lon="0.96326">
        <ele>95.020957946777</ele>
        <time>2016-08-11T16:16:07Z</time>
      </trkpt>
      <trkpt lat="49.72416" lon="0.96343">
        <ele>95.121574401855</ele>
        <time>2016-08-11T16:16:17Z</time>
      </trkpt>
      <trkpt lat="49.7241" lon="0.96348">
        <ele>95.121574401855</ele>
        <time>2016-08-11T16:16:22Z</time>
      </trkpt>
      <trkpt lat="49.72401" lon="0.96363">
        <ele>95.503593444824</ele>
        <time>2016-08-11T16:16:32Z</time>
      </trkpt>
      <trkpt lat="49.72397" lon="0.96371">
        <ele>95.503593444824</ele>
        <time>2016-08-11T16:16:37Z</time>
      </trkpt>
      <trkpt lat="49.7239" lon="0.96385">
        <ele>96.002510070801</ele>
        <time>2016-08-11T16:16:47Z</time>
      </trkpt>
      <trkpt lat="49.72386" lon="0.96391">
        <ele>96.002510070801</ele>
        <time>2016-08-11T16:16:52Z</time>
      </trkpt>
      <trkpt lat="49.72376" lon="0.96401">
        <ele>96.508827209473</ele>
        <time>2016-08-11T16:17:02Z</time>
      </trkpt>
      <trkpt lat="49.72371" lon="0.96406">
        <ele>96.508827209473</ele>
        <time>2016-08-11T16:17:07Z</time>
      </trkpt>
      <trkpt lat="49.72357" lon="0.96421">
        <ele>97.814605712891</ele>
        <time>2016-08-11T16:17:22Z</time>
      </trkpt>
      <trkpt lat="49.72351" lon="0.96423">
        <ele>97.814605712891</ele>
        <time>2016-08-11T16:17:27Z</time>
      </trkpt>
      <trkpt lat="49.72344" lon="0.96426">
        <ele>99.00862121582</ele>
        <time>2016-08-11T16:17:37Z</time>
      </trkpt>
      <trkpt lat="49.72335" lon="0.96429">
        <ele>100.34217071533</ele>
        <time>2016-08-11T16:17:42Z</time>
      </trkpt>
      <trkpt lat="49.72326" lon="0.9643">
        <ele>101.97567749023</ele>
        <time>2016-08-11T16:17:52Z</time>
      </trkpt>
      <trkpt lat="49.72322" lon="0.96431">
        <ele>101.97567749023</ele>
        <time>2016-08-11T16:17:57Z</time>
      </trkpt>
      <trkpt lat="49.72315" lon="0.96436">
        <ele>102.94733428955</ele>
        <time>2016-08-11T16:18:07Z</time>
      </trkpt>
      <trkpt lat="49.72309" lon="0.96437">
        <ele>102.94733428955</ele>
        <time>2016-08-11T16:18:12Z</time>
      </trkpt>
      <trkpt lat="49.72296" lon="0.96443">
        <ele>104.21248626709</ele>
        <time>2016-08-11T16:18:22Z</time>
      </trkpt>
      <trkpt lat="49.72294" lon="0.96444">
        <ele>104.21248626709</ele>
        <time>2016-08-11T16:18:27Z</time>
      </trkpt>
      <trkpt lat="49.72289" lon="0.96442">
        <ele>104.21248626709</ele>
        <time>2016-08-11T16:18:37Z</time>
      </trkpt>
      <trkpt lat="49.7229" lon="0.96441">
        <ele>104.21248626709</ele>
        <time>2016-08-11T16:18:42Z</time>
      </trkpt>
      <trkpt lat="49.72291" lon="0.96441">
        <ele>105.84851074219</ele>
        <time>2016-08-11T16:18:52Z</time>
      </trkpt>
      <trkpt lat="49.72291" lon="0.96441">
        <ele>105.84851074219</ele>
        <time>2016-08-11T16:18:57Z</time>
      </trkpt>
      <trkpt lat="49.72291" lon="0.96441">
        <ele>105.84851074219</ele>
        <time>2016-08-11T16:19:07Z</time>
      </trkpt>
      <trkpt lat="49.7229" lon="0.96441">
        <ele>105.84851074219</ele>
        <time>2016-08-11T16:19:12Z</time>
      </trkpt>
      <trkpt lat="49.7229" lon="0.96442">
        <ele>105.84851074219</ele>
        <time>2016-08-11T16:19:22Z</time>
      </trkpt>
      <trkpt lat="49.7229" lon="0.96438">
        <ele>105.84851074219</ele>
        <time>2016-08-11T16:19:27Z</time>
      </trkpt>
      <trkpt lat="49.72285" lon="0.96443">
        <ele>107.42169952393</ele>
        <time>2016-08-11T16:19:37Z</time>
      </trkpt>
      <trkpt lat="49.72282" lon="0.96445">
        <ele>107.42169952393</ele>
        <time>2016-08-11T16:19:42Z</time>
      </trkpt>
      <trkpt lat="49.7227" lon="0.96454">
        <ele>108.89072418213</ele>
        <time>2016-08-11T16:19:57Z</time>
      </trkpt>
      <trkpt lat="49.72267" lon="0.96454">
        <ele>108.89072418213</ele>
        <time>2016-08-11T16:20:02Z</time>
      </trkpt>
      <trkpt lat="49.72259" lon="0.96461">
        <ele>109.58354949951</ele>
        <time>2016-08-11T16:20:12Z</time>
      </trkpt>
      <trkpt lat="49.72253" lon="0.96469">
        <ele>109.58354949951</ele>
        <time>2016-08-11T16:20:17Z</time>
      </trkpt>
      <trkpt lat="49.7224" lon="0.96481">
        <ele>111.14227294922</ele>
        <time>2016-08-11T16:20:27Z</time>
      </trkpt>
      <trkpt lat="49.72237" lon="0.96485">
        <ele>111.14227294922</ele>
        <time>2016-08-11T16:20:32Z</time>
      </trkpt>
      <trkpt lat="49.72231" lon="0.9649">
        <ele>112.29024505615</ele>
        <time>2016-08-11T16:20:42Z</time>
      </trkpt>
      <trkpt lat="49.72229" lon="0.96495">
        <ele>112.29024505615</ele>
        <time>2016-08-11T16:20:47Z</time>
      </trkpt>
      <trkpt lat="49.72227" lon="0.96497">
        <ele>112.29024505615</ele>
        <time>2016-08-11T16:20:57Z</time>
      </trkpt>
      <trkpt lat="49.72224" lon="0.96505">
        <ele>113.5463104248</ele>
        <time>2016-08-11T16:21:02Z</time>
      </trkpt>
      <trkpt lat="49.72218" lon="0.96516">
        <ele>113.5463104248</ele>
        <time>2016-08-11T16:21:12Z</time>
      </trkpt>
      <trkpt lat="49.72216" lon="0.96523">
        <ele>114.64157867432</ele>
        <time>2016-08-11T16:21:17Z</time>
      </trkpt>
      <trkpt lat="49.72209" lon="0.96535">
        <ele>115.64447021484</ele>
        <time>2016-08-11T16:21:27Z</time>
      </trkpt>
      <trkpt lat="49.72204" lon="0.96542">
        <ele>115.64447021484</ele>
        <time>2016-08-11T16:21:32Z</time>
      </trkpt>
      <trkpt lat="49.72193" lon="0.96564">
        <ele>117.23836517334</ele>
        <time>2016-08-11T16:21:47Z</time>
      </trkpt>
      <trkpt lat="49.72192" lon="0.96565">
        <ele>117.23836517334</ele>
        <time>2016-08-11T16:21:52Z</time>
      </trkpt>
      <trkpt lat="49.72182" lon="0.96577">
        <ele>120.35746765137</ele>
        <time>2016-08-11T16:22:02Z</time>
      </trkpt>
      <trkpt lat="49.72178" lon="0.96581">
        <ele>120.35746765137</ele>
        <time>2016-08-11T16:22:07Z</time>
      </trkpt>
      <trkpt lat="49.72168" lon="0.96598">
        <ele>122.50537872314</ele>
        <time>2016-08-11T16:22:17Z</time>
      </trkpt>
      <trkpt lat="49.72166" lon="0.96597">
        <ele>122.50537872314</ele>
        <time>2016-08-11T16:22:22Z</time>
      </trkpt>
      <trkpt lat="49.72159" lon="0.9661">
        <ele>124.02348327637</ele>
        <time>2016-08-11T16:22:32Z</time>
      </trkpt>
      <trkpt lat="49.72154" lon="0.96622">
        <ele>125.37407684326</ele>
        <time>2016-08-11T16:22:37Z</time>
      </trkpt>
      <trkpt lat="49.72144" lon="0.96642">
        <ele>126.52485656738</ele>
        <time>2016-08-11T16:22:47Z</time>
      </trkpt>
      <trkpt lat="49.7214" lon="0.96649">
        <ele>126.52485656738</ele>
        <time>2016-08-11T16:22:52Z</time>
      </trkpt>
      <trkpt lat="49.72137" lon="0.96658">
        <ele>127.48977661133</ele>
        <time>2016-08-11T16:23:02Z</time>
      </trkpt>
      <trkpt lat="49.72133" lon="0.96665">
        <ele>127.48977661133</ele>
        <time>2016-08-11T16:23:07Z</time>
      </trkpt>
      <trkpt lat="49.72127" lon="0.9668">
        <ele>128.87321472168</ele>
        <time>2016-08-11T16:23:17Z</time>
      </trkpt>
      <trkpt lat="49.72125" lon="0.96687">
        <ele>128.87321472168</ele>
        <time>2016-08-11T16:23:22Z</time>
      </trkpt>
      <trkpt lat="49.72127" lon="0.96681">
        <ele>129.98027038574</ele>
        <time>2016-08-11T16:23:32Z</time>
      </trkpt>
      <trkpt lat="49.72125" lon="0.96683">
        <ele>129.98027038574</ele>
        <time>2016-08-11T16:23:37Z</time>
      </trkpt>
      <trkpt lat="49.72124" lon="0.96686">
        <ele>129.98027038574</ele>
        <time>2016-08-11T16:23:47Z</time>
      </trkpt>
      <trkpt lat="49.72124" lon="0.96685">
        <ele>129.98027038574</ele>
        <time>2016-08-11T16:23:52Z</time>
      </trkpt>
      <trkpt lat="49.72124" lon="0.96684">
        <ele>129.98027038574</ele>
        <time>2016-08-11T16:24:07Z</time>
      </trkpt>
      <trkpt lat="49.72125" lon="0.96683">
        <ele>129.98027038574</ele>
        <time>2016-08-11T16:24:12Z</time>
      </trkpt>
      <trkpt lat="49.72126" lon="0.96679">
        <ele>130.67230224609</ele>
        <time>2016-08-11T16:24:22Z</time>
      </trkpt>
      <trkpt lat="49.72125" lon="0.96676">
        <ele>130.67230224609</ele>
        <time>2016-08-11T16:24:27Z</time>
      </trkpt>
      <trkpt lat="49.7212" lon="0.96662">
        <ele>130.95184326172</ele>
        <time>2016-08-11T16:24:37Z</time>
      </trkpt>
      <trkpt lat="49.72117" lon="0.96654">
        <ele>130.95184326172</ele>
        <time>2016-08-11T16:24:42Z</time>
      </trkpt>
      <trkpt lat="49.72114" lon="0.96646">
        <ele>130.86560058594</ele>
        <time>2016-08-11T16:24:52Z</time>
      </trkpt>
      <trkpt lat="49.72111" lon="0.96639">
        <ele>130.86560058594</ele>
        <time>2016-08-11T16:24:57Z</time>
      </trkpt>
      <trkpt lat="49.72105" lon="0.96629">
        <ele>130.67413330078</ele>
        <time>2016-08-11T16:25:07Z</time>
      </trkpt>
      <trkpt lat="49.72102" lon="0.96626">
        <ele>130.67413330078</ele>
        <time>2016-08-11T16:25:12Z</time>
      </trkpt>
      <trkpt lat="49.721" lon="0.96618">
        <ele>130.33094787598</ele>
        <time>2016-08-11T16:25:22Z</time>
      </trkpt>
      <trkpt lat="49.721" lon="0.96618">
        <ele>130.33094787598</ele>
        <time>2016-08-11T16:25:27Z</time>
      </trkpt>
      <trkpt lat="49.72086" lon="0.96613">
        <ele>129.82225036621</ele>
        <time>2016-08-11T16:25:42Z</time>
      </trkpt>
      <trkpt lat="49.7208" lon="0.9661">
        <ele>129.82225036621</ele>
        <time>2016-08-11T16:25:47Z</time>
      </trkpt>
      <trkpt lat="49.72073" lon="0.96609">
        <ele>129.23658752441</ele>
        <time>2016-08-11T16:25:57Z</time>
      </trkpt>
      <trkpt lat="49.72065" lon="0.9661">
        <ele>129.23658752441</ele>
        <time>2016-08-11T16:26:02Z</time>
      </trkpt>
      <trkpt lat="49.72055" lon="0.96605">
        <ele>128.62739562988</ele>
        <time>2016-08-11T16:26:12Z</time>
      </trkpt>
      <trkpt lat="49.72053" lon="0.96608">
        <ele>128.62739562988</ele>
        <time>2016-08-11T16:26:17Z</time>
      </trkpt>
      <trkpt lat="49.7204" lon="0.96607">
        <ele>128.10188293457</ele>
        <time>2016-08-11T16:26:27Z</time>
      </trkpt>
      <trkpt lat="49.72036" lon="0.96604">
        <ele>128.10188293457</ele>
        <time>2016-08-11T16:26:32Z</time>
      </trkpt>
      <trkpt lat="49.72027" lon="0.96604">
        <ele>128.00408935547</ele>
        <time>2016-08-11T16:26:42Z</time>
      </trkpt>
      <trkpt lat="49.72026" lon="0.96604">
        <ele>128.00408935547</ele>
        <time>2016-08-11T16:26:47Z</time>
      </trkpt>
      <trkpt lat="49.72017" lon="0.96605">
        <ele>128.14715576172</ele>
        <time>2016-08-11T16:26:57Z</time>
      </trkpt>
      <trkpt lat="49.72011" lon="0.96605">
        <ele>128.14715576172</ele>
        <time>2016-08-11T16:27:02Z</time>
      </trkpt>
      <trkpt lat="49.72001" lon="0.96605">
        <ele>127.88167572021</ele>
        <time>2016-08-11T16:27:12Z</time>
      </trkpt>
      <trkpt lat="49.71997" lon="0.96607">
        <ele>127.88167572021</ele>
        <time>2016-08-11T16:27:17Z</time>
      </trkpt>
      <trkpt lat="49.71987" lon="0.96605">
        <ele>127.73108673096</ele>
        <time>2016-08-11T16:27:27Z</time>
      </trkpt>
      <trkpt lat="49.71981" lon="0.96609">
        <ele>127.73108673096</ele>
        <time>2016-08-11T16:27:32Z</time>
      </trkpt>
      <trkpt lat="49.71973" lon="0.96608">
        <ele>127.24327850342</ele>
        <time>2016-08-11T16:27:42Z</time>
      </trkpt>
      <trkpt lat="49.71968" lon="0.9661">
        <ele>127.24327850342</ele>
        <time>2016-08-11T16:27:47Z</time>
      </trkpt>
      <trkpt lat="49.71953" lon="0.96609">
        <ele>127.02342224121</ele>
        <time>2016-08-11T16:28:02Z</time>
      </trkpt>
      <trkpt lat="49.71949" lon="0.96609">
        <ele>127.02342224121</ele>
        <time>2016-08-11T16:28:07Z</time>
      </trkpt>
      <trkpt lat="49.71937" lon="0.96615">
        <ele>127.01172637939</ele>
        <time>2016-08-11T16:28:17Z</time>
      </trkpt>
      <trkpt lat="49.71932" lon="0.96614">
        <ele>127.01172637939</ele>
        <time>2016-08-11T16:28:22Z</time>
      </trkpt>
      <trkpt lat="49.71923" lon="0.96619">
        <ele>127.18097686768</ele>
        <time>2016-08-11T16:28:32Z</time>
      </trkpt>
      <trkpt lat="49.71917" lon="0.96619">
        <ele>127.18097686768</ele>
        <time>2016-08-11T16:28:37Z</time>
      </trkpt>
      <trkpt lat="49.71905" lon="0.96624">
        <ele>127.46211242676</ele>
        <time>2016-08-11T16:28:47Z</time>
      </trkpt>
      <trkpt lat="49.71903" lon="0.96622">
        <ele>127.46211242676</ele>
        <time>2016-08-11T16:28:52Z</time>
      </trkpt>
      <trkpt lat="49.71903" lon="0.96622">
        <ele>127.46211242676</ele>
        <time>2016-08-11T16:29:02Z</time>
      </trkpt>
      <trkpt lat="49.71903" lon="0.96622">
        <ele>127.46211242676</ele>
        <time>2016-08-11T16:29:07Z</time>
      </trkpt>
      <trkpt lat="49.71902" lon="0.96622">
        <ele>127.46211242676</ele>
        <time>2016-08-11T16:29:17Z</time>
      </trkpt>
      <trkpt lat="49.71899" lon="0.9662">
        <ele>127.46211242676</ele>
        <time>2016-08-11T16:29:22Z</time>
      </trkpt>
      <trkpt lat="49.71892" lon="0.96628">
        <ele>128.17988586426</ele>
        <time>2016-08-11T16:29:32Z</time>
      </trkpt>
      <trkpt lat="49.7189" lon="0.96626">
        <ele>128.17988586426</ele>
        <time>2016-08-11T16:29:37Z</time>
      </trkpt>
      <trkpt lat="49.71884" lon="0.96633">
        <ele>128.32246398926</ele>
        <time>2016-08-11T16:29:47Z</time>
      </trkpt>
      <trkpt lat="49.7188" lon="0.96635">
        <ele>128.32246398926</ele>
        <time>2016-08-11T16:29:52Z</time>
      </trkpt>
      <trkpt lat="49.71873" lon="0.96636">
        <ele>128.35177612305</ele>
        <time>2016-08-11T16:30:02Z</time>
      </trkpt>
      <trkpt lat="49.71868" lon="0.96641">
        <ele>128.35177612305</ele>
        <time>2016-08-11T16:30:07Z</time>
      </trkpt>
      <trkpt lat="49.71851" lon="0.96656">
        <ele>128.85455322266</ele>
        <time>2016-08-11T16:30:22Z</time>
      </trkpt>
      <trkpt lat="49.71847" lon="0.96658">
        <ele>128.85455322266</ele>
        <time>2016-08-11T16:30:27Z</time>
      </trkpt>
      <trkpt lat="49.71844" lon="0.9666">
        <ele>128.85455322266</ele>
        <time>2016-08-11T16:30:37Z</time>
      </trkpt>
      <trkpt lat="49.71844" lon="0.96659">
        <ele>128.85455322266</ele>
        <time>2016-08-11T16:30:42Z</time>
      </trkpt>
      <trkpt lat="49.71844" lon="0.96659">
        <ele>128.88873291016</ele>
        <time>2016-08-11T16:30:47Z</time>
      </trkpt>
      <trkpt lat="49.71844" lon="0.96658">
        <ele>128.88873291016</ele>
        <time>2016-08-11T16:30:52Z</time>
      </trkpt>
      <trkpt lat="49.71844" lon="0.96658">
        <ele>128.88873291016</ele>
        <time>2016-08-11T16:30:57Z</time>
      </trkpt>
      <trkpt lat="49.71844" lon="0.96658">
        <ele>128.88873291016</ele>
        <time>2016-08-11T16:31:02Z</time>
      </trkpt>
      <trkpt lat="49.71844" lon="0.96658">
        <ele>128.88873291016</ele>
        <time>2016-08-11T16:31:07Z</time>
      </trkpt>
      <trkpt lat="49.71844" lon="0.96658">
        <ele>128.88873291016</ele>
        <time>2016-08-11T16:31:12Z</time>
      </trkpt>
      <trkpt lat="49.71844" lon="0.96658">
        <ele>128.88873291016</ele>
        <time>2016-08-11T16:31:17Z</time>
      </trkpt>
      <trkpt lat="49.71844" lon="0.96658">
        <ele>128.88873291016</ele>
        <time>2016-08-11T16:31:22Z</time>
      </trkpt>
      <trkpt lat="49.71844" lon="0.96658">
        <ele>128.88873291016</ele>
        <time>2016-08-11T16:31:27Z</time>
      </trkpt>
      <trkpt lat="49.71844" lon="0.96658">
        <ele>128.88873291016</ele>
        <time>2016-08-11T16:31:32Z</time>
      </trkpt>
      <trkpt lat="49.71844" lon="0.96658">
        <ele>128.88873291016</ele>
        <time>2016-08-11T16:31:37Z</time>
      </trkpt>
      <trkpt lat="49.71844" lon="0.96658">
        <ele>128.88873291016</ele>
        <time>2016-08-11T16:31:42Z</time>
      </trkpt>
      <trkpt lat="49.71844" lon="0.96658">
        <ele>128.88873291016</ele>
        <time>2016-08-11T16:31:47Z</time>
      </trkpt>
      <trkpt lat="49.71844" lon="0.96658">
        <ele>128.88873291016</ele>
        <time>2016-08-11T16:31:52Z</time>
      </trkpt>
      <trkpt lat="49.71844" lon="0.96658">
        <ele>128.88873291016</ele>
        <time>2016-08-11T16:32:02Z</time>
      </trkpt>
      <trkpt lat="49.71844" lon="0.96658">
        <ele>128.88873291016</ele>
        <time>2016-08-11T16:32:07Z</time>
      </trkpt>
      <trkpt lat="49.71844" lon="0.96658">
        <ele>128.88873291016</ele>
        <time>2016-08-11T16:32:12Z</time>
      </trkpt>
      <trkpt lat="49.71844" lon="0.96658">
        <ele>128.88873291016</ele>
        <time>2016-08-11T16:32:17Z</time>
      </trkpt>
      <trkpt lat="49.71849" lon="0.96656">
        <ele>128.88873291016</ele>
        <time>2016-08-11T16:32:27Z</time>
      </trkpt>
      <trkpt lat="49.71847" lon="0.96655">
        <ele>128.88873291016</ele>
        <time>2016-08-11T16:32:32Z</time>
      </trkpt>
      <trkpt lat="49.71846" lon="0.96655">
        <ele>129.4849395752</ele>
        <time>2016-08-11T16:32:42Z</time>
      </trkpt>
      <trkpt lat="49.71846" lon="0.96655">
        <ele>129.4849395752</ele>
        <time>2016-08-11T16:32:47Z</time>
      </trkpt>
      <trkpt lat="49.71842" lon="0.96653">
        <ele>129.4849395752</ele>
        <time>2016-08-11T16:33:02Z</time>
      </trkpt>
      <trkpt lat="49.71839" lon="0.96649">
        <ele>129.4849395752</ele>
        <time>2016-08-11T16:33:07Z</time>
      </trkpt>
      <trkpt lat="49.71833" lon="0.96644">
        <ele>129.95356750488</ele>
        <time>2016-08-11T16:33:17Z</time>
      </trkpt>
      <trkpt lat="49.71834" lon="0.96643">
        <ele>129.95356750488</ele>
        <time>2016-08-11T16:33:22Z</time>
      </trkpt>
      <trkpt lat="49.71836" lon="0.96637">
        <ele>129.95356750488</ele>
        <time>2016-08-11T16:33:32Z</time>
      </trkpt>
      <trkpt lat="49.71836" lon="0.96638">
        <ele>129.95356750488</ele>
        <time>2016-08-11T16:33:37Z</time>
      </trkpt>
      <trkpt lat="49.71834" lon="0.9663">
        <ele>130.29008483887</ele>
        <time>2016-08-11T16:33:47Z</time>
      </trkpt>
      <trkpt lat="49.71835" lon="0.9663">
        <ele>130.29008483887</ele>
        <time>2016-08-11T16:33:52Z</time>
      </trkpt>
      <trkpt lat="49.71834" lon="0.96631">
        <ele>130.29008483887</ele>
        <time>2016-08-11T16:34:02Z</time>
      </trkpt>
      <trkpt lat="49.71834" lon="0.96631">
        <ele>130.29008483887</ele>
        <time>2016-08-11T16:34:07Z</time>
      </trkpt>
      <trkpt lat="49.71834" lon="0.96631">
        <ele>130.29008483887</ele>
        <time>2016-08-11T16:34:17Z</time>
      </trkpt>
      <trkpt lat="49.71834" lon="0.96631">
        <ele>130.29008483887</ele>
        <time>2016-08-11T16:34:22Z</time>
      </trkpt>
      <trkpt lat="49.71834" lon="0.96631">
        <ele>130.29008483887</ele>
        <time>2016-08-11T16:34:37Z</time>
      </trkpt>
      <trkpt lat="49.71834" lon="0.96631">
        <ele>130.29008483887</ele>
        <time>2016-08-11T16:34:42Z</time>
      </trkpt>
      <trkpt lat="49.71834" lon="0.96631">
        <ele>130.29008483887</ele>
        <time>2016-08-11T16:34:52Z</time>
      </trkpt>
      <trkpt lat="49.71834" lon="0.96631">
        <ele>130.29008483887</ele>
        <time>2016-08-11T16:34:57Z</time>
      </trkpt>
      <trkpt lat="49.71834" lon="0.96631">
        <ele>130.29008483887</ele>
        <time>2016-08-11T16:35:07Z</time>
      </trkpt>
      <trkpt lat="49.71834" lon="0.96631">
        <ele>130.29008483887</ele>
        <time>2016-08-11T16:35:12Z</time>
      </trkpt>
      <trkpt lat="49.71834" lon="0.96631">
        <ele>130.29008483887</ele>
        <time>2016-08-11T16:35:22Z</time>
      </trkpt>
      <trkpt lat="49.71834" lon="0.96631">
        <ele>130.29008483887</ele>
        <time>2016-08-11T16:35:27Z</time>
      </trkpt>
      <trkpt lat="49.71834" lon="0.96631">
        <ele>130.29008483887</ele>
        <time>2016-08-11T16:35:37Z</time>
      </trkpt>
      <trkpt lat="49.71834" lon="0.96631">
        <ele>130.29008483887</ele>
        <time>2016-08-11T16:35:42Z</time>
      </trkpt>
      <trkpt lat="49.71834" lon="0.96631">
        <ele>130.29008483887</ele>
        <time>2016-08-11T16:35:52Z</time>
      </trkpt>
      <trkpt lat="49.71834" lon="0.96631">
        <ele>130.29008483887</ele>
        <time>2016-08-11T16:35:57Z</time>
      </trkpt>
      <trkpt lat="49.71834" lon="0.96631">
        <ele>130.29008483887</ele>
        <time>2016-08-11T16:36:12Z</time>
      </trkpt>
      <trkpt lat="49.71834" lon="0.96631">
        <ele>130.29008483887</ele>
        <time>2016-08-11T16:36:17Z</time>
      </trkpt>
      <trkpt lat="49.71834" lon="0.96631">
        <ele>130.29008483887</ele>
        <time>2016-08-11T16:36:27Z</time>
      </trkpt>
      <trkpt lat="49.71834" lon="0.96631">
        <ele>130.29008483887</ele>
        <time>2016-08-11T16:36:32Z</time>
      </trkpt>
      <trkpt lat="49.71834" lon="0.96631">
        <ele>130.29008483887</ele>
        <time>2016-08-11T16:36:42Z</time>
      </trkpt>
      <trkpt lat="49.71834" lon="0.96631">
        <ele>130.29008483887</ele>
        <time>2016-08-11T16:36:47Z</time>
      </trkpt>
      <trkpt lat="49.71834" lon="0.96631">
        <ele>130.29008483887</ele>
        <time>2016-08-11T16:36:57Z</time>
      </trkpt>
      <trkpt lat="49.71834" lon="0.96631">
        <ele>130.29008483887</ele>
        <time>2016-08-11T16:37:02Z</time>
      </trkpt>
      <trkpt lat="49.71834" lon="0.96631">
        <ele>130.29008483887</ele>
        <time>2016-08-11T16:37:12Z</time>
      </trkpt>
      <trkpt lat="49.71834" lon="0.96631">
        <ele>130.29008483887</ele>
        <time>2016-08-11T16:37:17Z</time>
      </trkpt>
      <trkpt lat="49.71834" lon="0.96631">
        <ele>130.29008483887</ele>
        <time>2016-08-11T16:37:27Z</time>
      </trkpt>
      <trkpt lat="49.71834" lon="0.96631">
        <ele>130.29008483887</ele>
        <time>2016-08-11T16:37:32Z</time>
      </trkpt>
      <trkpt lat="49.71834" lon="0.96631">
        <ele>130.29008483887</ele>
        <time>2016-08-11T16:37:42Z</time>
      </trkpt>
      <trkpt lat="49.71834" lon="0.96631">
        <ele>130.29008483887</ele>
        <time>2016-08-11T16:37:47Z</time>
      </trkpt>
      <trkpt lat="49.71834" lon="0.96631">
        <ele>130.29008483887</ele>
        <time>2016-08-11T16:37:57Z</time>
      </trkpt>
      <trkpt lat="49.71834" lon="0.96631">
        <ele>130.29008483887</ele>
        <time>2016-08-11T16:38:02Z</time>
      </trkpt>
      <trkpt lat="49.71834" lon="0.96631">
        <ele>130.29008483887</ele>
        <time>2016-08-11T16:38:12Z</time>
      </trkpt>
      <trkpt lat="49.71834" lon="0.96631">
        <ele>130.29008483887</ele>
        <time>2016-08-11T16:38:17Z</time>
      </trkpt>
      <trkpt lat="49.71834" lon="0.96631">
        <ele>130.29008483887</ele>
        <time>2016-08-11T16:38:27Z</time>
      </trkpt>
      <trkpt lat="49.71834" lon="0.96631">
        <ele>130.29008483887</ele>
        <time>2016-08-11T16:38:32Z</time>
      </trkpt>
      <trkpt lat="49.71835" lon="0.96632">
        <ele>130.29008483887</ele>
        <time>2016-08-11T16:38:47Z</time>
      </trkpt>
      <trkpt lat="49.71835" lon="0.96635">
        <ele>130.29008483887</ele>
        <time>2016-08-11T16:38:52Z</time>
      </trkpt>
      <trkpt lat="49.71825" lon="0.96638">
        <ele>130.00059509277</ele>
        <time>2016-08-11T16:39:02Z</time>
      </trkpt>
      <trkpt lat="49.7182" lon="0.96635">
        <ele>130.00059509277</ele>
        <time>2016-08-11T16:39:07Z</time>
      </trkpt>
      <trkpt lat="49.71811" lon="0.96627">
        <ele>129.17681884766</ele>
        <time>2016-08-11T16:39:17Z</time>
      </trkpt>
      <trkpt lat="49.71807" lon="0.96624">
        <ele>129.17681884766</ele>
        <time>2016-08-11T16:39:22Z</time>
      </trkpt>
      <trkpt lat="49.71794" lon="0.96617">
        <ele>127.9916305542</ele>
        <time>2016-08-11T16:39:32Z</time>
      </trkpt>
      <trkpt lat="49.71788" lon="0.96613">
        <ele>127.9916305542</ele>
        <time>2016-08-11T16:39:37Z</time>
      </trkpt>
      <trkpt lat="49.71775" lon="0.96606">
        <ele>127.0961227417</ele>
        <time>2016-08-11T16:39:47Z</time>
      </trkpt>
      <trkpt lat="49.71769" lon="0.96604">
        <ele>127.0961227417</ele>
        <time>2016-08-11T16:39:52Z</time>
      </trkpt>
      <trkpt lat="49.71759" lon="0.966">
        <ele>125.96862792969</ele>
        <time>2016-08-11T16:40:02Z</time>
      </trkpt>
      <trkpt lat="49.71754" lon="0.96599">
        <ele>125.96862792969</ele>
        <time>2016-08-11T16:40:07Z</time>
      </trkpt>
      <trkpt lat="49.71743" lon="0.96597">
        <ele>124.93334960938</ele>
        <time>2016-08-11T16:40:17Z</time>
      </trkpt>
      <trkpt lat="49.7174" lon="0.96596">
        <ele>124.93334960938</ele>
        <time>2016-08-11T16:40:22Z</time>
      </trkpt>
      <trkpt lat="49.71724" lon="0.96595">
        <ele>123.77156066895</ele>
        <time>2016-08-11T16:40:37Z</time>
      </trkpt>
      <trkpt lat="49.71718" lon="0.96597">
        <ele>123.77156066895</ele>
        <time>2016-08-11T16:40:42Z</time>
      </trkpt>
      <trkpt lat="49.71704" lon="0.96594">
        <ele>122.7131729126</ele>
        <time>2016-08-11T16:40:52Z</time>
      </trkpt>
      <trkpt lat="49.71698" lon="0.96593">
        <ele>122.7131729126</ele>
        <time>2016-08-11T16:40:57Z</time>
      </trkpt>
      <trkpt lat="49.71687" lon="0.96591">
        <ele>121.88436126709</ele>
        <time>2016-08-11T16:41:07Z</time>
      </trkpt>
      <trkpt lat="49.71681" lon="0.96589">
        <ele>121.88436126709</ele>
        <time>2016-08-11T16:41:12Z</time>
      </trkpt>
      <trkpt lat="49.71669" lon="0.9659">
        <ele>121.1418762207</ele>
        <time>2016-08-11T16:41:22Z</time>
      </trkpt>
      <trkpt lat="49.71664" lon="0.96585">
        <ele>121.1418762207</ele>
        <time>2016-08-11T16:41:27Z</time>
      </trkpt>
      <trkpt lat="49.71654" lon="0.96588">
        <ele>120.23735046387</ele>
        <time>2016-08-11T16:41:37Z</time>
      </trkpt>
      <trkpt lat="49.7165" lon="0.96587">
        <ele>120.23735046387</ele>
        <time>2016-08-11T16:41:42Z</time>
      </trkpt>
      <trkpt lat="49.71642" lon="0.96582">
        <ele>119.15717315674</ele>
        <time>2016-08-11T16:41:52Z</time>
      </trkpt>
      <trkpt lat="49.71639" lon="0.96582">
        <ele>119.15717315674</ele>
        <time>2016-08-11T16:41:57Z</time>
      </trkpt>
      <trkpt lat="49.71635" lon="0.96583">
        <ele>119.15717315674</ele>
        <time>2016-08-11T16:42:07Z</time>
      </trkpt>
      <trkpt lat="49.71632" lon="0.96581">
        <ele>118.22058105469</ele>
        <time>2016-08-11T16:42:12Z</time>
      </trkpt>
      <trkpt lat="49.71622" lon="0.96582">
        <ele>116.77169799805</ele>
        <time>2016-08-11T16:42:22Z</time>
      </trkpt>
      <trkpt lat="49.71617" lon="0.96582">
        <ele>116.77169799805</ele>
        <time>2016-08-11T16:42:27Z</time>
      </trkpt>
      <trkpt lat="49.71611" lon="0.96578">
        <ele>115.11203765869</ele>
        <time>2016-08-11T16:42:37Z</time>
      </trkpt>
      <trkpt lat="49.71606" lon="0.96579">
        <ele>115.11203765869</ele>
        <time>2016-08-11T16:42:42Z</time>
      </trkpt>
      <trkpt lat="49.71596" lon="0.96581">
        <ele>113.47821807861</ele>
        <time>2016-08-11T16:42:52Z</time>
      </trkpt>
      <trkpt lat="49.71591" lon="0.96578">
        <ele>113.47821807861</ele>
        <time>2016-08-11T16:42:57Z</time>
      </trkpt>
      <trkpt lat="49.71575" lon="0.9658">
        <ele>111.74341583252</ele>
        <time>2016-08-11T16:43:07Z</time>
      </trkpt>
      <trkpt lat="49.71571" lon="0.96583">
        <ele>111.74341583252</ele>
        <time>2016-08-11T16:43:12Z</time>
      </trkpt>
      <trkpt lat="49.71547" lon="0.96593">
        <ele>110.95755767822</ele>
        <time>2016-08-11T16:43:27Z</time>
      </trkpt>
      <trkpt lat="49.71543" lon="0.96591">
        <ele>110.95755767822</ele>
        <time>2016-08-11T16:43:32Z</time>
      </trkpt>
      <trkpt lat="49.71533" lon="0.96587">
        <ele>109.85693359375</ele>
        <time>2016-08-11T16:43:42Z</time>
      </trkpt>
      <trkpt lat="49.71529" lon="0.96584">
        <ele>109.85693359375</ele>
        <time>2016-08-11T16:43:47Z</time>
      </trkpt>
      <trkpt lat="49.71516" lon="0.96591">
        <ele>108.77019500732</ele>
        <time>2016-08-11T16:43:57Z</time>
      </trkpt>
      <trkpt lat="49.71508" lon="0.96593">
        <ele>108.77019500732</ele>
        <time>2016-08-11T16:44:02Z</time>
      </trkpt>
      <trkpt lat="49.71497" lon="0.96596">
        <ele>107.94400024414</ele>
        <time>2016-08-11T16:44:12Z</time>
      </trkpt>
      <trkpt lat="49.71492" lon="0.96597">
        <ele>107.94400024414</ele>
        <time>2016-08-11T16:44:17Z</time>
      </trkpt>
      <trkpt lat="49.71477" lon="0.96605">
        <ele>107.18812561035</ele>
        <time>2016-08-11T16:44:27Z</time>
      </trkpt>
      <trkpt lat="49.7147" lon="0.9661">
        <ele>107.18812561035</ele>
        <time>2016-08-11T16:44:32Z</time>
      </trkpt>
      <trkpt lat="49.71458" lon="0.96618">
        <ele>106.72953033447</ele>
        <time>2016-08-11T16:44:42Z</time>
      </trkpt>
      <trkpt lat="49.71453" lon="0.96615">
        <ele>106.72953033447</ele>
        <time>2016-08-11T16:44:47Z</time>
      </trkpt>
      <trkpt lat="49.71445" lon="0.96622">
        <ele>106.1866607666</ele>
        <time>2016-08-11T16:44:57Z</time>
      </trkpt>
      <trkpt lat="49.71441" lon="0.96627">
        <ele>106.1866607666</ele>
        <time>2016-08-11T16:45:02Z</time>
      </trkpt>
      <trkpt lat="49.71432" lon="0.96627">
        <ele>105.29259490967</ele>
        <time>2016-08-11T16:45:12Z</time>
      </trkpt>
      <trkpt lat="49.71426" lon="0.96633">
        <ele>105.29259490967</ele>
        <time>2016-08-11T16:45:17Z</time>
      </trkpt>
      <trkpt lat="49.71415" lon="0.96633">
        <ele>104.13236236572</ele>
        <time>2016-08-11T16:45:27Z</time>
      </trkpt>
      <trkpt lat="49.71409" lon="0.96636">
        <ele>104.13236236572</ele>
        <time>2016-08-11T16:45:32Z</time>
      </trkpt>
      <trkpt lat="49.71398" lon="0.96633">
        <ele>102.79978942871</ele>
        <time>2016-08-11T16:45:42Z</time>
      </trkpt>
      <trkpt lat="49.71392" lon="0.96636">
        <ele>102.79978942871</ele>
        <time>2016-08-11T16:45:47Z</time>
      </trkpt>
      <trkpt lat="49.71374" lon="0.96631">
        <ele>101.03632354736</ele>
        <time>2016-08-11T16:46:02Z</time>
      </trkpt>
      <trkpt lat="49.71368" lon="0.96627">
        <ele>101.03632354736</ele>
        <time>2016-08-11T16:46:07Z</time>
      </trkpt>
      <trkpt lat="49.71358" lon="0.96618">
        <ele>99.381713867188</ele>
        <time>2016-08-11T16:46:17Z</time>
      </trkpt>
      <trkpt lat="49.71352" lon="0.96616">
        <ele>99.381713867188</ele>
        <time>2016-08-11T16:46:22Z</time>
      </trkpt>
      <trkpt lat="49.71339" lon="0.9661">
        <ele>98.26358795166</ele>
        <time>2016-08-11T16:46:32Z</time>
      </trkpt>
      <trkpt lat="49.71333" lon="0.96609">
        <ele>98.26358795166</ele>
        <time>2016-08-11T16:46:37Z</time>
      </trkpt>
      <trkpt lat="49.7132" lon="0.96604">
        <ele>97.197486877441</ele>
        <time>2016-08-11T16:46:47Z</time>
      </trkpt>
      <trkpt lat="49.71313" lon="0.96603">
        <ele>97.197486877441</ele>
        <time>2016-08-11T16:46:52Z</time>
      </trkpt>
      <trkpt lat="49.71298" lon="0.96604">
        <ele>96.64217376709</ele>
        <time>2016-08-11T16:47:02Z</time>
      </trkpt>
      <trkpt lat="49.71292" lon="0.96598">
        <ele>96.64217376709</ele>
        <time>2016-08-11T16:47:07Z</time>
      </trkpt>
      <trkpt lat="49.71283" lon="0.96583">
        <ele>96.415939331055</ele>
        <time>2016-08-11T16:47:17Z</time>
      </trkpt>
      <trkpt lat="49.71277" lon="0.96582">
        <ele>96.415939331055</ele>
        <time>2016-08-11T16:47:22Z</time>
      </trkpt>
      <trkpt lat="49.71265" lon="0.96576">
        <ele>95.830589294434</ele>
        <time>2016-08-11T16:47:32Z</time>
      </trkpt>
      <trkpt lat="49.71259" lon="0.96572">
        <ele>95.830589294434</ele>
        <time>2016-08-11T16:47:37Z</time>
      </trkpt>
      <trkpt lat="49.71247" lon="0.96556">
        <ele>95.373474121094</ele>
        <time>2016-08-11T16:47:52Z</time>
      </trkpt>
      <trkpt lat="49.71241" lon="0.96552">
        <ele>95.373474121094</ele>
        <time>2016-08-11T16:47:57Z</time>
      </trkpt>
      <trkpt lat="49.71231" lon="0.96543">
        <ele>95.193077087402</ele>
        <time>2016-08-11T16:48:07Z</time>
      </trkpt>
      <trkpt lat="49.71231" lon="0.96543">
        <ele>95.193077087402</ele>
        <time>2016-08-11T16:48:12Z</time>
      </trkpt>
      <trkpt lat="49.71224" lon="0.96531">
        <ele>95.123519897461</ele>
        <time>2016-08-11T16:48:22Z</time>
      </trkpt>
      <trkpt lat="49.7122" lon="0.96525">
        <ele>95.123519897461</ele>
        <time>2016-08-11T16:48:27Z</time>
      </trkpt>
      <trkpt lat="49.71211" lon="0.96517">
        <ele>94.664840698242</ele>
        <time>2016-08-11T16:48:37Z</time>
      </trkpt>
      <trkpt lat="49.71209" lon="0.96513">
        <ele>94.664840698242</ele>
        <time>2016-08-11T16:48:42Z</time>
      </trkpt>
      <trkpt lat="49.71199" lon="0.965">
        <ele>94.13306427002</ele>
        <time>2016-08-11T16:48:52Z</time>
      </trkpt>
      <trkpt lat="49.71198" lon="0.96497">
        <ele>94.13306427002</ele>
        <time>2016-08-11T16:48:57Z</time>
      </trkpt>
      <trkpt lat="49.71194" lon="0.96494">
        <ele>94.13306427002</ele>
        <time>2016-08-11T16:49:07Z</time>
      </trkpt>
      <trkpt lat="49.7119" lon="0.96493">
        <ele>92.999725341797</ele>
        <time>2016-08-11T16:49:12Z</time>
      </trkpt>
      <trkpt lat="49.71178" lon="0.96485">
        <ele>91.655914306641</ele>
        <time>2016-08-11T16:49:22Z</time>
      </trkpt>
      <trkpt lat="49.71171" lon="0.96483">
        <ele>91.655914306641</ele>
        <time>2016-08-11T16:49:27Z</time>
      </trkpt>
      <trkpt lat="49.71156" lon="0.96481">
        <ele>91.718284606934</ele>
        <time>2016-08-11T16:49:37Z</time>
      </trkpt>
      <trkpt lat="49.71151" lon="0.96481">
        <ele>91.718284606934</ele>
        <time>2016-08-11T16:49:42Z</time>
      </trkpt>
      <trkpt lat="49.71141" lon="0.96481">
        <ele>92.18766784668</ele>
        <time>2016-08-11T16:49:52Z</time>
      </trkpt>
      <trkpt lat="49.71136" lon="0.96481">
        <ele>92.18766784668</ele>
        <time>2016-08-11T16:49:57Z</time>
      </trkpt>
      <trkpt lat="49.71119" lon="0.96484">
        <ele>92.727951049805</ele>
        <time>2016-08-11T16:50:12Z</time>
      </trkpt>
      <trkpt lat="49.71116" lon="0.96486">
        <ele>92.727951049805</ele>
        <time>2016-08-11T16:50:17Z</time>
      </trkpt>
      <trkpt lat="49.71105" lon="0.9649">
        <ele>93.575141906738</ele>
        <time>2016-08-11T16:50:27Z</time>
      </trkpt>
      <trkpt lat="49.71099" lon="0.9649">
        <ele>93.575141906738</ele>
        <time>2016-08-11T16:50:32Z</time>
      </trkpt>
      <trkpt lat="49.71089" lon="0.96485">
        <ele>94.817337036133</ele>
        <time>2016-08-11T16:50:42Z</time>
      </trkpt>
      <trkpt lat="49.71086" lon="0.96484">
        <ele>94.817337036133</ele>
        <time>2016-08-11T16:50:47Z</time>
      </trkpt>
      <trkpt lat="49.71079" lon="0.96492">
        <ele>96.434196472168</ele>
        <time>2016-08-11T16:50:57Z</time>
      </trkpt>
      <trkpt lat="49.71079" lon="0.96492">
        <ele>96.434196472168</ele>
        <time>2016-08-11T16:51:02Z</time>
      </trkpt>
      <trkpt lat="49.71079" lon="0.96491">
        <ele>96.434196472168</ele>
        <time>2016-08-11T16:51:12Z</time>
      </trkpt>
      <trkpt lat="49.71079" lon="0.9649">
        <ele>96.434196472168</ele>
        <time>2016-08-11T16:51:17Z</time>
      </trkpt>
      <trkpt lat="49.71078" lon="0.96489">
        <ele>96.434196472168</ele>
        <time>2016-08-11T16:51:27Z</time>
      </trkpt>
      <trkpt lat="49.71075" lon="0.96494">
        <ele>96.434196472168</ele>
        <time>2016-08-11T16:51:32Z</time>
      </trkpt>
      <trkpt lat="49.7107" lon="0.96511">
        <ele>98.059982299805</ele>
        <time>2016-08-11T16:51:42Z</time>
      </trkpt>
      <trkpt lat="49.71069" lon="0.9652">
        <ele>98.059982299805</ele>
        <time>2016-08-11T16:51:47Z</time>
      </trkpt>
      <trkpt lat="49.71065" lon="0.96536">
        <ele>100.01875305176</ele>
        <time>2016-08-11T16:51:57Z</time>
      </trkpt>
      <trkpt lat="49.71061" lon="0.96544">
        <ele>100.01875305176</ele>
        <time>2016-08-11T16:52:02Z</time>
      </trkpt>
      <trkpt lat="49.71054" lon="0.96559">
        <ele>102.17756652832</ele>
        <time>2016-08-11T16:52:12Z</time>
      </trkpt>
      <trkpt lat="49.71051" lon="0.96567">
        <ele>102.17756652832</ele>
        <time>2016-08-11T16:52:17Z</time>
      </trkpt>
      <trkpt lat="49.71043" lon="0.96584">
        <ele>104.74420928955</ele>
        <time>2016-08-11T16:52:32Z</time>
      </trkpt>
      <trkpt lat="49.7104" lon="0.96592">
        <ele>104.74420928955</ele>
        <time>2016-08-11T16:52:37Z</time>
      </trkpt>
      <trkpt lat="49.71035" lon="0.96606">
        <ele>107.50666046143</ele>
        <time>2016-08-11T16:52:47Z</time>
      </trkpt>
      <trkpt lat="49.71033" lon="0.96609">
        <ele>107.50666046143</ele>
        <time>2016-08-11T16:52:52Z</time>
      </trkpt>
      <trkpt lat="49.71025" lon="0.96621">
        <ele>110.29686737061</ele>
        <time>2016-08-11T16:53:02Z</time>
      </trkpt>
      <trkpt lat="49.71021" lon="0.96627">
        <ele>110.29686737061</ele>
        <time>2016-08-11T16:53:07Z</time>
      </trkpt>
      <trkpt lat="49.71015" lon="0.96638">
        <ele>112.90152740479</ele>
        <time>2016-08-11T16:53:17Z</time>
      </trkpt>
      <trkpt lat="49.71011" lon="0.9664">
        <ele>112.90152740479</ele>
        <time>2016-08-11T16:53:22Z</time>
      </trkpt>
      <trkpt lat="49.71007" lon="0.9665">
        <ele>114.97959136963</ele>
        <time>2016-08-11T16:53:32Z</time>
      </trkpt>
      <trkpt lat="49.71004" lon="0.96652">
        <ele>114.97959136963</ele>
        <time>2016-08-11T16:53:37Z</time>
      </trkpt>
      <trkpt lat="49.70994" lon="0.96646">
        <ele>117.08135223389</ele>
        <time>2016-08-11T16:53:47Z</time>
      </trkpt>
      <trkpt lat="49.70991" lon="0.96641">
        <ele>117.08135223389</ele>
        <time>2016-08-11T16:53:52Z</time>
      </trkpt>
      <trkpt lat="49.70982" lon="0.96631">
        <ele>119.08271026611</ele>
        <time>2016-08-11T16:54:02Z</time>
      </trkpt>
      <trkpt lat="49.70979" lon="0.96625">
        <ele>119.08271026611</ele>
        <time>2016-08-11T16:54:07Z</time>
      </trkpt>
      <trkpt lat="49.7097" lon="0.96604">
        <ele>120.62418365479</ele>
        <time>2016-08-11T16:54:22Z</time>
      </trkpt>
      <trkpt lat="49.70967" lon="0.96597">
        <ele>120.62418365479</ele>
        <time>2016-08-11T16:54:27Z</time>
      </trkpt>
      <trkpt lat="49.70958" lon="0.96584">
        <ele>121.66236114502</ele>
        <time>2016-08-11T16:54:37Z</time>
      </trkpt>
      <trkpt lat="49.70952" lon="0.9658">
        <ele>121.66236114502</ele>
        <time>2016-08-11T16:54:42Z</time>
      </trkpt>
      <trkpt lat="49.70942" lon="0.96572">
        <ele>122.50451660156</ele>
        <time>2016-08-11T16:54:52Z</time>
      </trkpt>
      <trkpt lat="49.70936" lon="0.96568">
        <ele>122.50451660156</ele>
        <time>2016-08-11T16:54:57Z</time>
      </trkpt>
      <trkpt lat="49.70925" lon="0.96566">
        <ele>123.13345336914</ele>
        <time>2016-08-11T16:55:07Z</time>
      </trkpt>
      <trkpt lat="49.70918" lon="0.96568">
        <ele>123.13345336914</ele>
        <time>2016-08-11T16:55:12Z</time>
      </trkpt>
      <trkpt lat="49.70907" lon="0.96577">
        <ele>123.96634674072</ele>
        <time>2016-08-11T16:55:22Z</time>
      </trkpt>
      <trkpt lat="49.70902" lon="0.9658">
        <ele>123.96634674072</ele>
        <time>2016-08-11T16:55:27Z</time>
      </trkpt>
      <trkpt lat="49.70892" lon="0.96591">
        <ele>124.63996124268</ele>
        <time>2016-08-11T16:55:37Z</time>
      </trkpt>
      <trkpt lat="49.70887" lon="0.96596">
        <ele>124.63996124268</ele>
        <time>2016-08-11T16:55:42Z</time>
      </trkpt>
      <trkpt lat="49.70878" lon="0.96605">
        <ele>125.04893493652</ele>
        <time>2016-08-11T16:55:52Z</time>
      </trkpt>
      <trkpt lat="49.70874" lon="0.96608">
        <ele>125.04893493652</ele>
        <time>2016-08-11T16:55:57Z</time>
      </trkpt>
      <trkpt lat="49.70863" lon="0.9662">
        <ele>125.51446533203</ele>
        <time>2016-08-11T16:56:07Z</time>
      </trkpt>
      <trkpt lat="49.70858" lon="0.96626">
        <ele>125.51446533203</ele>
        <time>2016-08-11T16:56:12Z</time>
      </trkpt>
      <trkpt lat="49.70842" lon="0.96642">
        <ele>126.1324005127</ele>
        <time>2016-08-11T16:56:27Z</time>
      </trkpt>
      <trkpt lat="49.70837" lon="0.9664">
        <ele>126.1324005127</ele>
        <time>2016-08-11T16:56:32Z</time>
      </trkpt>
      <trkpt lat="49.70827" lon="0.96639">
        <ele>126.18424224854</ele>
        <time>2016-08-11T16:56:42Z</time>
      </trkpt>
      <trkpt lat="49.70822" lon="0.96636">
        <ele>126.18424224854</ele>
        <time>2016-08-11T16:56:47Z</time>
      </trkpt>
      <trkpt lat="49.70811" lon="0.96632">
        <ele>125.84182739258</ele>
        <time>2016-08-11T16:56:57Z</time>
      </trkpt>
      <trkpt lat="49.70806" lon="0.96632">
        <ele>125.84182739258</ele>
        <time>2016-08-11T16:57:02Z</time>
      </trkpt>
      <trkpt lat="49.70795" lon="0.96628">
        <ele>124.91975402832</ele>
        <time>2016-08-11T16:57:12Z</time>
      </trkpt>
      <trkpt lat="49.7079" lon="0.96624">
        <ele>124.91975402832</ele>
        <time>2016-08-11T16:57:17Z</time>
      </trkpt>
      <trkpt lat="49.70782" lon="0.96625">
        <ele>123.40647125244</ele>
        <time>2016-08-11T16:57:27Z</time>
      </trkpt>
      <trkpt lat="49.70775" lon="0.96628">
        <ele>123.40647125244</ele>
        <time>2016-08-11T16:57:32Z</time>
      </trkpt>
      <trkpt lat="49.70763" lon="0.96636">
        <ele>121.49478912354</ele>
        <time>2016-08-11T16:57:42Z</time>
      </trkpt>
      <trkpt lat="49.70758" lon="0.9664">
        <ele>121.49478912354</ele>
        <time>2016-08-11T16:57:47Z</time>
      </trkpt>
      <trkpt lat="49.70749" lon="0.9664">
        <ele>119.56628417969</ele>
        <time>2016-08-11T16:57:57Z</time>
      </trkpt>
      <trkpt lat="49.7075" lon="0.96636">
        <ele>119.56628417969</ele>
        <time>2016-08-11T16:58:02Z</time>
      </trkpt>
      <trkpt lat="49.70751" lon="0.96633">
        <ele>119.56628417969</ele>
        <time>2016-08-11T16:58:12Z</time>
      </trkpt>
      <trkpt lat="49.70751" lon="0.96633">
        <ele>119.56628417969</ele>
        <time>2016-08-11T16:58:17Z</time>
      </trkpt>
      <trkpt lat="49.70751" lon="0.96633">
        <ele>119.56628417969</ele>
        <time>2016-08-11T16:58:32Z</time>
      </trkpt>
      <trkpt lat="49.70751" lon="0.96633">
        <ele>119.56628417969</ele>
        <time>2016-08-11T16:58:37Z</time>
      </trkpt>
      <trkpt lat="49.70753" lon="0.96634">
        <ele>119.56628417969</ele>
        <time>2016-08-11T16:58:47Z</time>
      </trkpt>
      <trkpt lat="49.70753" lon="0.96632">
        <ele>119.56628417969</ele>
        <time>2016-08-11T16:58:52Z</time>
      </trkpt>
      <trkpt lat="49.70753" lon="0.96633">
        <ele>118.27723693848</ele>
        <time>2016-08-11T16:59:02Z</time>
      </trkpt>
      <trkpt lat="49.70753" lon="0.96633">
        <ele>118.27723693848</ele>
        <time>2016-08-11T16:59:07Z</time>
      </trkpt>
      <trkpt lat="49.7074" lon="0.96637">
        <ele>116.49019622803</ele>
        <time>2016-08-11T16:59:17Z</time>
      </trkpt>
      <trkpt lat="49.70735" lon="0.96632">
        <ele>116.49019622803</ele>
        <time>2016-08-11T16:59:22Z</time>
      </trkpt>
      <trkpt lat="49.70734" lon="0.96614">
        <ele>113.90204620361</ele>
        <time>2016-08-11T16:59:32Z</time>
      </trkpt>
      <trkpt lat="49.70734" lon="0.96604">
        <ele>113.90204620361</ele>
        <time>2016-08-11T16:59:37Z</time>
      </trkpt>
      <trkpt lat="49.70733" lon="0.96586">
        <ele>111.14206695557</ele>
        <time>2016-08-11T16:59:47Z</time>
      </trkpt>
      <trkpt lat="49.70731" lon="0.96578">
        <ele>111.14206695557</ele>
        <time>2016-08-11T16:59:52Z</time>
      </trkpt>
      <trkpt lat="49.70729" lon="0.96555">
        <ele>108.27495574951</ele>
        <time>2016-08-11T17:00:02Z</time>
      </trkpt>
      <trkpt lat="49.70729" lon="0.96549">
        <ele>108.27495574951</ele>
        <time>2016-08-11T17:00:07Z</time>
      </trkpt>
      <trkpt lat="49.70729" lon="0.96527">
        <ele>105.21676635742</ele>
        <time>2016-08-11T17:00:17Z</time>
      </trkpt>
      <trkpt lat="49.70727" lon="0.96517">
        <ele>105.21676635742</ele>
        <time>2016-08-11T17:00:22Z</time>
      </trkpt>
      <trkpt lat="49.70727" lon="0.965">
        <ele>102.23606872559</ele>
        <time>2016-08-11T17:00:32Z</time>
      </trkpt>
      <trkpt lat="49.70726" lon="0.96492">
        <ele>102.23606872559</ele>
        <time>2016-08-11T17:00:37Z</time>
      </trkpt>
      <trkpt lat="49.70731" lon="0.96471">
        <ele>99.293128967285</ele>
        <time>2016-08-11T17:00:52Z</time>
      </trkpt>
      <trkpt lat="49.70729" lon="0.96471">
        <ele>99.293128967285</ele>
        <time>2016-08-11T17:00:57Z</time>
      </trkpt>
      <trkpt lat="49.70719" lon="0.96459">
        <ele>96.048278808594</ele>
        <time>2016-08-11T17:01:07Z</time>
      </trkpt>
      <trkpt lat="49.70716" lon="0.96448">
        <ele>96.048278808594</ele>
        <time>2016-08-11T17:01:12Z</time>
      </trkpt>
      <trkpt lat="49.70709" lon="0.96439">
        <ele>92.922462463379</ele>
        <time>2016-08-11T17:01:22Z</time>
      </trkpt>
      <trkpt lat="49.70708" lon="0.96432">
        <ele>92.922462463379</ele>
        <time>2016-08-11T17:01:27Z</time>
      </trkpt>
      <trkpt lat="49.70695" lon="0.96433">
        <ele>90.103462219238</ele>
        <time>2016-08-11T17:01:37Z</time>
      </trkpt>
      <trkpt lat="49.7069" lon="0.96435">
        <ele>90.103462219238</ele>
        <time>2016-08-11T17:01:42Z</time>
      </trkpt>
      <trkpt lat="49.70676" lon="0.9644">
        <ele>88.196563720703</ele>
        <time>2016-08-11T17:01:52Z</time>
      </trkpt>
      <trkpt lat="49.7067" lon="0.96443">
        <ele>88.196563720703</ele>
        <time>2016-08-11T17:01:57Z</time>
      </trkpt>
      <trkpt lat="49.70662" lon="0.96449">
        <ele>86.390769958496</ele>
        <time>2016-08-11T17:02:12Z</time>
      </trkpt>
      <trkpt lat="49.70659" lon="0.96452">
        <ele>86.390769958496</ele>
        <time>2016-08-11T17:02:17Z</time>
      </trkpt>
      <trkpt lat="49.70651" lon="0.9646">
        <ele>84.942985534668</ele>
        <time>2016-08-11T17:02:27Z</time>
      </trkpt>
      <trkpt lat="49.70645" lon="0.96463">
        <ele>84.942985534668</ele>
        <time>2016-08-11T17:02:32Z</time>
      </trkpt>
      <trkpt lat="49.70637" lon="0.96475">
        <ele>83.787406921387</ele>
        <time>2016-08-11T17:02:42Z</time>
      </trkpt>
      <trkpt lat="49.70632" lon="0.96479">
        <ele>83.787406921387</ele>
        <time>2016-08-11T17:02:47Z</time>
      </trkpt>
      <trkpt lat="49.70621" lon="0.96488">
        <ele>83.769973754883</ele>
        <time>2016-08-11T17:02:57Z</time>
      </trkpt>
      <trkpt lat="49.70615" lon="0.96494">
        <ele>83.769973754883</ele>
        <time>2016-08-11T17:03:02Z</time>
      </trkpt>
      <trkpt lat="49.70608" lon="0.96506">
        <ele>83.206787109375</ele>
        <time>2016-08-11T17:03:12Z</time>
      </trkpt>
      <trkpt lat="49.70609" lon="0.96512">
        <ele>83.206787109375</ele>
        <time>2016-08-11T17:03:17Z</time>
      </trkpt>
      <trkpt lat="49.706" lon="0.96529">
        <ele>82.138664245605</ele>
        <time>2016-08-11T17:03:27Z</time>
      </trkpt>
      <trkpt lat="49.70595" lon="0.96539">
        <ele>82.138664245605</ele>
        <time>2016-08-11T17:03:32Z</time>
      </trkpt>
      <trkpt lat="49.70591" lon="0.96557">
        <ele>81.411689758301</ele>
        <time>2016-08-11T17:03:42Z</time>
      </trkpt>
      <trkpt lat="49.70593" lon="0.96565">
        <ele>81.411689758301</ele>
        <time>2016-08-11T17:03:47Z</time>
      </trkpt>
      <trkpt lat="49.70591" lon="0.96583">
        <ele>81.650184631348</ele>
        <time>2016-08-11T17:03:57Z</time>
      </trkpt>
      <trkpt lat="49.70589" lon="0.96591">
        <ele>81.650184631348</ele>
        <time>2016-08-11T17:04:02Z</time>
      </trkpt>
      <trkpt lat="49.70586" lon="0.96608">
        <ele>81.671585083008</ele>
        <time>2016-08-11T17:04:12Z</time>
      </trkpt>
      <trkpt lat="49.70586" lon="0.96615">
        <ele>81.671585083008</ele>
        <time>2016-08-11T17:04:17Z</time>
      </trkpt>
      <trkpt lat="49.70586" lon="0.96626">
        <ele>81.375061035156</ele>
        <time>2016-08-11T17:04:27Z</time>
      </trkpt>
      <trkpt lat="49.70587" lon="0.9663">
        <ele>81.375061035156</ele>
        <time>2016-08-11T17:04:32Z</time>
      </trkpt>
      <trkpt lat="49.70588" lon="0.9663">
        <ele>81.375061035156</ele>
        <time>2016-08-11T17:04:47Z</time>
      </trkpt>
      <trkpt lat="49.70588" lon="0.9663">
        <ele>81.375061035156</ele>
        <time>2016-08-11T17:04:52Z</time>
      </trkpt>
      <trkpt lat="49.70588" lon="0.9663">
        <ele>81.375061035156</ele>
        <time>2016-08-11T17:04:57Z</time>
      </trkpt>
      <trkpt lat="49.70591" lon="0.96632">
        <ele>81.375061035156</ele>
        <time>2016-08-11T17:05:02Z</time>
      </trkpt>
      <trkpt lat="49.7059" lon="0.96632">
        <ele>81.375061035156</ele>
        <time>2016-08-11T17:05:07Z</time>
      </trkpt>
      <trkpt lat="49.7059" lon="0.96632">
        <ele>81.375061035156</ele>
        <time>2016-08-11T17:05:12Z</time>
      </trkpt>
      <trkpt lat="49.7059" lon="0.96632">
        <ele>81.375061035156</ele>
        <time>2016-08-11T17:05:17Z</time>
      </trkpt>
      <trkpt lat="49.7059" lon="0.96632">
        <ele>81.375061035156</ele>
        <time>2016-08-11T17:05:22Z</time>
      </trkpt>
      <trkpt lat="49.7059" lon="0.96632">
        <ele>81.375061035156</ele>
        <time>2016-08-11T17:05:27Z</time>
      </trkpt>
    </trkseg>
  </trk>
</gpx>